<?xml version="1.0" encoding="UTF-8" standalone="no" ?>
<gpx xmlns="http://www.topografix.com/GPX/1/1" xmlns:xsi="http://www.w3.org/2001/XMLSchema-instance" xsi:schemaLocation="http://www.topografix.com/GPX/1/1 http://www.topografix.com/GPX/1/1/gpx.xsd" version="1.1" creator="VisuGPX - https://www.visugpx.com">
  <metadata>
    <name>20-02-14 Le Grand Galbert depuis le parking Les Terres Froides</name>
    <desc><![CDATA[Court portage jusqu'à la première passerelle, la neige était dure/glacée sur le plateau. Une bonne descente avec quelques plaques de verglas depuis le Grand Galbert et un super couloir menant jusqu'au refuge du Taillefer (suivre le chemin de rando été). Remettre les peaux pour atteindre la piste forestière au pieds du pic Les Rochères, puis il reste une descente en ski jusqu'à la passerelle du début.]]></desc>
  </metadata>
  <trk>
    <name><![CDATA[20-02-14 Le Grand Galbert en ski]]></name>
    <desc><![CDATA[]]></desc>
    <trkseg>
      <trkpt lat="45.05549" lon="5.9743">
        <ele>1450</ele>
        <time>2020-02-14T07:53:36.505Z</time>
      </trkpt>
      <trkpt lat="45.05555" lon="5.9743">
        <ele>1451</ele>
        <time>2020-02-14T07:53:39.987Z</time>
      </trkpt>
      <trkpt lat="45.05562" lon="5.9743">
        <ele>1452</ele>
        <time>2020-02-14T07:53:47.000Z</time>
      </trkpt>
      <trkpt lat="45.05572" lon="5.97431">
        <ele>1453</ele>
        <time>2020-02-14T07:53:53.926Z</time>
      </trkpt>
      <trkpt lat="45.05577" lon="5.97432">
        <ele>1453</ele>
        <time>2020-02-14T07:53:57.409Z</time>
      </trkpt>
      <trkpt lat="45.05584" lon="5.97428">
        <ele>1452</ele>
        <time>2020-02-14T07:54:04.000Z</time>
      </trkpt>
      <trkpt lat="45.05592" lon="5.97425">
        <ele>1452</ele>
        <time>2020-02-14T07:54:10.291Z</time>
      </trkpt>
      <trkpt lat="45.05599" lon="5.97422">
        <ele>1455</ele>
        <time>2020-02-14T07:54:17.000Z</time>
      </trkpt>
      <trkpt lat="45.05607" lon="5.97421">
        <ele>1456</ele>
        <time>2020-02-14T07:54:23.733Z</time>
      </trkpt>
      <trkpt lat="45.05614" lon="5.9742">
        <ele>1457</ele>
        <time>2020-02-14T07:54:30.000Z</time>
      </trkpt>
      <trkpt lat="45.05623" lon="5.9742">
        <ele>1457</ele>
        <time>2020-02-14T07:54:36.647Z</time>
      </trkpt>
      <trkpt lat="45.0563" lon="5.97421">
        <ele>1460</ele>
        <time>2020-02-14T07:54:43.214Z</time>
      </trkpt>
      <trkpt lat="45.05635" lon="5.97421">
        <ele>1461</ele>
        <time>2020-02-14T07:54:49.708Z</time>
      </trkpt>
      <trkpt lat="45.05641" lon="5.97424">
        <ele>1460</ele>
        <time>2020-02-14T07:54:56.210Z</time>
      </trkpt>
      <trkpt lat="45.05649" lon="5.97425">
        <ele>1459</ele>
        <time>2020-02-14T07:55:02.971Z</time>
      </trkpt>
      <trkpt lat="45.05656" lon="5.97428">
        <ele>1460</ele>
        <time>2020-02-14T07:55:10.000Z</time>
      </trkpt>
      <trkpt lat="45.05664" lon="5.9743">
        <ele>1461</ele>
        <time>2020-02-14T07:55:16.837Z</time>
      </trkpt>
      <trkpt lat="45.0567" lon="5.97432">
        <ele>1461</ele>
        <time>2020-02-14T07:55:23.499Z</time>
      </trkpt>
      <trkpt lat="45.05677" lon="5.97437">
        <ele>1463</ele>
        <time>2020-02-14T07:55:30.072Z</time>
      </trkpt>
      <trkpt lat="45.05684" lon="5.97443">
        <ele>1463</ele>
        <time>2020-02-14T07:55:36.920Z</time>
      </trkpt>
      <trkpt lat="45.05688" lon="5.97445">
        <ele>1464</ele>
        <time>2020-02-14T07:55:40.004Z</time>
      </trkpt>
      <trkpt lat="45.05698" lon="5.97445">
        <ele>1463</ele>
        <time>2020-02-14T07:55:46.699Z</time>
      </trkpt>
      <trkpt lat="45.05704" lon="5.97444">
        <ele>1464</ele>
        <time>2020-02-14T07:55:54.000Z</time>
      </trkpt>
      <trkpt lat="45.05712" lon="5.97446">
        <ele>1467</ele>
        <time>2020-02-14T07:56:00.984Z</time>
      </trkpt>
      <trkpt lat="45.05719" lon="5.97447">
        <ele>1468</ele>
        <time>2020-02-14T07:56:09.000Z</time>
      </trkpt>
      <trkpt lat="45.05729" lon="5.97444">
        <ele>1468</ele>
        <time>2020-02-14T07:56:15.758Z</time>
      </trkpt>
      <trkpt lat="45.05734" lon="5.97438">
        <ele>1468</ele>
        <time>2020-02-14T07:56:22.123Z</time>
      </trkpt>
      <trkpt lat="45.0574" lon="5.97437">
        <ele>1467</ele>
        <time>2020-02-14T07:56:28.796Z</time>
      </trkpt>
      <trkpt lat="45.05748" lon="5.97437">
        <ele>1467</ele>
        <time>2020-02-14T07:56:35.625Z</time>
      </trkpt>
      <trkpt lat="45.05756" lon="5.97438">
        <ele>1469</ele>
        <time>2020-02-14T07:56:43.000Z</time>
      </trkpt>
      <trkpt lat="45.0576" lon="5.97437">
        <ele>1469</ele>
        <time>2020-02-14T07:56:45.719Z</time>
      </trkpt>
      <trkpt lat="45.05767" lon="5.97435">
        <ele>1470</ele>
        <time>2020-02-14T07:56:52.316Z</time>
      </trkpt>
      <trkpt lat="45.05772" lon="5.97434">
        <ele>1472</ele>
        <time>2020-02-14T07:56:56.237Z</time>
      </trkpt>
      <trkpt lat="45.05779" lon="5.97434">
        <ele>1472</ele>
        <time>2020-02-14T07:57:03.000Z</time>
      </trkpt>
      <trkpt lat="45.05787" lon="5.97432">
        <ele>1472</ele>
        <time>2020-02-14T07:57:08.920Z</time>
      </trkpt>
      <trkpt lat="45.05796" lon="5.97433">
        <ele>1472</ele>
        <time>2020-02-14T07:57:15.215Z</time>
      </trkpt>
      <trkpt lat="45.05802" lon="5.97434">
        <ele>1474</ele>
        <time>2020-02-14T07:57:21.675Z</time>
      </trkpt>
      <trkpt lat="45.0581" lon="5.97434">
        <ele>1474</ele>
        <time>2020-02-14T07:57:29.000Z</time>
      </trkpt>
      <trkpt lat="45.05818" lon="5.97433">
        <ele>1474</ele>
        <time>2020-02-14T07:57:35.032Z</time>
      </trkpt>
      <trkpt lat="45.05825" lon="5.9743">
        <ele>1476</ele>
        <time>2020-02-14T07:57:41.340Z</time>
      </trkpt>
      <trkpt lat="45.05831" lon="5.97426">
        <ele>1478</ele>
        <time>2020-02-14T07:57:47.779Z</time>
      </trkpt>
      <trkpt lat="45.05835" lon="5.97421">
        <ele>1479</ele>
        <time>2020-02-14T07:57:54.194Z</time>
      </trkpt>
      <trkpt lat="45.05839" lon="5.97413">
        <ele>1481</ele>
        <time>2020-02-14T07:58:01.000Z</time>
      </trkpt>
      <trkpt lat="45.05842" lon="5.97405">
        <ele>1481</ele>
        <time>2020-02-14T07:58:07.000Z</time>
      </trkpt>
      <trkpt lat="45.05842" lon="5.97394">
        <ele>1480</ele>
        <time>2020-02-14T07:58:13.158Z</time>
      </trkpt>
      <trkpt lat="45.05842" lon="5.97383">
        <ele>1479</ele>
        <time>2020-02-14T07:58:20.000Z</time>
      </trkpt>
      <trkpt lat="45.05842" lon="5.97373">
        <ele>1480</ele>
        <time>2020-02-14T07:58:25.902Z</time>
      </trkpt>
      <trkpt lat="45.05842" lon="5.97364">
        <ele>1481</ele>
        <time>2020-02-14T07:58:32.218Z</time>
      </trkpt>
      <trkpt lat="45.05841" lon="5.97355">
        <ele>1483</ele>
        <time>2020-02-14T07:58:39.000Z</time>
      </trkpt>
      <trkpt lat="45.0584" lon="5.97345">
        <ele>1483</ele>
        <time>2020-02-14T07:58:45.191Z</time>
      </trkpt>
      <trkpt lat="45.05839" lon="5.97334">
        <ele>1484</ele>
        <time>2020-02-14T07:58:52.000Z</time>
      </trkpt>
      <trkpt lat="45.05835" lon="5.97325">
        <ele>1485</ele>
        <time>2020-02-14T07:58:59.357Z</time>
      </trkpt>
      <trkpt lat="45.05829" lon="5.97318">
        <ele>1486</ele>
        <time>2020-02-14T07:59:06.314Z</time>
      </trkpt>
      <trkpt lat="45.05823" lon="5.97313">
        <ele>1487</ele>
        <time>2020-02-14T07:59:13.434Z</time>
      </trkpt>
      <trkpt lat="45.05818" lon="5.97308">
        <ele>1488</ele>
        <time>2020-02-14T07:59:20.000Z</time>
      </trkpt>
      <trkpt lat="45.05813" lon="5.97301">
        <ele>1490</ele>
        <time>2020-02-14T07:59:26.199Z</time>
      </trkpt>
      <trkpt lat="45.05807" lon="5.97293">
        <ele>1491</ele>
        <time>2020-02-14T07:59:33.312Z</time>
      </trkpt>
      <trkpt lat="45.05802" lon="5.97287">
        <ele>1491</ele>
        <time>2020-02-14T07:59:39.478Z</time>
      </trkpt>
      <trkpt lat="45.05797" lon="5.97279">
        <ele>1491</ele>
        <time>2020-02-14T07:59:45.857Z</time>
      </trkpt>
      <trkpt lat="45.05794" lon="5.97271">
        <ele>1491</ele>
        <time>2020-02-14T07:59:53.000Z</time>
      </trkpt>
      <trkpt lat="45.05792" lon="5.97261">
        <ele>1492</ele>
        <time>2020-02-14T07:59:58.478Z</time>
      </trkpt>
      <trkpt lat="45.05792" lon="5.97254">
        <ele>1491</ele>
        <time>2020-02-14T08:00:02.120Z</time>
      </trkpt>
      <trkpt lat="45.05793" lon="5.97248">
        <ele>1493</ele>
        <time>2020-02-14T08:00:06.000Z</time>
      </trkpt>
      <trkpt lat="45.05796" lon="5.97238">
        <ele>1494</ele>
        <time>2020-02-14T08:00:11.984Z</time>
      </trkpt>
      <trkpt lat="45.05802" lon="5.97229">
        <ele>1494</ele>
        <time>2020-02-14T08:00:18.212Z</time>
      </trkpt>
      <trkpt lat="45.05806" lon="5.97223">
        <ele>1495</ele>
        <time>2020-02-14T08:00:24.750Z</time>
      </trkpt>
      <trkpt lat="45.05808" lon="5.97213">
        <ele>1497</ele>
        <time>2020-02-14T08:00:31.438Z</time>
      </trkpt>
      <trkpt lat="45.05808" lon="5.97201">
        <ele>1497</ele>
        <time>2020-02-14T08:00:39.356Z</time>
      </trkpt>
      <trkpt lat="45.05808" lon="5.97194">
        <ele>1498</ele>
        <time>2020-02-14T08:00:46.000Z</time>
      </trkpt>
      <trkpt lat="45.05804" lon="5.97186">
        <ele>1498</ele>
        <time>2020-02-14T08:00:51.898Z</time>
      </trkpt>
      <trkpt lat="45.058" lon="5.97181">
        <ele>1499</ele>
        <time>2020-02-14T08:00:56.000Z</time>
      </trkpt>
      <trkpt lat="45.05793" lon="5.97174">
        <ele>1501</ele>
        <time>2020-02-14T08:01:01.990Z</time>
      </trkpt>
      <trkpt lat="45.05786" lon="5.97168">
        <ele>1502</ele>
        <time>2020-02-14T08:01:09.000Z</time>
      </trkpt>
      <trkpt lat="45.0578" lon="5.97162">
        <ele>1503</ele>
        <time>2020-02-14T08:01:16.000Z</time>
      </trkpt>
      <trkpt lat="45.05777" lon="5.97157">
        <ele>1504</ele>
        <time>2020-02-14T08:01:19.084Z</time>
      </trkpt>
      <trkpt lat="45.05773" lon="5.97149">
        <ele>1505</ele>
        <time>2020-02-14T08:01:25.492Z</time>
      </trkpt>
      <trkpt lat="45.0577" lon="5.9714">
        <ele>1506</ele>
        <time>2020-02-14T08:01:31.982Z</time>
      </trkpt>
      <trkpt lat="45.05766" lon="5.97129">
        <ele>1507</ele>
        <time>2020-02-14T08:01:40.000Z</time>
      </trkpt>
      <trkpt lat="45.05762" lon="5.9712">
        <ele>1507</ele>
        <time>2020-02-14T08:01:46.003Z</time>
      </trkpt>
      <trkpt lat="45.05758" lon="5.97112">
        <ele>1508</ele>
        <time>2020-02-14T08:01:53.000Z</time>
      </trkpt>
      <trkpt lat="45.05754" lon="5.97107">
        <ele>1508</ele>
        <time>2020-02-14T08:01:55.681Z</time>
      </trkpt>
      <trkpt lat="45.0575" lon="5.971">
        <ele>1508</ele>
        <time>2020-02-14T08:02:02.919Z</time>
      </trkpt>
      <trkpt lat="45.05746" lon="5.97093">
        <ele>1508</ele>
        <time>2020-02-14T08:02:10.000Z</time>
      </trkpt>
      <trkpt lat="45.05742" lon="5.97084">
        <ele>1509</ele>
        <time>2020-02-14T08:02:15.898Z</time>
      </trkpt>
      <trkpt lat="45.05739" lon="5.97077">
        <ele>1511</ele>
        <time>2020-02-14T08:02:22.125Z</time>
      </trkpt>
      <trkpt lat="45.05736" lon="5.97067">
        <ele>1513</ele>
        <time>2020-02-14T08:02:28.631Z</time>
      </trkpt>
      <trkpt lat="45.05734" lon="5.97061">
        <ele>1513</ele>
        <time>2020-02-14T08:02:32.149Z</time>
      </trkpt>
      <trkpt lat="45.05731" lon="5.9705">
        <ele>1514</ele>
        <time>2020-02-14T08:02:38.756Z</time>
      </trkpt>
      <trkpt lat="45.05727" lon="5.97042">
        <ele>1515</ele>
        <time>2020-02-14T08:02:46.000Z</time>
      </trkpt>
      <trkpt lat="45.05723" lon="5.97035">
        <ele>1515</ele>
        <time>2020-02-14T08:02:51.420Z</time>
      </trkpt>
      <trkpt lat="45.05718" lon="5.97029">
        <ele>1515</ele>
        <time>2020-02-14T08:02:58.050Z</time>
      </trkpt>
      <trkpt lat="45.05714" lon="5.97024">
        <ele>1516</ele>
        <time>2020-02-14T08:03:04.378Z</time>
      </trkpt>
      <trkpt lat="45.05709" lon="5.97018">
        <ele>1516</ele>
        <time>2020-02-14T08:03:11.233Z</time>
      </trkpt>
      <trkpt lat="45.05704" lon="5.97012">
        <ele>1517</ele>
        <time>2020-02-14T08:03:18.000Z</time>
      </trkpt>
      <trkpt lat="45.057" lon="5.97003">
        <ele>1519</ele>
        <time>2020-02-14T08:03:24.295Z</time>
      </trkpt>
      <trkpt lat="45.05696" lon="5.96995">
        <ele>1519</ele>
        <time>2020-02-14T08:03:31.000Z</time>
      </trkpt>
      <trkpt lat="45.05692" lon="5.96987">
        <ele>1520</ele>
        <time>2020-02-14T08:03:36.940Z</time>
      </trkpt>
      <trkpt lat="45.05689" lon="5.96978">
        <ele>1521</ele>
        <time>2020-02-14T08:03:43.393Z</time>
      </trkpt>
      <trkpt lat="45.05688" lon="5.96967">
        <ele>1523</ele>
        <time>2020-02-14T08:03:49.813Z</time>
      </trkpt>
      <trkpt lat="45.05689" lon="5.96957">
        <ele>1523</ele>
        <time>2020-02-14T08:03:56.268Z</time>
      </trkpt>
      <trkpt lat="45.05693" lon="5.96948">
        <ele>1523</ele>
        <time>2020-02-14T08:04:03.000Z</time>
      </trkpt>
      <trkpt lat="45.05697" lon="5.9694">
        <ele>1523</ele>
        <time>2020-02-14T08:04:09.013Z</time>
      </trkpt>
      <trkpt lat="45.057" lon="5.96935">
        <ele>1523</ele>
        <time>2020-02-14T08:04:20.000Z</time>
      </trkpt>
      <trkpt lat="45.05705" lon="5.96927">
        <ele>1522</ele>
        <time>2020-02-14T08:04:26.114Z</time>
      </trkpt>
      <trkpt lat="45.0571" lon="5.96922">
        <ele>1523</ele>
        <time>2020-02-14T08:04:32.373Z</time>
      </trkpt>
      <trkpt lat="45.05716" lon="5.96918">
        <ele>1523</ele>
        <time>2020-02-14T08:04:39.107Z</time>
      </trkpt>
      <trkpt lat="45.05721" lon="5.96913">
        <ele>1522</ele>
        <time>2020-02-14T08:04:45.258Z</time>
      </trkpt>
      <trkpt lat="45.05727" lon="5.96906">
        <ele>1523</ele>
        <time>2020-02-14T08:04:51.335Z</time>
      </trkpt>
      <trkpt lat="45.05732" lon="5.969">
        <ele>1523</ele>
        <time>2020-02-14T08:04:57.432Z</time>
      </trkpt>
      <trkpt lat="45.05738" lon="5.96895">
        <ele>1525</ele>
        <time>2020-02-14T08:05:04.000Z</time>
      </trkpt>
      <trkpt lat="45.05745" lon="5.96891">
        <ele>1526</ele>
        <time>2020-02-14T08:05:10.976Z</time>
      </trkpt>
      <trkpt lat="45.05752" lon="5.96886">
        <ele>1527</ele>
        <time>2020-02-14T08:05:17.447Z</time>
      </trkpt>
      <trkpt lat="45.05754" lon="5.96881">
        <ele>1529</ele>
        <time>2020-02-14T08:05:25.000Z</time>
      </trkpt>
      <trkpt lat="45.0576" lon="5.96878">
        <ele>1529</ele>
        <time>2020-02-14T08:05:41.000Z</time>
      </trkpt>
      <trkpt lat="45.05764" lon="5.96874">
        <ele>1531</ele>
        <time>2020-02-14T08:05:48.000Z</time>
      </trkpt>
      <trkpt lat="45.05764" lon="5.96866">
        <ele>1533</ele>
        <time>2020-02-14T08:05:58.577Z</time>
      </trkpt>
      <trkpt lat="45.05765" lon="5.96859">
        <ele>1531</ele>
        <time>2020-02-14T08:06:11.729Z</time>
      </trkpt>
      <trkpt lat="45.05765" lon="5.96853">
        <ele>1534</ele>
        <time>2020-02-14T08:06:25.807Z</time>
      </trkpt>
      <trkpt lat="45.05764" lon="5.96846">
        <ele>1532</ele>
        <time>2020-02-14T08:06:33.000Z</time>
      </trkpt>
      <trkpt lat="45.0576" lon="5.9684">
        <ele>1532</ele>
        <time>2020-02-14T08:06:39.147Z</time>
      </trkpt>
      <trkpt lat="45.05754" lon="5.96837">
        <ele>1532</ele>
        <time>2020-02-14T08:06:46.000Z</time>
      </trkpt>
      <trkpt lat="45.05748" lon="5.96833">
        <ele>1532</ele>
        <time>2020-02-14T08:06:52.469Z</time>
      </trkpt>
      <trkpt lat="45.05743" lon="5.96826">
        <ele>1535</ele>
        <time>2020-02-14T08:06:59.085Z</time>
      </trkpt>
      <trkpt lat="45.05737" lon="5.96819">
        <ele>1537</ele>
        <time>2020-02-14T08:07:06.030Z</time>
      </trkpt>
      <trkpt lat="45.05733" lon="5.96812">
        <ele>1538</ele>
        <time>2020-02-14T08:07:13.000Z</time>
      </trkpt>
      <trkpt lat="45.05732" lon="5.96805">
        <ele>1540</ele>
        <time>2020-02-14T08:07:20.226Z</time>
      </trkpt>
      <trkpt lat="45.05728" lon="5.96803">
        <ele>1537</ele>
        <time>2020-02-14T08:09:05.000Z</time>
      </trkpt>
      <trkpt lat="45.05727" lon="5.96809">
        <ele>1541</ele>
        <time>2020-02-14T08:10:11.431Z</time>
      </trkpt>
      <trkpt lat="45.05731" lon="5.96802">
        <ele>1538</ele>
        <time>2020-02-14T08:10:18.129Z</time>
      </trkpt>
      <trkpt lat="45.05733" lon="5.96791">
        <ele>1536</ele>
        <time>2020-02-14T08:10:24.974Z</time>
      </trkpt>
      <trkpt lat="45.05732" lon="5.96784">
        <ele>1534</ele>
        <time>2020-02-14T08:10:32.000Z</time>
      </trkpt>
      <trkpt lat="45.0573" lon="5.96775">
        <ele>1535</ele>
        <time>2020-02-14T08:10:37.994Z</time>
      </trkpt>
      <trkpt lat="45.05727" lon="5.96769">
        <ele>1536</ele>
        <time>2020-02-14T08:10:45.000Z</time>
      </trkpt>
      <trkpt lat="45.05725" lon="5.96762">
        <ele>1537</ele>
        <time>2020-02-14T08:10:51.021Z</time>
      </trkpt>
      <trkpt lat="45.05722" lon="5.96754">
        <ele>1537</ele>
        <time>2020-02-14T08:10:59.000Z</time>
      </trkpt>
      <trkpt lat="45.0572" lon="5.96747">
        <ele>1536</ele>
        <time>2020-02-14T08:11:09.000Z</time>
      </trkpt>
      <trkpt lat="45.05718" lon="5.96738">
        <ele>1536</ele>
        <time>2020-02-14T08:11:15.345Z</time>
      </trkpt>
      <trkpt lat="45.05716" lon="5.9673">
        <ele>1537</ele>
        <time>2020-02-14T08:11:22.000Z</time>
      </trkpt>
      <trkpt lat="45.05714" lon="5.96722">
        <ele>1538</ele>
        <time>2020-02-14T08:11:31.609Z</time>
      </trkpt>
      <trkpt lat="45.05712" lon="5.96715">
        <ele>1538</ele>
        <time>2020-02-14T08:11:35.012Z</time>
      </trkpt>
      <trkpt lat="45.05712" lon="5.96704">
        <ele>1537</ele>
        <time>2020-02-14T08:11:42.000Z</time>
      </trkpt>
      <trkpt lat="45.05713" lon="5.96694">
        <ele>1537</ele>
        <time>2020-02-14T08:11:49.000Z</time>
      </trkpt>
      <trkpt lat="45.05715" lon="5.96687">
        <ele>1536</ele>
        <time>2020-02-14T08:11:56.000Z</time>
      </trkpt>
      <trkpt lat="45.05715" lon="5.96679">
        <ele>1537</ele>
        <time>2020-02-14T08:12:03.000Z</time>
      </trkpt>
      <trkpt lat="45.05713" lon="5.9667">
        <ele>1535</ele>
        <time>2020-02-14T08:12:09.960Z</time>
      </trkpt>
      <trkpt lat="45.05711" lon="5.96663">
        <ele>1535</ele>
        <time>2020-02-14T08:12:17.000Z</time>
      </trkpt>
      <trkpt lat="45.05712" lon="5.96655">
        <ele>1536</ele>
        <time>2020-02-14T08:12:22.762Z</time>
      </trkpt>
      <trkpt lat="45.05713" lon="5.96648">
        <ele>1536</ele>
        <time>2020-02-14T08:12:30.072Z</time>
      </trkpt>
      <trkpt lat="45.05712" lon="5.9664">
        <ele>1539</ele>
        <time>2020-02-14T08:12:41.086Z</time>
      </trkpt>
      <trkpt lat="45.0571" lon="5.96633">
        <ele>1537</ele>
        <time>2020-02-14T08:12:52.000Z</time>
      </trkpt>
      <trkpt lat="45.05705" lon="5.96626">
        <ele>1539</ele>
        <time>2020-02-14T08:13:03.000Z</time>
      </trkpt>
      <trkpt lat="45.05699" lon="5.9662">
        <ele>1541</ele>
        <time>2020-02-14T08:13:10.000Z</time>
      </trkpt>
      <trkpt lat="45.05694" lon="5.96617">
        <ele>1542</ele>
        <time>2020-02-14T08:13:14.000Z</time>
      </trkpt>
      <trkpt lat="45.0569" lon="5.96613">
        <ele>1541</ele>
        <time>2020-02-14T08:13:16.799Z</time>
      </trkpt>
      <trkpt lat="45.05687" lon="5.96608">
        <ele>1541</ele>
        <time>2020-02-14T08:13:21.000Z</time>
      </trkpt>
      <trkpt lat="45.0568" lon="5.96598">
        <ele>1541</ele>
        <time>2020-02-14T08:13:27.515Z</time>
      </trkpt>
      <trkpt lat="45.05673" lon="5.9659">
        <ele>1540</ele>
        <time>2020-02-14T08:13:34.549Z</time>
      </trkpt>
      <trkpt lat="45.0567" lon="5.96584">
        <ele>1541</ele>
        <time>2020-02-14T08:13:41.094Z</time>
      </trkpt>
      <trkpt lat="45.0567" lon="5.96575">
        <ele>1543</ele>
        <time>2020-02-14T08:13:51.298Z</time>
      </trkpt>
      <trkpt lat="45.05667" lon="5.96568">
        <ele>1546</ele>
        <time>2020-02-14T08:13:58.000Z</time>
      </trkpt>
      <trkpt lat="45.05662" lon="5.96561">
        <ele>1545</ele>
        <time>2020-02-14T08:14:04.670Z</time>
      </trkpt>
      <trkpt lat="45.05661" lon="5.96554">
        <ele>1546</ele>
        <time>2020-02-14T08:14:11.006Z</time>
      </trkpt>
      <trkpt lat="45.05663" lon="5.96546">
        <ele>1547</ele>
        <time>2020-02-14T08:14:17.536Z</time>
      </trkpt>
      <trkpt lat="45.05663" lon="5.96538">
        <ele>1550</ele>
        <time>2020-02-14T08:14:26.000Z</time>
      </trkpt>
      <trkpt lat="45.05661" lon="5.96528">
        <ele>1550</ele>
        <time>2020-02-14T08:14:34.417Z</time>
      </trkpt>
      <trkpt lat="45.05659" lon="5.96516">
        <ele>1552</ele>
        <time>2020-02-14T08:14:41.174Z</time>
      </trkpt>
      <trkpt lat="45.05655" lon="5.9651">
        <ele>1554</ele>
        <time>2020-02-14T08:14:45.395Z</time>
      </trkpt>
      <trkpt lat="45.05653" lon="5.96503">
        <ele>1554</ele>
        <time>2020-02-14T08:14:49.014Z</time>
      </trkpt>
      <trkpt lat="45.05648" lon="5.96493">
        <ele>1556</ele>
        <time>2020-02-14T08:14:56.073Z</time>
      </trkpt>
      <trkpt lat="45.05647" lon="5.96485">
        <ele>1555</ele>
        <time>2020-02-14T08:15:02.338Z</time>
      </trkpt>
      <trkpt lat="45.05647" lon="5.96475">
        <ele>1557</ele>
        <time>2020-02-14T08:15:09.012Z</time>
      </trkpt>
      <trkpt lat="45.05641" lon="5.96465">
        <ele>1557</ele>
        <time>2020-02-14T08:15:15.162Z</time>
      </trkpt>
      <trkpt lat="45.05639" lon="5.96456">
        <ele>1560</ele>
        <time>2020-02-14T08:15:21.901Z</time>
      </trkpt>
      <trkpt lat="45.05636" lon="5.96447">
        <ele>1560</ele>
        <time>2020-02-14T08:15:28.423Z</time>
      </trkpt>
      <trkpt lat="45.0563" lon="5.96444">
        <ele>1563</ele>
        <time>2020-02-14T08:15:38.113Z</time>
      </trkpt>
      <trkpt lat="45.05627" lon="5.96435">
        <ele>1562</ele>
        <time>2020-02-14T08:15:46.000Z</time>
      </trkpt>
      <trkpt lat="45.05624" lon="5.96426">
        <ele>1563</ele>
        <time>2020-02-14T08:15:51.681Z</time>
      </trkpt>
      <trkpt lat="45.05622" lon="5.96416">
        <ele>1562</ele>
        <time>2020-02-14T08:15:57.959Z</time>
      </trkpt>
      <trkpt lat="45.0562" lon="5.96407">
        <ele>1563</ele>
        <time>2020-02-14T08:16:05.000Z</time>
      </trkpt>
      <trkpt lat="45.05616" lon="5.96403">
        <ele>1563</ele>
        <time>2020-02-14T08:16:08.000Z</time>
      </trkpt>
      <trkpt lat="45.05613" lon="5.96398">
        <ele>1564</ele>
        <time>2020-02-14T08:16:10.229Z</time>
      </trkpt>
      <trkpt lat="45.05609" lon="5.96392">
        <ele>1566</ele>
        <time>2020-02-14T08:16:18.000Z</time>
      </trkpt>
      <trkpt lat="45.05604" lon="5.96389">
        <ele>1568</ele>
        <time>2020-02-14T08:16:30.336Z</time>
      </trkpt>
      <trkpt lat="45.05599" lon="5.96383">
        <ele>1567</ele>
        <time>2020-02-14T08:16:38.000Z</time>
      </trkpt>
      <trkpt lat="45.05596" lon="5.96377">
        <ele>1568</ele>
        <time>2020-02-14T08:16:43.738Z</time>
      </trkpt>
      <trkpt lat="45.05593" lon="5.96367">
        <ele>1567</ele>
        <time>2020-02-14T08:16:51.000Z</time>
      </trkpt>
      <trkpt lat="45.05592" lon="5.96357">
        <ele>1568</ele>
        <time>2020-02-14T08:17:01.000Z</time>
      </trkpt>
      <trkpt lat="45.0559" lon="5.96347">
        <ele>1568</ele>
        <time>2020-02-14T08:17:07.321Z</time>
      </trkpt>
      <trkpt lat="45.05586" lon="5.96338">
        <ele>1569</ele>
        <time>2020-02-14T08:17:14.095Z</time>
      </trkpt>
      <trkpt lat="45.05581" lon="5.96331">
        <ele>1569</ele>
        <time>2020-02-14T08:17:21.000Z</time>
      </trkpt>
      <trkpt lat="45.05578" lon="5.96321">
        <ele>1571</ele>
        <time>2020-02-14T08:17:28.000Z</time>
      </trkpt>
      <trkpt lat="45.05573" lon="5.96314">
        <ele>1571</ele>
        <time>2020-02-14T08:17:33.824Z</time>
      </trkpt>
      <trkpt lat="45.05567" lon="5.96307">
        <ele>1571</ele>
        <time>2020-02-14T08:17:41.000Z</time>
      </trkpt>
      <trkpt lat="45.05564" lon="5.96302">
        <ele>1571</ele>
        <time>2020-02-14T08:17:45.000Z</time>
      </trkpt>
      <trkpt lat="45.0556" lon="5.96298">
        <ele>1571</ele>
        <time>2020-02-14T08:17:47.584Z</time>
      </trkpt>
      <trkpt lat="45.05556" lon="5.96293">
        <ele>1572</ele>
        <time>2020-02-14T08:18:10.000Z</time>
      </trkpt>
      <trkpt lat="45.05552" lon="5.96288">
        <ele>1575</ele>
        <time>2020-02-14T08:18:31.000Z</time>
      </trkpt>
      <trkpt lat="45.05553" lon="5.96282">
        <ele>1575</ele>
        <time>2020-02-14T08:19:21.395Z</time>
      </trkpt>
      <trkpt lat="45.05549" lon="5.96276">
        <ele>1572</ele>
        <time>2020-02-14T08:19:29.000Z</time>
      </trkpt>
      <trkpt lat="45.05545" lon="5.96271">
        <ele>1570</ele>
        <time>2020-02-14T08:19:31.692Z</time>
      </trkpt>
      <trkpt lat="45.05539" lon="5.96261">
        <ele>1569</ele>
        <time>2020-02-14T08:19:35.181Z</time>
      </trkpt>
      <trkpt lat="45.05534" lon="5.96253">
        <ele>1570</ele>
        <time>2020-02-14T08:19:41.938Z</time>
      </trkpt>
      <trkpt lat="45.05533" lon="5.96244">
        <ele>1572</ele>
        <time>2020-02-14T08:19:50.000Z</time>
      </trkpt>
      <trkpt lat="45.05521" lon="5.96245">
        <ele>1573</ele>
        <time>2020-02-14T08:19:53.000Z</time>
      </trkpt>
      <trkpt lat="45.05516" lon="5.96245">
        <ele>1574</ele>
        <time>2020-02-14T08:19:55.521Z</time>
      </trkpt>
      <trkpt lat="45.05511" lon="5.96243">
        <ele>1573</ele>
        <time>2020-02-14T08:19:58.964Z</time>
      </trkpt>
      <trkpt lat="45.05505" lon="5.96238">
        <ele>1575</ele>
        <time>2020-02-14T08:20:05.699Z</time>
      </trkpt>
      <trkpt lat="45.05503" lon="5.96229">
        <ele>1574</ele>
        <time>2020-02-14T08:20:13.000Z</time>
      </trkpt>
      <trkpt lat="45.05503" lon="5.96222">
        <ele>1573</ele>
        <time>2020-02-14T08:20:15.196Z</time>
      </trkpt>
      <trkpt lat="45.05502" lon="5.9621">
        <ele>1574</ele>
        <time>2020-02-14T08:20:22.312Z</time>
      </trkpt>
      <trkpt lat="45.055" lon="5.96204">
        <ele>1574</ele>
        <time>2020-02-14T08:20:25.947Z</time>
      </trkpt>
      <trkpt lat="45.05495" lon="5.96195">
        <ele>1577</ele>
        <time>2020-02-14T08:20:32.495Z</time>
      </trkpt>
      <trkpt lat="45.05489" lon="5.96189">
        <ele>1579</ele>
        <time>2020-02-14T08:20:40.000Z</time>
      </trkpt>
      <trkpt lat="45.05485" lon="5.96183">
        <ele>1580</ele>
        <time>2020-02-14T08:20:45.564Z</time>
      </trkpt>
      <trkpt lat="45.05486" lon="5.96177">
        <ele>1581</ele>
        <time>2020-02-14T08:20:50.000Z</time>
      </trkpt>
      <trkpt lat="45.05487" lon="5.9617">
        <ele>1581</ele>
        <time>2020-02-14T08:20:52.697Z</time>
      </trkpt>
      <trkpt lat="45.05488" lon="5.96163">
        <ele>1584</ele>
        <time>2020-02-14T08:20:59.810Z</time>
      </trkpt>
      <trkpt lat="45.05487" lon="5.96153">
        <ele>1585</ele>
        <time>2020-02-14T08:21:06.305Z</time>
      </trkpt>
      <trkpt lat="45.05486" lon="5.96145">
        <ele>1585</ele>
        <time>2020-02-14T08:21:13.000Z</time>
      </trkpt>
      <trkpt lat="45.05485" lon="5.96134">
        <ele>1585</ele>
        <time>2020-02-14T08:21:18.723Z</time>
      </trkpt>
      <trkpt lat="45.05489" lon="5.96127">
        <ele>1587</ele>
        <time>2020-02-14T08:21:26.196Z</time>
      </trkpt>
      <trkpt lat="45.0549" lon="5.96119">
        <ele>1588</ele>
        <time>2020-02-14T08:21:33.065Z</time>
      </trkpt>
      <trkpt lat="45.05488" lon="5.96108">
        <ele>1591</ele>
        <time>2020-02-14T08:21:39.802Z</time>
      </trkpt>
      <trkpt lat="45.05488" lon="5.96098">
        <ele>1590</ele>
        <time>2020-02-14T08:21:48.000Z</time>
      </trkpt>
      <trkpt lat="45.0549" lon="5.96087">
        <ele>1589</ele>
        <time>2020-02-14T08:21:55.132Z</time>
      </trkpt>
      <trkpt lat="45.05493" lon="5.96078">
        <ele>1590</ele>
        <time>2020-02-14T08:22:02.000Z</time>
      </trkpt>
      <trkpt lat="45.05497" lon="5.9607">
        <ele>1591</ele>
        <time>2020-02-14T08:22:09.000Z</time>
      </trkpt>
      <trkpt lat="45.05499" lon="5.96063">
        <ele>1589</ele>
        <time>2020-02-14T08:22:14.998Z</time>
      </trkpt>
      <trkpt lat="45.05497" lon="5.96053">
        <ele>1592</ele>
        <time>2020-02-14T08:22:22.199Z</time>
      </trkpt>
      <trkpt lat="45.0549" lon="5.96046">
        <ele>1593</ele>
        <time>2020-02-14T08:22:29.000Z</time>
      </trkpt>
      <trkpt lat="45.05485" lon="5.9604">
        <ele>1594</ele>
        <time>2020-02-14T08:22:32.320Z</time>
      </trkpt>
      <trkpt lat="45.0548" lon="5.96036">
        <ele>1593</ele>
        <time>2020-02-14T08:22:35.861Z</time>
      </trkpt>
      <trkpt lat="45.05472" lon="5.96035">
        <ele>1594</ele>
        <time>2020-02-14T08:22:43.000Z</time>
      </trkpt>
      <trkpt lat="45.05465" lon="5.96036">
        <ele>1593</ele>
        <time>2020-02-14T08:22:49.051Z</time>
      </trkpt>
      <trkpt lat="45.05459" lon="5.96036">
        <ele>1593</ele>
        <time>2020-02-14T08:22:56.000Z</time>
      </trkpt>
      <trkpt lat="45.05452" lon="5.96037">
        <ele>1592</ele>
        <time>2020-02-14T08:23:02.000Z</time>
      </trkpt>
      <trkpt lat="45.05444" lon="5.9604">
        <ele>1593</ele>
        <time>2020-02-14T08:23:08.471Z</time>
      </trkpt>
      <trkpt lat="45.05437" lon="5.96042">
        <ele>1596</ele>
        <time>2020-02-14T08:23:15.425Z</time>
      </trkpt>
      <trkpt lat="45.0543" lon="5.96043">
        <ele>1597</ele>
        <time>2020-02-14T08:23:21.463Z</time>
      </trkpt>
      <trkpt lat="45.05424" lon="5.96044">
        <ele>1597</ele>
        <time>2020-02-14T08:23:28.000Z</time>
      </trkpt>
      <trkpt lat="45.05417" lon="5.96045">
        <ele>1599</ele>
        <time>2020-02-14T08:23:34.449Z</time>
      </trkpt>
      <trkpt lat="45.05409" lon="5.96048">
        <ele>1600</ele>
        <time>2020-02-14T08:23:42.000Z</time>
      </trkpt>
      <trkpt lat="45.05404" lon="5.96051">
        <ele>1601</ele>
        <time>2020-02-14T08:23:48.055Z</time>
      </trkpt>
      <trkpt lat="45.05399" lon="5.96056">
        <ele>1602</ele>
        <time>2020-02-14T08:23:54.873Z</time>
      </trkpt>
      <trkpt lat="45.05393" lon="5.96061">
        <ele>1602</ele>
        <time>2020-02-14T08:24:01.595Z</time>
      </trkpt>
      <trkpt lat="45.05387" lon="5.96065">
        <ele>1601</ele>
        <time>2020-02-14T08:24:08.678Z</time>
      </trkpt>
      <trkpt lat="45.05381" lon="5.96072">
        <ele>1600</ele>
        <time>2020-02-14T08:24:14.979Z</time>
      </trkpt>
      <trkpt lat="45.05377" lon="5.96077">
        <ele>1601</ele>
        <time>2020-02-14T08:24:18.076Z</time>
      </trkpt>
      <trkpt lat="45.05371" lon="5.96084">
        <ele>1603</ele>
        <time>2020-02-14T08:24:25.275Z</time>
      </trkpt>
      <trkpt lat="45.05366" lon="5.96089">
        <ele>1603</ele>
        <time>2020-02-14T08:24:31.544Z</time>
      </trkpt>
      <trkpt lat="45.05363" lon="5.96092">
        <ele>1604</ele>
        <time>2020-02-14T08:24:35.028Z</time>
      </trkpt>
      <trkpt lat="45.05359" lon="5.96099">
        <ele>1606</ele>
        <time>2020-02-14T08:24:41.140Z</time>
      </trkpt>
      <trkpt lat="45.05354" lon="5.96106">
        <ele>1606</ele>
        <time>2020-02-14T08:24:48.000Z</time>
      </trkpt>
      <trkpt lat="45.05349" lon="5.9611">
        <ele>1606</ele>
        <time>2020-02-14T08:24:50.857Z</time>
      </trkpt>
      <trkpt lat="45.05344" lon="5.96111">
        <ele>1606</ele>
        <time>2020-02-14T08:24:58.000Z</time>
      </trkpt>
      <trkpt lat="45.05338" lon="5.96115">
        <ele>1608</ele>
        <time>2020-02-14T08:25:07.832Z</time>
      </trkpt>
      <trkpt lat="45.05335" lon="5.9612">
        <ele>1610</ele>
        <time>2020-02-14T08:25:12.000Z</time>
      </trkpt>
      <trkpt lat="45.05333" lon="5.96126">
        <ele>1611</ele>
        <time>2020-02-14T08:25:15.000Z</time>
      </trkpt>
      <trkpt lat="45.05331" lon="5.96133">
        <ele>1611</ele>
        <time>2020-02-14T08:25:18.524Z</time>
      </trkpt>
      <trkpt lat="45.05326" lon="5.96141">
        <ele>1611</ele>
        <time>2020-02-14T08:25:24.751Z</time>
      </trkpt>
      <trkpt lat="45.05321" lon="5.96149">
        <ele>1611</ele>
        <time>2020-02-14T08:25:32.000Z</time>
      </trkpt>
      <trkpt lat="45.05319" lon="5.96155">
        <ele>1612</ele>
        <time>2020-02-14T08:25:35.323Z</time>
      </trkpt>
      <trkpt lat="45.05315" lon="5.96162">
        <ele>1612</ele>
        <time>2020-02-14T08:25:41.622Z</time>
      </trkpt>
      <trkpt lat="45.05311" lon="5.96169">
        <ele>1612</ele>
        <time>2020-02-14T08:25:48.355Z</time>
      </trkpt>
      <trkpt lat="45.05306" lon="5.96172">
        <ele>1612</ele>
        <time>2020-02-14T08:25:55.000Z</time>
      </trkpt>
      <trkpt lat="45.053" lon="5.96176">
        <ele>1613</ele>
        <time>2020-02-14T08:26:01.187Z</time>
      </trkpt>
      <trkpt lat="45.05296" lon="5.96181">
        <ele>1613</ele>
        <time>2020-02-14T08:26:08.000Z</time>
      </trkpt>
      <trkpt lat="45.05289" lon="5.96188">
        <ele>1613</ele>
        <time>2020-02-14T08:26:14.297Z</time>
      </trkpt>
      <trkpt lat="45.05284" lon="5.96193">
        <ele>1613</ele>
        <time>2020-02-14T08:26:21.000Z</time>
      </trkpt>
      <trkpt lat="45.05279" lon="5.96198">
        <ele>1615</ele>
        <time>2020-02-14T08:26:28.000Z</time>
      </trkpt>
      <trkpt lat="45.05275" lon="5.96201">
        <ele>1615</ele>
        <time>2020-02-14T08:26:32.000Z</time>
      </trkpt>
      <trkpt lat="45.05268" lon="5.96206">
        <ele>1617</ele>
        <time>2020-02-14T08:26:37.775Z</time>
      </trkpt>
      <trkpt lat="45.05262" lon="5.96209">
        <ele>1617</ele>
        <time>2020-02-14T08:26:45.000Z</time>
      </trkpt>
      <trkpt lat="45.05256" lon="5.96213">
        <ele>1616</ele>
        <time>2020-02-14T08:26:52.000Z</time>
      </trkpt>
      <trkpt lat="45.0525" lon="5.96213">
        <ele>1619</ele>
        <time>2020-02-14T08:26:57.957Z</time>
      </trkpt>
      <trkpt lat="45.05244" lon="5.96209">
        <ele>1620</ele>
        <time>2020-02-14T08:27:04.344Z</time>
      </trkpt>
      <trkpt lat="45.05248" lon="5.96202">
        <ele>1622</ele>
        <time>2020-02-14T08:27:17.834Z</time>
      </trkpt>
      <trkpt lat="45.05254" lon="5.96203">
        <ele>1625</ele>
        <time>2020-02-14T08:27:24.464Z</time>
      </trkpt>
      <trkpt lat="45.0526" lon="5.96205">
        <ele>1626</ele>
        <time>2020-02-14T08:27:29.000Z</time>
      </trkpt>
      <trkpt lat="45.05266" lon="5.96204">
        <ele>1626</ele>
        <time>2020-02-14T08:27:31.340Z</time>
      </trkpt>
      <trkpt lat="45.05274" lon="5.96199">
        <ele>1626</ele>
        <time>2020-02-14T08:27:34.901Z</time>
      </trkpt>
      <trkpt lat="45.05279" lon="5.96195">
        <ele>1627</ele>
        <time>2020-02-14T08:27:38.206Z</time>
      </trkpt>
      <trkpt lat="45.05284" lon="5.96187">
        <ele>1628</ele>
        <time>2020-02-14T08:27:45.000Z</time>
      </trkpt>
      <trkpt lat="45.05288" lon="5.96182">
        <ele>1629</ele>
        <time>2020-02-14T08:27:51.080Z</time>
      </trkpt>
      <trkpt lat="45.05293" lon="5.96173">
        <ele>1630</ele>
        <time>2020-02-14T08:27:57.577Z</time>
      </trkpt>
      <trkpt lat="45.05297" lon="5.96164">
        <ele>1631</ele>
        <time>2020-02-14T08:28:05.000Z</time>
      </trkpt>
      <trkpt lat="45.05299" lon="5.96154">
        <ele>1631</ele>
        <time>2020-02-14T08:28:10.414Z</time>
      </trkpt>
      <trkpt lat="45.05304" lon="5.96146">
        <ele>1631</ele>
        <time>2020-02-14T08:28:18.000Z</time>
      </trkpt>
      <trkpt lat="45.05308" lon="5.96138">
        <ele>1631</ele>
        <time>2020-02-14T08:28:26.000Z</time>
      </trkpt>
      <trkpt lat="45.05314" lon="5.96131">
        <ele>1632</ele>
        <time>2020-02-14T08:28:31.778Z</time>
      </trkpt>
      <trkpt lat="45.05318" lon="5.96125">
        <ele>1634</ele>
        <time>2020-02-14T08:28:39.000Z</time>
      </trkpt>
      <trkpt lat="45.05319" lon="5.96117">
        <ele>1634</ele>
        <time>2020-02-14T08:28:44.605Z</time>
      </trkpt>
      <trkpt lat="45.05318" lon="5.9611">
        <ele>1634</ele>
        <time>2020-02-14T08:28:52.000Z</time>
      </trkpt>
      <trkpt lat="45.05319" lon="5.961">
        <ele>1634</ele>
        <time>2020-02-14T08:28:59.000Z</time>
      </trkpt>
      <trkpt lat="45.05326" lon="5.96093">
        <ele>1634</ele>
        <time>2020-02-14T08:29:04.935Z</time>
      </trkpt>
      <trkpt lat="45.0533" lon="5.96085">
        <ele>1634</ele>
        <time>2020-02-14T08:29:11.774Z</time>
      </trkpt>
      <trkpt lat="45.05336" lon="5.96076">
        <ele>1635</ele>
        <time>2020-02-14T08:29:19.000Z</time>
      </trkpt>
      <trkpt lat="45.05342" lon="5.9607">
        <ele>1635</ele>
        <time>2020-02-14T08:29:26.000Z</time>
      </trkpt>
      <trkpt lat="45.05348" lon="5.96064">
        <ele>1635</ele>
        <time>2020-02-14T08:29:32.000Z</time>
      </trkpt>
      <trkpt lat="45.05351" lon="5.96059">
        <ele>1635</ele>
        <time>2020-02-14T08:29:34.867Z</time>
      </trkpt>
      <trkpt lat="45.05355" lon="5.96052">
        <ele>1635</ele>
        <time>2020-02-14T08:29:42.000Z</time>
      </trkpt>
      <trkpt lat="45.05359" lon="5.96043">
        <ele>1635</ele>
        <time>2020-02-14T08:29:49.000Z</time>
      </trkpt>
      <trkpt lat="45.05362" lon="5.96034">
        <ele>1636</ele>
        <time>2020-02-14T08:29:55.419Z</time>
      </trkpt>
      <trkpt lat="45.05367" lon="5.96025">
        <ele>1636</ele>
        <time>2020-02-14T08:30:02.302Z</time>
      </trkpt>
      <trkpt lat="45.05372" lon="5.96023">
        <ele>1635</ele>
        <time>2020-02-14T08:30:06.000Z</time>
      </trkpt>
      <trkpt lat="45.05377" lon="5.96018">
        <ele>1636</ele>
        <time>2020-02-14T08:30:11.879Z</time>
      </trkpt>
      <trkpt lat="45.05382" lon="5.96009">
        <ele>1636</ele>
        <time>2020-02-14T08:30:19.000Z</time>
      </trkpt>
      <trkpt lat="45.05386" lon="5.95999">
        <ele>1637</ele>
        <time>2020-02-14T08:30:25.000Z</time>
      </trkpt>
      <trkpt lat="45.05389" lon="5.95991">
        <ele>1638</ele>
        <time>2020-02-14T08:30:31.131Z</time>
      </trkpt>
      <trkpt lat="45.05393" lon="5.95982">
        <ele>1638</ele>
        <time>2020-02-14T08:30:37.407Z</time>
      </trkpt>
      <trkpt lat="45.05399" lon="5.95974">
        <ele>1640</ele>
        <time>2020-02-14T08:30:43.985Z</time>
      </trkpt>
      <trkpt lat="45.05404" lon="5.95967">
        <ele>1642</ele>
        <time>2020-02-14T08:30:50.301Z</time>
      </trkpt>
      <trkpt lat="45.0541" lon="5.9596">
        <ele>1642</ele>
        <time>2020-02-14T08:30:57.000Z</time>
      </trkpt>
      <trkpt lat="45.05416" lon="5.95956">
        <ele>1643</ele>
        <time>2020-02-14T08:31:02.887Z</time>
      </trkpt>
      <trkpt lat="45.05422" lon="5.95951">
        <ele>1643</ele>
        <time>2020-02-14T08:31:10.000Z</time>
      </trkpt>
      <trkpt lat="45.05426" lon="5.95947">
        <ele>1643</ele>
        <time>2020-02-14T08:31:14.000Z</time>
      </trkpt>
      <trkpt lat="45.0543" lon="5.95942">
        <ele>1643</ele>
        <time>2020-02-14T08:31:20.246Z</time>
      </trkpt>
      <trkpt lat="45.05436" lon="5.95935">
        <ele>1644</ele>
        <time>2020-02-14T08:31:26.376Z</time>
      </trkpt>
      <trkpt lat="45.05441" lon="5.95933">
        <ele>1644</ele>
        <time>2020-02-14T08:31:30.158Z</time>
      </trkpt>
      <trkpt lat="45.05448" lon="5.95929">
        <ele>1644</ele>
        <time>2020-02-14T08:31:36.415Z</time>
      </trkpt>
      <trkpt lat="45.05453" lon="5.95924">
        <ele>1644</ele>
        <time>2020-02-14T08:31:42.930Z</time>
      </trkpt>
      <trkpt lat="45.05455" lon="5.95913">
        <ele>1645</ele>
        <time>2020-02-14T08:31:49.814Z</time>
      </trkpt>
      <trkpt lat="45.05455" lon="5.95906">
        <ele>1646</ele>
        <time>2020-02-14T08:31:57.000Z</time>
      </trkpt>
      <trkpt lat="45.0545" lon="5.95904">
        <ele>1648</ele>
        <time>2020-02-14T08:32:03.171Z</time>
      </trkpt>
      <trkpt lat="45.05447" lon="5.95901">
        <ele>1649</ele>
        <time>2020-02-14T08:32:06.699Z</time>
      </trkpt>
      <trkpt lat="45.0544" lon="5.95895">
        <ele>1650</ele>
        <time>2020-02-14T08:32:14.000Z</time>
      </trkpt>
      <trkpt lat="45.05432" lon="5.95895">
        <ele>1650</ele>
        <time>2020-02-14T08:32:19.855Z</time>
      </trkpt>
      <trkpt lat="45.05425" lon="5.95896">
        <ele>1652</ele>
        <time>2020-02-14T08:32:26.121Z</time>
      </trkpt>
      <trkpt lat="45.0542" lon="5.95895">
        <ele>1654</ele>
        <time>2020-02-14T08:32:32.536Z</time>
      </trkpt>
      <trkpt lat="45.05415" lon="5.95895">
        <ele>1653</ele>
        <time>2020-02-14T08:32:40.000Z</time>
      </trkpt>
      <trkpt lat="45.05409" lon="5.95896">
        <ele>1652</ele>
        <time>2020-02-14T08:32:46.159Z</time>
      </trkpt>
      <trkpt lat="45.05403" lon="5.95899">
        <ele>1652</ele>
        <time>2020-02-14T08:32:53.000Z</time>
      </trkpt>
      <trkpt lat="45.05398" lon="5.95904">
        <ele>1654</ele>
        <time>2020-02-14T08:33:00.000Z</time>
      </trkpt>
      <trkpt lat="45.05391" lon="5.9591">
        <ele>1655</ele>
        <time>2020-02-14T08:33:06.169Z</time>
      </trkpt>
      <trkpt lat="45.05384" lon="5.95912">
        <ele>1656</ele>
        <time>2020-02-14T08:33:13.178Z</time>
      </trkpt>
      <trkpt lat="45.05379" lon="5.95915">
        <ele>1657</ele>
        <time>2020-02-14T08:33:16.720Z</time>
      </trkpt>
      <trkpt lat="45.05373" lon="5.95919">
        <ele>1660</ele>
        <time>2020-02-14T08:33:24.077Z</time>
      </trkpt>
      <trkpt lat="45.05369" lon="5.95923">
        <ele>1658</ele>
        <time>2020-02-14T08:33:30.930Z</time>
      </trkpt>
      <trkpt lat="45.05363" lon="5.95928">
        <ele>1656</ele>
        <time>2020-02-14T08:33:38.000Z</time>
      </trkpt>
      <trkpt lat="45.05357" lon="5.95933">
        <ele>1657</ele>
        <time>2020-02-14T08:33:43.537Z</time>
      </trkpt>
      <trkpt lat="45.05351" lon="5.95939">
        <ele>1657</ele>
        <time>2020-02-14T08:33:51.000Z</time>
      </trkpt>
      <trkpt lat="45.05345" lon="5.95942">
        <ele>1657</ele>
        <time>2020-02-14T08:33:58.000Z</time>
      </trkpt>
      <trkpt lat="45.05338" lon="5.95945">
        <ele>1657</ele>
        <time>2020-02-14T08:34:04.437Z</time>
      </trkpt>
      <trkpt lat="45.05331" lon="5.95948">
        <ele>1656</ele>
        <time>2020-02-14T08:34:12.000Z</time>
      </trkpt>
      <trkpt lat="45.05324" lon="5.95951">
        <ele>1656</ele>
        <time>2020-02-14T08:34:17.677Z</time>
      </trkpt>
      <trkpt lat="45.05317" lon="5.95953">
        <ele>1655</ele>
        <time>2020-02-14T08:34:25.000Z</time>
      </trkpt>
      <trkpt lat="45.0531" lon="5.95952">
        <ele>1656</ele>
        <time>2020-02-14T08:34:31.000Z</time>
      </trkpt>
      <trkpt lat="45.05301" lon="5.95951">
        <ele>1656</ele>
        <time>2020-02-14T08:34:38.000Z</time>
      </trkpt>
      <trkpt lat="45.05293" lon="5.95953">
        <ele>1656</ele>
        <time>2020-02-14T08:34:45.089Z</time>
      </trkpt>
      <trkpt lat="45.05286" lon="5.95953">
        <ele>1658</ele>
        <time>2020-02-14T08:34:52.095Z</time>
      </trkpt>
      <trkpt lat="45.05279" lon="5.95952">
        <ele>1659</ele>
        <time>2020-02-14T08:35:00.000Z</time>
      </trkpt>
      <trkpt lat="45.05272" lon="5.95949">
        <ele>1662</ele>
        <time>2020-02-14T08:35:06.340Z</time>
      </trkpt>
      <trkpt lat="45.05267" lon="5.95946">
        <ele>1663</ele>
        <time>2020-02-14T08:35:13.027Z</time>
      </trkpt>
      <trkpt lat="45.05261" lon="5.95943">
        <ele>1663</ele>
        <time>2020-02-14T08:35:20.157Z</time>
      </trkpt>
      <trkpt lat="45.05253" lon="5.95942">
        <ele>1665</ele>
        <time>2020-02-14T08:35:30.397Z</time>
      </trkpt>
      <trkpt lat="45.05248" lon="5.95941">
        <ele>1666</ele>
        <time>2020-02-14T08:35:36.683Z</time>
      </trkpt>
      <trkpt lat="45.05243" lon="5.95938">
        <ele>1668</ele>
        <time>2020-02-14T08:35:44.000Z</time>
      </trkpt>
      <trkpt lat="45.05242" lon="5.9593">
        <ele>1673</ele>
        <time>2020-02-14T08:35:54.328Z</time>
      </trkpt>
      <trkpt lat="45.05245" lon="5.95925">
        <ele>1682</ele>
        <time>2020-02-14T08:36:15.000Z</time>
      </trkpt>
      <trkpt lat="45.05246" lon="5.95918">
        <ele>1686</ele>
        <time>2020-02-14T08:36:28.000Z</time>
      </trkpt>
      <trkpt lat="45.05247" lon="5.9591">
        <ele>1689</ele>
        <time>2020-02-14T08:36:36.765Z</time>
      </trkpt>
      <trkpt lat="45.05247" lon="5.95901">
        <ele>1691</ele>
        <time>2020-02-14T08:36:48.000Z</time>
      </trkpt>
      <trkpt lat="45.05247" lon="5.95894">
        <ele>1693</ele>
        <time>2020-02-14T08:36:58.000Z</time>
      </trkpt>
      <trkpt lat="45.05244" lon="5.95884">
        <ele>1694</ele>
        <time>2020-02-14T08:37:08.000Z</time>
      </trkpt>
      <trkpt lat="45.05241" lon="5.95877">
        <ele>1694</ele>
        <time>2020-02-14T08:37:13.952Z</time>
      </trkpt>
      <trkpt lat="45.05237" lon="5.95872">
        <ele>1698</ele>
        <time>2020-02-14T08:37:20.529Z</time>
      </trkpt>
      <trkpt lat="45.05233" lon="5.95868">
        <ele>1699</ele>
        <time>2020-02-14T08:37:27.710Z</time>
      </trkpt>
      <trkpt lat="45.05229" lon="5.95863">
        <ele>1699</ele>
        <time>2020-02-14T08:37:35.000Z</time>
      </trkpt>
      <trkpt lat="45.05226" lon="5.95857">
        <ele>1698</ele>
        <time>2020-02-14T08:37:42.000Z</time>
      </trkpt>
      <trkpt lat="45.05226" lon="5.95848">
        <ele>1699</ele>
        <time>2020-02-14T08:37:48.066Z</time>
      </trkpt>
      <trkpt lat="45.05229" lon="5.95842">
        <ele>1699</ele>
        <time>2020-02-14T08:37:55.090Z</time>
      </trkpt>
      <trkpt lat="45.05231" lon="5.95836">
        <ele>1700</ele>
        <time>2020-02-14T08:38:02.212Z</time>
      </trkpt>
      <trkpt lat="45.05228" lon="5.95828">
        <ele>1702</ele>
        <time>2020-02-14T08:38:08.820Z</time>
      </trkpt>
      <trkpt lat="45.05225" lon="5.95822">
        <ele>1704</ele>
        <time>2020-02-14T08:38:16.000Z</time>
      </trkpt>
      <trkpt lat="45.05225" lon="5.95815">
        <ele>1703</ele>
        <time>2020-02-14T08:38:21.684Z</time>
      </trkpt>
      <trkpt lat="45.05224" lon="5.95808">
        <ele>1703</ele>
        <time>2020-02-14T08:38:32.201Z</time>
      </trkpt>
      <trkpt lat="45.05223" lon="5.95801">
        <ele>1702</ele>
        <time>2020-02-14T08:38:46.000Z</time>
      </trkpt>
      <trkpt lat="45.05227" lon="5.95797">
        <ele>1706</ele>
        <time>2020-02-14T08:39:13.655Z</time>
      </trkpt>
      <trkpt lat="45.05226" lon="5.9579">
        <ele>1707</ele>
        <time>2020-02-14T08:39:38.000Z</time>
      </trkpt>
      <trkpt lat="45.0523" lon="5.95785">
        <ele>1707</ele>
        <time>2020-02-14T08:39:47.821Z</time>
      </trkpt>
      <trkpt lat="45.05228" lon="5.95777">
        <ele>1707</ele>
        <time>2020-02-14T08:40:02.079Z</time>
      </trkpt>
      <trkpt lat="45.05235" lon="5.95773">
        <ele>1708</ele>
        <time>2020-02-14T08:40:20.000Z</time>
      </trkpt>
      <trkpt lat="45.0524" lon="5.95773">
        <ele>1709</ele>
        <time>2020-02-14T08:40:26.252Z</time>
      </trkpt>
      <trkpt lat="45.05245" lon="5.95774">
        <ele>1709</ele>
        <time>2020-02-14T08:40:32.819Z</time>
      </trkpt>
      <trkpt lat="45.0525" lon="5.95773">
        <ele>1710</ele>
        <time>2020-02-14T08:40:44.000Z</time>
      </trkpt>
      <trkpt lat="45.05255" lon="5.95774">
        <ele>1712</ele>
        <time>2020-02-14T08:40:50.002Z</time>
      </trkpt>
      <trkpt lat="45.0526" lon="5.95775">
        <ele>1715</ele>
        <time>2020-02-14T08:40:56.618Z</time>
      </trkpt>
      <trkpt lat="45.05264" lon="5.95776">
        <ele>1716</ele>
        <time>2020-02-14T08:41:04.000Z</time>
      </trkpt>
      <trkpt lat="45.05269" lon="5.95775">
        <ele>1720</ele>
        <time>2020-02-14T08:41:11.000Z</time>
      </trkpt>
      <trkpt lat="45.05276" lon="5.9577">
        <ele>1722</ele>
        <time>2020-02-14T08:41:20.217Z</time>
      </trkpt>
      <trkpt lat="45.05277" lon="5.95764">
        <ele>1725</ele>
        <time>2020-02-14T08:41:28.000Z</time>
      </trkpt>
      <trkpt lat="45.05281" lon="5.95756">
        <ele>1731</ele>
        <time>2020-02-14T08:41:38.000Z</time>
      </trkpt>
      <trkpt lat="45.05285" lon="5.95751">
        <ele>1732</ele>
        <time>2020-02-14T08:41:43.957Z</time>
      </trkpt>
      <trkpt lat="45.05288" lon="5.95742">
        <ele>1733</ele>
        <time>2020-02-14T08:41:52.000Z</time>
      </trkpt>
      <trkpt lat="45.05289" lon="5.95734">
        <ele>1734</ele>
        <time>2020-02-14T08:41:58.160Z</time>
      </trkpt>
      <trkpt lat="45.05286" lon="5.95726">
        <ele>1735</ele>
        <time>2020-02-14T08:42:08.039Z</time>
      </trkpt>
      <trkpt lat="45.05287" lon="5.95718">
        <ele>1737</ele>
        <time>2020-02-14T08:42:17.939Z</time>
      </trkpt>
      <trkpt lat="45.05289" lon="5.95709">
        <ele>1740</ele>
        <time>2020-02-14T08:42:27.876Z</time>
      </trkpt>
      <trkpt lat="45.05292" lon="5.95701">
        <ele>1739</ele>
        <time>2020-02-14T08:42:37.955Z</time>
      </trkpt>
      <trkpt lat="45.05293" lon="5.95695">
        <ele>1737</ele>
        <time>2020-02-14T08:42:45.000Z</time>
      </trkpt>
      <trkpt lat="45.0529" lon="5.95684">
        <ele>1734</ele>
        <time>2020-02-14T08:42:52.000Z</time>
      </trkpt>
      <trkpt lat="45.05285" lon="5.95674">
        <ele>1732</ele>
        <time>2020-02-14T08:42:58.458Z</time>
      </trkpt>
      <trkpt lat="45.0528" lon="5.9567">
        <ele>1729</ele>
        <time>2020-02-14T08:43:01.771Z</time>
      </trkpt>
      <trkpt lat="45.05273" lon="5.95665">
        <ele>1728</ele>
        <time>2020-02-14T08:43:06.000Z</time>
      </trkpt>
      <trkpt lat="45.05269" lon="5.95661">
        <ele>1728</ele>
        <time>2020-02-14T08:43:08.362Z</time>
      </trkpt>
      <trkpt lat="45.05263" lon="5.95656">
        <ele>1731</ele>
        <time>2020-02-14T08:43:15.415Z</time>
      </trkpt>
      <trkpt lat="45.05267" lon="5.95649">
        <ele>1732</ele>
        <time>2020-02-14T08:43:18.902Z</time>
      </trkpt>
      <trkpt lat="45.05271" lon="5.95642">
        <ele>1735</ele>
        <time>2020-02-14T08:43:23.000Z</time>
      </trkpt>
      <trkpt lat="45.05273" lon="5.95636">
        <ele>1735</ele>
        <time>2020-02-14T08:43:26.000Z</time>
      </trkpt>
      <trkpt lat="45.05278" lon="5.95635">
        <ele>1735</ele>
        <time>2020-02-14T08:43:28.568Z</time>
      </trkpt>
      <trkpt lat="45.05283" lon="5.95632">
        <ele>1735</ele>
        <time>2020-02-14T08:43:31.774Z</time>
      </trkpt>
      <trkpt lat="45.05286" lon="5.95627">
        <ele>1735</ele>
        <time>2020-02-14T08:43:39.000Z</time>
      </trkpt>
      <trkpt lat="45.05287" lon="5.95618">
        <ele>1735</ele>
        <time>2020-02-14T08:43:45.596Z</time>
      </trkpt>
      <trkpt lat="45.05285" lon="5.9561">
        <ele>1733</ele>
        <time>2020-02-14T08:43:52.624Z</time>
      </trkpt>
      <trkpt lat="45.05285" lon="5.95601">
        <ele>1732</ele>
        <time>2020-02-14T08:43:59.233Z</time>
      </trkpt>
      <trkpt lat="45.05284" lon="5.95591">
        <ele>1732</ele>
        <time>2020-02-14T08:44:04.000Z</time>
      </trkpt>
      <trkpt lat="45.05285" lon="5.9558">
        <ele>1732</ele>
        <time>2020-02-14T08:44:08.000Z</time>
      </trkpt>
      <trkpt lat="45.05285" lon="5.9557">
        <ele>1732</ele>
        <time>2020-02-14T08:44:10.741Z</time>
      </trkpt>
      <trkpt lat="45.05285" lon="5.95563">
        <ele>1731</ele>
        <time>2020-02-14T08:44:14.318Z</time>
      </trkpt>
      <trkpt lat="45.05284" lon="5.95557">
        <ele>1732</ele>
        <time>2020-02-14T08:44:26.000Z</time>
      </trkpt>
      <trkpt lat="45.0528" lon="5.95561">
        <ele>1732</ele>
        <time>2020-02-14T08:44:40.000Z</time>
      </trkpt>
      <trkpt lat="45.05278" lon="5.95555">
        <ele>1734</ele>
        <time>2020-02-14T08:45:21.000Z</time>
      </trkpt>
      <trkpt lat="45.05274" lon="5.9555">
        <ele>1737</ele>
        <time>2020-02-14T08:46:17.000Z</time>
      </trkpt>
      <trkpt lat="45.0527" lon="5.95547">
        <ele>1742</ele>
        <time>2020-02-14T08:46:41.000Z</time>
      </trkpt>
      <trkpt lat="45.05265" lon="5.95545">
        <ele>1746</ele>
        <time>2020-02-14T08:47:35.000Z</time>
      </trkpt>
      <trkpt lat="45.05259" lon="5.95547">
        <ele>1754</ele>
        <time>2020-02-14T08:49:04.000Z</time>
      </trkpt>
      <trkpt lat="45.05257" lon="5.95541">
        <ele>1760</ele>
        <time>2020-02-14T08:49:33.000Z</time>
      </trkpt>
      <trkpt lat="45.05253" lon="5.95535">
        <ele>1760</ele>
        <time>2020-02-14T08:49:39.000Z</time>
      </trkpt>
      <trkpt lat="45.0525" lon="5.95525">
        <ele>1760</ele>
        <time>2020-02-14T08:49:53.101Z</time>
      </trkpt>
      <trkpt lat="45.05248" lon="5.95517">
        <ele>1758</ele>
        <time>2020-02-14T08:50:00.000Z</time>
      </trkpt>
      <trkpt lat="45.05245" lon="5.9551">
        <ele>1759</ele>
        <time>2020-02-14T08:50:03.384Z</time>
      </trkpt>
      <trkpt lat="45.05244" lon="5.95502">
        <ele>1762</ele>
        <time>2020-02-14T08:50:10.000Z</time>
      </trkpt>
      <trkpt lat="45.05242" lon="5.95496">
        <ele>1759</ele>
        <time>2020-02-14T08:50:27.084Z</time>
      </trkpt>
      <trkpt lat="45.05237" lon="5.95489">
        <ele>1757</ele>
        <time>2020-02-14T08:50:33.928Z</time>
      </trkpt>
      <trkpt lat="45.05233" lon="5.95482">
        <ele>1757</ele>
        <time>2020-02-14T08:50:41.249Z</time>
      </trkpt>
      <trkpt lat="45.05232" lon="5.95474">
        <ele>1759</ele>
        <time>2020-02-14T08:50:48.027Z</time>
      </trkpt>
      <trkpt lat="45.0523" lon="5.95466">
        <ele>1760</ele>
        <time>2020-02-14T08:50:54.254Z</time>
      </trkpt>
      <trkpt lat="45.05228" lon="5.95457">
        <ele>1761</ele>
        <time>2020-02-14T08:51:01.226Z</time>
      </trkpt>
      <trkpt lat="45.05225" lon="5.95451">
        <ele>1757</ele>
        <time>2020-02-14T08:51:12.000Z</time>
      </trkpt>
      <trkpt lat="45.05221" lon="5.95446">
        <ele>1757</ele>
        <time>2020-02-14T08:51:28.140Z</time>
      </trkpt>
      <trkpt lat="45.05216" lon="5.95442">
        <ele>1754</ele>
        <time>2020-02-14T08:51:40.981Z</time>
      </trkpt>
      <trkpt lat="45.05214" lon="5.95434">
        <ele>1754</ele>
        <time>2020-02-14T08:51:47.958Z</time>
      </trkpt>
      <trkpt lat="45.05214" lon="5.95424">
        <ele>1754</ele>
        <time>2020-02-14T08:51:55.377Z</time>
      </trkpt>
      <trkpt lat="45.05212" lon="5.95415">
        <ele>1751</ele>
        <time>2020-02-14T08:52:06.213Z</time>
      </trkpt>
      <trkpt lat="45.05208" lon="5.95409">
        <ele>1753</ele>
        <time>2020-02-14T08:52:13.822Z</time>
      </trkpt>
      <trkpt lat="45.05203" lon="5.95409">
        <ele>1755</ele>
        <time>2020-02-14T08:52:20.596Z</time>
      </trkpt>
      <trkpt lat="45.05197" lon="5.9541">
        <ele>1756</ele>
        <time>2020-02-14T08:52:28.000Z</time>
      </trkpt>
      <trkpt lat="45.05193" lon="5.9541">
        <ele>1759</ele>
        <time>2020-02-14T08:52:34.000Z</time>
      </trkpt>
      <trkpt lat="45.05189" lon="5.95405">
        <ele>1761</ele>
        <time>2020-02-14T08:52:40.065Z</time>
      </trkpt>
      <trkpt lat="45.05186" lon="5.95398">
        <ele>1766</ele>
        <time>2020-02-14T08:52:50.882Z</time>
      </trkpt>
      <trkpt lat="45.05184" lon="5.9539">
        <ele>1769</ele>
        <time>2020-02-14T08:53:01.118Z</time>
      </trkpt>
      <trkpt lat="45.05184" lon="5.95382">
        <ele>1772</ele>
        <time>2020-02-14T08:53:09.000Z</time>
      </trkpt>
      <trkpt lat="45.05184" lon="5.95374">
        <ele>1773</ele>
        <time>2020-02-14T08:53:15.358Z</time>
      </trkpt>
      <trkpt lat="45.05183" lon="5.95366">
        <ele>1774</ele>
        <time>2020-02-14T08:53:24.000Z</time>
      </trkpt>
      <trkpt lat="45.0518" lon="5.9536">
        <ele>1778</ele>
        <time>2020-02-14T08:53:42.000Z</time>
      </trkpt>
      <trkpt lat="45.05181" lon="5.95351">
        <ele>1778</ele>
        <time>2020-02-14T08:53:53.000Z</time>
      </trkpt>
      <trkpt lat="45.05179" lon="5.95344">
        <ele>1780</ele>
        <time>2020-02-14T08:54:01.000Z</time>
      </trkpt>
      <trkpt lat="45.05177" lon="5.95337">
        <ele>1782</ele>
        <time>2020-02-14T08:54:17.000Z</time>
      </trkpt>
      <trkpt lat="45.05177" lon="5.95328">
        <ele>1782</ele>
        <time>2020-02-14T08:54:28.000Z</time>
      </trkpt>
      <trkpt lat="45.05174" lon="5.95321">
        <ele>1784</ele>
        <time>2020-02-14T08:54:35.000Z</time>
      </trkpt>
      <trkpt lat="45.05171" lon="5.95315">
        <ele>1787</ele>
        <time>2020-02-14T08:54:45.260Z</time>
      </trkpt>
      <trkpt lat="45.05168" lon="5.95307">
        <ele>1788</ele>
        <time>2020-02-14T08:54:51.758Z</time>
      </trkpt>
      <trkpt lat="45.05165" lon="5.95302">
        <ele>1793</ele>
        <time>2020-02-14T08:54:59.000Z</time>
      </trkpt>
      <trkpt lat="45.05161" lon="5.95294">
        <ele>1797</ele>
        <time>2020-02-14T08:55:15.000Z</time>
      </trkpt>
      <trkpt lat="45.05157" lon="5.95287">
        <ele>1797</ele>
        <time>2020-02-14T08:55:25.157Z</time>
      </trkpt>
      <trkpt lat="45.05153" lon="5.95279">
        <ele>1800</ele>
        <time>2020-02-14T08:55:35.435Z</time>
      </trkpt>
      <trkpt lat="45.0515" lon="5.95274">
        <ele>1800</ele>
        <time>2020-02-14T08:55:49.898Z</time>
      </trkpt>
      <trkpt lat="45.05146" lon="5.9527">
        <ele>1801</ele>
        <time>2020-02-14T08:55:57.022Z</time>
      </trkpt>
      <trkpt lat="45.05143" lon="5.95266">
        <ele>1805</ele>
        <time>2020-02-14T08:56:04.504Z</time>
      </trkpt>
      <trkpt lat="45.05141" lon="5.95259">
        <ele>1806</ele>
        <time>2020-02-14T08:56:10.714Z</time>
      </trkpt>
      <trkpt lat="45.05138" lon="5.95255">
        <ele>1806</ele>
        <time>2020-02-14T08:56:17.759Z</time>
      </trkpt>
      <trkpt lat="45.05133" lon="5.95248">
        <ele>1807</ele>
        <time>2020-02-14T08:56:28.369Z</time>
      </trkpt>
      <trkpt lat="45.05126" lon="5.95248">
        <ele>1809</ele>
        <time>2020-02-14T08:56:39.000Z</time>
      </trkpt>
      <trkpt lat="45.0512" lon="5.9525">
        <ele>1812</ele>
        <time>2020-02-14T08:57:27.000Z</time>
      </trkpt>
      <trkpt lat="45.05116" lon="5.95246">
        <ele>1811</ele>
        <time>2020-02-14T08:57:35.000Z</time>
      </trkpt>
      <trkpt lat="45.05109" lon="5.95247">
        <ele>1810</ele>
        <time>2020-02-14T08:57:44.739Z</time>
      </trkpt>
      <trkpt lat="45.05102" lon="5.95248">
        <ele>1812</ele>
        <time>2020-02-14T08:57:52.067Z</time>
      </trkpt>
      <trkpt lat="45.05093" lon="5.95248">
        <ele>1813</ele>
        <time>2020-02-14T08:58:01.000Z</time>
      </trkpt>
      <trkpt lat="45.05087" lon="5.95245">
        <ele>1814</ele>
        <time>2020-02-14T08:58:06.578Z</time>
      </trkpt>
      <trkpt lat="45.0508" lon="5.95239">
        <ele>1816</ele>
        <time>2020-02-14T08:58:14.000Z</time>
      </trkpt>
      <trkpt lat="45.05076" lon="5.95232">
        <ele>1823</ele>
        <time>2020-02-14T08:58:21.000Z</time>
      </trkpt>
      <trkpt lat="45.05074" lon="5.95224">
        <ele>1828</ele>
        <time>2020-02-14T08:58:54.000Z</time>
      </trkpt>
      <trkpt lat="45.05073" lon="5.95216">
        <ele>1828</ele>
        <time>2020-02-14T08:58:59.472Z</time>
      </trkpt>
      <trkpt lat="45.05073" lon="5.95207">
        <ele>1833</ele>
        <time>2020-02-14T08:59:07.000Z</time>
      </trkpt>
      <trkpt lat="45.05073" lon="5.952">
        <ele>1833</ele>
        <time>2020-02-14T08:59:12.073Z</time>
      </trkpt>
      <trkpt lat="45.05074" lon="5.95193">
        <ele>1837</ele>
        <time>2020-02-14T08:59:18.943Z</time>
      </trkpt>
      <trkpt lat="45.05074" lon="5.95182">
        <ele>1840</ele>
        <time>2020-02-14T08:59:30.000Z</time>
      </trkpt>
      <trkpt lat="45.05074" lon="5.95174">
        <ele>1841</ele>
        <time>2020-02-14T08:59:36.000Z</time>
      </trkpt>
      <trkpt lat="45.05074" lon="5.95166">
        <ele>1845</ele>
        <time>2020-02-14T08:59:43.000Z</time>
      </trkpt>
      <trkpt lat="45.05071" lon="5.9516">
        <ele>1845</ele>
        <time>2020-02-14T08:59:50.000Z</time>
      </trkpt>
      <trkpt lat="45.05065" lon="5.9516">
        <ele>1846</ele>
        <time>2020-02-14T09:00:03.000Z</time>
      </trkpt>
      <trkpt lat="45.05061" lon="5.9516">
        <ele>1847</ele>
        <time>2020-02-14T09:00:13.000Z</time>
      </trkpt>
      <trkpt lat="45.05059" lon="5.95152">
        <ele>1849</ele>
        <time>2020-02-14T09:00:24.000Z</time>
      </trkpt>
      <trkpt lat="45.05056" lon="5.95146">
        <ele>1847</ele>
        <time>2020-02-14T09:00:33.683Z</time>
      </trkpt>
      <trkpt lat="45.05051" lon="5.95146">
        <ele>1850</ele>
        <time>2020-02-14T09:00:44.000Z</time>
      </trkpt>
      <trkpt lat="45.05047" lon="5.95149">
        <ele>1851</ele>
        <time>2020-02-14T09:00:54.000Z</time>
      </trkpt>
      <trkpt lat="45.05044" lon="5.95154">
        <ele>1853</ele>
        <time>2020-02-14T09:01:04.000Z</time>
      </trkpt>
      <trkpt lat="45.05041" lon="5.95159">
        <ele>1853</ele>
        <time>2020-02-14T09:01:11.000Z</time>
      </trkpt>
      <trkpt lat="45.05036" lon="5.95163">
        <ele>1857</ele>
        <time>2020-02-14T09:01:21.000Z</time>
      </trkpt>
      <trkpt lat="45.05031" lon="5.95167">
        <ele>1857</ele>
        <time>2020-02-14T09:01:27.131Z</time>
      </trkpt>
      <trkpt lat="45.05026" lon="5.95168">
        <ele>1860</ele>
        <time>2020-02-14T09:01:34.000Z</time>
      </trkpt>
      <trkpt lat="45.05021" lon="5.95172">
        <ele>1859</ele>
        <time>2020-02-14T09:01:44.000Z</time>
      </trkpt>
      <trkpt lat="45.05017" lon="5.95176">
        <ele>1859</ele>
        <time>2020-02-14T09:01:54.094Z</time>
      </trkpt>
      <trkpt lat="45.05014" lon="5.95182">
        <ele>1861</ele>
        <time>2020-02-14T09:02:01.102Z</time>
      </trkpt>
      <trkpt lat="45.05011" lon="5.95188">
        <ele>1863</ele>
        <time>2020-02-14T09:02:12.000Z</time>
      </trkpt>
      <trkpt lat="45.05008" lon="5.95194">
        <ele>1868</ele>
        <time>2020-02-14T09:02:26.000Z</time>
      </trkpt>
      <trkpt lat="45.05004" lon="5.95188">
        <ele>1878</ele>
        <time>2020-02-14T09:02:48.000Z</time>
      </trkpt>
      <trkpt lat="45.05003" lon="5.95182">
        <ele>1881</ele>
        <time>2020-02-14T09:02:53.479Z</time>
      </trkpt>
      <trkpt lat="45.05004" lon="5.95174">
        <ele>1883</ele>
        <time>2020-02-14T09:03:01.000Z</time>
      </trkpt>
      <trkpt lat="45.05005" lon="5.95165">
        <ele>1887</ele>
        <time>2020-02-14T09:03:07.000Z</time>
      </trkpt>
      <trkpt lat="45.05006" lon="5.95158">
        <ele>1893</ele>
        <time>2020-02-14T09:03:14.000Z</time>
      </trkpt>
      <trkpt lat="45.05005" lon="5.95152">
        <ele>1893</ele>
        <time>2020-02-14T09:03:24.000Z</time>
      </trkpt>
      <trkpt lat="45.05006" lon="5.95144">
        <ele>1896</ele>
        <time>2020-02-14T09:03:33.122Z</time>
      </trkpt>
      <trkpt lat="45.05008" lon="5.95136">
        <ele>1900</ele>
        <time>2020-02-14T09:03:46.070Z</time>
      </trkpt>
      <trkpt lat="45.05011" lon="5.9513">
        <ele>1902</ele>
        <time>2020-02-14T09:03:57.000Z</time>
      </trkpt>
      <trkpt lat="45.05014" lon="5.95123">
        <ele>1900</ele>
        <time>2020-02-14T09:04:06.312Z</time>
      </trkpt>
      <trkpt lat="45.05017" lon="5.95118">
        <ele>1899</ele>
        <time>2020-02-14T09:04:14.000Z</time>
      </trkpt>
      <trkpt lat="45.05022" lon="5.9512">
        <ele>1897</ele>
        <time>2020-02-14T09:05:00.922Z</time>
      </trkpt>
      <trkpt lat="45.05017" lon="5.95115">
        <ele>1900</ele>
        <time>2020-02-14T09:05:17.713Z</time>
      </trkpt>
      <trkpt lat="45.05013" lon="5.95116">
        <ele>1900</ele>
        <time>2020-02-14T09:05:28.000Z</time>
      </trkpt>
      <trkpt lat="45.05008" lon="5.95119">
        <ele>1900</ele>
        <time>2020-02-14T09:05:47.000Z</time>
      </trkpt>
      <trkpt lat="45.05012" lon="5.95125">
        <ele>1902</ele>
        <time>2020-02-14T09:06:57.018Z</time>
      </trkpt>
      <trkpt lat="45.05018" lon="5.95125">
        <ele>1903</ele>
        <time>2020-02-14T09:07:11.000Z</time>
      </trkpt>
      <trkpt lat="45.05023" lon="5.95124">
        <ele>1904</ele>
        <time>2020-02-14T09:07:24.100Z</time>
      </trkpt>
      <trkpt lat="45.05026" lon="5.95116">
        <ele>1906</ele>
        <time>2020-02-14T09:07:34.000Z</time>
      </trkpt>
      <trkpt lat="45.0503" lon="5.95113">
        <ele>1906</ele>
        <time>2020-02-14T09:07:43.181Z</time>
      </trkpt>
      <trkpt lat="45.05028" lon="5.95105">
        <ele>1918</ele>
        <time>2020-02-14T09:08:42.000Z</time>
      </trkpt>
      <trkpt lat="45.05025" lon="5.951">
        <ele>1918</ele>
        <time>2020-02-14T09:08:52.371Z</time>
      </trkpt>
      <trkpt lat="45.05026" lon="5.95092">
        <ele>1922</ele>
        <time>2020-02-14T09:09:14.000Z</time>
      </trkpt>
      <trkpt lat="45.0503" lon="5.95089">
        <ele>1923</ele>
        <time>2020-02-14T09:09:21.000Z</time>
      </trkpt>
      <trkpt lat="45.05033" lon="5.95081">
        <ele>1922</ele>
        <time>2020-02-14T09:09:30.633Z</time>
      </trkpt>
      <trkpt lat="45.05036" lon="5.95073">
        <ele>1924</ele>
        <time>2020-02-14T09:09:37.343Z</time>
      </trkpt>
      <trkpt lat="45.05039" lon="5.95066">
        <ele>1924</ele>
        <time>2020-02-14T09:09:44.297Z</time>
      </trkpt>
      <trkpt lat="45.05041" lon="5.9506">
        <ele>1930</ele>
        <time>2020-02-14T09:09:51.000Z</time>
      </trkpt>
      <trkpt lat="45.05045" lon="5.95055">
        <ele>1934</ele>
        <time>2020-02-14T09:10:02.000Z</time>
      </trkpt>
      <trkpt lat="45.05044" lon="5.95048">
        <ele>1937</ele>
        <time>2020-02-14T09:10:12.000Z</time>
      </trkpt>
      <trkpt lat="45.05046" lon="5.95042">
        <ele>1937</ele>
        <time>2020-02-14T09:10:19.000Z</time>
      </trkpt>
      <trkpt lat="45.05049" lon="5.95036">
        <ele>1939</ele>
        <time>2020-02-14T09:10:25.106Z</time>
      </trkpt>
      <trkpt lat="45.05052" lon="5.9503">
        <ele>1942</ele>
        <time>2020-02-14T09:10:33.000Z</time>
      </trkpt>
      <trkpt lat="45.05054" lon="5.95023">
        <ele>1944</ele>
        <time>2020-02-14T09:10:38.878Z</time>
      </trkpt>
      <trkpt lat="45.05055" lon="5.95016">
        <ele>1946</ele>
        <time>2020-02-14T09:10:46.956Z</time>
      </trkpt>
      <trkpt lat="45.05055" lon="5.95006">
        <ele>1946</ele>
        <time>2020-02-14T09:10:56.655Z</time>
      </trkpt>
      <trkpt lat="45.05056" lon="5.94999">
        <ele>1946</ele>
        <time>2020-02-14T09:11:04.097Z</time>
      </trkpt>
      <trkpt lat="45.05057" lon="5.9499">
        <ele>1945</ele>
        <time>2020-02-14T09:11:13.714Z</time>
      </trkpt>
      <trkpt lat="45.05059" lon="5.94984">
        <ele>1943</ele>
        <time>2020-02-14T09:11:23.414Z</time>
      </trkpt>
      <trkpt lat="45.05057" lon="5.94976">
        <ele>1945</ele>
        <time>2020-02-14T09:11:33.319Z</time>
      </trkpt>
      <trkpt lat="45.05059" lon="5.9497">
        <ele>1949</ele>
        <time>2020-02-14T09:11:43.604Z</time>
      </trkpt>
      <trkpt lat="45.05061" lon="5.94963">
        <ele>1951</ele>
        <time>2020-02-14T09:11:58.000Z</time>
      </trkpt>
      <trkpt lat="45.05067" lon="5.9496">
        <ele>1952</ele>
        <time>2020-02-14T09:12:05.000Z</time>
      </trkpt>
      <trkpt lat="45.05072" lon="5.94958">
        <ele>1959</ele>
        <time>2020-02-14T09:12:18.092Z</time>
      </trkpt>
      <trkpt lat="45.05075" lon="5.94951">
        <ele>1959</ele>
        <time>2020-02-14T09:12:30.000Z</time>
      </trkpt>
      <trkpt lat="45.05075" lon="5.94942">
        <ele>1960</ele>
        <time>2020-02-14T09:12:38.000Z</time>
      </trkpt>
      <trkpt lat="45.05075" lon="5.94932">
        <ele>1963</ele>
        <time>2020-02-14T09:12:49.000Z</time>
      </trkpt>
      <trkpt lat="45.05076" lon="5.94923">
        <ele>1965</ele>
        <time>2020-02-14T09:12:59.000Z</time>
      </trkpt>
      <trkpt lat="45.05076" lon="5.94913">
        <ele>1963</ele>
        <time>2020-02-14T09:13:07.000Z</time>
      </trkpt>
      <trkpt lat="45.05074" lon="5.94905">
        <ele>1966</ele>
        <time>2020-02-14T09:13:14.000Z</time>
      </trkpt>
      <trkpt lat="45.05074" lon="5.94898">
        <ele>1969</ele>
        <time>2020-02-14T09:13:21.000Z</time>
      </trkpt>
      <trkpt lat="45.05075" lon="5.94891">
        <ele>1970</ele>
        <time>2020-02-14T09:13:28.000Z</time>
      </trkpt>
      <trkpt lat="45.05072" lon="5.94883">
        <ele>1974</ele>
        <time>2020-02-14T09:13:45.000Z</time>
      </trkpt>
      <trkpt lat="45.05073" lon="5.94874">
        <ele>1974</ele>
        <time>2020-02-14T09:13:52.000Z</time>
      </trkpt>
      <trkpt lat="45.05076" lon="5.94868">
        <ele>1976</ele>
        <time>2020-02-14T09:13:56.000Z</time>
      </trkpt>
      <trkpt lat="45.05075" lon="5.9486">
        <ele>1976</ele>
        <time>2020-02-14T09:14:05.095Z</time>
      </trkpt>
      <trkpt lat="45.05074" lon="5.94852">
        <ele>1975</ele>
        <time>2020-02-14T09:14:11.234Z</time>
      </trkpt>
      <trkpt lat="45.05077" lon="5.94844">
        <ele>1979</ele>
        <time>2020-02-14T09:14:19.000Z</time>
      </trkpt>
      <trkpt lat="45.05078" lon="5.94835">
        <ele>1978</ele>
        <time>2020-02-14T09:14:24.735Z</time>
      </trkpt>
      <trkpt lat="45.05079" lon="5.94827">
        <ele>1981</ele>
        <time>2020-02-14T09:14:32.000Z</time>
      </trkpt>
      <trkpt lat="45.05079" lon="5.94819">
        <ele>1982</ele>
        <time>2020-02-14T09:14:39.000Z</time>
      </trkpt>
      <trkpt lat="45.05078" lon="5.94812">
        <ele>1983</ele>
        <time>2020-02-14T09:14:45.805Z</time>
      </trkpt>
      <trkpt lat="45.05078" lon="5.94805">
        <ele>1987</ele>
        <time>2020-02-14T09:14:53.000Z</time>
      </trkpt>
      <trkpt lat="45.05078" lon="5.94798">
        <ele>1991</ele>
        <time>2020-02-14T09:16:06.290Z</time>
      </trkpt>
      <trkpt lat="45.0508" lon="5.94792">
        <ele>1996</ele>
        <time>2020-02-14T09:16:16.147Z</time>
      </trkpt>
      <trkpt lat="45.05082" lon="5.94785">
        <ele>1998</ele>
        <time>2020-02-14T09:16:23.000Z</time>
      </trkpt>
      <trkpt lat="45.05083" lon="5.94777">
        <ele>1999</ele>
        <time>2020-02-14T09:16:30.000Z</time>
      </trkpt>
      <trkpt lat="45.05085" lon="5.94767">
        <ele>2002</ele>
        <time>2020-02-14T09:16:36.472Z</time>
      </trkpt>
      <trkpt lat="45.05089" lon="5.94758">
        <ele>2004</ele>
        <time>2020-02-14T09:16:44.232Z</time>
      </trkpt>
      <trkpt lat="45.05092" lon="5.94751">
        <ele>2006</ele>
        <time>2020-02-14T09:16:51.000Z</time>
      </trkpt>
      <trkpt lat="45.05095" lon="5.94745">
        <ele>2008</ele>
        <time>2020-02-14T09:16:58.000Z</time>
      </trkpt>
      <trkpt lat="45.05098" lon="5.94739">
        <ele>2009</ele>
        <time>2020-02-14T09:17:05.000Z</time>
      </trkpt>
      <trkpt lat="45.05103" lon="5.94734">
        <ele>2011</ele>
        <time>2020-02-14T09:17:11.234Z</time>
      </trkpt>
      <trkpt lat="45.05107" lon="5.94729">
        <ele>2013</ele>
        <time>2020-02-14T09:17:19.000Z</time>
      </trkpt>
      <trkpt lat="45.05109" lon="5.94721">
        <ele>2016</ele>
        <time>2020-02-14T09:17:29.475Z</time>
      </trkpt>
      <trkpt lat="45.05112" lon="5.94716">
        <ele>2020</ele>
        <time>2020-02-14T09:17:35.779Z</time>
      </trkpt>
      <trkpt lat="45.05115" lon="5.9471">
        <ele>2025</ele>
        <time>2020-02-14T09:17:47.000Z</time>
      </trkpt>
      <trkpt lat="45.05115" lon="5.94702">
        <ele>2028</ele>
        <time>2020-02-14T09:17:56.313Z</time>
      </trkpt>
      <trkpt lat="45.05118" lon="5.94696">
        <ele>2033</ele>
        <time>2020-02-14T09:18:06.097Z</time>
      </trkpt>
      <trkpt lat="45.05122" lon="5.94693">
        <ele>2036</ele>
        <time>2020-02-14T09:18:16.000Z</time>
      </trkpt>
      <trkpt lat="45.05125" lon="5.94688">
        <ele>2040</ele>
        <time>2020-02-14T09:18:26.000Z</time>
      </trkpt>
      <trkpt lat="45.0513" lon="5.94686">
        <ele>2044</ele>
        <time>2020-02-14T09:18:37.000Z</time>
      </trkpt>
      <trkpt lat="45.05134" lon="5.94682">
        <ele>2044</ele>
        <time>2020-02-14T09:18:51.000Z</time>
      </trkpt>
      <trkpt lat="45.05134" lon="5.94675">
        <ele>2042</ele>
        <time>2020-02-14T09:19:00.021Z</time>
      </trkpt>
      <trkpt lat="45.05136" lon="5.94667">
        <ele>2039</ele>
        <time>2020-02-14T09:19:10.185Z</time>
      </trkpt>
      <trkpt lat="45.0514" lon="5.94661">
        <ele>2039</ele>
        <time>2020-02-14T09:19:21.000Z</time>
      </trkpt>
      <trkpt lat="45.05145" lon="5.94654">
        <ele>2038</ele>
        <time>2020-02-14T09:19:30.099Z</time>
      </trkpt>
      <trkpt lat="45.05147" lon="5.94648">
        <ele>2038</ele>
        <time>2020-02-14T09:19:37.000Z</time>
      </trkpt>
      <trkpt lat="45.05151" lon="5.94643">
        <ele>2038</ele>
        <time>2020-02-14T09:19:49.242Z</time>
      </trkpt>
      <trkpt lat="45.05155" lon="5.9464">
        <ele>2035</ele>
        <time>2020-02-14T09:20:03.785Z</time>
      </trkpt>
      <trkpt lat="45.05155" lon="5.94631">
        <ele>2035</ele>
        <time>2020-02-14T09:20:16.000Z</time>
      </trkpt>
      <trkpt lat="45.05161" lon="5.94632">
        <ele>2040</ele>
        <time>2020-02-14T09:20:29.837Z</time>
      </trkpt>
      <trkpt lat="45.05166" lon="5.94633">
        <ele>2042</ele>
        <time>2020-02-14T09:20:40.676Z</time>
      </trkpt>
      <trkpt lat="45.0517" lon="5.94629">
        <ele>2042</ele>
        <time>2020-02-14T09:20:54.000Z</time>
      </trkpt>
      <trkpt lat="45.05171" lon="5.94621">
        <ele>2045</ele>
        <time>2020-02-14T09:21:10.721Z</time>
      </trkpt>
      <trkpt lat="45.05175" lon="5.94615">
        <ele>2045</ele>
        <time>2020-02-14T09:21:38.024Z</time>
      </trkpt>
      <trkpt lat="45.05179" lon="5.94616">
        <ele>2050</ele>
        <time>2020-02-14T09:21:55.076Z</time>
      </trkpt>
      <trkpt lat="45.05184" lon="5.94612">
        <ele>2058</ele>
        <time>2020-02-14T09:22:47.702Z</time>
      </trkpt>
      <trkpt lat="45.05186" lon="5.94606">
        <ele>2055</ele>
        <time>2020-02-14T09:23:13.000Z</time>
      </trkpt>
      <trkpt lat="45.05185" lon="5.94613">
        <ele>2065</ele>
        <time>2020-02-14T09:23:26.000Z</time>
      </trkpt>
      <trkpt lat="45.05188" lon="5.94619">
        <ele>2069</ele>
        <time>2020-02-14T09:23:40.418Z</time>
      </trkpt>
      <trkpt lat="45.05192" lon="5.9462">
        <ele>2073</ele>
        <time>2020-02-14T09:24:01.000Z</time>
      </trkpt>
      <trkpt lat="45.05193" lon="5.94629">
        <ele>2080</ele>
        <time>2020-02-14T09:24:13.900Z</time>
      </trkpt>
      <trkpt lat="45.05196" lon="5.94634">
        <ele>2078</ele>
        <time>2020-02-14T09:24:20.714Z</time>
      </trkpt>
      <trkpt lat="45.052" lon="5.9463">
        <ele>2077</ele>
        <time>2020-02-14T09:24:27.841Z</time>
      </trkpt>
      <trkpt lat="45.05201" lon="5.94622">
        <ele>2077</ele>
        <time>2020-02-14T09:24:36.000Z</time>
      </trkpt>
      <trkpt lat="45.05203" lon="5.94615">
        <ele>2077</ele>
        <time>2020-02-14T09:24:43.000Z</time>
      </trkpt>
      <trkpt lat="45.05204" lon="5.94604">
        <ele>2076</ele>
        <time>2020-02-14T09:24:48.347Z</time>
      </trkpt>
      <trkpt lat="45.05204" lon="5.94595">
        <ele>2076</ele>
        <time>2020-02-14T09:24:56.000Z</time>
      </trkpt>
      <trkpt lat="45.05204" lon="5.94588">
        <ele>2078</ele>
        <time>2020-02-14T09:25:01.010Z</time>
      </trkpt>
      <trkpt lat="45.05205" lon="5.9458">
        <ele>2081</ele>
        <time>2020-02-14T09:25:09.000Z</time>
      </trkpt>
      <trkpt lat="45.05204" lon="5.94569">
        <ele>2083</ele>
        <time>2020-02-14T09:25:17.000Z</time>
      </trkpt>
      <trkpt lat="45.05201" lon="5.94561">
        <ele>2084</ele>
        <time>2020-02-14T09:25:22.854Z</time>
      </trkpt>
      <trkpt lat="45.052" lon="5.94552">
        <ele>2085</ele>
        <time>2020-02-14T09:25:29.286Z</time>
      </trkpt>
      <trkpt lat="45.05199" lon="5.94542">
        <ele>2088</ele>
        <time>2020-02-14T09:25:37.000Z</time>
      </trkpt>
      <trkpt lat="45.052" lon="5.94533">
        <ele>2090</ele>
        <time>2020-02-14T09:25:42.246Z</time>
      </trkpt>
      <trkpt lat="45.05201" lon="5.94525">
        <ele>2089</ele>
        <time>2020-02-14T09:25:48.416Z</time>
      </trkpt>
      <trkpt lat="45.05204" lon="5.94518">
        <ele>2090</ele>
        <time>2020-02-14T09:25:56.000Z</time>
      </trkpt>
      <trkpt lat="45.05209" lon="5.9451">
        <ele>2090</ele>
        <time>2020-02-14T09:26:03.000Z</time>
      </trkpt>
      <trkpt lat="45.05211" lon="5.94504">
        <ele>2088</ele>
        <time>2020-02-14T09:26:22.566Z</time>
      </trkpt>
      <trkpt lat="45.0521" lon="5.94494">
        <ele>2090</ele>
        <time>2020-02-14T09:26:31.000Z</time>
      </trkpt>
      <trkpt lat="45.05214" lon="5.94486">
        <ele>2089</ele>
        <time>2020-02-14T09:26:38.000Z</time>
      </trkpt>
      <trkpt lat="45.05214" lon="5.94479">
        <ele>2089</ele>
        <time>2020-02-14T09:26:50.205Z</time>
      </trkpt>
      <trkpt lat="45.0522" lon="5.94473">
        <ele>2091</ele>
        <time>2020-02-14T09:27:00.917Z</time>
      </trkpt>
      <trkpt lat="45.0522" lon="5.94463">
        <ele>2090</ele>
        <time>2020-02-14T09:27:10.000Z</time>
      </trkpt>
      <trkpt lat="45.05223" lon="5.94454">
        <ele>2090</ele>
        <time>2020-02-14T09:27:16.000Z</time>
      </trkpt>
      <trkpt lat="45.05228" lon="5.94443">
        <ele>2090</ele>
        <time>2020-02-14T09:27:22.036Z</time>
      </trkpt>
      <trkpt lat="45.05231" lon="5.94434">
        <ele>2091</ele>
        <time>2020-02-14T09:27:31.000Z</time>
      </trkpt>
      <trkpt lat="45.05232" lon="5.94423">
        <ele>2091</ele>
        <time>2020-02-14T09:27:38.000Z</time>
      </trkpt>
      <trkpt lat="45.0523" lon="5.9441">
        <ele>2092</ele>
        <time>2020-02-14T09:27:43.116Z</time>
      </trkpt>
      <trkpt lat="45.05229" lon="5.94403">
        <ele>2092</ele>
        <time>2020-02-14T09:27:48.000Z</time>
      </trkpt>
      <trkpt lat="45.05229" lon="5.94395">
        <ele>2092</ele>
        <time>2020-02-14T09:27:51.214Z</time>
      </trkpt>
      <trkpt lat="45.05231" lon="5.94389">
        <ele>2092</ele>
        <time>2020-02-14T09:27:55.000Z</time>
      </trkpt>
      <trkpt lat="45.05234" lon="5.94379">
        <ele>2093</ele>
        <time>2020-02-14T09:28:01.510Z</time>
      </trkpt>
      <trkpt lat="45.05236" lon="5.94373">
        <ele>2094</ele>
        <time>2020-02-14T09:28:05.174Z</time>
      </trkpt>
      <trkpt lat="45.05237" lon="5.94366">
        <ele>2094</ele>
        <time>2020-02-14T09:28:09.000Z</time>
      </trkpt>
      <trkpt lat="45.05238" lon="5.94353">
        <ele>2093</ele>
        <time>2020-02-14T09:28:16.000Z</time>
      </trkpt>
      <trkpt lat="45.05241" lon="5.94343">
        <ele>2095</ele>
        <time>2020-02-14T09:28:23.000Z</time>
      </trkpt>
      <trkpt lat="45.05245" lon="5.94335">
        <ele>2096</ele>
        <time>2020-02-14T09:28:29.000Z</time>
      </trkpt>
      <trkpt lat="45.05247" lon="5.94326">
        <ele>2098</ele>
        <time>2020-02-14T09:28:34.635Z</time>
      </trkpt>
      <trkpt lat="45.05249" lon="5.94315">
        <ele>2098</ele>
        <time>2020-02-14T09:28:41.674Z</time>
      </trkpt>
      <trkpt lat="45.05254" lon="5.94307">
        <ele>2099</ele>
        <time>2020-02-14T09:28:50.000Z</time>
      </trkpt>
      <trkpt lat="45.0526" lon="5.94294">
        <ele>2098</ele>
        <time>2020-02-14T09:28:56.654Z</time>
      </trkpt>
      <trkpt lat="45.05262" lon="5.94288">
        <ele>2099</ele>
        <time>2020-02-14T09:29:01.000Z</time>
      </trkpt>
      <trkpt lat="45.05266" lon="5.94278">
        <ele>2100</ele>
        <time>2020-02-14T09:29:07.078Z</time>
      </trkpt>
      <trkpt lat="45.05269" lon="5.94271">
        <ele>2101</ele>
        <time>2020-02-14T09:29:14.000Z</time>
      </trkpt>
      <trkpt lat="45.05273" lon="5.94275">
        <ele>2104</ele>
        <time>2020-02-14T09:30:23.000Z</time>
      </trkpt>
      <trkpt lat="45.05274" lon="5.94258">
        <ele>2103</ele>
        <time>2020-02-14T09:30:32.313Z</time>
      </trkpt>
      <trkpt lat="45.05273" lon="5.94252">
        <ele>2101</ele>
        <time>2020-02-14T09:30:37.000Z</time>
      </trkpt>
      <trkpt lat="45.05272" lon="5.94244">
        <ele>2100</ele>
        <time>2020-02-14T09:30:39.787Z</time>
      </trkpt>
      <trkpt lat="45.05271" lon="5.94238">
        <ele>2101</ele>
        <time>2020-02-14T09:30:44.000Z</time>
      </trkpt>
      <trkpt lat="45.05272" lon="5.94229">
        <ele>2104</ele>
        <time>2020-02-14T09:30:53.000Z</time>
      </trkpt>
      <trkpt lat="45.05273" lon="5.94212">
        <ele>2101</ele>
        <time>2020-02-14T09:31:04.000Z</time>
      </trkpt>
      <trkpt lat="45.05274" lon="5.94201">
        <ele>2101</ele>
        <time>2020-02-14T09:31:08.000Z</time>
      </trkpt>
      <trkpt lat="45.05274" lon="5.94192">
        <ele>2099</ele>
        <time>2020-02-14T09:31:11.038Z</time>
      </trkpt>
      <trkpt lat="45.05276" lon="5.94183">
        <ele>2099</ele>
        <time>2020-02-14T09:31:30.346Z</time>
      </trkpt>
      <trkpt lat="45.05276" lon="5.94173">
        <ele>2096</ele>
        <time>2020-02-14T09:31:33.880Z</time>
      </trkpt>
      <trkpt lat="45.05276" lon="5.94166">
        <ele>2096</ele>
        <time>2020-02-14T09:31:37.316Z</time>
      </trkpt>
      <trkpt lat="45.05276" lon="5.94157">
        <ele>2096</ele>
        <time>2020-02-14T09:31:41.075Z</time>
      </trkpt>
      <trkpt lat="45.05276" lon="5.94145">
        <ele>2095</ele>
        <time>2020-02-14T09:31:48.000Z</time>
      </trkpt>
      <trkpt lat="45.05276" lon="5.94134">
        <ele>2094</ele>
        <time>2020-02-14T09:31:54.000Z</time>
      </trkpt>
      <trkpt lat="45.05276" lon="5.94123">
        <ele>2096</ele>
        <time>2020-02-14T09:32:00.950Z</time>
      </trkpt>
      <trkpt lat="45.05278" lon="5.94113">
        <ele>2097</ele>
        <time>2020-02-14T09:32:08.000Z</time>
      </trkpt>
      <trkpt lat="45.05279" lon="5.94102">
        <ele>2098</ele>
        <time>2020-02-14T09:32:15.000Z</time>
      </trkpt>
      <trkpt lat="45.0528" lon="5.94092">
        <ele>2097</ele>
        <time>2020-02-14T09:32:22.000Z</time>
      </trkpt>
      <trkpt lat="45.0528" lon="5.94079">
        <ele>2096</ele>
        <time>2020-02-14T09:32:29.621Z</time>
      </trkpt>
      <trkpt lat="45.05281" lon="5.94068">
        <ele>2097</ele>
        <time>2020-02-14T09:32:36.015Z</time>
      </trkpt>
      <trkpt lat="45.05277" lon="5.94059">
        <ele>2097</ele>
        <time>2020-02-14T09:32:42.737Z</time>
      </trkpt>
      <trkpt lat="45.05276" lon="5.94047">
        <ele>2098</ele>
        <time>2020-02-14T09:32:49.675Z</time>
      </trkpt>
      <trkpt lat="45.05275" lon="5.94038">
        <ele>2098</ele>
        <time>2020-02-14T09:32:57.000Z</time>
      </trkpt>
      <trkpt lat="45.05274" lon="5.94028">
        <ele>2100</ele>
        <time>2020-02-14T09:33:02.871Z</time>
      </trkpt>
      <trkpt lat="45.05274" lon="5.94017">
        <ele>2100</ele>
        <time>2020-02-14T09:33:11.000Z</time>
      </trkpt>
      <trkpt lat="45.05272" lon="5.94007">
        <ele>2099</ele>
        <time>2020-02-14T09:33:16.877Z</time>
      </trkpt>
      <trkpt lat="45.05269" lon="5.93999">
        <ele>2101</ele>
        <time>2020-02-14T09:33:24.000Z</time>
      </trkpt>
      <trkpt lat="45.05267" lon="5.93991">
        <ele>2101</ele>
        <time>2020-02-14T09:33:30.103Z</time>
      </trkpt>
      <trkpt lat="45.05267" lon="5.93982">
        <ele>2107</ele>
        <time>2020-02-14T09:33:46.379Z</time>
      </trkpt>
      <trkpt lat="45.05268" lon="5.93969">
        <ele>2108</ele>
        <time>2020-02-14T09:33:53.314Z</time>
      </trkpt>
      <trkpt lat="45.05267" lon="5.9396">
        <ele>2109</ele>
        <time>2020-02-14T09:34:01.000Z</time>
      </trkpt>
      <trkpt lat="45.05264" lon="5.93951">
        <ele>2109</ele>
        <time>2020-02-14T09:34:10.802Z</time>
      </trkpt>
      <trkpt lat="45.05264" lon="5.93942">
        <ele>2109</ele>
        <time>2020-02-14T09:34:21.205Z</time>
      </trkpt>
      <trkpt lat="45.05261" lon="5.93932">
        <ele>2112</ele>
        <time>2020-02-14T09:34:31.073Z</time>
      </trkpt>
      <trkpt lat="45.05257" lon="5.93928">
        <ele>2113</ele>
        <time>2020-02-14T09:34:37.555Z</time>
      </trkpt>
      <trkpt lat="45.05253" lon="5.93926">
        <ele>2114</ele>
        <time>2020-02-14T09:34:44.490Z</time>
      </trkpt>
      <trkpt lat="45.05246" lon="5.9393">
        <ele>2114</ele>
        <time>2020-02-14T09:34:51.000Z</time>
      </trkpt>
      <trkpt lat="45.0524" lon="5.93933">
        <ele>2112</ele>
        <time>2020-02-14T09:34:57.221Z</time>
      </trkpt>
      <trkpt lat="45.05237" lon="5.93926">
        <ele>2111</ele>
        <time>2020-02-14T09:35:07.517Z</time>
      </trkpt>
      <trkpt lat="45.05236" lon="5.93918">
        <ele>2112</ele>
        <time>2020-02-14T09:35:14.119Z</time>
      </trkpt>
      <trkpt lat="45.05235" lon="5.93911">
        <ele>2114</ele>
        <time>2020-02-14T09:35:20.746Z</time>
      </trkpt>
      <trkpt lat="45.05233" lon="5.93902">
        <ele>2116</ele>
        <time>2020-02-14T09:35:29.000Z</time>
      </trkpt>
      <trkpt lat="45.05233" lon="5.93894">
        <ele>2119</ele>
        <time>2020-02-14T09:35:35.912Z</time>
      </trkpt>
      <trkpt lat="45.05232" lon="5.93885">
        <ele>2122</ele>
        <time>2020-02-14T09:35:42.576Z</time>
      </trkpt>
      <trkpt lat="45.0523" lon="5.93878">
        <ele>2123</ele>
        <time>2020-02-14T09:35:50.000Z</time>
      </trkpt>
      <trkpt lat="45.05228" lon="5.93871">
        <ele>2123</ele>
        <time>2020-02-14T09:35:56.125Z</time>
      </trkpt>
      <trkpt lat="45.05226" lon="5.93863">
        <ele>2124</ele>
        <time>2020-02-14T09:36:07.000Z</time>
      </trkpt>
      <trkpt lat="45.05224" lon="5.93857">
        <ele>2123</ele>
        <time>2020-02-14T09:36:13.036Z</time>
      </trkpt>
      <trkpt lat="45.05222" lon="5.93851">
        <ele>2120</ele>
        <time>2020-02-14T09:36:20.338Z</time>
      </trkpt>
      <trkpt lat="45.05219" lon="5.93845">
        <ele>2121</ele>
        <time>2020-02-14T09:36:30.141Z</time>
      </trkpt>
      <trkpt lat="45.05213" lon="5.93847">
        <ele>2121</ele>
        <time>2020-02-14T09:36:43.393Z</time>
      </trkpt>
      <trkpt lat="45.05209" lon="5.93844">
        <ele>2120</ele>
        <time>2020-02-14T09:36:50.644Z</time>
      </trkpt>
      <trkpt lat="45.05205" lon="5.93837">
        <ele>2122</ele>
        <time>2020-02-14T09:36:58.000Z</time>
      </trkpt>
      <trkpt lat="45.05202" lon="5.93832">
        <ele>2123</ele>
        <time>2020-02-14T09:37:04.077Z</time>
      </trkpt>
      <trkpt lat="45.05201" lon="5.93825">
        <ele>2125</ele>
        <time>2020-02-14T09:37:11.000Z</time>
      </trkpt>
      <trkpt lat="45.052" lon="5.93818">
        <ele>2126</ele>
        <time>2020-02-14T09:37:17.000Z</time>
      </trkpt>
      <trkpt lat="45.052" lon="5.9381">
        <ele>2130</ele>
        <time>2020-02-14T09:37:23.860Z</time>
      </trkpt>
      <trkpt lat="45.05201" lon="5.93802">
        <ele>2132</ele>
        <time>2020-02-14T09:37:31.000Z</time>
      </trkpt>
      <trkpt lat="45.05202" lon="5.93795">
        <ele>2133</ele>
        <time>2020-02-14T09:37:38.000Z</time>
      </trkpt>
      <trkpt lat="45.05202" lon="5.93788">
        <ele>2136</ele>
        <time>2020-02-14T09:37:44.000Z</time>
      </trkpt>
      <trkpt lat="45.05202" lon="5.93778">
        <ele>2137</ele>
        <time>2020-02-14T09:37:50.000Z</time>
      </trkpt>
      <trkpt lat="45.052" lon="5.93771">
        <ele>2138</ele>
        <time>2020-02-14T09:37:53.000Z</time>
      </trkpt>
      <trkpt lat="45.05198" lon="5.93764">
        <ele>2139</ele>
        <time>2020-02-14T09:37:55.827Z</time>
      </trkpt>
      <trkpt lat="45.05197" lon="5.93752">
        <ele>2138</ele>
        <time>2020-02-14T09:38:03.076Z</time>
      </trkpt>
      <trkpt lat="45.05196" lon="5.93743">
        <ele>2139</ele>
        <time>2020-02-14T09:38:09.225Z</time>
      </trkpt>
      <trkpt lat="45.05197" lon="5.93733">
        <ele>2138</ele>
        <time>2020-02-14T09:38:15.655Z</time>
      </trkpt>
      <trkpt lat="45.05197" lon="5.93721">
        <ele>2138</ele>
        <time>2020-02-14T09:38:22.717Z</time>
      </trkpt>
      <trkpt lat="45.05197" lon="5.93711">
        <ele>2137</ele>
        <time>2020-02-14T09:38:29.520Z</time>
      </trkpt>
      <trkpt lat="45.05197" lon="5.93705">
        <ele>2137</ele>
        <time>2020-02-14T09:38:34.000Z</time>
      </trkpt>
      <trkpt lat="45.05193" lon="5.93696">
        <ele>2138</ele>
        <time>2020-02-14T09:38:37.000Z</time>
      </trkpt>
      <trkpt lat="45.05191" lon="5.93687">
        <ele>2138</ele>
        <time>2020-02-14T09:38:40.000Z</time>
      </trkpt>
      <trkpt lat="45.05189" lon="5.93678">
        <ele>2137</ele>
        <time>2020-02-14T09:38:43.000Z</time>
      </trkpt>
      <trkpt lat="45.05188" lon="5.9367">
        <ele>2136</ele>
        <time>2020-02-14T09:38:49.202Z</time>
      </trkpt>
      <trkpt lat="45.05188" lon="5.93663">
        <ele>2137</ele>
        <time>2020-02-14T09:38:53.000Z</time>
      </trkpt>
      <trkpt lat="45.05188" lon="5.93652">
        <ele>2137</ele>
        <time>2020-02-14T09:39:03.000Z</time>
      </trkpt>
      <trkpt lat="45.05188" lon="5.93645">
        <ele>2138</ele>
        <time>2020-02-14T09:39:05.619Z</time>
      </trkpt>
      <trkpt lat="45.05191" lon="5.93637">
        <ele>2139</ele>
        <time>2020-02-14T09:39:09.016Z</time>
      </trkpt>
      <trkpt lat="45.05196" lon="5.93633">
        <ele>2138</ele>
        <time>2020-02-14T09:39:12.796Z</time>
      </trkpt>
      <trkpt lat="45.052" lon="5.93625">
        <ele>2139</ele>
        <time>2020-02-14T09:39:17.000Z</time>
      </trkpt>
      <trkpt lat="45.05197" lon="5.93614">
        <ele>2137</ele>
        <time>2020-02-14T09:39:22.274Z</time>
      </trkpt>
      <trkpt lat="45.05195" lon="5.93604">
        <ele>2133</ele>
        <time>2020-02-14T09:39:29.800Z</time>
      </trkpt>
      <trkpt lat="45.05194" lon="5.93597">
        <ele>2132</ele>
        <time>2020-02-14T09:39:34.000Z</time>
      </trkpt>
      <trkpt lat="45.05193" lon="5.93584">
        <ele>2132</ele>
        <time>2020-02-14T09:39:38.000Z</time>
      </trkpt>
      <trkpt lat="45.05192" lon="5.93576">
        <ele>2131</ele>
        <time>2020-02-14T09:39:41.000Z</time>
      </trkpt>
      <trkpt lat="45.05191" lon="5.93566">
        <ele>2130</ele>
        <time>2020-02-14T09:39:46.881Z</time>
      </trkpt>
      <trkpt lat="45.05187" lon="5.93555">
        <ele>2127</ele>
        <time>2020-02-14T09:39:53.297Z</time>
      </trkpt>
      <trkpt lat="45.05184" lon="5.93544">
        <ele>2126</ele>
        <time>2020-02-14T09:39:56.721Z</time>
      </trkpt>
      <trkpt lat="45.05181" lon="5.93534">
        <ele>2124</ele>
        <time>2020-02-14T09:40:01.000Z</time>
      </trkpt>
      <trkpt lat="45.05179" lon="5.93524">
        <ele>2125</ele>
        <time>2020-02-14T09:40:03.074Z</time>
      </trkpt>
      <trkpt lat="45.05178" lon="5.93514">
        <ele>2125</ele>
        <time>2020-02-14T09:40:07.000Z</time>
      </trkpt>
      <trkpt lat="45.05177" lon="5.93505">
        <ele>2125</ele>
        <time>2020-02-14T09:40:09.422Z</time>
      </trkpt>
      <trkpt lat="45.05178" lon="5.93495">
        <ele>2122</ele>
        <time>2020-02-14T09:40:13.000Z</time>
      </trkpt>
      <trkpt lat="45.05179" lon="5.93483">
        <ele>2120</ele>
        <time>2020-02-14T09:40:18.985Z</time>
      </trkpt>
      <trkpt lat="45.05179" lon="5.93474">
        <ele>2117</ele>
        <time>2020-02-14T09:40:25.786Z</time>
      </trkpt>
      <trkpt lat="45.05179" lon="5.93463">
        <ele>2115</ele>
        <time>2020-02-14T09:40:33.000Z</time>
      </trkpt>
      <trkpt lat="45.0518" lon="5.93456">
        <ele>2115</ele>
        <time>2020-02-14T09:40:35.859Z</time>
      </trkpt>
      <trkpt lat="45.05182" lon="5.93447">
        <ele>2115</ele>
        <time>2020-02-14T09:40:42.060Z</time>
      </trkpt>
      <trkpt lat="45.05182" lon="5.9344">
        <ele>2114</ele>
        <time>2020-02-14T09:40:46.000Z</time>
      </trkpt>
      <trkpt lat="45.05181" lon="5.93434">
        <ele>2115</ele>
        <time>2020-02-14T09:40:56.000Z</time>
      </trkpt>
      <trkpt lat="45.0519" lon="5.93434">
        <ele>2113</ele>
        <time>2020-02-14T09:41:15.706Z</time>
      </trkpt>
      <trkpt lat="45.05198" lon="5.93435">
        <ele>2111</ele>
        <time>2020-02-14T09:41:19.137Z</time>
      </trkpt>
      <trkpt lat="45.05203" lon="5.93435">
        <ele>2110</ele>
        <time>2020-02-14T09:41:23.000Z</time>
      </trkpt>
      <trkpt lat="45.05206" lon="5.93442">
        <ele>2109</ele>
        <time>2020-02-14T09:41:32.975Z</time>
      </trkpt>
      <trkpt lat="45.05211" lon="5.93433">
        <ele>2109</ele>
        <time>2020-02-14T09:41:41.000Z</time>
      </trkpt>
      <trkpt lat="45.05213" lon="5.93426">
        <ele>2110</ele>
        <time>2020-02-14T09:41:43.776Z</time>
      </trkpt>
      <trkpt lat="45.05215" lon="5.93419">
        <ele>2110</ele>
        <time>2020-02-14T09:41:48.000Z</time>
      </trkpt>
      <trkpt lat="45.05219" lon="5.93405">
        <ele>2108</ele>
        <time>2020-02-14T09:41:52.000Z</time>
      </trkpt>
      <trkpt lat="45.05222" lon="5.93398">
        <ele>2109</ele>
        <time>2020-02-14T09:41:55.000Z</time>
      </trkpt>
      <trkpt lat="45.05226" lon="5.93392">
        <ele>2108</ele>
        <time>2020-02-14T09:41:57.917Z</time>
      </trkpt>
      <trkpt lat="45.05228" lon="5.93385">
        <ele>2107</ele>
        <time>2020-02-14T09:42:01.077Z</time>
      </trkpt>
      <trkpt lat="45.0523" lon="5.93378">
        <ele>2106</ele>
        <time>2020-02-14T09:42:04.300Z</time>
      </trkpt>
      <trkpt lat="45.05232" lon="5.93367">
        <ele>2106</ele>
        <time>2020-02-14T09:42:11.059Z</time>
      </trkpt>
      <trkpt lat="45.05231" lon="5.93358">
        <ele>2104</ele>
        <time>2020-02-14T09:42:19.000Z</time>
      </trkpt>
      <trkpt lat="45.05226" lon="5.93351">
        <ele>2103</ele>
        <time>2020-02-14T09:42:24.824Z</time>
      </trkpt>
      <trkpt lat="45.05219" lon="5.9335">
        <ele>2102</ele>
        <time>2020-02-14T09:42:32.000Z</time>
      </trkpt>
      <trkpt lat="45.05213" lon="5.93346">
        <ele>2101</ele>
        <time>2020-02-14T09:42:34.892Z</time>
      </trkpt>
      <trkpt lat="45.05208" lon="5.93343">
        <ele>2099</ele>
        <time>2020-02-14T09:42:39.000Z</time>
      </trkpt>
      <trkpt lat="45.05205" lon="5.93337">
        <ele>2100</ele>
        <time>2020-02-14T09:42:43.000Z</time>
      </trkpt>
      <trkpt lat="45.05202" lon="5.93331">
        <ele>2099</ele>
        <time>2020-02-14T09:42:45.618Z</time>
      </trkpt>
      <trkpt lat="45.052" lon="5.93324">
        <ele>2098</ele>
        <time>2020-02-14T09:42:49.040Z</time>
      </trkpt>
      <trkpt lat="45.05198" lon="5.93317">
        <ele>2097</ele>
        <time>2020-02-14T09:42:53.000Z</time>
      </trkpt>
      <trkpt lat="45.05191" lon="5.9331">
        <ele>2098</ele>
        <time>2020-02-14T09:43:30.041Z</time>
      </trkpt>
      <trkpt lat="45.05183" lon="5.93299">
        <ele>2096</ele>
        <time>2020-02-14T09:43:37.000Z</time>
      </trkpt>
      <trkpt lat="45.0518" lon="5.9329">
        <ele>2095</ele>
        <time>2020-02-14T09:43:40.239Z</time>
      </trkpt>
      <trkpt lat="45.05178" lon="5.93284">
        <ele>2095</ele>
        <time>2020-02-14T09:43:43.528Z</time>
      </trkpt>
      <trkpt lat="45.05176" lon="5.93276">
        <ele>2095</ele>
        <time>2020-02-14T09:43:47.126Z</time>
      </trkpt>
      <trkpt lat="45.05174" lon="5.93267">
        <ele>2095</ele>
        <time>2020-02-14T09:43:50.358Z</time>
      </trkpt>
      <trkpt lat="45.05172" lon="5.93259">
        <ele>2095</ele>
        <time>2020-02-14T09:43:54.080Z</time>
      </trkpt>
      <trkpt lat="45.05171" lon="5.9325">
        <ele>2097</ele>
        <time>2020-02-14T09:43:59.000Z</time>
      </trkpt>
      <trkpt lat="45.0517" lon="5.93243">
        <ele>2097</ele>
        <time>2020-02-14T09:44:01.222Z</time>
      </trkpt>
      <trkpt lat="45.05169" lon="5.93236">
        <ele>2096</ele>
        <time>2020-02-14T09:44:04.360Z</time>
      </trkpt>
      <trkpt lat="45.05168" lon="5.93228">
        <ele>2095</ele>
        <time>2020-02-14T09:44:08.000Z</time>
      </trkpt>
      <trkpt lat="45.05164" lon="5.93215">
        <ele>2094</ele>
        <time>2020-02-14T09:44:15.000Z</time>
      </trkpt>
      <trkpt lat="45.05162" lon="5.93209">
        <ele>2094</ele>
        <time>2020-02-14T09:44:17.902Z</time>
      </trkpt>
      <trkpt lat="45.05158" lon="5.93199">
        <ele>2091</ele>
        <time>2020-02-14T09:44:25.000Z</time>
      </trkpt>
      <trkpt lat="45.05154" lon="5.93192">
        <ele>2092</ele>
        <time>2020-02-14T09:44:28.361Z</time>
      </trkpt>
      <trkpt lat="45.0515" lon="5.93184">
        <ele>2092</ele>
        <time>2020-02-14T09:44:33.000Z</time>
      </trkpt>
      <trkpt lat="45.05145" lon="5.93182">
        <ele>2093</ele>
        <time>2020-02-14T09:44:35.434Z</time>
      </trkpt>
      <trkpt lat="45.0514" lon="5.93179">
        <ele>2093</ele>
        <time>2020-02-14T09:44:38.578Z</time>
      </trkpt>
      <trkpt lat="45.05134" lon="5.93176">
        <ele>2093</ele>
        <time>2020-02-14T09:44:42.091Z</time>
      </trkpt>
      <trkpt lat="45.05129" lon="5.93172">
        <ele>2093</ele>
        <time>2020-02-14T09:44:45.851Z</time>
      </trkpt>
      <trkpt lat="45.05122" lon="5.93167">
        <ele>2092</ele>
        <time>2020-02-14T09:44:52.875Z</time>
      </trkpt>
      <trkpt lat="45.05119" lon="5.93162">
        <ele>2092</ele>
        <time>2020-02-14T09:44:57.000Z</time>
      </trkpt>
      <trkpt lat="45.05118" lon="5.93155">
        <ele>2094</ele>
        <time>2020-02-14T09:45:00.000Z</time>
      </trkpt>
      <trkpt lat="45.05118" lon="5.93148">
        <ele>2094</ele>
        <time>2020-02-14T09:45:03.061Z</time>
      </trkpt>
      <trkpt lat="45.05118" lon="5.93138">
        <ele>2095</ele>
        <time>2020-02-14T09:45:11.000Z</time>
      </trkpt>
      <trkpt lat="45.05116" lon="5.93128">
        <ele>2095</ele>
        <time>2020-02-14T09:45:16.794Z</time>
      </trkpt>
      <trkpt lat="45.05113" lon="5.93121">
        <ele>2095</ele>
        <time>2020-02-14T09:45:21.000Z</time>
      </trkpt>
      <trkpt lat="45.05115" lon="5.93109">
        <ele>2097</ele>
        <time>2020-02-14T09:45:28.000Z</time>
      </trkpt>
      <trkpt lat="45.05121" lon="5.93101">
        <ele>2097</ele>
        <time>2020-02-14T09:45:33.694Z</time>
      </trkpt>
      <trkpt lat="45.05124" lon="5.93092">
        <ele>2095</ele>
        <time>2020-02-14T09:45:41.000Z</time>
      </trkpt>
      <trkpt lat="45.05124" lon="5.93083">
        <ele>2095</ele>
        <time>2020-02-14T09:45:43.475Z</time>
      </trkpt>
      <trkpt lat="45.05125" lon="5.93074">
        <ele>2096</ele>
        <time>2020-02-14T09:45:46.840Z</time>
      </trkpt>
      <trkpt lat="45.05129" lon="5.93068">
        <ele>2096</ele>
        <time>2020-02-14T09:45:50.455Z</time>
      </trkpt>
      <trkpt lat="45.05133" lon="5.93063">
        <ele>2093</ele>
        <time>2020-02-14T09:45:53.956Z</time>
      </trkpt>
      <trkpt lat="45.05141" lon="5.93057">
        <ele>2094</ele>
        <time>2020-02-14T09:46:00.721Z</time>
      </trkpt>
      <trkpt lat="45.05144" lon="5.93053">
        <ele>2095</ele>
        <time>2020-02-14T09:46:05.129Z</time>
      </trkpt>
      <trkpt lat="45.05148" lon="5.93049">
        <ele>2094</ele>
        <time>2020-02-14T09:46:09.000Z</time>
      </trkpt>
      <trkpt lat="45.05155" lon="5.9304">
        <ele>2096</ele>
        <time>2020-02-14T09:46:16.000Z</time>
      </trkpt>
      <trkpt lat="45.05162" lon="5.93035">
        <ele>2097</ele>
        <time>2020-02-14T09:46:21.883Z</time>
      </trkpt>
      <trkpt lat="45.0517" lon="5.93031">
        <ele>2101</ele>
        <time>2020-02-14T09:46:29.066Z</time>
      </trkpt>
      <trkpt lat="45.05175" lon="5.93027">
        <ele>2101</ele>
        <time>2020-02-14T09:46:35.480Z</time>
      </trkpt>
      <trkpt lat="45.0518" lon="5.9302">
        <ele>2103</ele>
        <time>2020-02-14T09:46:41.844Z</time>
      </trkpt>
      <trkpt lat="45.05186" lon="5.93013">
        <ele>2103</ele>
        <time>2020-02-14T09:46:49.134Z</time>
      </trkpt>
      <trkpt lat="45.05194" lon="5.9301">
        <ele>2104</ele>
        <time>2020-02-14T09:46:57.000Z</time>
      </trkpt>
      <trkpt lat="45.05201" lon="5.93008">
        <ele>2107</ele>
        <time>2020-02-14T09:47:04.000Z</time>
      </trkpt>
      <trkpt lat="45.05206" lon="5.93005">
        <ele>2107</ele>
        <time>2020-02-14T09:47:07.000Z</time>
      </trkpt>
      <trkpt lat="45.05211" lon="5.93001">
        <ele>2108</ele>
        <time>2020-02-14T09:47:10.075Z</time>
      </trkpt>
      <trkpt lat="45.05215" lon="5.92996">
        <ele>2108</ele>
        <time>2020-02-14T09:47:16.303Z</time>
      </trkpt>
      <trkpt lat="45.05218" lon="5.92989">
        <ele>2109</ele>
        <time>2020-02-14T09:47:23.000Z</time>
      </trkpt>
      <trkpt lat="45.05222" lon="5.92982">
        <ele>2111</ele>
        <time>2020-02-14T09:47:29.250Z</time>
      </trkpt>
      <trkpt lat="45.05227" lon="5.92973">
        <ele>2112</ele>
        <time>2020-02-14T09:47:36.245Z</time>
      </trkpt>
      <trkpt lat="45.05232" lon="5.92967">
        <ele>2115</ele>
        <time>2020-02-14T09:47:43.000Z</time>
      </trkpt>
      <trkpt lat="45.05238" lon="5.92964">
        <ele>2117</ele>
        <time>2020-02-14T09:47:50.000Z</time>
      </trkpt>
      <trkpt lat="45.05242" lon="5.92965">
        <ele>2118</ele>
        <time>2020-02-14T09:47:56.018Z</time>
      </trkpt>
      <trkpt lat="45.05248" lon="5.92964">
        <ele>2120</ele>
        <time>2020-02-14T09:48:03.000Z</time>
      </trkpt>
      <trkpt lat="45.05253" lon="5.92963">
        <ele>2121</ele>
        <time>2020-02-14T09:48:10.174Z</time>
      </trkpt>
      <trkpt lat="45.05258" lon="5.92965">
        <ele>2123</ele>
        <time>2020-02-14T09:48:17.000Z</time>
      </trkpt>
      <trkpt lat="45.05263" lon="5.92963">
        <ele>2124</ele>
        <time>2020-02-14T09:48:24.000Z</time>
      </trkpt>
      <trkpt lat="45.05266" lon="5.92955">
        <ele>2126</ele>
        <time>2020-02-14T09:48:34.000Z</time>
      </trkpt>
      <trkpt lat="45.05273" lon="5.92949">
        <ele>2127</ele>
        <time>2020-02-14T09:52:50.465Z</time>
      </trkpt>
      <trkpt lat="45.05279" lon="5.92948">
        <ele>2127</ele>
        <time>2020-02-14T09:52:54.096Z</time>
      </trkpt>
      <trkpt lat="45.05284" lon="5.92947">
        <ele>2127</ele>
        <time>2020-02-14T09:52:57.779Z</time>
      </trkpt>
      <trkpt lat="45.05289" lon="5.92945">
        <ele>2126</ele>
        <time>2020-02-14T09:53:02.000Z</time>
      </trkpt>
      <trkpt lat="45.05296" lon="5.92943">
        <ele>2125</ele>
        <time>2020-02-14T09:53:04.512Z</time>
      </trkpt>
      <trkpt lat="45.05303" lon="5.92942">
        <ele>2122</ele>
        <time>2020-02-14T09:53:07.707Z</time>
      </trkpt>
      <trkpt lat="45.05308" lon="5.92942">
        <ele>2121</ele>
        <time>2020-02-14T09:53:12.000Z</time>
      </trkpt>
      <trkpt lat="45.05314" lon="5.92943">
        <ele>2121</ele>
        <time>2020-02-14T09:53:15.083Z</time>
      </trkpt>
      <trkpt lat="45.0532" lon="5.92942">
        <ele>2120</ele>
        <time>2020-02-14T09:53:19.000Z</time>
      </trkpt>
      <trkpt lat="45.05326" lon="5.92943">
        <ele>2119</ele>
        <time>2020-02-14T09:53:22.000Z</time>
      </trkpt>
      <trkpt lat="45.05331" lon="5.92944">
        <ele>2119</ele>
        <time>2020-02-14T09:53:24.296Z</time>
      </trkpt>
      <trkpt lat="45.05338" lon="5.92944">
        <ele>2117</ele>
        <time>2020-02-14T09:53:32.115Z</time>
      </trkpt>
      <trkpt lat="45.05346" lon="5.92944">
        <ele>2115</ele>
        <time>2020-02-14T09:53:36.000Z</time>
      </trkpt>
      <trkpt lat="45.05353" lon="5.92943">
        <ele>2116</ele>
        <time>2020-02-14T09:53:40.000Z</time>
      </trkpt>
      <trkpt lat="45.05363" lon="5.92944">
        <ele>2115</ele>
        <time>2020-02-14T09:53:54.000Z</time>
      </trkpt>
      <trkpt lat="45.05371" lon="5.92943">
        <ele>2115</ele>
        <time>2020-02-14T09:53:56.544Z</time>
      </trkpt>
      <trkpt lat="45.05378" lon="5.92942">
        <ele>2116</ele>
        <time>2020-02-14T09:53:59.735Z</time>
      </trkpt>
      <trkpt lat="45.05384" lon="5.92941">
        <ele>2116</ele>
        <time>2020-02-14T09:54:02.896Z</time>
      </trkpt>
      <trkpt lat="45.0539" lon="5.92941">
        <ele>2116</ele>
        <time>2020-02-14T09:54:07.000Z</time>
      </trkpt>
      <trkpt lat="45.05396" lon="5.92941">
        <ele>2115</ele>
        <time>2020-02-14T09:54:09.681Z</time>
      </trkpt>
      <trkpt lat="45.05402" lon="5.9294">
        <ele>2114</ele>
        <time>2020-02-14T09:54:12.777Z</time>
      </trkpt>
      <trkpt lat="45.05408" lon="5.92939">
        <ele>2113</ele>
        <time>2020-02-14T09:54:16.409Z</time>
      </trkpt>
      <trkpt lat="45.05415" lon="5.92937">
        <ele>2113</ele>
        <time>2020-02-14T09:54:21.000Z</time>
      </trkpt>
      <trkpt lat="45.05422" lon="5.92936">
        <ele>2111</ele>
        <time>2020-02-14T09:54:24.000Z</time>
      </trkpt>
      <trkpt lat="45.05434" lon="5.92937">
        <ele>2109</ele>
        <time>2020-02-14T09:54:28.000Z</time>
      </trkpt>
      <trkpt lat="45.05447" lon="5.9294">
        <ele>2105</ele>
        <time>2020-02-14T09:54:32.000Z</time>
      </trkpt>
      <trkpt lat="45.05461" lon="5.92943">
        <ele>2102</ele>
        <time>2020-02-14T09:54:35.000Z</time>
      </trkpt>
      <trkpt lat="45.05469" lon="5.92946">
        <ele>2101</ele>
        <time>2020-02-14T09:54:38.000Z</time>
      </trkpt>
      <trkpt lat="45.05478" lon="5.92952">
        <ele>2101</ele>
        <time>2020-02-14T09:54:40.759Z</time>
      </trkpt>
      <trkpt lat="45.05484" lon="5.92955">
        <ele>2101</ele>
        <time>2020-02-14T09:54:45.000Z</time>
      </trkpt>
      <trkpt lat="45.05493" lon="5.92963">
        <ele>2096</ele>
        <time>2020-02-14T09:54:54.465Z</time>
      </trkpt>
      <trkpt lat="45.05498" lon="5.92969">
        <ele>2096</ele>
        <time>2020-02-14T09:54:57.946Z</time>
      </trkpt>
      <trkpt lat="45.05502" lon="5.92973">
        <ele>2097</ele>
        <time>2020-02-14T09:55:02.000Z</time>
      </trkpt>
      <trkpt lat="45.05506" lon="5.92979">
        <ele>2096</ele>
        <time>2020-02-14T09:55:04.817Z</time>
      </trkpt>
      <trkpt lat="45.05511" lon="5.92988">
        <ele>2095</ele>
        <time>2020-02-14T09:55:13.000Z</time>
      </trkpt>
      <trkpt lat="45.05516" lon="5.92993">
        <ele>2095</ele>
        <time>2020-02-14T09:55:15.313Z</time>
      </trkpt>
      <trkpt lat="45.05521" lon="5.92997">
        <ele>2096</ele>
        <time>2020-02-14T09:55:20.000Z</time>
      </trkpt>
      <trkpt lat="45.05526" lon="5.93">
        <ele>2096</ele>
        <time>2020-02-14T09:55:25.778Z</time>
      </trkpt>
      <trkpt lat="45.05529" lon="5.93004">
        <ele>2096</ele>
        <time>2020-02-14T09:55:30.000Z</time>
      </trkpt>
      <trkpt lat="45.05533" lon="5.93009">
        <ele>2096</ele>
        <time>2020-02-14T09:55:32.595Z</time>
      </trkpt>
      <trkpt lat="45.05538" lon="5.93013">
        <ele>2094</ele>
        <time>2020-02-14T09:55:37.000Z</time>
      </trkpt>
      <trkpt lat="45.05542" lon="5.93017">
        <ele>2094</ele>
        <time>2020-02-14T09:55:39.579Z</time>
      </trkpt>
      <trkpt lat="45.05545" lon="5.93023">
        <ele>2092</ele>
        <time>2020-02-14T09:55:47.000Z</time>
      </trkpt>
      <trkpt lat="45.05552" lon="5.93032">
        <ele>2092</ele>
        <time>2020-02-14T09:56:11.016Z</time>
      </trkpt>
      <trkpt lat="45.05558" lon="5.93038">
        <ele>2093</ele>
        <time>2020-02-14T09:56:17.213Z</time>
      </trkpt>
      <trkpt lat="45.05563" lon="5.93046">
        <ele>2093</ele>
        <time>2020-02-14T09:56:24.147Z</time>
      </trkpt>
      <trkpt lat="45.05568" lon="5.93053">
        <ele>2094</ele>
        <time>2020-02-14T09:56:31.375Z</time>
      </trkpt>
      <trkpt lat="45.05569" lon="5.93062">
        <ele>2093</ele>
        <time>2020-02-14T09:56:38.337Z</time>
      </trkpt>
      <trkpt lat="45.05571" lon="5.93079">
        <ele>2094</ele>
        <time>2020-02-14T09:56:44.683Z</time>
      </trkpt>
      <trkpt lat="45.05573" lon="5.9309">
        <ele>2095</ele>
        <time>2020-02-14T09:56:50.884Z</time>
      </trkpt>
      <trkpt lat="45.05575" lon="5.93097">
        <ele>2093</ele>
        <time>2020-02-14T09:56:54.644Z</time>
      </trkpt>
      <trkpt lat="45.0558" lon="5.93108">
        <ele>2095</ele>
        <time>2020-02-14T09:57:00.979Z</time>
      </trkpt>
      <trkpt lat="45.05584" lon="5.93111">
        <ele>2095</ele>
        <time>2020-02-14T09:57:04.603Z</time>
      </trkpt>
      <trkpt lat="45.05593" lon="5.93119">
        <ele>2094</ele>
        <time>2020-02-14T09:57:12.000Z</time>
      </trkpt>
      <trkpt lat="45.056" lon="5.93126">
        <ele>2095</ele>
        <time>2020-02-14T09:57:17.863Z</time>
      </trkpt>
      <trkpt lat="45.05604" lon="5.93131">
        <ele>2095</ele>
        <time>2020-02-14T09:57:21.593Z</time>
      </trkpt>
      <trkpt lat="45.05608" lon="5.93135">
        <ele>2096</ele>
        <time>2020-02-14T09:57:26.000Z</time>
      </trkpt>
      <trkpt lat="45.05614" lon="5.93138">
        <ele>2096</ele>
        <time>2020-02-14T09:57:31.600Z</time>
      </trkpt>
      <trkpt lat="45.05622" lon="5.93146">
        <ele>2097</ele>
        <time>2020-02-14T09:57:39.000Z</time>
      </trkpt>
      <trkpt lat="45.0563" lon="5.93153">
        <ele>2096</ele>
        <time>2020-02-14T09:57:46.000Z</time>
      </trkpt>
      <trkpt lat="45.05637" lon="5.93158">
        <ele>2097</ele>
        <time>2020-02-14T09:57:52.000Z</time>
      </trkpt>
      <trkpt lat="45.05645" lon="5.93164">
        <ele>2096</ele>
        <time>2020-02-14T09:57:57.821Z</time>
      </trkpt>
      <trkpt lat="45.05651" lon="5.93169">
        <ele>2097</ele>
        <time>2020-02-14T09:58:03.970Z</time>
      </trkpt>
      <trkpt lat="45.05657" lon="5.93176">
        <ele>2096</ele>
        <time>2020-02-14T09:58:10.746Z</time>
      </trkpt>
      <trkpt lat="45.05663" lon="5.93183">
        <ele>2096</ele>
        <time>2020-02-14T09:58:18.000Z</time>
      </trkpt>
      <trkpt lat="45.05669" lon="5.93189">
        <ele>2096</ele>
        <time>2020-02-14T09:58:24.675Z</time>
      </trkpt>
      <trkpt lat="45.05673" lon="5.93193">
        <ele>2097</ele>
        <time>2020-02-14T09:58:29.000Z</time>
      </trkpt>
      <trkpt lat="45.0568" lon="5.932">
        <ele>2097</ele>
        <time>2020-02-14T09:58:36.000Z</time>
      </trkpt>
      <trkpt lat="45.05686" lon="5.93206">
        <ele>2097</ele>
        <time>2020-02-14T09:58:38.498Z</time>
      </trkpt>
      <trkpt lat="45.05692" lon="5.9321">
        <ele>2097</ele>
        <time>2020-02-14T09:58:44.803Z</time>
      </trkpt>
      <trkpt lat="45.05696" lon="5.93216">
        <ele>2097</ele>
        <time>2020-02-14T09:58:51.775Z</time>
      </trkpt>
      <trkpt lat="45.05699" lon="5.93221">
        <ele>2097</ele>
        <time>2020-02-14T09:58:57.000Z</time>
      </trkpt>
      <trkpt lat="45.05704" lon="5.93225">
        <ele>2097</ele>
        <time>2020-02-14T09:59:03.000Z</time>
      </trkpt>
      <trkpt lat="45.05708" lon="5.9323">
        <ele>2097</ele>
        <time>2020-02-14T09:59:08.747Z</time>
      </trkpt>
      <trkpt lat="45.05713" lon="5.93237">
        <ele>2099</ele>
        <time>2020-02-14T09:59:17.000Z</time>
      </trkpt>
      <trkpt lat="45.05717" lon="5.93245">
        <ele>2100</ele>
        <time>2020-02-14T09:59:23.000Z</time>
      </trkpt>
      <trkpt lat="45.05721" lon="5.93252">
        <ele>2102</ele>
        <time>2020-02-14T09:59:29.874Z</time>
      </trkpt>
      <trkpt lat="45.05726" lon="5.93258">
        <ele>2101</ele>
        <time>2020-02-14T09:59:36.171Z</time>
      </trkpt>
      <trkpt lat="45.05732" lon="5.93262">
        <ele>2103</ele>
        <time>2020-02-14T09:59:44.000Z</time>
      </trkpt>
      <trkpt lat="45.05736" lon="5.93266">
        <ele>2103</ele>
        <time>2020-02-14T09:59:49.881Z</time>
      </trkpt>
      <trkpt lat="45.0574" lon="5.9327">
        <ele>2103</ele>
        <time>2020-02-14T09:59:56.517Z</time>
      </trkpt>
      <trkpt lat="45.05744" lon="5.93277">
        <ele>2104</ele>
        <time>2020-02-14T10:00:03.109Z</time>
      </trkpt>
      <trkpt lat="45.05748" lon="5.93285">
        <ele>2105</ele>
        <time>2020-02-14T10:00:10.002Z</time>
      </trkpt>
      <trkpt lat="45.05751" lon="5.93292">
        <ele>2106</ele>
        <time>2020-02-14T10:00:17.000Z</time>
      </trkpt>
      <trkpt lat="45.05754" lon="5.93302">
        <ele>2107</ele>
        <time>2020-02-14T10:00:23.553Z</time>
      </trkpt>
      <trkpt lat="45.05756" lon="5.93311">
        <ele>2112</ele>
        <time>2020-02-14T10:00:31.000Z</time>
      </trkpt>
      <trkpt lat="45.05758" lon="5.93319">
        <ele>2114</ele>
        <time>2020-02-14T10:00:38.000Z</time>
      </trkpt>
      <trkpt lat="45.05762" lon="5.93327">
        <ele>2117</ele>
        <time>2020-02-14T10:00:46.743Z</time>
      </trkpt>
      <trkpt lat="45.05764" lon="5.93336">
        <ele>2118</ele>
        <time>2020-02-14T10:00:53.144Z</time>
      </trkpt>
      <trkpt lat="45.05764" lon="5.93342">
        <ele>2119</ele>
        <time>2020-02-14T10:00:58.000Z</time>
      </trkpt>
      <trkpt lat="45.05766" lon="5.93351">
        <ele>2119</ele>
        <time>2020-02-14T10:01:05.000Z</time>
      </trkpt>
      <trkpt lat="45.05769" lon="5.93357">
        <ele>2121</ele>
        <time>2020-02-14T10:01:17.921Z</time>
      </trkpt>
      <trkpt lat="45.05774" lon="5.93364">
        <ele>2123</ele>
        <time>2020-02-14T10:01:24.736Z</time>
      </trkpt>
      <trkpt lat="45.05778" lon="5.93372">
        <ele>2123</ele>
        <time>2020-02-14T10:01:32.000Z</time>
      </trkpt>
      <trkpt lat="45.05783" lon="5.9338">
        <ele>2124</ele>
        <time>2020-02-14T10:01:37.778Z</time>
      </trkpt>
      <trkpt lat="45.05787" lon="5.93386">
        <ele>2126</ele>
        <time>2020-02-14T10:01:45.305Z</time>
      </trkpt>
      <trkpt lat="45.05794" lon="5.93391">
        <ele>2126</ele>
        <time>2020-02-14T10:02:22.000Z</time>
      </trkpt>
      <trkpt lat="45.058" lon="5.93401">
        <ele>2126</ele>
        <time>2020-02-14T10:02:28.194Z</time>
      </trkpt>
      <trkpt lat="45.05803" lon="5.93407">
        <ele>2126</ele>
        <time>2020-02-14T10:02:31.578Z</time>
      </trkpt>
      <trkpt lat="45.05807" lon="5.93411">
        <ele>2127</ele>
        <time>2020-02-14T10:02:34.759Z</time>
      </trkpt>
      <trkpt lat="45.05813" lon="5.93419">
        <ele>2126</ele>
        <time>2020-02-14T10:02:41.399Z</time>
      </trkpt>
      <trkpt lat="45.05817" lon="5.93424">
        <ele>2127</ele>
        <time>2020-02-14T10:02:46.000Z</time>
      </trkpt>
      <trkpt lat="45.05821" lon="5.9343">
        <ele>2127</ele>
        <time>2020-02-14T10:02:48.133Z</time>
      </trkpt>
      <trkpt lat="45.05824" lon="5.93435">
        <ele>2129</ele>
        <time>2020-02-14T10:02:53.000Z</time>
      </trkpt>
      <trkpt lat="45.05829" lon="5.93442">
        <ele>2129</ele>
        <time>2020-02-14T10:03:01.562Z</time>
      </trkpt>
      <trkpt lat="45.05835" lon="5.93449">
        <ele>2129</ele>
        <time>2020-02-14T10:03:06.000Z</time>
      </trkpt>
      <trkpt lat="45.05839" lon="5.93455">
        <ele>2129</ele>
        <time>2020-02-14T10:03:08.080Z</time>
      </trkpt>
      <trkpt lat="45.05844" lon="5.9346">
        <ele>2129</ele>
        <time>2020-02-14T10:03:11.502Z</time>
      </trkpt>
      <trkpt lat="45.0585" lon="5.9347">
        <ele>2130</ele>
        <time>2020-02-14T10:03:17.826Z</time>
      </trkpt>
      <trkpt lat="45.05856" lon="5.93472">
        <ele>2129</ele>
        <time>2020-02-14T10:03:22.000Z</time>
      </trkpt>
      <trkpt lat="45.05861" lon="5.93477">
        <ele>2129</ele>
        <time>2020-02-14T10:03:29.577Z</time>
      </trkpt>
      <trkpt lat="45.05866" lon="5.93484">
        <ele>2130</ele>
        <time>2020-02-14T10:03:35.922Z</time>
      </trkpt>
      <trkpt lat="45.0587" lon="5.93492">
        <ele>2130</ele>
        <time>2020-02-14T10:03:42.666Z</time>
      </trkpt>
      <trkpt lat="45.05875" lon="5.93499">
        <ele>2130</ele>
        <time>2020-02-14T10:03:49.690Z</time>
      </trkpt>
      <trkpt lat="45.05881" lon="5.93504">
        <ele>2131</ele>
        <time>2020-02-14T10:03:57.000Z</time>
      </trkpt>
      <trkpt lat="45.05887" lon="5.93506">
        <ele>2132</ele>
        <time>2020-02-14T10:04:03.335Z</time>
      </trkpt>
      <trkpt lat="45.05892" lon="5.93512">
        <ele>2132</ele>
        <time>2020-02-14T10:04:12.000Z</time>
      </trkpt>
      <trkpt lat="45.05896" lon="5.93522">
        <ele>2134</ele>
        <time>2020-02-14T10:04:17.951Z</time>
      </trkpt>
      <trkpt lat="45.05902" lon="5.93532">
        <ele>2134</ele>
        <time>2020-02-14T10:04:26.000Z</time>
      </trkpt>
      <trkpt lat="45.05909" lon="5.9354">
        <ele>2135</ele>
        <time>2020-02-14T10:04:47.959Z</time>
      </trkpt>
      <trkpt lat="45.05912" lon="5.93546">
        <ele>2135</ele>
        <time>2020-02-14T10:04:52.000Z</time>
      </trkpt>
      <trkpt lat="45.05918" lon="5.93551">
        <ele>2135</ele>
        <time>2020-02-14T10:04:55.000Z</time>
      </trkpt>
      <trkpt lat="45.05922" lon="5.93555">
        <ele>2135</ele>
        <time>2020-02-14T10:04:58.000Z</time>
      </trkpt>
      <trkpt lat="45.05926" lon="5.93559">
        <ele>2134</ele>
        <time>2020-02-14T10:05:00.962Z</time>
      </trkpt>
      <trkpt lat="45.05931" lon="5.93564">
        <ele>2134</ele>
        <time>2020-02-14T10:05:04.226Z</time>
      </trkpt>
      <trkpt lat="45.05937" lon="5.93568">
        <ele>2134</ele>
        <time>2020-02-14T10:05:07.741Z</time>
      </trkpt>
      <trkpt lat="45.05946" lon="5.93571">
        <ele>2134</ele>
        <time>2020-02-14T10:05:15.000Z</time>
      </trkpt>
      <trkpt lat="45.05951" lon="5.93573">
        <ele>2134</ele>
        <time>2020-02-14T10:05:17.985Z</time>
      </trkpt>
      <trkpt lat="45.05957" lon="5.93578">
        <ele>2133</ele>
        <time>2020-02-14T10:05:22.000Z</time>
      </trkpt>
      <trkpt lat="45.05962" lon="5.93583">
        <ele>2132</ele>
        <time>2020-02-14T10:05:24.372Z</time>
      </trkpt>
      <trkpt lat="45.05968" lon="5.93586">
        <ele>2132</ele>
        <time>2020-02-14T10:05:27.435Z</time>
      </trkpt>
      <trkpt lat="45.05974" lon="5.93588">
        <ele>2131</ele>
        <time>2020-02-14T10:05:30.440Z</time>
      </trkpt>
      <trkpt lat="45.05981" lon="5.93592">
        <ele>2131</ele>
        <time>2020-02-14T10:05:35.000Z</time>
      </trkpt>
      <trkpt lat="45.05986" lon="5.93594">
        <ele>2131</ele>
        <time>2020-02-14T10:05:37.661Z</time>
      </trkpt>
      <trkpt lat="45.0599" lon="5.93598">
        <ele>2131</ele>
        <time>2020-02-14T10:05:40.944Z</time>
      </trkpt>
      <trkpt lat="45.05996" lon="5.93602">
        <ele>2130</ele>
        <time>2020-02-14T10:05:44.267Z</time>
      </trkpt>
      <trkpt lat="45.06" lon="5.93606">
        <ele>2131</ele>
        <time>2020-02-14T10:05:47.715Z</time>
      </trkpt>
      <trkpt lat="45.06003" lon="5.9361">
        <ele>2131</ele>
        <time>2020-02-14T10:05:52.000Z</time>
      </trkpt>
      <trkpt lat="45.0601" lon="5.93613">
        <ele>2130</ele>
        <time>2020-02-14T10:05:56.000Z</time>
      </trkpt>
      <trkpt lat="45.06014" lon="5.93615">
        <ele>2130</ele>
        <time>2020-02-14T10:05:58.072Z</time>
      </trkpt>
      <trkpt lat="45.06022" lon="5.93617">
        <ele>2127</ele>
        <time>2020-02-14T10:06:03.000Z</time>
      </trkpt>
      <trkpt lat="45.06027" lon="5.93618">
        <ele>2125</ele>
        <time>2020-02-14T10:06:06.000Z</time>
      </trkpt>
      <trkpt lat="45.06036" lon="5.93619">
        <ele>2123</ele>
        <time>2020-02-14T10:06:10.000Z</time>
      </trkpt>
      <trkpt lat="45.06046" lon="5.9362">
        <ele>2123</ele>
        <time>2020-02-14T10:06:12.654Z</time>
      </trkpt>
      <trkpt lat="45.06051" lon="5.93623">
        <ele>2122</ele>
        <time>2020-02-14T10:06:15.660Z</time>
      </trkpt>
      <trkpt lat="45.06057" lon="5.93627">
        <ele>2122</ele>
        <time>2020-02-14T10:06:20.000Z</time>
      </trkpt>
      <trkpt lat="45.06061" lon="5.93633">
        <ele>2121</ele>
        <time>2020-02-14T10:06:22.544Z</time>
      </trkpt>
      <trkpt lat="45.06067" lon="5.93644">
        <ele>2119</ele>
        <time>2020-02-14T10:06:28.745Z</time>
      </trkpt>
      <trkpt lat="45.06073" lon="5.93651">
        <ele>2119</ele>
        <time>2020-02-14T10:06:34.971Z</time>
      </trkpt>
      <trkpt lat="45.06077" lon="5.93663">
        <ele>2118</ele>
        <time>2020-02-14T10:06:41.871Z</time>
      </trkpt>
      <trkpt lat="45.0608" lon="5.93676">
        <ele>2118</ele>
        <time>2020-02-14T10:06:48.793Z</time>
      </trkpt>
      <trkpt lat="45.06084" lon="5.93689">
        <ele>2117</ele>
        <time>2020-02-14T10:06:52.403Z</time>
      </trkpt>
      <trkpt lat="45.06091" lon="5.93703">
        <ele>2113</ele>
        <time>2020-02-14T10:06:57.000Z</time>
      </trkpt>
      <trkpt lat="45.06097" lon="5.93716">
        <ele>2111</ele>
        <time>2020-02-14T10:07:01.000Z</time>
      </trkpt>
      <trkpt lat="45.06104" lon="5.93728">
        <ele>2109</ele>
        <time>2020-02-14T10:07:03.247Z</time>
      </trkpt>
      <trkpt lat="45.06109" lon="5.93737">
        <ele>2108</ele>
        <time>2020-02-14T10:07:06.680Z</time>
      </trkpt>
      <trkpt lat="45.06113" lon="5.93743">
        <ele>2106</ele>
        <time>2020-02-14T10:07:12.000Z</time>
      </trkpt>
      <trkpt lat="45.06118" lon="5.9375">
        <ele>2104</ele>
        <time>2020-02-14T10:07:15.000Z</time>
      </trkpt>
      <trkpt lat="45.06122" lon="5.93757">
        <ele>2102</ele>
        <time>2020-02-14T10:07:17.122Z</time>
      </trkpt>
      <trkpt lat="45.06127" lon="5.93765">
        <ele>2101</ele>
        <time>2020-02-14T10:07:20.836Z</time>
      </trkpt>
      <trkpt lat="45.0613" lon="5.93774">
        <ele>2100</ele>
        <time>2020-02-14T10:07:26.000Z</time>
      </trkpt>
      <trkpt lat="45.06135" lon="5.93782">
        <ele>2099</ele>
        <time>2020-02-14T10:07:28.277Z</time>
      </trkpt>
      <trkpt lat="45.06141" lon="5.93787">
        <ele>2098</ele>
        <time>2020-02-14T10:07:32.318Z</time>
      </trkpt>
      <trkpt lat="45.06145" lon="5.93791">
        <ele>2098</ele>
        <time>2020-02-14T10:07:37.000Z</time>
      </trkpt>
      <trkpt lat="45.06149" lon="5.93795">
        <ele>2098</ele>
        <time>2020-02-14T10:07:40.000Z</time>
      </trkpt>
      <trkpt lat="45.06153" lon="5.93801">
        <ele>2099</ele>
        <time>2020-02-14T10:07:44.000Z</time>
      </trkpt>
      <trkpt lat="45.06158" lon="5.93808">
        <ele>2099</ele>
        <time>2020-02-14T10:07:47.000Z</time>
      </trkpt>
      <trkpt lat="45.06161" lon="5.93812">
        <ele>2099</ele>
        <time>2020-02-14T10:07:49.236Z</time>
      </trkpt>
      <trkpt lat="45.06165" lon="5.93815">
        <ele>2099</ele>
        <time>2020-02-14T10:07:54.000Z</time>
      </trkpt>
      <trkpt lat="45.06168" lon="5.9382">
        <ele>2100</ele>
        <time>2020-02-14T10:07:55.792Z</time>
      </trkpt>
      <trkpt lat="45.06171" lon="5.93825">
        <ele>2100</ele>
        <time>2020-02-14T10:07:59.194Z</time>
      </trkpt>
      <trkpt lat="45.06175" lon="5.93832">
        <ele>2101</ele>
        <time>2020-02-14T10:08:05.389Z</time>
      </trkpt>
      <trkpt lat="45.06181" lon="5.9384">
        <ele>2100</ele>
        <time>2020-02-14T10:08:13.000Z</time>
      </trkpt>
      <trkpt lat="45.06185" lon="5.93845">
        <ele>2101</ele>
        <time>2020-02-14T10:08:15.409Z</time>
      </trkpt>
      <trkpt lat="45.06188" lon="5.93851">
        <ele>2102</ele>
        <time>2020-02-14T10:08:42.000Z</time>
      </trkpt>
      <trkpt lat="45.06191" lon="5.93855">
        <ele>2103</ele>
        <time>2020-02-14T10:08:48.000Z</time>
      </trkpt>
      <trkpt lat="45.06196" lon="5.93862">
        <ele>2103</ele>
        <time>2020-02-14T10:08:53.175Z</time>
      </trkpt>
      <trkpt lat="45.06201" lon="5.93868">
        <ele>2104</ele>
        <time>2020-02-14T10:08:59.433Z</time>
      </trkpt>
      <trkpt lat="45.06207" lon="5.93874">
        <ele>2104</ele>
        <time>2020-02-14T10:09:07.000Z</time>
      </trkpt>
      <trkpt lat="45.06212" lon="5.9388">
        <ele>2105</ele>
        <time>2020-02-14T10:09:11.769Z</time>
      </trkpt>
      <trkpt lat="45.06216" lon="5.93884">
        <ele>2106</ele>
        <time>2020-02-14T10:09:16.316Z</time>
      </trkpt>
      <trkpt lat="45.0622" lon="5.93889">
        <ele>2107</ele>
        <time>2020-02-14T10:09:22.000Z</time>
      </trkpt>
      <trkpt lat="45.06223" lon="5.93893">
        <ele>2109</ele>
        <time>2020-02-14T10:09:28.000Z</time>
      </trkpt>
      <trkpt lat="45.0623" lon="5.93901">
        <ele>2111</ele>
        <time>2020-02-14T10:09:36.000Z</time>
      </trkpt>
      <trkpt lat="45.06234" lon="5.93907">
        <ele>2113</ele>
        <time>2020-02-14T10:09:43.000Z</time>
      </trkpt>
      <trkpt lat="45.06239" lon="5.93911">
        <ele>2112</ele>
        <time>2020-02-14T10:09:48.251Z</time>
      </trkpt>
      <trkpt lat="45.06245" lon="5.93917">
        <ele>2114</ele>
        <time>2020-02-14T10:09:56.000Z</time>
      </trkpt>
      <trkpt lat="45.0625" lon="5.93922">
        <ele>2116</ele>
        <time>2020-02-14T10:10:01.450Z</time>
      </trkpt>
      <trkpt lat="45.06255" lon="5.93926">
        <ele>2116</ele>
        <time>2020-02-14T10:10:08.129Z</time>
      </trkpt>
      <trkpt lat="45.0626" lon="5.93931">
        <ele>2117</ele>
        <time>2020-02-14T10:10:16.000Z</time>
      </trkpt>
      <trkpt lat="45.06264" lon="5.93936">
        <ele>2117</ele>
        <time>2020-02-14T10:10:23.000Z</time>
      </trkpt>
      <trkpt lat="45.06269" lon="5.93942">
        <ele>2118</ele>
        <time>2020-02-14T10:10:28.312Z</time>
      </trkpt>
      <trkpt lat="45.06275" lon="5.93949">
        <ele>2119</ele>
        <time>2020-02-14T10:10:35.467Z</time>
      </trkpt>
      <trkpt lat="45.06279" lon="5.93954">
        <ele>2120</ele>
        <time>2020-02-14T10:10:43.000Z</time>
      </trkpt>
      <trkpt lat="45.06284" lon="5.93961">
        <ele>2124</ele>
        <time>2020-02-14T10:10:49.306Z</time>
      </trkpt>
      <trkpt lat="45.06287" lon="5.93964">
        <ele>2124</ele>
        <time>2020-02-14T10:10:57.000Z</time>
      </trkpt>
      <trkpt lat="45.06293" lon="5.9397">
        <ele>2127</ele>
        <time>2020-02-14T10:11:03.105Z</time>
      </trkpt>
      <trkpt lat="45.06296" lon="5.93974">
        <ele>2129</ele>
        <time>2020-02-14T10:11:11.000Z</time>
      </trkpt>
      <trkpt lat="45.06301" lon="5.93978">
        <ele>2130</ele>
        <time>2020-02-14T10:11:17.000Z</time>
      </trkpt>
      <trkpt lat="45.06308" lon="5.93984">
        <ele>2131</ele>
        <time>2020-02-14T10:11:22.305Z</time>
      </trkpt>
      <trkpt lat="45.06312" lon="5.93989">
        <ele>2131</ele>
        <time>2020-02-14T10:11:28.820Z</time>
      </trkpt>
      <trkpt lat="45.06316" lon="5.93994">
        <ele>2133</ele>
        <time>2020-02-14T10:11:35.505Z</time>
      </trkpt>
      <trkpt lat="45.06321" lon="5.94001">
        <ele>2134</ele>
        <time>2020-02-14T10:11:42.062Z</time>
      </trkpt>
      <trkpt lat="45.06326" lon="5.94006">
        <ele>2135</ele>
        <time>2020-02-14T10:11:49.186Z</time>
      </trkpt>
      <trkpt lat="45.06332" lon="5.94012">
        <ele>2136</ele>
        <time>2020-02-14T10:11:55.792Z</time>
      </trkpt>
      <trkpt lat="45.06338" lon="5.94018">
        <ele>2138</ele>
        <time>2020-02-14T10:12:04.000Z</time>
      </trkpt>
      <trkpt lat="45.06344" lon="5.94023">
        <ele>2139</ele>
        <time>2020-02-14T10:12:11.000Z</time>
      </trkpt>
      <trkpt lat="45.06346" lon="5.9403">
        <ele>2141</ele>
        <time>2020-02-14T10:12:16.444Z</time>
      </trkpt>
      <trkpt lat="45.06348" lon="5.94037">
        <ele>2146</ele>
        <time>2020-02-14T10:12:23.070Z</time>
      </trkpt>
      <trkpt lat="45.06351" lon="5.94042">
        <ele>2147</ele>
        <time>2020-02-14T10:12:29.904Z</time>
      </trkpt>
      <trkpt lat="45.06357" lon="5.94048">
        <ele>2146</ele>
        <time>2020-02-14T10:12:38.000Z</time>
      </trkpt>
      <trkpt lat="45.06362" lon="5.94049">
        <ele>2147</ele>
        <time>2020-02-14T10:12:45.000Z</time>
      </trkpt>
      <trkpt lat="45.06366" lon="5.94052">
        <ele>2150</ele>
        <time>2020-02-14T10:14:59.236Z</time>
      </trkpt>
      <trkpt lat="45.06372" lon="5.94059">
        <ele>2151</ele>
        <time>2020-02-14T10:15:11.000Z</time>
      </trkpt>
      <trkpt lat="45.06379" lon="5.94064">
        <ele>2151</ele>
        <time>2020-02-14T10:15:18.000Z</time>
      </trkpt>
      <trkpt lat="45.06387" lon="5.94072">
        <ele>2151</ele>
        <time>2020-02-14T10:15:23.201Z</time>
      </trkpt>
      <trkpt lat="45.06391" lon="5.94076">
        <ele>2151</ele>
        <time>2020-02-14T10:15:29.000Z</time>
      </trkpt>
      <trkpt lat="45.06398" lon="5.94081">
        <ele>2150</ele>
        <time>2020-02-14T10:15:36.000Z</time>
      </trkpt>
      <trkpt lat="45.06405" lon="5.94086">
        <ele>2151</ele>
        <time>2020-02-14T10:15:43.000Z</time>
      </trkpt>
      <trkpt lat="45.06412" lon="5.9409">
        <ele>2152</ele>
        <time>2020-02-14T10:15:50.000Z</time>
      </trkpt>
      <trkpt lat="45.06419" lon="5.94094">
        <ele>2153</ele>
        <time>2020-02-14T10:15:57.000Z</time>
      </trkpt>
      <trkpt lat="45.06425" lon="5.94098">
        <ele>2155</ele>
        <time>2020-02-14T10:16:03.404Z</time>
      </trkpt>
      <trkpt lat="45.06432" lon="5.94101">
        <ele>2155</ele>
        <time>2020-02-14T10:16:10.000Z</time>
      </trkpt>
      <trkpt lat="45.06439" lon="5.94103">
        <ele>2154</ele>
        <time>2020-02-14T10:16:16.605Z</time>
      </trkpt>
      <trkpt lat="45.06444" lon="5.94105">
        <ele>2158</ele>
        <time>2020-02-14T10:16:24.000Z</time>
      </trkpt>
      <trkpt lat="45.0645" lon="5.94106">
        <ele>2157</ele>
        <time>2020-02-14T10:16:30.000Z</time>
      </trkpt>
      <trkpt lat="45.06458" lon="5.94108">
        <ele>2159</ele>
        <time>2020-02-14T10:16:37.000Z</time>
      </trkpt>
      <trkpt lat="45.06465" lon="5.9411">
        <ele>2161</ele>
        <time>2020-02-14T10:16:45.000Z</time>
      </trkpt>
      <trkpt lat="45.06471" lon="5.94114">
        <ele>2161</ele>
        <time>2020-02-14T10:16:52.000Z</time>
      </trkpt>
      <trkpt lat="45.06474" lon="5.94118">
        <ele>2163</ele>
        <time>2020-02-14T10:16:59.000Z</time>
      </trkpt>
      <trkpt lat="45.06479" lon="5.94121">
        <ele>2164</ele>
        <time>2020-02-14T10:17:09.000Z</time>
      </trkpt>
      <trkpt lat="45.06481" lon="5.94128">
        <ele>2164</ele>
        <time>2020-02-14T10:17:54.244Z</time>
      </trkpt>
      <trkpt lat="45.06485" lon="5.94139">
        <ele>2165</ele>
        <time>2020-02-14T10:18:00.740Z</time>
      </trkpt>
      <trkpt lat="45.06487" lon="5.94148">
        <ele>2166</ele>
        <time>2020-02-14T10:18:08.000Z</time>
      </trkpt>
      <trkpt lat="45.0649" lon="5.94156">
        <ele>2170</ele>
        <time>2020-02-14T10:18:13.812Z</time>
      </trkpt>
      <trkpt lat="45.06493" lon="5.94163">
        <ele>2172</ele>
        <time>2020-02-14T10:18:21.000Z</time>
      </trkpt>
      <trkpt lat="45.06496" lon="5.94173">
        <ele>2172</ele>
        <time>2020-02-14T10:18:27.113Z</time>
      </trkpt>
      <trkpt lat="45.065" lon="5.9418">
        <ele>2174</ele>
        <time>2020-02-14T10:18:35.000Z</time>
      </trkpt>
      <trkpt lat="45.06503" lon="5.94186">
        <ele>2175</ele>
        <time>2020-02-14T10:18:41.000Z</time>
      </trkpt>
      <trkpt lat="45.06506" lon="5.94194">
        <ele>2175</ele>
        <time>2020-02-14T10:18:47.000Z</time>
      </trkpt>
      <trkpt lat="45.06507" lon="5.942">
        <ele>2175</ele>
        <time>2020-02-14T10:18:50.066Z</time>
      </trkpt>
      <trkpt lat="45.0651" lon="5.9421">
        <ele>2176</ele>
        <time>2020-02-14T10:18:56.845Z</time>
      </trkpt>
      <trkpt lat="45.06512" lon="5.94219">
        <ele>2178</ele>
        <time>2020-02-14T10:19:03.883Z</time>
      </trkpt>
      <trkpt lat="45.06516" lon="5.94227">
        <ele>2178</ele>
        <time>2020-02-14T10:19:12.000Z</time>
      </trkpt>
      <trkpt lat="45.0652" lon="5.94236">
        <ele>2177</ele>
        <time>2020-02-14T10:19:17.702Z</time>
      </trkpt>
      <trkpt lat="45.06523" lon="5.94244">
        <ele>2177</ele>
        <time>2020-02-14T10:19:24.177Z</time>
      </trkpt>
      <trkpt lat="45.06527" lon="5.94252">
        <ele>2179</ele>
        <time>2020-02-14T10:19:30.993Z</time>
      </trkpt>
      <trkpt lat="45.0653" lon="5.94262">
        <ele>2180</ele>
        <time>2020-02-14T10:19:38.000Z</time>
      </trkpt>
      <trkpt lat="45.06532" lon="5.94268">
        <ele>2180</ele>
        <time>2020-02-14T10:19:40.957Z</time>
      </trkpt>
      <trkpt lat="45.06534" lon="5.94276">
        <ele>2180</ele>
        <time>2020-02-14T10:19:45.000Z</time>
      </trkpt>
      <trkpt lat="45.06536" lon="5.94284">
        <ele>2181</ele>
        <time>2020-02-14T10:19:47.720Z</time>
      </trkpt>
      <trkpt lat="45.0654" lon="5.94293">
        <ele>2180</ele>
        <time>2020-02-14T10:19:55.000Z</time>
      </trkpt>
      <trkpt lat="45.06542" lon="5.94301">
        <ele>2180</ele>
        <time>2020-02-14T10:20:00.905Z</time>
      </trkpt>
      <trkpt lat="45.06544" lon="5.94311">
        <ele>2181</ele>
        <time>2020-02-14T10:20:07.180Z</time>
      </trkpt>
      <trkpt lat="45.06547" lon="5.94319">
        <ele>2182</ele>
        <time>2020-02-14T10:20:15.000Z</time>
      </trkpt>
      <trkpt lat="45.0655" lon="5.94326">
        <ele>2184</ele>
        <time>2020-02-14T10:20:22.000Z</time>
      </trkpt>
      <trkpt lat="45.06553" lon="5.94333">
        <ele>2185</ele>
        <time>2020-02-14T10:20:28.197Z</time>
      </trkpt>
      <trkpt lat="45.06556" lon="5.94341">
        <ele>2187</ele>
        <time>2020-02-14T10:20:35.000Z</time>
      </trkpt>
      <trkpt lat="45.06559" lon="5.9435">
        <ele>2187</ele>
        <time>2020-02-14T10:20:41.099Z</time>
      </trkpt>
      <trkpt lat="45.06562" lon="5.9436">
        <ele>2187</ele>
        <time>2020-02-14T10:20:48.000Z</time>
      </trkpt>
      <trkpt lat="45.06561" lon="5.94367">
        <ele>2187</ele>
        <time>2020-02-14T10:20:51.275Z</time>
      </trkpt>
      <trkpt lat="45.06562" lon="5.94379">
        <ele>2189</ele>
        <time>2020-02-14T10:20:57.425Z</time>
      </trkpt>
      <trkpt lat="45.06562" lon="5.94388">
        <ele>2189</ele>
        <time>2020-02-14T10:21:11.016Z</time>
      </trkpt>
      <trkpt lat="45.06566" lon="5.94397">
        <ele>2188</ele>
        <time>2020-02-14T10:21:14.281Z</time>
      </trkpt>
      <trkpt lat="45.06568" lon="5.94403">
        <ele>2189</ele>
        <time>2020-02-14T10:21:17.712Z</time>
      </trkpt>
      <trkpt lat="45.06573" lon="5.9441">
        <ele>2189</ele>
        <time>2020-02-14T10:21:24.417Z</time>
      </trkpt>
      <trkpt lat="45.06575" lon="5.94418">
        <ele>2190</ele>
        <time>2020-02-14T10:21:28.000Z</time>
      </trkpt>
      <trkpt lat="45.06578" lon="5.94428">
        <ele>2188</ele>
        <time>2020-02-14T10:21:34.136Z</time>
      </trkpt>
      <trkpt lat="45.06583" lon="5.94439">
        <ele>2187</ele>
        <time>2020-02-14T10:21:40.954Z</time>
      </trkpt>
      <trkpt lat="45.06587" lon="5.94447">
        <ele>2187</ele>
        <time>2020-02-14T10:21:47.291Z</time>
      </trkpt>
      <trkpt lat="45.0659" lon="5.94453">
        <ele>2187</ele>
        <time>2020-02-14T10:21:51.061Z</time>
      </trkpt>
      <trkpt lat="45.06594" lon="5.94465">
        <ele>2186</ele>
        <time>2020-02-14T10:21:58.000Z</time>
      </trkpt>
      <trkpt lat="45.06595" lon="5.94471">
        <ele>2185</ele>
        <time>2020-02-14T10:22:01.000Z</time>
      </trkpt>
      <trkpt lat="45.06597" lon="5.94478">
        <ele>2184</ele>
        <time>2020-02-14T10:22:03.618Z</time>
      </trkpt>
      <trkpt lat="45.06602" lon="5.94487">
        <ele>2183</ele>
        <time>2020-02-14T10:22:12.000Z</time>
      </trkpt>
      <trkpt lat="45.06606" lon="5.94495">
        <ele>2183</ele>
        <time>2020-02-14T10:22:18.132Z</time>
      </trkpt>
      <trkpt lat="45.06608" lon="5.94501">
        <ele>2184</ele>
        <time>2020-02-14T10:22:25.000Z</time>
      </trkpt>
      <trkpt lat="45.06611" lon="5.94511">
        <ele>2184</ele>
        <time>2020-02-14T10:22:31.419Z</time>
      </trkpt>
      <trkpt lat="45.06614" lon="5.9452">
        <ele>2185</ele>
        <time>2020-02-14T10:22:37.814Z</time>
      </trkpt>
      <trkpt lat="45.06617" lon="5.94528">
        <ele>2186</ele>
        <time>2020-02-14T10:22:44.053Z</time>
      </trkpt>
      <trkpt lat="45.06621" lon="5.94534">
        <ele>2187</ele>
        <time>2020-02-14T10:22:51.000Z</time>
      </trkpt>
      <trkpt lat="45.06627" lon="5.9454">
        <ele>2188</ele>
        <time>2020-02-14T10:22:56.884Z</time>
      </trkpt>
      <trkpt lat="45.06631" lon="5.94545">
        <ele>2189</ele>
        <time>2020-02-14T10:23:03.283Z</time>
      </trkpt>
      <trkpt lat="45.06636" lon="5.94553">
        <ele>2189</ele>
        <time>2020-02-14T10:23:09.718Z</time>
      </trkpt>
      <trkpt lat="45.06642" lon="5.94558">
        <ele>2192</ele>
        <time>2020-02-14T10:23:18.000Z</time>
      </trkpt>
      <trkpt lat="45.06647" lon="5.94563">
        <ele>2192</ele>
        <time>2020-02-14T10:23:25.000Z</time>
      </trkpt>
      <trkpt lat="45.06648" lon="5.94574">
        <ele>2191</ele>
        <time>2020-02-14T10:23:40.799Z</time>
      </trkpt>
      <trkpt lat="45.06649" lon="5.94581">
        <ele>2191</ele>
        <time>2020-02-14T10:23:47.237Z</time>
      </trkpt>
      <trkpt lat="45.06652" lon="5.9459">
        <ele>2193</ele>
        <time>2020-02-14T10:23:56.000Z</time>
      </trkpt>
      <trkpt lat="45.06654" lon="5.94596">
        <ele>2195</ele>
        <time>2020-02-14T10:24:01.612Z</time>
      </trkpt>
      <trkpt lat="45.06657" lon="5.94605">
        <ele>2195</ele>
        <time>2020-02-14T10:24:09.370Z</time>
      </trkpt>
      <trkpt lat="45.06662" lon="5.94614">
        <ele>2194</ele>
        <time>2020-02-14T10:24:16.495Z</time>
      </trkpt>
      <trkpt lat="45.06666" lon="5.94619">
        <ele>2196</ele>
        <time>2020-02-14T10:24:22.820Z</time>
      </trkpt>
      <trkpt lat="45.06671" lon="5.94627">
        <ele>2196</ele>
        <time>2020-02-14T10:24:29.842Z</time>
      </trkpt>
      <trkpt lat="45.06678" lon="5.94634">
        <ele>2198</ele>
        <time>2020-02-14T10:24:37.000Z</time>
      </trkpt>
      <trkpt lat="45.06685" lon="5.9464">
        <ele>2198</ele>
        <time>2020-02-14T10:24:43.019Z</time>
      </trkpt>
      <trkpt lat="45.06689" lon="5.94647">
        <ele>2200</ele>
        <time>2020-02-14T10:24:49.919Z</time>
      </trkpt>
      <trkpt lat="45.06691" lon="5.94657">
        <ele>2199</ele>
        <time>2020-02-14T10:24:58.000Z</time>
      </trkpt>
      <trkpt lat="45.06693" lon="5.94665">
        <ele>2200</ele>
        <time>2020-02-14T10:25:04.000Z</time>
      </trkpt>
      <trkpt lat="45.06697" lon="5.94673">
        <ele>2200</ele>
        <time>2020-02-14T10:25:09.438Z</time>
      </trkpt>
      <trkpt lat="45.06704" lon="5.94679">
        <ele>2202</ele>
        <time>2020-02-14T10:25:15.831Z</time>
      </trkpt>
      <trkpt lat="45.06712" lon="5.94683">
        <ele>2203</ele>
        <time>2020-02-14T10:25:23.000Z</time>
      </trkpt>
      <trkpt lat="45.06716" lon="5.94687">
        <ele>2202</ele>
        <time>2020-02-14T10:25:26.177Z</time>
      </trkpt>
      <trkpt lat="45.06719" lon="5.94692">
        <ele>2203</ele>
        <time>2020-02-14T10:25:29.382Z</time>
      </trkpt>
      <trkpt lat="45.06724" lon="5.947">
        <ele>2204</ele>
        <time>2020-02-14T10:25:37.183Z</time>
      </trkpt>
      <trkpt lat="45.06728" lon="5.94708">
        <ele>2205</ele>
        <time>2020-02-14T10:25:44.000Z</time>
      </trkpt>
      <trkpt lat="45.06731" lon="5.94717">
        <ele>2205</ele>
        <time>2020-02-14T10:25:50.234Z</time>
      </trkpt>
      <trkpt lat="45.06734" lon="5.94724">
        <ele>2206</ele>
        <time>2020-02-14T10:25:54.074Z</time>
      </trkpt>
      <trkpt lat="45.06738" lon="5.9473">
        <ele>2206</ele>
        <time>2020-02-14T10:26:01.000Z</time>
      </trkpt>
      <trkpt lat="45.06741" lon="5.94735">
        <ele>2208</ele>
        <time>2020-02-14T10:26:08.000Z</time>
      </trkpt>
      <trkpt lat="45.06745" lon="5.94741">
        <ele>2209</ele>
        <time>2020-02-14T10:26:14.321Z</time>
      </trkpt>
      <trkpt lat="45.06748" lon="5.94746">
        <ele>2210</ele>
        <time>2020-02-14T10:26:21.126Z</time>
      </trkpt>
      <trkpt lat="45.06752" lon="5.94751">
        <ele>2211</ele>
        <time>2020-02-14T10:26:28.000Z</time>
      </trkpt>
      <trkpt lat="45.06757" lon="5.94758">
        <ele>2212</ele>
        <time>2020-02-14T10:26:35.000Z</time>
      </trkpt>
      <trkpt lat="45.06762" lon="5.94765">
        <ele>2212</ele>
        <time>2020-02-14T10:26:41.163Z</time>
      </trkpt>
      <trkpt lat="45.06767" lon="5.94769">
        <ele>2213</ele>
        <time>2020-02-14T10:26:44.425Z</time>
      </trkpt>
      <trkpt lat="45.06773" lon="5.94776">
        <ele>2214</ele>
        <time>2020-02-14T10:26:51.040Z</time>
      </trkpt>
      <trkpt lat="45.06778" lon="5.94782">
        <ele>2214</ele>
        <time>2020-02-14T10:26:59.000Z</time>
      </trkpt>
      <trkpt lat="45.06783" lon="5.94787">
        <ele>2214</ele>
        <time>2020-02-14T10:27:05.206Z</time>
      </trkpt>
      <trkpt lat="45.06788" lon="5.94792">
        <ele>2213</ele>
        <time>2020-02-14T10:27:12.270Z</time>
      </trkpt>
      <trkpt lat="45.06794" lon="5.94798">
        <ele>2211</ele>
        <time>2020-02-14T10:27:20.000Z</time>
      </trkpt>
      <trkpt lat="45.06799" lon="5.94802">
        <ele>2212</ele>
        <time>2020-02-14T10:27:26.250Z</time>
      </trkpt>
      <trkpt lat="45.06806" lon="5.94809">
        <ele>2211</ele>
        <time>2020-02-14T10:27:33.222Z</time>
      </trkpt>
      <trkpt lat="45.06812" lon="5.94814">
        <ele>2213</ele>
        <time>2020-02-14T10:27:40.000Z</time>
      </trkpt>
      <trkpt lat="45.06817" lon="5.94817">
        <ele>2213</ele>
        <time>2020-02-14T10:27:43.151Z</time>
      </trkpt>
      <trkpt lat="45.06822" lon="5.94821">
        <ele>2212</ele>
        <time>2020-02-14T10:27:49.471Z</time>
      </trkpt>
      <trkpt lat="45.06827" lon="5.94824">
        <ele>2213</ele>
        <time>2020-02-14T10:27:55.825Z</time>
      </trkpt>
      <trkpt lat="45.06832" lon="5.94828">
        <ele>2213</ele>
        <time>2020-02-14T10:28:02.949Z</time>
      </trkpt>
      <trkpt lat="45.06836" lon="5.94833">
        <ele>2215</ele>
        <time>2020-02-14T10:28:10.000Z</time>
      </trkpt>
      <trkpt lat="45.0684" lon="5.94839">
        <ele>2216</ele>
        <time>2020-02-14T10:28:16.371Z</time>
      </trkpt>
      <trkpt lat="45.06846" lon="5.94847">
        <ele>2216</ele>
        <time>2020-02-14T10:28:23.383Z</time>
      </trkpt>
      <trkpt lat="45.06851" lon="5.94851">
        <ele>2216</ele>
        <time>2020-02-14T10:28:29.969Z</time>
      </trkpt>
      <trkpt lat="45.06856" lon="5.94856">
        <ele>2215</ele>
        <time>2020-02-14T10:28:36.287Z</time>
      </trkpt>
      <trkpt lat="45.06861" lon="5.94861">
        <ele>2216</ele>
        <time>2020-02-14T10:28:42.642Z</time>
      </trkpt>
      <trkpt lat="45.06866" lon="5.94866">
        <ele>2218</ele>
        <time>2020-02-14T10:28:56.445Z</time>
      </trkpt>
      <trkpt lat="45.06871" lon="5.94874">
        <ele>2218</ele>
        <time>2020-02-14T10:29:03.089Z</time>
      </trkpt>
      <trkpt lat="45.06877" lon="5.94881">
        <ele>2219</ele>
        <time>2020-02-14T10:29:10.000Z</time>
      </trkpt>
      <trkpt lat="45.0688" lon="5.94885">
        <ele>2220</ele>
        <time>2020-02-14T10:29:13.047Z</time>
      </trkpt>
      <trkpt lat="45.06889" lon="5.94894">
        <ele>2220</ele>
        <time>2020-02-14T10:29:19.902Z</time>
      </trkpt>
      <trkpt lat="45.06893" lon="5.94898">
        <ele>2220</ele>
        <time>2020-02-14T10:29:24.000Z</time>
      </trkpt>
      <trkpt lat="45.069" lon="5.94906">
        <ele>2220</ele>
        <time>2020-02-14T10:29:30.269Z</time>
      </trkpt>
      <trkpt lat="45.06904" lon="5.94911">
        <ele>2220</ele>
        <time>2020-02-14T10:29:34.000Z</time>
      </trkpt>
      <trkpt lat="45.06907" lon="5.94916">
        <ele>2221</ele>
        <time>2020-02-14T10:29:40.129Z</time>
      </trkpt>
      <trkpt lat="45.06912" lon="5.94923">
        <ele>2222</ele>
        <time>2020-02-14T10:29:47.000Z</time>
      </trkpt>
      <trkpt lat="45.06917" lon="5.94929">
        <ele>2221</ele>
        <time>2020-02-14T10:29:54.042Z</time>
      </trkpt>
      <trkpt lat="45.06923" lon="5.94933">
        <ele>2223</ele>
        <time>2020-02-14T10:30:01.047Z</time>
      </trkpt>
      <trkpt lat="45.06929" lon="5.94936">
        <ele>2225</ele>
        <time>2020-02-14T10:30:16.000Z</time>
      </trkpt>
      <trkpt lat="45.06933" lon="5.94938">
        <ele>2226</ele>
        <time>2020-02-14T10:30:22.000Z</time>
      </trkpt>
      <trkpt lat="45.06937" lon="5.94946">
        <ele>2224</ele>
        <time>2020-02-14T10:30:28.224Z</time>
      </trkpt>
      <trkpt lat="45.0694" lon="5.94953">
        <ele>2226</ele>
        <time>2020-02-14T10:30:34.614Z</time>
      </trkpt>
      <trkpt lat="45.06945" lon="5.94959">
        <ele>2227</ele>
        <time>2020-02-14T10:30:42.000Z</time>
      </trkpt>
      <trkpt lat="45.06949" lon="5.94963">
        <ele>2226</ele>
        <time>2020-02-14T10:30:48.287Z</time>
      </trkpt>
      <trkpt lat="45.06954" lon="5.94967">
        <ele>2226</ele>
        <time>2020-02-14T10:30:55.053Z</time>
      </trkpt>
      <trkpt lat="45.06958" lon="5.9497">
        <ele>2228</ele>
        <time>2020-02-14T10:31:02.000Z</time>
      </trkpt>
      <trkpt lat="45.06963" lon="5.94976">
        <ele>2228</ele>
        <time>2020-02-14T10:31:07.832Z</time>
      </trkpt>
      <trkpt lat="45.06967" lon="5.9498">
        <ele>2228</ele>
        <time>2020-02-14T10:31:14.678Z</time>
      </trkpt>
      <trkpt lat="45.06971" lon="5.94986">
        <ele>2232</ele>
        <time>2020-02-14T10:31:22.000Z</time>
      </trkpt>
      <trkpt lat="45.06975" lon="5.94992">
        <ele>2232</ele>
        <time>2020-02-14T10:31:32.000Z</time>
      </trkpt>
      <trkpt lat="45.06976" lon="5.95001">
        <ele>2233</ele>
        <time>2020-02-14T10:32:20.820Z</time>
      </trkpt>
      <trkpt lat="45.06978" lon="5.9501">
        <ele>2231</ele>
        <time>2020-02-14T10:32:27.155Z</time>
      </trkpt>
      <trkpt lat="45.06983" lon="5.95018">
        <ele>2231</ele>
        <time>2020-02-14T10:32:34.202Z</time>
      </trkpt>
      <trkpt lat="45.06989" lon="5.95027">
        <ele>2232</ele>
        <time>2020-02-14T10:32:41.000Z</time>
      </trkpt>
      <trkpt lat="45.06998" lon="5.95033">
        <ele>2232</ele>
        <time>2020-02-14T10:32:46.769Z</time>
      </trkpt>
      <trkpt lat="45.07003" lon="5.95035">
        <ele>2232</ele>
        <time>2020-02-14T10:32:51.000Z</time>
      </trkpt>
      <trkpt lat="45.07007" lon="5.95037">
        <ele>2232</ele>
        <time>2020-02-14T10:32:54.000Z</time>
      </trkpt>
      <trkpt lat="45.07013" lon="5.95039">
        <ele>2232</ele>
        <time>2020-02-14T10:32:58.000Z</time>
      </trkpt>
      <trkpt lat="45.07018" lon="5.9504">
        <ele>2232</ele>
        <time>2020-02-14T10:33:00.995Z</time>
      </trkpt>
      <trkpt lat="45.07024" lon="5.95042">
        <ele>2231</ele>
        <time>2020-02-14T10:33:05.000Z</time>
      </trkpt>
      <trkpt lat="45.0703" lon="5.95043">
        <ele>2232</ele>
        <time>2020-02-14T10:33:08.000Z</time>
      </trkpt>
      <trkpt lat="45.07035" lon="5.95043">
        <ele>2232</ele>
        <time>2020-02-14T10:33:11.220Z</time>
      </trkpt>
      <trkpt lat="45.0704" lon="5.9504">
        <ele>2232</ele>
        <time>2020-02-14T10:33:14.838Z</time>
      </trkpt>
      <trkpt lat="45.07049" lon="5.95036">
        <ele>2232</ele>
        <time>2020-02-14T10:33:21.914Z</time>
      </trkpt>
      <trkpt lat="45.07056" lon="5.95033">
        <ele>2232</ele>
        <time>2020-02-14T10:33:29.000Z</time>
      </trkpt>
      <trkpt lat="45.07063" lon="5.95031">
        <ele>2231</ele>
        <time>2020-02-14T10:33:32.000Z</time>
      </trkpt>
      <trkpt lat="45.0707" lon="5.95027">
        <ele>2230</ele>
        <time>2020-02-14T10:33:35.000Z</time>
      </trkpt>
      <trkpt lat="45.07074" lon="5.95024">
        <ele>2230</ele>
        <time>2020-02-14T10:33:37.699Z</time>
      </trkpt>
      <trkpt lat="45.07083" lon="5.95022">
        <ele>2231</ele>
        <time>2020-02-14T10:33:45.000Z</time>
      </trkpt>
      <trkpt lat="45.07088" lon="5.95022">
        <ele>2231</ele>
        <time>2020-02-14T10:33:48.000Z</time>
      </trkpt>
      <trkpt lat="45.07093" lon="5.95019">
        <ele>2231</ele>
        <time>2020-02-14T10:33:50.717Z</time>
      </trkpt>
      <trkpt lat="45.07097" lon="5.95015">
        <ele>2232</ele>
        <time>2020-02-14T10:33:55.000Z</time>
      </trkpt>
      <trkpt lat="45.07103" lon="5.95011">
        <ele>2231</ele>
        <time>2020-02-14T10:34:00.651Z</time>
      </trkpt>
      <trkpt lat="45.07108" lon="5.95009">
        <ele>2230</ele>
        <time>2020-02-14T10:34:04.171Z</time>
      </trkpt>
      <trkpt lat="45.07113" lon="5.95006">
        <ele>2230</ele>
        <time>2020-02-14T10:34:07.356Z</time>
      </trkpt>
      <trkpt lat="45.07122" lon="5.95002">
        <ele>2229</ele>
        <time>2020-02-14T10:34:13.991Z</time>
      </trkpt>
      <trkpt lat="45.07127" lon="5.95">
        <ele>2229</ele>
        <time>2020-02-14T10:34:18.000Z</time>
      </trkpt>
      <trkpt lat="45.07132" lon="5.94997">
        <ele>2228</ele>
        <time>2020-02-14T10:34:22.000Z</time>
      </trkpt>
      <trkpt lat="45.0714" lon="5.94996">
        <ele>2229</ele>
        <time>2020-02-14T10:34:28.138Z</time>
      </trkpt>
      <trkpt lat="45.07145" lon="5.94993">
        <ele>2227</ele>
        <time>2020-02-14T10:34:36.000Z</time>
      </trkpt>
      <trkpt lat="45.07151" lon="5.94993">
        <ele>2230</ele>
        <time>2020-02-14T10:35:07.895Z</time>
      </trkpt>
      <trkpt lat="45.07155" lon="5.9499">
        <ele>2230</ele>
        <time>2020-02-14T10:35:12.000Z</time>
      </trkpt>
      <trkpt lat="45.07163" lon="5.94986">
        <ele>2229</ele>
        <time>2020-02-14T10:35:18.051Z</time>
      </trkpt>
      <trkpt lat="45.07171" lon="5.94984">
        <ele>2228</ele>
        <time>2020-02-14T10:35:24.916Z</time>
      </trkpt>
      <trkpt lat="45.07178" lon="5.9498">
        <ele>2228</ele>
        <time>2020-02-14T10:35:32.101Z</time>
      </trkpt>
      <trkpt lat="45.07186" lon="5.94973">
        <ele>2227</ele>
        <time>2020-02-14T10:35:38.784Z</time>
      </trkpt>
      <trkpt lat="45.07193" lon="5.94965">
        <ele>2225</ele>
        <time>2020-02-14T10:35:43.000Z</time>
      </trkpt>
      <trkpt lat="45.07201" lon="5.94955">
        <ele>2223</ele>
        <time>2020-02-14T10:35:45.625Z</time>
      </trkpt>
      <trkpt lat="45.07206" lon="5.94947">
        <ele>2221</ele>
        <time>2020-02-14T10:35:49.115Z</time>
      </trkpt>
      <trkpt lat="45.07213" lon="5.9494">
        <ele>2220</ele>
        <time>2020-02-14T10:35:55.755Z</time>
      </trkpt>
      <trkpt lat="45.07221" lon="5.94936">
        <ele>2219</ele>
        <time>2020-02-14T10:36:02.599Z</time>
      </trkpt>
      <trkpt lat="45.07225" lon="5.94933">
        <ele>2219</ele>
        <time>2020-02-14T10:36:06.402Z</time>
      </trkpt>
      <trkpt lat="45.07233" lon="5.94929">
        <ele>2219</ele>
        <time>2020-02-14T10:36:13.000Z</time>
      </trkpt>
      <trkpt lat="45.07237" lon="5.94926">
        <ele>2218</ele>
        <time>2020-02-14T10:36:15.821Z</time>
      </trkpt>
      <trkpt lat="45.07242" lon="5.94923">
        <ele>2219</ele>
        <time>2020-02-14T10:36:20.000Z</time>
      </trkpt>
      <trkpt lat="45.07249" lon="5.9492">
        <ele>2217</ele>
        <time>2020-02-14T10:36:26.176Z</time>
      </trkpt>
      <trkpt lat="45.07253" lon="5.94911">
        <ele>2214</ele>
        <time>2020-02-14T10:36:37.000Z</time>
      </trkpt>
      <trkpt lat="45.07257" lon="5.94907">
        <ele>2213</ele>
        <time>2020-02-14T10:36:40.225Z</time>
      </trkpt>
      <trkpt lat="45.07262" lon="5.94905">
        <ele>2213</ele>
        <time>2020-02-14T10:36:43.735Z</time>
      </trkpt>
      <trkpt lat="45.07269" lon="5.94902">
        <ele>2214</ele>
        <time>2020-02-14T10:36:51.000Z</time>
      </trkpt>
      <trkpt lat="45.07274" lon="5.94902">
        <ele>2214</ele>
        <time>2020-02-14T10:36:53.258Z</time>
      </trkpt>
      <trkpt lat="45.07279" lon="5.94903">
        <ele>2214</ele>
        <time>2020-02-14T10:36:57.000Z</time>
      </trkpt>
      <trkpt lat="45.07284" lon="5.94904">
        <ele>2215</ele>
        <time>2020-02-14T10:37:00.057Z</time>
      </trkpt>
      <trkpt lat="45.07292" lon="5.94901">
        <ele>2215</ele>
        <time>2020-02-14T10:37:06.773Z</time>
      </trkpt>
      <trkpt lat="45.07298" lon="5.94897">
        <ele>2215</ele>
        <time>2020-02-14T10:37:10.613Z</time>
      </trkpt>
      <trkpt lat="45.07303" lon="5.94895">
        <ele>2216</ele>
        <time>2020-02-14T10:37:16.974Z</time>
      </trkpt>
      <trkpt lat="45.07308" lon="5.94892">
        <ele>2216</ele>
        <time>2020-02-14T10:37:19.980Z</time>
      </trkpt>
      <trkpt lat="45.07316" lon="5.94888">
        <ele>2214</ele>
        <time>2020-02-14T10:37:26.657Z</time>
      </trkpt>
      <trkpt lat="45.07324" lon="5.9488">
        <ele>2212</ele>
        <time>2020-02-14T10:37:34.066Z</time>
      </trkpt>
      <trkpt lat="45.07329" lon="5.94874">
        <ele>2211</ele>
        <time>2020-02-14T10:37:37.351Z</time>
      </trkpt>
      <trkpt lat="45.07335" lon="5.94871">
        <ele>2211</ele>
        <time>2020-02-14T10:37:41.123Z</time>
      </trkpt>
      <trkpt lat="45.07339" lon="5.94871">
        <ele>2210</ele>
        <time>2020-02-14T10:37:45.000Z</time>
      </trkpt>
      <trkpt lat="45.07347" lon="5.94872">
        <ele>2211</ele>
        <time>2020-02-14T10:37:51.088Z</time>
      </trkpt>
      <trkpt lat="45.07353" lon="5.94869">
        <ele>2210</ele>
        <time>2020-02-14T10:37:58.073Z</time>
      </trkpt>
      <trkpt lat="45.07361" lon="5.94865">
        <ele>2210</ele>
        <time>2020-02-14T10:38:05.000Z</time>
      </trkpt>
      <trkpt lat="45.07368" lon="5.94861">
        <ele>2210</ele>
        <time>2020-02-14T10:38:12.000Z</time>
      </trkpt>
      <trkpt lat="45.07374" lon="5.94858">
        <ele>2210</ele>
        <time>2020-02-14T10:38:17.773Z</time>
      </trkpt>
      <trkpt lat="45.07379" lon="5.94858">
        <ele>2210</ele>
        <time>2020-02-14T10:38:20.937Z</time>
      </trkpt>
      <trkpt lat="45.07388" lon="5.94856">
        <ele>2209</ele>
        <time>2020-02-14T10:38:27.890Z</time>
      </trkpt>
      <trkpt lat="45.07395" lon="5.94853">
        <ele>2209</ele>
        <time>2020-02-14T10:38:36.000Z</time>
      </trkpt>
      <trkpt lat="45.07404" lon="5.94848">
        <ele>2209</ele>
        <time>2020-02-14T10:38:42.098Z</time>
      </trkpt>
      <trkpt lat="45.07411" lon="5.94844">
        <ele>2210</ele>
        <time>2020-02-14T10:38:49.000Z</time>
      </trkpt>
      <trkpt lat="45.07418" lon="5.9484">
        <ele>2210</ele>
        <time>2020-02-14T10:38:55.000Z</time>
      </trkpt>
      <trkpt lat="45.07424" lon="5.94837">
        <ele>2211</ele>
        <time>2020-02-14T10:39:00.713Z</time>
      </trkpt>
      <trkpt lat="45.0743" lon="5.94839">
        <ele>2211</ele>
        <time>2020-02-14T10:39:03.797Z</time>
      </trkpt>
      <trkpt lat="45.07435" lon="5.94839">
        <ele>2211</ele>
        <time>2020-02-14T10:39:06.910Z</time>
      </trkpt>
      <trkpt lat="45.07442" lon="5.9484">
        <ele>2210</ele>
        <time>2020-02-14T10:39:15.000Z</time>
      </trkpt>
      <trkpt lat="45.07449" lon="5.9484">
        <ele>2211</ele>
        <time>2020-02-14T10:39:20.740Z</time>
      </trkpt>
      <trkpt lat="45.07454" lon="5.94842">
        <ele>2213</ele>
        <time>2020-02-14T10:39:28.000Z</time>
      </trkpt>
      <trkpt lat="45.0746" lon="5.94842">
        <ele>2214</ele>
        <time>2020-02-14T10:39:34.574Z</time>
      </trkpt>
      <trkpt lat="45.07466" lon="5.94841">
        <ele>2214</ele>
        <time>2020-02-14T10:39:42.000Z</time>
      </trkpt>
      <trkpt lat="45.07471" lon="5.94838">
        <ele>2214</ele>
        <time>2020-02-14T10:39:49.000Z</time>
      </trkpt>
      <trkpt lat="45.07479" lon="5.94838">
        <ele>2215</ele>
        <time>2020-02-14T10:39:56.000Z</time>
      </trkpt>
      <trkpt lat="45.07485" lon="5.94839">
        <ele>2216</ele>
        <time>2020-02-14T10:40:01.322Z</time>
      </trkpt>
      <trkpt lat="45.07493" lon="5.94839">
        <ele>2218</ele>
        <time>2020-02-14T10:40:09.000Z</time>
      </trkpt>
      <trkpt lat="45.07499" lon="5.94838">
        <ele>2219</ele>
        <time>2020-02-14T10:40:16.000Z</time>
      </trkpt>
      <trkpt lat="45.07504" lon="5.94836">
        <ele>2220</ele>
        <time>2020-02-14T10:40:21.619Z</time>
      </trkpt>
      <trkpt lat="45.07511" lon="5.94838">
        <ele>2221</ele>
        <time>2020-02-14T10:40:29.000Z</time>
      </trkpt>
      <trkpt lat="45.07517" lon="5.94841">
        <ele>2222</ele>
        <time>2020-02-14T10:40:35.000Z</time>
      </trkpt>
      <trkpt lat="45.07524" lon="5.94843">
        <ele>2222</ele>
        <time>2020-02-14T10:40:42.000Z</time>
      </trkpt>
      <trkpt lat="45.0753" lon="5.94842">
        <ele>2222</ele>
        <time>2020-02-14T10:40:47.918Z</time>
      </trkpt>
      <trkpt lat="45.07538" lon="5.9484">
        <ele>2223</ele>
        <time>2020-02-14T10:40:55.000Z</time>
      </trkpt>
      <trkpt lat="45.07544" lon="5.94838">
        <ele>2224</ele>
        <time>2020-02-14T10:41:02.000Z</time>
      </trkpt>
      <trkpt lat="45.0755" lon="5.94839">
        <ele>2224</ele>
        <time>2020-02-14T10:41:12.713Z</time>
      </trkpt>
      <trkpt lat="45.07554" lon="5.94846">
        <ele>2224</ele>
        <time>2020-02-14T10:41:16.143Z</time>
      </trkpt>
      <trkpt lat="45.07561" lon="5.94851">
        <ele>2223</ele>
        <time>2020-02-14T10:41:24.000Z</time>
      </trkpt>
      <trkpt lat="45.07568" lon="5.94853">
        <ele>2223</ele>
        <time>2020-02-14T10:41:31.000Z</time>
      </trkpt>
      <trkpt lat="45.07575" lon="5.94852">
        <ele>2222</ele>
        <time>2020-02-14T10:41:37.157Z</time>
      </trkpt>
      <trkpt lat="45.07581" lon="5.94848">
        <ele>2221</ele>
        <time>2020-02-14T10:41:43.664Z</time>
      </trkpt>
      <trkpt lat="45.07587" lon="5.94845">
        <ele>2222</ele>
        <time>2020-02-14T10:41:50.223Z</time>
      </trkpt>
      <trkpt lat="45.07592" lon="5.94846">
        <ele>2225</ele>
        <time>2020-02-14T10:41:57.000Z</time>
      </trkpt>
      <trkpt lat="45.07601" lon="5.94848">
        <ele>2224</ele>
        <time>2020-02-14T10:42:03.648Z</time>
      </trkpt>
      <trkpt lat="45.07608" lon="5.9485">
        <ele>2222</ele>
        <time>2020-02-14T10:42:10.354Z</time>
      </trkpt>
      <trkpt lat="45.07615" lon="5.94852">
        <ele>2223</ele>
        <time>2020-02-14T10:42:33.762Z</time>
      </trkpt>
      <trkpt lat="45.07623" lon="5.94857">
        <ele>2224</ele>
        <time>2020-02-14T10:42:41.076Z</time>
      </trkpt>
      <trkpt lat="45.07631" lon="5.94859">
        <ele>2223</ele>
        <time>2020-02-14T10:42:48.181Z</time>
      </trkpt>
      <trkpt lat="45.07637" lon="5.94859">
        <ele>2224</ele>
        <time>2020-02-14T10:42:54.576Z</time>
      </trkpt>
      <trkpt lat="45.07643" lon="5.94859">
        <ele>2224</ele>
        <time>2020-02-14T10:43:02.000Z</time>
      </trkpt>
      <trkpt lat="45.0765" lon="5.94859">
        <ele>2224</ele>
        <time>2020-02-14T10:43:08.453Z</time>
      </trkpt>
      <trkpt lat="45.07656" lon="5.94859">
        <ele>2226</ele>
        <time>2020-02-14T10:43:15.074Z</time>
      </trkpt>
      <trkpt lat="45.07661" lon="5.94862">
        <ele>2227</ele>
        <time>2020-02-14T10:43:22.401Z</time>
      </trkpt>
      <trkpt lat="45.07667" lon="5.94864">
        <ele>2231</ele>
        <time>2020-02-14T10:43:30.000Z</time>
      </trkpt>
      <trkpt lat="45.07672" lon="5.94864">
        <ele>2231</ele>
        <time>2020-02-14T10:43:36.129Z</time>
      </trkpt>
      <trkpt lat="45.07679" lon="5.94864">
        <ele>2232</ele>
        <time>2020-02-14T10:43:43.451Z</time>
      </trkpt>
      <trkpt lat="45.07687" lon="5.94863">
        <ele>2232</ele>
        <time>2020-02-14T10:43:52.000Z</time>
      </trkpt>
      <trkpt lat="45.07691" lon="5.9486">
        <ele>2233</ele>
        <time>2020-02-14T10:43:58.021Z</time>
      </trkpt>
      <trkpt lat="45.07697" lon="5.94858">
        <ele>2234</ele>
        <time>2020-02-14T10:44:06.000Z</time>
      </trkpt>
      <trkpt lat="45.07702" lon="5.9486">
        <ele>2232</ele>
        <time>2020-02-14T10:44:11.736Z</time>
      </trkpt>
      <trkpt lat="45.07707" lon="5.94862">
        <ele>2233</ele>
        <time>2020-02-14T10:44:18.114Z</time>
      </trkpt>
      <trkpt lat="45.07713" lon="5.94867">
        <ele>2234</ele>
        <time>2020-02-14T10:44:25.000Z</time>
      </trkpt>
      <trkpt lat="45.0772" lon="5.94869">
        <ele>2235</ele>
        <time>2020-02-14T10:44:34.441Z</time>
      </trkpt>
      <trkpt lat="45.07725" lon="5.94869">
        <ele>2234</ele>
        <time>2020-02-14T10:44:41.117Z</time>
      </trkpt>
      <trkpt lat="45.07731" lon="5.9487">
        <ele>2236</ele>
        <time>2020-02-14T10:44:48.000Z</time>
      </trkpt>
      <trkpt lat="45.07735" lon="5.94873">
        <ele>2236</ele>
        <time>2020-02-14T10:44:54.518Z</time>
      </trkpt>
      <trkpt lat="45.07739" lon="5.94879">
        <ele>2235</ele>
        <time>2020-02-14T10:45:02.072Z</time>
      </trkpt>
      <trkpt lat="45.07743" lon="5.94886">
        <ele>2236</ele>
        <time>2020-02-14T10:45:17.681Z</time>
      </trkpt>
      <trkpt lat="45.0775" lon="5.94886">
        <ele>2236</ele>
        <time>2020-02-14T10:45:22.000Z</time>
      </trkpt>
      <trkpt lat="45.07755" lon="5.94886">
        <ele>2236</ele>
        <time>2020-02-14T10:45:25.000Z</time>
      </trkpt>
      <trkpt lat="45.07762" lon="5.94887">
        <ele>2235</ele>
        <time>2020-02-14T10:45:30.643Z</time>
      </trkpt>
      <trkpt lat="45.07768" lon="5.94891">
        <ele>2234</ele>
        <time>2020-02-14T10:45:39.000Z</time>
      </trkpt>
      <trkpt lat="45.07774" lon="5.94894">
        <ele>2236</ele>
        <time>2020-02-14T10:45:46.000Z</time>
      </trkpt>
      <trkpt lat="45.07782" lon="5.94892">
        <ele>2234</ele>
        <time>2020-02-14T10:45:53.000Z</time>
      </trkpt>
      <trkpt lat="45.07789" lon="5.94893">
        <ele>2234</ele>
        <time>2020-02-14T10:45:55.738Z</time>
      </trkpt>
      <trkpt lat="45.07794" lon="5.94895">
        <ele>2234</ele>
        <time>2020-02-14T10:45:58.982Z</time>
      </trkpt>
      <trkpt lat="45.078" lon="5.94897">
        <ele>2233</ele>
        <time>2020-02-14T10:46:02.582Z</time>
      </trkpt>
      <trkpt lat="45.07806" lon="5.94899">
        <ele>2233</ele>
        <time>2020-02-14T10:46:07.000Z</time>
      </trkpt>
      <trkpt lat="45.0781" lon="5.949">
        <ele>2233</ele>
        <time>2020-02-14T10:46:11.000Z</time>
      </trkpt>
      <trkpt lat="45.07818" lon="5.94901">
        <ele>2232</ele>
        <time>2020-02-14T10:46:18.000Z</time>
      </trkpt>
      <trkpt lat="45.07824" lon="5.94902">
        <ele>2232</ele>
        <time>2020-02-14T10:46:23.753Z</time>
      </trkpt>
      <trkpt lat="45.07832" lon="5.94906">
        <ele>2232</ele>
        <time>2020-02-14T10:46:30.926Z</time>
      </trkpt>
      <trkpt lat="45.0784" lon="5.94908">
        <ele>2233</ele>
        <time>2020-02-14T10:46:39.000Z</time>
      </trkpt>
      <trkpt lat="45.07847" lon="5.94909">
        <ele>2233</ele>
        <time>2020-02-14T10:46:44.703Z</time>
      </trkpt>
      <trkpt lat="45.07852" lon="5.9491">
        <ele>2233</ele>
        <time>2020-02-14T10:46:50.822Z</time>
      </trkpt>
      <trkpt lat="45.07858" lon="5.94914">
        <ele>2234</ele>
        <time>2020-02-14T10:46:57.926Z</time>
      </trkpt>
      <trkpt lat="45.07863" lon="5.94921">
        <ele>2234</ele>
        <time>2020-02-14T10:47:04.621Z</time>
      </trkpt>
      <trkpt lat="45.07867" lon="5.94929">
        <ele>2234</ele>
        <time>2020-02-14T10:47:12.000Z</time>
      </trkpt>
      <trkpt lat="45.07872" lon="5.94934">
        <ele>2237</ele>
        <time>2020-02-14T10:47:23.000Z</time>
      </trkpt>
      <trkpt lat="45.07878" lon="5.94937">
        <ele>2239</ele>
        <time>2020-02-14T10:47:33.000Z</time>
      </trkpt>
      <trkpt lat="45.07884" lon="5.94939">
        <ele>2243</ele>
        <time>2020-02-14T10:48:02.000Z</time>
      </trkpt>
      <trkpt lat="45.07889" lon="5.94939">
        <ele>2243</ele>
        <time>2020-02-14T10:48:11.906Z</time>
      </trkpt>
      <trkpt lat="45.07886" lon="5.94947">
        <ele>2244</ele>
        <time>2020-02-14T10:48:35.856Z</time>
      </trkpt>
      <trkpt lat="45.07882" lon="5.94953">
        <ele>2244</ele>
        <time>2020-02-14T10:48:45.953Z</time>
      </trkpt>
      <trkpt lat="45.07879" lon="5.94957">
        <ele>2244</ele>
        <time>2020-02-14T10:48:53.000Z</time>
      </trkpt>
      <trkpt lat="45.07875" lon="5.94963">
        <ele>2244</ele>
        <time>2020-02-14T10:49:00.000Z</time>
      </trkpt>
      <trkpt lat="45.0787" lon="5.94966">
        <ele>2247</ele>
        <time>2020-02-14T10:49:16.755Z</time>
      </trkpt>
      <trkpt lat="45.0787" lon="5.94973">
        <ele>2246</ele>
        <time>2020-02-14T10:49:30.997Z</time>
      </trkpt>
      <trkpt lat="45.07868" lon="5.94979">
        <ele>2248</ele>
        <time>2020-02-14T10:49:50.000Z</time>
      </trkpt>
      <trkpt lat="45.07864" lon="5.94979">
        <ele>2249</ele>
        <time>2020-02-14T10:50:04.000Z</time>
      </trkpt>
      <trkpt lat="45.07858" lon="5.9498">
        <ele>2251</ele>
        <time>2020-02-14T10:50:17.000Z</time>
      </trkpt>
      <trkpt lat="45.07855" lon="5.94985">
        <ele>2256</ele>
        <time>2020-02-14T10:50:30.000Z</time>
      </trkpt>
      <trkpt lat="45.07857" lon="5.9499">
        <ele>2260</ele>
        <time>2020-02-14T10:50:55.889Z</time>
      </trkpt>
      <trkpt lat="45.0786" lon="5.94996">
        <ele>2263</ele>
        <time>2020-02-14T10:51:06.750Z</time>
      </trkpt>
      <trkpt lat="45.07863" lon="5.95001">
        <ele>2264</ele>
        <time>2020-02-14T10:51:21.000Z</time>
      </trkpt>
      <trkpt lat="45.07864" lon="5.95009">
        <ele>2263</ele>
        <time>2020-02-14T10:51:56.000Z</time>
      </trkpt>
      <trkpt lat="45.0786" lon="5.95014">
        <ele>2266</ele>
        <time>2020-02-14T10:52:10.000Z</time>
      </trkpt>
      <trkpt lat="45.07855" lon="5.95015">
        <ele>2268</ele>
        <time>2020-02-14T10:52:24.000Z</time>
      </trkpt>
      <trkpt lat="45.0785" lon="5.95017">
        <ele>2271</ele>
        <time>2020-02-14T10:52:33.915Z</time>
      </trkpt>
      <trkpt lat="45.07845" lon="5.9502">
        <ele>2271</ele>
        <time>2020-02-14T10:52:41.000Z</time>
      </trkpt>
      <trkpt lat="45.0784" lon="5.95021">
        <ele>2272</ele>
        <time>2020-02-14T10:52:48.000Z</time>
      </trkpt>
      <trkpt lat="45.07835" lon="5.95022">
        <ele>2272</ele>
        <time>2020-02-14T10:52:53.811Z</time>
      </trkpt>
      <trkpt lat="45.07831" lon="5.95025">
        <ele>2274</ele>
        <time>2020-02-14T10:53:01.000Z</time>
      </trkpt>
      <trkpt lat="45.07827" lon="5.95029">
        <ele>2274</ele>
        <time>2020-02-14T10:53:06.944Z</time>
      </trkpt>
      <trkpt lat="45.07823" lon="5.95033">
        <ele>2275</ele>
        <time>2020-02-14T10:53:15.000Z</time>
      </trkpt>
      <trkpt lat="45.07821" lon="5.95041">
        <ele>2278</ele>
        <time>2020-02-14T10:53:25.000Z</time>
      </trkpt>
      <trkpt lat="45.07819" lon="5.95049">
        <ele>2280</ele>
        <time>2020-02-14T10:53:37.648Z</time>
      </trkpt>
      <trkpt lat="45.07818" lon="5.95055">
        <ele>2282</ele>
        <time>2020-02-14T10:53:47.559Z</time>
      </trkpt>
      <trkpt lat="45.07816" lon="5.95063">
        <ele>2286</ele>
        <time>2020-02-14T10:53:57.634Z</time>
      </trkpt>
      <trkpt lat="45.07815" lon="5.95073">
        <ele>2286</ele>
        <time>2020-02-14T10:54:07.205Z</time>
      </trkpt>
      <trkpt lat="45.07814" lon="5.95079">
        <ele>2288</ele>
        <time>2020-02-14T10:54:15.000Z</time>
      </trkpt>
      <trkpt lat="45.07813" lon="5.95087">
        <ele>2289</ele>
        <time>2020-02-14T10:54:22.000Z</time>
      </trkpt>
      <trkpt lat="45.07813" lon="5.95094">
        <ele>2292</ele>
        <time>2020-02-14T10:54:29.000Z</time>
      </trkpt>
      <trkpt lat="45.07814" lon="5.95102">
        <ele>2292</ele>
        <time>2020-02-14T10:54:36.000Z</time>
      </trkpt>
      <trkpt lat="45.07817" lon="5.95108">
        <ele>2292</ele>
        <time>2020-02-14T10:54:43.000Z</time>
      </trkpt>
      <trkpt lat="45.07821" lon="5.95116">
        <ele>2292</ele>
        <time>2020-02-14T10:54:49.686Z</time>
      </trkpt>
      <trkpt lat="45.07826" lon="5.95122">
        <ele>2294</ele>
        <time>2020-02-14T10:54:57.944Z</time>
      </trkpt>
      <trkpt lat="45.0783" lon="5.95129">
        <ele>2294</ele>
        <time>2020-02-14T10:55:05.000Z</time>
      </trkpt>
      <trkpt lat="45.07834" lon="5.95135">
        <ele>2295</ele>
        <time>2020-02-14T10:55:11.077Z</time>
      </trkpt>
      <trkpt lat="45.07839" lon="5.95141">
        <ele>2294</ele>
        <time>2020-02-14T10:55:18.463Z</time>
      </trkpt>
      <trkpt lat="45.07844" lon="5.95147">
        <ele>2295</ele>
        <time>2020-02-14T10:55:24.862Z</time>
      </trkpt>
      <trkpt lat="45.0785" lon="5.95153">
        <ele>2295</ele>
        <time>2020-02-14T10:55:33.000Z</time>
      </trkpt>
      <trkpt lat="45.07856" lon="5.95159">
        <ele>2295</ele>
        <time>2020-02-14T10:55:39.614Z</time>
      </trkpt>
      <trkpt lat="45.07864" lon="5.9516">
        <ele>2294</ele>
        <time>2020-02-14T10:55:47.000Z</time>
      </trkpt>
      <trkpt lat="45.07873" lon="5.95163">
        <ele>2297</ele>
        <time>2020-02-14T10:58:01.000Z</time>
      </trkpt>
      <trkpt lat="45.07878" lon="5.95165">
        <ele>2297</ele>
        <time>2020-02-14T10:58:05.000Z</time>
      </trkpt>
      <trkpt lat="45.07883" lon="5.9517">
        <ele>2297</ele>
        <time>2020-02-14T10:58:12.000Z</time>
      </trkpt>
      <trkpt lat="45.07891" lon="5.95175">
        <ele>2297</ele>
        <time>2020-02-14T10:58:17.859Z</time>
      </trkpt>
      <trkpt lat="45.07896" lon="5.95179">
        <ele>2297</ele>
        <time>2020-02-14T10:58:25.000Z</time>
      </trkpt>
      <trkpt lat="45.07902" lon="5.95186">
        <ele>2296</ele>
        <time>2020-02-14T10:58:32.000Z</time>
      </trkpt>
      <trkpt lat="45.07906" lon="5.95191">
        <ele>2295</ele>
        <time>2020-02-14T10:58:34.506Z</time>
      </trkpt>
      <trkpt lat="45.07911" lon="5.95193">
        <ele>2295</ele>
        <time>2020-02-14T10:58:37.932Z</time>
      </trkpt>
      <trkpt lat="45.07916" lon="5.95197">
        <ele>2296</ele>
        <time>2020-02-14T10:58:41.042Z</time>
      </trkpt>
      <trkpt lat="45.07922" lon="5.95202">
        <ele>2296</ele>
        <time>2020-02-14T10:58:46.000Z</time>
      </trkpt>
      <trkpt lat="45.07928" lon="5.95207">
        <ele>2296</ele>
        <time>2020-02-14T10:58:51.381Z</time>
      </trkpt>
      <trkpt lat="45.07933" lon="5.95209">
        <ele>2296</ele>
        <time>2020-02-14T10:58:54.535Z</time>
      </trkpt>
      <trkpt lat="45.07937" lon="5.95213">
        <ele>2296</ele>
        <time>2020-02-14T10:58:58.037Z</time>
      </trkpt>
      <trkpt lat="45.07942" lon="5.95216">
        <ele>2295</ele>
        <time>2020-02-14T10:59:01.638Z</time>
      </trkpt>
      <trkpt lat="45.07949" lon="5.95221">
        <ele>2295</ele>
        <time>2020-02-14T10:59:08.193Z</time>
      </trkpt>
      <trkpt lat="45.07955" lon="5.95224">
        <ele>2295</ele>
        <time>2020-02-14T10:59:16.000Z</time>
      </trkpt>
      <trkpt lat="45.07962" lon="5.95228">
        <ele>2294</ele>
        <time>2020-02-14T10:59:21.998Z</time>
      </trkpt>
      <trkpt lat="45.07967" lon="5.95235">
        <ele>2295</ele>
        <time>2020-02-14T10:59:30.000Z</time>
      </trkpt>
      <trkpt lat="45.07977" lon="5.95241">
        <ele>2294</ele>
        <time>2020-02-14T10:59:38.000Z</time>
      </trkpt>
      <trkpt lat="45.07983" lon="5.95243">
        <ele>2293</ele>
        <time>2020-02-14T10:59:41.000Z</time>
      </trkpt>
      <trkpt lat="45.07987" lon="5.95245">
        <ele>2293</ele>
        <time>2020-02-14T10:59:43.097Z</time>
      </trkpt>
      <trkpt lat="45.07993" lon="5.95249">
        <ele>2293</ele>
        <time>2020-02-14T10:59:49.397Z</time>
      </trkpt>
      <trkpt lat="45.07999" lon="5.95256">
        <ele>2293</ele>
        <time>2020-02-14T10:59:56.122Z</time>
      </trkpt>
      <trkpt lat="45.08003" lon="5.9526">
        <ele>2293</ele>
        <time>2020-02-14T10:59:59.254Z</time>
      </trkpt>
      <trkpt lat="45.08008" lon="5.95265">
        <ele>2292</ele>
        <time>2020-02-14T11:00:02.675Z</time>
      </trkpt>
      <trkpt lat="45.08014" lon="5.95269">
        <ele>2293</ele>
        <time>2020-02-14T11:00:06.417Z</time>
      </trkpt>
      <trkpt lat="45.08018" lon="5.95273">
        <ele>2294</ele>
        <time>2020-02-14T11:00:09.441Z</time>
      </trkpt>
      <trkpt lat="45.08024" lon="5.9528">
        <ele>2294</ele>
        <time>2020-02-14T11:00:18.000Z</time>
      </trkpt>
      <trkpt lat="45.0803" lon="5.95286">
        <ele>2294</ele>
        <time>2020-02-14T11:00:23.082Z</time>
      </trkpt>
      <trkpt lat="45.08036" lon="5.95291">
        <ele>2294</ele>
        <time>2020-02-14T11:00:29.309Z</time>
      </trkpt>
      <trkpt lat="45.08041" lon="5.95297">
        <ele>2297</ele>
        <time>2020-02-14T11:00:35.487Z</time>
      </trkpt>
      <trkpt lat="45.08047" lon="5.95306">
        <ele>2296</ele>
        <time>2020-02-14T11:00:42.051Z</time>
      </trkpt>
      <trkpt lat="45.08051" lon="5.95313">
        <ele>2297</ele>
        <time>2020-02-14T11:00:48.291Z</time>
      </trkpt>
      <trkpt lat="45.08058" lon="5.95318">
        <ele>2297</ele>
        <time>2020-02-14T11:00:57.000Z</time>
      </trkpt>
      <trkpt lat="45.08064" lon="5.95324">
        <ele>2297</ele>
        <time>2020-02-14T11:01:04.000Z</time>
      </trkpt>
      <trkpt lat="45.08071" lon="5.9533">
        <ele>2297</ele>
        <time>2020-02-14T11:01:09.471Z</time>
      </trkpt>
      <trkpt lat="45.08077" lon="5.95337">
        <ele>2299</ele>
        <time>2020-02-14T11:01:17.000Z</time>
      </trkpt>
      <trkpt lat="45.08081" lon="5.95342">
        <ele>2298</ele>
        <time>2020-02-14T11:01:23.000Z</time>
      </trkpt>
      <trkpt lat="45.08085" lon="5.95348">
        <ele>2299</ele>
        <time>2020-02-14T11:01:28.493Z</time>
      </trkpt>
      <trkpt lat="45.08089" lon="5.95355">
        <ele>2300</ele>
        <time>2020-02-14T11:01:36.000Z</time>
      </trkpt>
      <trkpt lat="45.08094" lon="5.95362">
        <ele>2301</ele>
        <time>2020-02-14T11:01:42.000Z</time>
      </trkpt>
      <trkpt lat="45.081" lon="5.95365">
        <ele>2301</ele>
        <time>2020-02-14T11:01:49.000Z</time>
      </trkpt>
      <trkpt lat="45.08106" lon="5.95365">
        <ele>2303</ele>
        <time>2020-02-14T11:01:55.155Z</time>
      </trkpt>
      <trkpt lat="45.08111" lon="5.95367">
        <ele>2304</ele>
        <time>2020-02-14T11:02:03.000Z</time>
      </trkpt>
      <trkpt lat="45.08117" lon="5.95372">
        <ele>2304</ele>
        <time>2020-02-14T11:02:08.338Z</time>
      </trkpt>
      <trkpt lat="45.08123" lon="5.95375">
        <ele>2304</ele>
        <time>2020-02-14T11:02:16.000Z</time>
      </trkpt>
      <trkpt lat="45.08128" lon="5.95381">
        <ele>2307</ele>
        <time>2020-02-14T11:02:21.460Z</time>
      </trkpt>
      <trkpt lat="45.08133" lon="5.95389">
        <ele>2306</ele>
        <time>2020-02-14T11:02:29.000Z</time>
      </trkpt>
      <trkpt lat="45.08137" lon="5.95396">
        <ele>2305</ele>
        <time>2020-02-14T11:02:35.000Z</time>
      </trkpt>
      <trkpt lat="45.08144" lon="5.954">
        <ele>2306</ele>
        <time>2020-02-14T11:02:40.501Z</time>
      </trkpt>
      <trkpt lat="45.08151" lon="5.95404">
        <ele>2307</ele>
        <time>2020-02-14T11:02:47.297Z</time>
      </trkpt>
      <trkpt lat="45.08156" lon="5.95409">
        <ele>2308</ele>
        <time>2020-02-14T11:02:53.534Z</time>
      </trkpt>
      <trkpt lat="45.08162" lon="5.95413">
        <ele>2308</ele>
        <time>2020-02-14T11:02:59.882Z</time>
      </trkpt>
      <trkpt lat="45.08168" lon="5.95418">
        <ele>2311</ele>
        <time>2020-02-14T11:03:08.000Z</time>
      </trkpt>
      <trkpt lat="45.08174" lon="5.95424">
        <ele>2311</ele>
        <time>2020-02-14T11:03:13.192Z</time>
      </trkpt>
      <trkpt lat="45.08181" lon="5.95428">
        <ele>2312</ele>
        <time>2020-02-14T11:03:22.000Z</time>
      </trkpt>
      <trkpt lat="45.08185" lon="5.95437">
        <ele>2313</ele>
        <time>2020-02-14T11:04:41.000Z</time>
      </trkpt>
      <trkpt lat="45.08188" lon="5.95444">
        <ele>2315</ele>
        <time>2020-02-14T11:04:54.000Z</time>
      </trkpt>
      <trkpt lat="45.08191" lon="5.95452">
        <ele>2318</ele>
        <time>2020-02-14T11:04:59.434Z</time>
      </trkpt>
      <trkpt lat="45.08193" lon="5.9546">
        <ele>2320</ele>
        <time>2020-02-14T11:05:07.000Z</time>
      </trkpt>
      <trkpt lat="45.08195" lon="5.95466">
        <ele>2321</ele>
        <time>2020-02-14T11:05:14.000Z</time>
      </trkpt>
      <trkpt lat="45.082" lon="5.95473">
        <ele>2321</ele>
        <time>2020-02-14T11:05:31.000Z</time>
      </trkpt>
      <trkpt lat="45.08204" lon="5.95478">
        <ele>2322</ele>
        <time>2020-02-14T11:05:36.791Z</time>
      </trkpt>
      <trkpt lat="45.08208" lon="5.95485">
        <ele>2324</ele>
        <time>2020-02-14T11:05:43.914Z</time>
      </trkpt>
      <trkpt lat="45.08211" lon="5.95492">
        <ele>2326</ele>
        <time>2020-02-14T11:05:50.929Z</time>
      </trkpt>
      <trkpt lat="45.08215" lon="5.95498">
        <ele>2327</ele>
        <time>2020-02-14T11:06:00.000Z</time>
      </trkpt>
      <trkpt lat="45.08218" lon="5.95504">
        <ele>2327</ele>
        <time>2020-02-14T11:06:07.000Z</time>
      </trkpt>
      <trkpt lat="45.08221" lon="5.95511">
        <ele>2329</ele>
        <time>2020-02-14T11:06:20.000Z</time>
      </trkpt>
      <trkpt lat="45.08227" lon="5.9552">
        <ele>2330</ele>
        <time>2020-02-14T11:06:26.774Z</time>
      </trkpt>
      <trkpt lat="45.08232" lon="5.95526">
        <ele>2330</ele>
        <time>2020-02-14T11:06:35.000Z</time>
      </trkpt>
      <trkpt lat="45.08236" lon="5.95532">
        <ele>2330</ele>
        <time>2020-02-14T11:06:40.937Z</time>
      </trkpt>
      <trkpt lat="45.08239" lon="5.95539">
        <ele>2331</ele>
        <time>2020-02-14T11:06:48.564Z</time>
      </trkpt>
      <trkpt lat="45.08243" lon="5.95547">
        <ele>2334</ele>
        <time>2020-02-14T11:06:59.005Z</time>
      </trkpt>
      <trkpt lat="45.08245" lon="5.95553">
        <ele>2333</ele>
        <time>2020-02-14T11:07:06.020Z</time>
      </trkpt>
      <trkpt lat="45.08248" lon="5.95558">
        <ele>2332</ele>
        <time>2020-02-14T11:07:12.845Z</time>
      </trkpt>
      <trkpt lat="45.08253" lon="5.95564">
        <ele>2331</ele>
        <time>2020-02-14T11:07:20.000Z</time>
      </trkpt>
      <trkpt lat="45.08258" lon="5.95572">
        <ele>2332</ele>
        <time>2020-02-14T11:07:26.691Z</time>
      </trkpt>
      <trkpt lat="45.08262" lon="5.95579">
        <ele>2334</ele>
        <time>2020-02-14T11:07:34.000Z</time>
      </trkpt>
      <trkpt lat="45.08266" lon="5.95584">
        <ele>2335</ele>
        <time>2020-02-14T11:07:39.553Z</time>
      </trkpt>
      <trkpt lat="45.08271" lon="5.95589">
        <ele>2335</ele>
        <time>2020-02-14T11:07:45.992Z</time>
      </trkpt>
      <trkpt lat="45.08276" lon="5.95593">
        <ele>2335</ele>
        <time>2020-02-14T11:07:53.000Z</time>
      </trkpt>
      <trkpt lat="45.0828" lon="5.956">
        <ele>2337</ele>
        <time>2020-02-14T11:08:00.000Z</time>
      </trkpt>
      <trkpt lat="45.08281" lon="5.95608">
        <ele>2339</ele>
        <time>2020-02-14T11:08:07.000Z</time>
      </trkpt>
      <trkpt lat="45.08282" lon="5.95614">
        <ele>2340</ele>
        <time>2020-02-14T11:08:14.000Z</time>
      </trkpt>
      <trkpt lat="45.08283" lon="5.95623">
        <ele>2342</ele>
        <time>2020-02-14T11:08:36.000Z</time>
      </trkpt>
      <trkpt lat="45.08287" lon="5.95632">
        <ele>2344</ele>
        <time>2020-02-14T11:08:45.016Z</time>
      </trkpt>
      <trkpt lat="45.0829" lon="5.95638">
        <ele>2344</ele>
        <time>2020-02-14T11:08:56.000Z</time>
      </trkpt>
      <trkpt lat="45.08294" lon="5.95647">
        <ele>2344</ele>
        <time>2020-02-14T11:09:11.712Z</time>
      </trkpt>
      <trkpt lat="45.08299" lon="5.95653">
        <ele>2346</ele>
        <time>2020-02-14T11:09:18.568Z</time>
      </trkpt>
      <trkpt lat="45.08303" lon="5.9566">
        <ele>2347</ele>
        <time>2020-02-14T11:09:27.000Z</time>
      </trkpt>
      <trkpt lat="45.08306" lon="5.95668">
        <ele>2348</ele>
        <time>2020-02-14T11:09:33.818Z</time>
      </trkpt>
      <trkpt lat="45.08308" lon="5.95675">
        <ele>2349</ele>
        <time>2020-02-14T11:09:41.000Z</time>
      </trkpt>
      <trkpt lat="45.08309" lon="5.95681">
        <ele>2350</ele>
        <time>2020-02-14T11:09:48.000Z</time>
      </trkpt>
      <trkpt lat="45.08308" lon="5.95689">
        <ele>2351</ele>
        <time>2020-02-14T11:09:59.000Z</time>
      </trkpt>
      <trkpt lat="45.08307" lon="5.95698">
        <ele>2352</ele>
        <time>2020-02-14T11:10:08.867Z</time>
      </trkpt>
      <trkpt lat="45.08307" lon="5.95708">
        <ele>2352</ele>
        <time>2020-02-14T11:10:18.387Z</time>
      </trkpt>
      <trkpt lat="45.08306" lon="5.95717">
        <ele>2352</ele>
        <time>2020-02-14T11:10:39.510Z</time>
      </trkpt>
      <trkpt lat="45.08306" lon="5.95724">
        <ele>2354</ele>
        <time>2020-02-14T11:10:47.000Z</time>
      </trkpt>
      <trkpt lat="45.08307" lon="5.95731">
        <ele>2356</ele>
        <time>2020-02-14T11:10:52.471Z</time>
      </trkpt>
      <trkpt lat="45.08306" lon="5.95739">
        <ele>2357</ele>
        <time>2020-02-14T11:10:58.968Z</time>
      </trkpt>
      <trkpt lat="45.08306" lon="5.95748">
        <ele>2359</ele>
        <time>2020-02-14T11:11:05.415Z</time>
      </trkpt>
      <trkpt lat="45.08306" lon="5.95756">
        <ele>2360</ele>
        <time>2020-02-14T11:11:12.029Z</time>
      </trkpt>
      <trkpt lat="45.08304" lon="5.95764">
        <ele>2363</ele>
        <time>2020-02-14T11:11:20.000Z</time>
      </trkpt>
      <trkpt lat="45.08302" lon="5.9577">
        <ele>2364</ele>
        <time>2020-02-14T11:11:27.000Z</time>
      </trkpt>
      <trkpt lat="45.08301" lon="5.95778">
        <ele>2364</ele>
        <time>2020-02-14T11:11:35.987Z</time>
      </trkpt>
      <trkpt lat="45.083" lon="5.95788">
        <ele>2366</ele>
        <time>2020-02-14T11:11:46.591Z</time>
      </trkpt>
      <trkpt lat="45.08301" lon="5.95797">
        <ele>2368</ele>
        <time>2020-02-14T11:11:56.670Z</time>
      </trkpt>
      <trkpt lat="45.08301" lon="5.95803">
        <ele>2369</ele>
        <time>2020-02-14T11:12:03.574Z</time>
      </trkpt>
      <trkpt lat="45.08302" lon="5.95812">
        <ele>2373</ele>
        <time>2020-02-14T11:12:13.612Z</time>
      </trkpt>
      <trkpt lat="45.08304" lon="5.95819">
        <ele>2374</ele>
        <time>2020-02-14T11:12:22.776Z</time>
      </trkpt>
      <trkpt lat="45.08307" lon="5.95828">
        <ele>2377</ele>
        <time>2020-02-14T11:12:37.000Z</time>
      </trkpt>
      <trkpt lat="45.08309" lon="5.95835">
        <ele>2377</ele>
        <time>2020-02-14T11:12:43.809Z</time>
      </trkpt>
      <trkpt lat="45.08312" lon="5.95842">
        <ele>2380</ele>
        <time>2020-02-14T11:12:53.047Z</time>
      </trkpt>
      <trkpt lat="45.08314" lon="5.9585">
        <ele>2382</ele>
        <time>2020-02-14T11:13:03.893Z</time>
      </trkpt>
      <trkpt lat="45.08314" lon="5.95857">
        <ele>2385</ele>
        <time>2020-02-14T11:13:16.000Z</time>
      </trkpt>
      <trkpt lat="45.08315" lon="5.95865">
        <ele>2385</ele>
        <time>2020-02-14T11:13:24.000Z</time>
      </trkpt>
      <trkpt lat="45.08315" lon="5.95874">
        <ele>2389</ele>
        <time>2020-02-14T11:13:32.814Z</time>
      </trkpt>
      <trkpt lat="45.08314" lon="5.95881">
        <ele>2391</ele>
        <time>2020-02-14T11:13:40.000Z</time>
      </trkpt>
      <trkpt lat="45.08315" lon="5.95888">
        <ele>2394</ele>
        <time>2020-02-14T11:13:47.000Z</time>
      </trkpt>
      <trkpt lat="45.08314" lon="5.95895">
        <ele>2397</ele>
        <time>2020-02-14T11:13:56.000Z</time>
      </trkpt>
      <trkpt lat="45.08317" lon="5.95903">
        <ele>2398</ele>
        <time>2020-02-14T11:14:07.000Z</time>
      </trkpt>
      <trkpt lat="45.08319" lon="5.9591">
        <ele>2397</ele>
        <time>2020-02-14T11:14:14.000Z</time>
      </trkpt>
      <trkpt lat="45.0832" lon="5.95917">
        <ele>2397</ele>
        <time>2020-02-14T11:14:21.000Z</time>
      </trkpt>
      <trkpt lat="45.08321" lon="5.95926">
        <ele>2399</ele>
        <time>2020-02-14T11:14:30.169Z</time>
      </trkpt>
      <trkpt lat="45.08322" lon="5.95933">
        <ele>2399</ele>
        <time>2020-02-14T11:14:36.506Z</time>
      </trkpt>
      <trkpt lat="45.08324" lon="5.95941">
        <ele>2401</ele>
        <time>2020-02-14T11:14:47.000Z</time>
      </trkpt>
      <trkpt lat="45.08326" lon="5.95949">
        <ele>2405</ele>
        <time>2020-02-14T11:14:54.000Z</time>
      </trkpt>
      <trkpt lat="45.08327" lon="5.95956">
        <ele>2406</ele>
        <time>2020-02-14T11:15:01.000Z</time>
      </trkpt>
      <trkpt lat="45.08329" lon="5.95963">
        <ele>2407</ele>
        <time>2020-02-14T11:15:07.109Z</time>
      </trkpt>
      <trkpt lat="45.08333" lon="5.9597">
        <ele>2408</ele>
        <time>2020-02-14T11:15:15.000Z</time>
      </trkpt>
      <trkpt lat="45.08337" lon="5.95975">
        <ele>2410</ele>
        <time>2020-02-14T11:15:22.000Z</time>
      </trkpt>
      <trkpt lat="45.08341" lon="5.95979">
        <ele>2410</ele>
        <time>2020-02-14T11:15:27.553Z</time>
      </trkpt>
      <trkpt lat="45.08345" lon="5.95986">
        <ele>2411</ele>
        <time>2020-02-14T11:15:36.000Z</time>
      </trkpt>
      <trkpt lat="45.08348" lon="5.95991">
        <ele>2410</ele>
        <time>2020-02-14T11:15:40.946Z</time>
      </trkpt>
      <trkpt lat="45.0835" lon="5.95998">
        <ele>2412</ele>
        <time>2020-02-14T11:16:51.000Z</time>
      </trkpt>
      <trkpt lat="45.08356" lon="5.96005">
        <ele>2413</ele>
        <time>2020-02-14T11:16:58.000Z</time>
      </trkpt>
      <trkpt lat="45.08362" lon="5.96011">
        <ele>2415</ele>
        <time>2020-02-14T11:17:07.249Z</time>
      </trkpt>
      <trkpt lat="45.08366" lon="5.96016">
        <ele>2417</ele>
        <time>2020-02-14T11:17:16.000Z</time>
      </trkpt>
      <trkpt lat="45.0837" lon="5.96019">
        <ele>2420</ele>
        <time>2020-02-14T11:17:23.000Z</time>
      </trkpt>
      <trkpt lat="45.08376" lon="5.96022">
        <ele>2420</ele>
        <time>2020-02-14T11:17:31.467Z</time>
      </trkpt>
      <trkpt lat="45.08383" lon="5.96023">
        <ele>2422</ele>
        <time>2020-02-14T11:17:41.000Z</time>
      </trkpt>
      <trkpt lat="45.08388" lon="5.96022">
        <ele>2423</ele>
        <time>2020-02-14T11:17:45.662Z</time>
      </trkpt>
      <trkpt lat="45.08394" lon="5.96019">
        <ele>2424</ele>
        <time>2020-02-14T11:17:56.201Z</time>
      </trkpt>
      <trkpt lat="45.08399" lon="5.96016">
        <ele>2424</ele>
        <time>2020-02-14T11:18:05.000Z</time>
      </trkpt>
      <trkpt lat="45.08405" lon="5.96012">
        <ele>2426</ele>
        <time>2020-02-14T11:18:12.677Z</time>
      </trkpt>
      <trkpt lat="45.08409" lon="5.96009">
        <ele>2428</ele>
        <time>2020-02-14T11:18:19.291Z</time>
      </trkpt>
      <trkpt lat="45.08414" lon="5.96003">
        <ele>2432</ele>
        <time>2020-02-14T11:18:32.000Z</time>
      </trkpt>
      <trkpt lat="45.08419" lon="5.95996">
        <ele>2434</ele>
        <time>2020-02-14T11:18:43.000Z</time>
      </trkpt>
      <trkpt lat="45.08424" lon="5.95993">
        <ele>2435</ele>
        <time>2020-02-14T11:18:47.058Z</time>
      </trkpt>
      <trkpt lat="45.08429" lon="5.95987">
        <ele>2435</ele>
        <time>2020-02-14T11:18:54.420Z</time>
      </trkpt>
      <trkpt lat="45.08433" lon="5.95983">
        <ele>2437</ele>
        <time>2020-02-14T11:19:03.000Z</time>
      </trkpt>
      <trkpt lat="45.08438" lon="5.95979">
        <ele>2439</ele>
        <time>2020-02-14T11:19:10.664Z</time>
      </trkpt>
      <trkpt lat="45.08443" lon="5.95975">
        <ele>2441</ele>
        <time>2020-02-14T11:19:22.000Z</time>
      </trkpt>
      <trkpt lat="45.08448" lon="5.95971">
        <ele>2445</ele>
        <time>2020-02-14T11:19:29.000Z</time>
      </trkpt>
      <trkpt lat="45.08452" lon="5.95968">
        <ele>2446</ele>
        <time>2020-02-14T11:19:33.308Z</time>
      </trkpt>
      <trkpt lat="45.08457" lon="5.95966">
        <ele>2446</ele>
        <time>2020-02-14T11:19:42.000Z</time>
      </trkpt>
      <trkpt lat="45.08462" lon="5.95961">
        <ele>2447</ele>
        <time>2020-02-14T11:19:50.710Z</time>
      </trkpt>
      <trkpt lat="45.08467" lon="5.95957">
        <ele>2449</ele>
        <time>2020-02-14T11:19:57.655Z</time>
      </trkpt>
      <trkpt lat="45.08472" lon="5.95955">
        <ele>2453</ele>
        <time>2020-02-14T11:20:06.000Z</time>
      </trkpt>
      <trkpt lat="45.08475" lon="5.95963">
        <ele>2454</ele>
        <time>2020-02-14T11:20:39.000Z</time>
      </trkpt>
      <trkpt lat="45.08475" lon="5.95971">
        <ele>2455</ele>
        <time>2020-02-14T11:20:44.731Z</time>
      </trkpt>
      <trkpt lat="45.08476" lon="5.95977">
        <ele>2457</ele>
        <time>2020-02-14T11:20:56.000Z</time>
      </trkpt>
      <trkpt lat="45.08482" lon="5.95979">
        <ele>2456</ele>
        <time>2020-02-14T11:21:04.151Z</time>
      </trkpt>
      <trkpt lat="45.08487" lon="5.95976">
        <ele>2457</ele>
        <time>2020-02-14T11:21:10.797Z</time>
      </trkpt>
      <trkpt lat="45.0849" lon="5.95971">
        <ele>2459</ele>
        <time>2020-02-14T11:21:19.000Z</time>
      </trkpt>
      <trkpt lat="45.08496" lon="5.95965">
        <ele>2460</ele>
        <time>2020-02-14T11:21:28.000Z</time>
      </trkpt>
      <trkpt lat="45.085" lon="5.95963">
        <ele>2462</ele>
        <time>2020-02-14T11:21:43.000Z</time>
      </trkpt>
      <trkpt lat="45.08504" lon="5.95961">
        <ele>2462</ele>
        <time>2020-02-14T11:22:26.000Z</time>
      </trkpt>
      <trkpt lat="45.0851" lon="5.95956">
        <ele>2463</ele>
        <time>2020-02-14T11:22:45.040Z</time>
      </trkpt>
      <trkpt lat="45.08517" lon="5.95952">
        <ele>2466</ele>
        <time>2020-02-14T11:22:54.000Z</time>
      </trkpt>
      <trkpt lat="45.08523" lon="5.95949">
        <ele>2466</ele>
        <time>2020-02-14T11:22:58.022Z</time>
      </trkpt>
      <trkpt lat="45.08529" lon="5.95945">
        <ele>2467</ele>
        <time>2020-02-14T11:23:07.000Z</time>
      </trkpt>
      <trkpt lat="45.08534" lon="5.95942">
        <ele>2468</ele>
        <time>2020-02-14T11:23:14.000Z</time>
      </trkpt>
      <trkpt lat="45.08538" lon="5.95939">
        <ele>2468</ele>
        <time>2020-02-14T11:23:18.517Z</time>
      </trkpt>
      <trkpt lat="45.08542" lon="5.95934">
        <ele>2471</ele>
        <time>2020-02-14T11:23:27.000Z</time>
      </trkpt>
      <trkpt lat="45.08546" lon="5.95931">
        <ele>2472</ele>
        <time>2020-02-14T11:23:44.000Z</time>
      </trkpt>
      <trkpt lat="45.08546" lon="5.9594">
        <ele>2476</ele>
        <time>2020-02-14T11:23:59.000Z</time>
      </trkpt>
      <trkpt lat="45.08546" lon="5.95947">
        <ele>2478</ele>
        <time>2020-02-14T11:24:03.514Z</time>
      </trkpt>
      <trkpt lat="45.08545" lon="5.95954">
        <ele>2479</ele>
        <time>2020-02-14T11:24:10.617Z</time>
      </trkpt>
      <trkpt lat="45.08545" lon="5.95961">
        <ele>2481</ele>
        <time>2020-02-14T11:24:19.000Z</time>
      </trkpt>
      <trkpt lat="45.08546" lon="5.95969">
        <ele>2484</ele>
        <time>2020-02-14T11:24:26.000Z</time>
      </trkpt>
      <trkpt lat="45.08547" lon="5.95975">
        <ele>2485</ele>
        <time>2020-02-14T11:24:33.000Z</time>
      </trkpt>
      <trkpt lat="45.08549" lon="5.95983">
        <ele>2487</ele>
        <time>2020-02-14T11:24:40.722Z</time>
      </trkpt>
      <trkpt lat="45.08551" lon="5.9599">
        <ele>2486</ele>
        <time>2020-02-14T11:24:47.678Z</time>
      </trkpt>
      <trkpt lat="45.08553" lon="5.95999">
        <ele>2488</ele>
        <time>2020-02-14T11:25:00.000Z</time>
      </trkpt>
      <trkpt lat="45.08555" lon="5.96007">
        <ele>2490</ele>
        <time>2020-02-14T11:25:07.000Z</time>
      </trkpt>
      <trkpt lat="45.08556" lon="5.96013">
        <ele>2493</ele>
        <time>2020-02-14T11:25:14.000Z</time>
      </trkpt>
      <trkpt lat="45.08558" lon="5.96021">
        <ele>2496</ele>
        <time>2020-02-14T11:25:24.000Z</time>
      </trkpt>
      <trkpt lat="45.0856" lon="5.96028">
        <ele>2498</ele>
        <time>2020-02-14T11:25:31.995Z</time>
      </trkpt>
      <trkpt lat="45.08566" lon="5.96027">
        <ele>2499</ele>
        <time>2020-02-14T11:25:46.412Z</time>
      </trkpt>
      <trkpt lat="45.0857" lon="5.96022">
        <ele>2499</ele>
        <time>2020-02-14T11:25:53.039Z</time>
      </trkpt>
      <trkpt lat="45.08573" lon="5.96017">
        <ele>2500</ele>
        <time>2020-02-14T11:25:59.772Z</time>
      </trkpt>
      <trkpt lat="45.08578" lon="5.9601">
        <ele>2501</ele>
        <time>2020-02-14T11:26:09.254Z</time>
      </trkpt>
      <trkpt lat="45.08582" lon="5.96005">
        <ele>2502</ele>
        <time>2020-02-14T11:26:18.000Z</time>
      </trkpt>
      <trkpt lat="45.08585" lon="5.96">
        <ele>2503</ele>
        <time>2020-02-14T11:26:25.000Z</time>
      </trkpt>
      <trkpt lat="45.08588" lon="5.95994">
        <ele>2503</ele>
        <time>2020-02-14T11:26:29.895Z</time>
      </trkpt>
      <trkpt lat="45.08592" lon="5.95991">
        <ele>2505</ele>
        <time>2020-02-14T11:26:39.000Z</time>
      </trkpt>
      <trkpt lat="45.08597" lon="5.95986">
        <ele>2504</ele>
        <time>2020-02-14T11:26:44.621Z</time>
      </trkpt>
      <trkpt lat="45.08601" lon="5.95982">
        <ele>2506</ele>
        <time>2020-02-14T11:26:53.000Z</time>
      </trkpt>
      <trkpt lat="45.08605" lon="5.9598">
        <ele>2505</ele>
        <time>2020-02-14T11:27:00.000Z</time>
      </trkpt>
      <trkpt lat="45.08611" lon="5.95983">
        <ele>2506</ele>
        <time>2020-02-14T11:27:20.000Z</time>
      </trkpt>
      <trkpt lat="45.08619" lon="5.95981">
        <ele>2506</ele>
        <time>2020-02-14T11:28:35.000Z</time>
      </trkpt>
      <trkpt lat="45.08624" lon="5.95978">
        <ele>2508</ele>
        <time>2020-02-14T11:28:37.486Z</time>
      </trkpt>
      <trkpt lat="45.08633" lon="5.95975">
        <ele>2508</ele>
        <time>2020-02-14T11:28:44.257Z</time>
      </trkpt>
      <trkpt lat="45.0864" lon="5.95977">
        <ele>2507</ele>
        <time>2020-02-14T11:28:47.461Z</time>
      </trkpt>
      <trkpt lat="45.08644" lon="5.95976">
        <ele>2507</ele>
        <time>2020-02-14T11:28:52.000Z</time>
      </trkpt>
      <trkpt lat="45.08651" lon="5.95977">
        <ele>2509</ele>
        <time>2020-02-14T11:28:59.000Z</time>
      </trkpt>
      <trkpt lat="45.08658" lon="5.95976">
        <ele>2510</ele>
        <time>2020-02-14T11:29:06.000Z</time>
      </trkpt>
      <trkpt lat="45.08663" lon="5.95976">
        <ele>2508</ele>
        <time>2020-02-14T11:29:13.000Z</time>
      </trkpt>
      <trkpt lat="45.08669" lon="5.95974">
        <ele>2509</ele>
        <time>2020-02-14T11:29:17.967Z</time>
      </trkpt>
      <trkpt lat="45.08677" lon="5.95971">
        <ele>2509</ele>
        <time>2020-02-14T11:29:25.090Z</time>
      </trkpt>
      <trkpt lat="45.08688" lon="5.95969">
        <ele>2509</ele>
        <time>2020-02-14T11:29:31.646Z</time>
      </trkpt>
      <trkpt lat="45.08693" lon="5.95968">
        <ele>2509</ele>
        <time>2020-02-14T11:29:37.000Z</time>
      </trkpt>
      <trkpt lat="45.087" lon="5.95968">
        <ele>2510</ele>
        <time>2020-02-14T11:29:43.000Z</time>
      </trkpt>
      <trkpt lat="45.08706" lon="5.95967">
        <ele>2509</ele>
        <time>2020-02-14T11:29:47.917Z</time>
      </trkpt>
      <trkpt lat="45.08711" lon="5.95966">
        <ele>2511</ele>
        <time>2020-02-14T11:29:56.000Z</time>
      </trkpt>
      <trkpt lat="45.08717" lon="5.95964">
        <ele>2514</ele>
        <time>2020-02-14T11:30:03.000Z</time>
      </trkpt>
      <trkpt lat="45.08722" lon="5.95962">
        <ele>2514</ele>
        <time>2020-02-14T11:30:08.257Z</time>
      </trkpt>
      <trkpt lat="45.08727" lon="5.95961">
        <ele>2516</ele>
        <time>2020-02-14T11:30:14.484Z</time>
      </trkpt>
      <trkpt lat="45.08735" lon="5.95958">
        <ele>2516</ele>
        <time>2020-02-14T11:30:23.000Z</time>
      </trkpt>
      <trkpt lat="45.08744" lon="5.95957">
        <ele>2516</ele>
        <time>2020-02-14T11:30:29.176Z</time>
      </trkpt>
      <trkpt lat="45.0875" lon="5.95957">
        <ele>2515</ele>
        <time>2020-02-14T11:30:35.753Z</time>
      </trkpt>
      <trkpt lat="45.08756" lon="5.95955">
        <ele>2518</ele>
        <time>2020-02-14T11:30:42.677Z</time>
      </trkpt>
      <trkpt lat="45.08761" lon="5.95954">
        <ele>2520</ele>
        <time>2020-02-14T11:30:49.939Z</time>
      </trkpt>
      <trkpt lat="45.08767" lon="5.95952">
        <ele>2521</ele>
        <time>2020-02-14T11:31:01.000Z</time>
      </trkpt>
      <trkpt lat="45.08772" lon="5.9595">
        <ele>2521</ele>
        <time>2020-02-14T11:31:06.219Z</time>
      </trkpt>
      <trkpt lat="45.08779" lon="5.9595">
        <ele>2523</ele>
        <time>2020-02-14T11:31:12.596Z</time>
      </trkpt>
      <trkpt lat="45.08783" lon="5.9595">
        <ele>2524</ele>
        <time>2020-02-14T11:31:21.000Z</time>
      </trkpt>
      <trkpt lat="45.08789" lon="5.95953">
        <ele>2525</ele>
        <time>2020-02-14T11:31:26.470Z</time>
      </trkpt>
      <trkpt lat="45.08795" lon="5.95953">
        <ele>2529</ele>
        <time>2020-02-14T11:31:36.986Z</time>
      </trkpt>
      <trkpt lat="45.088" lon="5.95953">
        <ele>2530</ele>
        <time>2020-02-14T11:31:44.013Z</time>
      </trkpt>
      <trkpt lat="45.08807" lon="5.95953">
        <ele>2530</ele>
        <time>2020-02-14T11:31:50.674Z</time>
      </trkpt>
      <trkpt lat="45.08812" lon="5.95954">
        <ele>2534</ele>
        <time>2020-02-14T11:32:02.000Z</time>
      </trkpt>
      <trkpt lat="45.08817" lon="5.95954">
        <ele>2536</ele>
        <time>2020-02-14T11:32:12.000Z</time>
      </trkpt>
      <trkpt lat="45.08822" lon="5.95958">
        <ele>2539</ele>
        <time>2020-02-14T11:32:47.000Z</time>
      </trkpt>
      <trkpt lat="45.08828" lon="5.9596">
        <ele>2540</ele>
        <time>2020-02-14T11:32:56.078Z</time>
      </trkpt>
      <trkpt lat="45.08833" lon="5.95957">
        <ele>2542</ele>
        <time>2020-02-14T11:33:09.394Z</time>
      </trkpt>
      <trkpt lat="45.08838" lon="5.9596">
        <ele>2545</ele>
        <time>2020-02-14T11:33:18.000Z</time>
      </trkpt>
      <trkpt lat="45.08842" lon="5.95962">
        <ele>2547</ele>
        <time>2020-02-14T11:33:23.152Z</time>
      </trkpt>
      <trkpt lat="45.08847" lon="5.95964">
        <ele>2546</ele>
        <time>2020-02-14T11:33:30.177Z</time>
      </trkpt>
      <trkpt lat="45.08852" lon="5.95968">
        <ele>2547</ele>
        <time>2020-02-14T11:33:42.000Z</time>
      </trkpt>
      <trkpt lat="45.08857" lon="5.95967">
        <ele>2547</ele>
        <time>2020-02-14T11:33:47.711Z</time>
      </trkpt>
      <trkpt lat="45.08864" lon="5.9597">
        <ele>2549</ele>
        <time>2020-02-14T11:33:57.000Z</time>
      </trkpt>
      <trkpt lat="45.08869" lon="5.95971">
        <ele>2550</ele>
        <time>2020-02-14T11:34:04.000Z</time>
      </trkpt>
      <trkpt lat="45.08875" lon="5.95972">
        <ele>2553</ele>
        <time>2020-02-14T11:34:14.000Z</time>
      </trkpt>
      <trkpt lat="45.08881" lon="5.95975">
        <ele>2554</ele>
        <time>2020-02-14T11:34:22.151Z</time>
      </trkpt>
      <trkpt lat="45.08887" lon="5.95976">
        <ele>2555</ele>
        <time>2020-02-14T11:34:29.074Z</time>
      </trkpt>
      <trkpt lat="45.08891" lon="5.95977">
        <ele>2556</ele>
        <time>2020-02-14T11:34:36.093Z</time>
      </trkpt>
      <trkpt lat="45.08896" lon="5.95977">
        <ele>2558</ele>
        <time>2020-02-14T11:34:45.000Z</time>
      </trkpt>
      <trkpt lat="45.08901" lon="5.95978">
        <ele>2558</ele>
        <time>2020-02-14T11:34:59.000Z</time>
      </trkpt>
      <trkpt lat="45.08903" lon="5.95972">
        <ele>2560</ele>
        <time>2020-02-14T11:35:13.851Z</time>
      </trkpt>
      <trkpt lat="45.08908" lon="5.95968">
        <ele>2561</ele>
        <time>2020-02-14T11:35:41.984Z</time>
      </trkpt>
      <trkpt lat="45.08912" lon="5.95968">
        <ele>2562</ele>
        <time>2020-02-14T11:35:53.000Z</time>
      </trkpt>
      <trkpt lat="45.08918" lon="5.9597">
        <ele>2565</ele>
        <time>2020-02-14T11:36:07.000Z</time>
      </trkpt>
      <trkpt lat="45.08923" lon="5.95971">
        <ele>2565</ele>
        <time>2020-02-14T11:36:17.000Z</time>
      </trkpt>
      <trkpt lat="45.08928" lon="5.95968">
        <ele>2565</ele>
        <time>2020-02-14T11:36:26.048Z</time>
      </trkpt>
      <trkpt lat="45.08932" lon="5.95965">
        <ele>2567</ele>
        <time>2020-02-14T11:36:37.488Z</time>
      </trkpt>
      <trkpt lat="45.08932" lon="5.95959">
        <ele>2571</ele>
        <time>2020-02-14T11:37:10.000Z</time>
      </trkpt>
      <trkpt lat="45.08932" lon="5.95952">
        <ele>2572</ele>
        <time>2020-02-14T11:37:18.119Z</time>
      </trkpt>
      <trkpt lat="45.08932" lon="5.95944">
        <ele>2574</ele>
        <time>2020-02-14T11:37:39.399Z</time>
      </trkpt>
      <trkpt lat="45.08931" lon="5.95937">
        <ele>2576</ele>
        <time>2020-02-14T11:37:56.975Z</time>
      </trkpt>
      <trkpt lat="45.08934" lon="5.9593">
        <ele>2579</ele>
        <time>2020-02-14T11:38:17.000Z</time>
      </trkpt>
      <trkpt lat="45.08936" lon="5.95922">
        <ele>2582</ele>
        <time>2020-02-14T11:38:27.000Z</time>
      </trkpt>
      <trkpt lat="45.08939" lon="5.95915">
        <ele>2583</ele>
        <time>2020-02-14T11:38:37.000Z</time>
      </trkpt>
      <trkpt lat="45.08939" lon="5.95908">
        <ele>2585</ele>
        <time>2020-02-14T11:38:50.618Z</time>
      </trkpt>
      <trkpt lat="45.08941" lon="5.959">
        <ele>2584</ele>
        <time>2020-02-14T11:39:00.996Z</time>
      </trkpt>
      <trkpt lat="45.08943" lon="5.95891">
        <ele>2583</ele>
        <time>2020-02-14T11:39:12.000Z</time>
      </trkpt>
      <trkpt lat="45.08941" lon="5.95885">
        <ele>2587</ele>
        <time>2020-02-14T11:39:25.179Z</time>
      </trkpt>
      <trkpt lat="45.08939" lon="5.95878">
        <ele>2591</ele>
        <time>2020-02-14T11:39:39.000Z</time>
      </trkpt>
      <trkpt lat="45.08939" lon="5.95872">
        <ele>2596</ele>
        <time>2020-02-14T11:39:58.620Z</time>
      </trkpt>
      <trkpt lat="45.08945" lon="5.95871">
        <ele>2597</ele>
        <time>2020-02-14T11:40:09.038Z</time>
      </trkpt>
      <trkpt lat="45.08952" lon="5.95873">
        <ele>2600</ele>
        <time>2020-02-14T11:40:19.143Z</time>
      </trkpt>
      <trkpt lat="45.08959" lon="5.95875">
        <ele>2599</ele>
        <time>2020-02-14T11:40:28.000Z</time>
      </trkpt>
      <trkpt lat="45.08966" lon="5.95877">
        <ele>2597</ele>
        <time>2020-02-14T11:40:35.000Z</time>
      </trkpt>
      <trkpt lat="45.0897" lon="5.95878">
        <ele>2598</ele>
        <time>2020-02-14T11:40:42.000Z</time>
      </trkpt>
      <trkpt lat="45.08975" lon="5.9588">
        <ele>2600</ele>
        <time>2020-02-14T11:40:47.617Z</time>
      </trkpt>
      <trkpt lat="45.08979" lon="5.95883">
        <ele>2601</ele>
        <time>2020-02-14T11:40:55.019Z</time>
      </trkpt>
      <trkpt lat="45.08986" lon="5.95886">
        <ele>2604</ele>
        <time>2020-02-14T11:41:18.000Z</time>
      </trkpt>
      <trkpt lat="45.08991" lon="5.95888">
        <ele>2605</ele>
        <time>2020-02-14T11:41:25.000Z</time>
      </trkpt>
      <trkpt lat="45.08995" lon="5.95892">
        <ele>2608</ele>
        <time>2020-02-14T11:41:32.000Z</time>
      </trkpt>
      <trkpt lat="45.08999" lon="5.95896">
        <ele>2609</ele>
        <time>2020-02-14T11:41:37.745Z</time>
      </trkpt>
      <trkpt lat="45.09003" lon="5.95901">
        <ele>2612</ele>
        <time>2020-02-14T11:41:44.435Z</time>
      </trkpt>
      <trkpt lat="45.09006" lon="5.95907">
        <ele>2613</ele>
        <time>2020-02-14T11:41:51.618Z</time>
      </trkpt>
      <trkpt lat="45.09011" lon="5.95912">
        <ele>2614</ele>
        <time>2020-02-14T11:41:58.939Z</time>
      </trkpt>
      <trkpt lat="45.09015" lon="5.95916">
        <ele>2615</ele>
        <time>2020-02-14T11:42:05.753Z</time>
      </trkpt>
      <trkpt lat="45.0902" lon="5.95921">
        <ele>2617</ele>
        <time>2020-02-14T11:42:12.841Z</time>
      </trkpt>
      <trkpt lat="45.09026" lon="5.95926">
        <ele>2619</ele>
        <time>2020-02-14T11:42:21.000Z</time>
      </trkpt>
      <trkpt lat="45.09031" lon="5.9593">
        <ele>2619</ele>
        <time>2020-02-14T11:42:28.000Z</time>
      </trkpt>
      <trkpt lat="45.09031" lon="5.95938">
        <ele>2617</ele>
        <time>2020-02-14T11:44:09.000Z</time>
      </trkpt>
      <trkpt lat="45.09035" lon="5.95937">
        <ele>2617</ele>
        <time>2020-02-14T11:53:15.000Z</time>
      </trkpt>
      <trkpt lat="45.09039" lon="5.95943">
        <ele>2617</ele>
        <time>2020-02-14T11:54:28.000Z</time>
      </trkpt>
      <trkpt lat="45.09035" lon="5.95939">
        <ele>2618</ele>
        <time>2020-02-14T11:55:21.000Z</time>
      </trkpt>
      <trkpt lat="45.09032" lon="5.95934">
        <ele>2614</ele>
        <time>2020-02-14T11:56:05.315Z</time>
      </trkpt>
      <trkpt lat="45.09028" lon="5.95931">
        <ele>2620</ele>
        <time>2020-02-14T11:56:56.000Z</time>
      </trkpt>
      <trkpt lat="45.09019" lon="5.95926">
        <ele>2615</ele>
        <time>2020-02-14T11:58:32.000Z</time>
      </trkpt>
      <trkpt lat="45.09006" lon="5.95918">
        <ele>2611</ele>
        <time>2020-02-14T11:58:37.818Z</time>
      </trkpt>
      <trkpt lat="45.09003" lon="5.95912">
        <ele>2609</ele>
        <time>2020-02-14T11:58:40.831Z</time>
      </trkpt>
      <trkpt lat="45.08994" lon="5.95915">
        <ele>2608</ele>
        <time>2020-02-14T11:58:45.000Z</time>
      </trkpt>
      <trkpt lat="45.08987" lon="5.95908">
        <ele>2606</ele>
        <time>2020-02-14T11:58:49.000Z</time>
      </trkpt>
      <trkpt lat="45.08971" lon="5.95906">
        <ele>2599</ele>
        <time>2020-02-14T11:58:53.000Z</time>
      </trkpt>
      <trkpt lat="45.0896" lon="5.9589">
        <ele>2597</ele>
        <time>2020-02-14T11:58:56.000Z</time>
      </trkpt>
      <trkpt lat="45.08954" lon="5.95885">
        <ele>2597</ele>
        <time>2020-02-14T11:59:00.000Z</time>
      </trkpt>
      <trkpt lat="45.08946" lon="5.95886">
        <ele>2597</ele>
        <time>2020-02-14T11:59:02.771Z</time>
      </trkpt>
      <trkpt lat="45.08929" lon="5.95888">
        <ele>2591</ele>
        <time>2020-02-14T11:59:07.000Z</time>
      </trkpt>
      <trkpt lat="45.08914" lon="5.95887">
        <ele>2586</ele>
        <time>2020-02-14T11:59:11.000Z</time>
      </trkpt>
      <trkpt lat="45.08908" lon="5.95876">
        <ele>2585</ele>
        <time>2020-02-14T11:59:15.000Z</time>
      </trkpt>
      <trkpt lat="45.08899" lon="5.95888">
        <ele>2583</ele>
        <time>2020-02-14T11:59:21.127Z</time>
      </trkpt>
      <trkpt lat="45.0889" lon="5.9588">
        <ele>2580</ele>
        <time>2020-02-14T11:59:25.076Z</time>
      </trkpt>
      <trkpt lat="45.08881" lon="5.95874">
        <ele>2578</ele>
        <time>2020-02-14T11:59:29.000Z</time>
      </trkpt>
      <trkpt lat="45.08872" lon="5.9588">
        <ele>2576</ele>
        <time>2020-02-14T11:59:31.645Z</time>
      </trkpt>
      <trkpt lat="45.08855" lon="5.95887">
        <ele>2572</ele>
        <time>2020-02-14T11:59:36.000Z</time>
      </trkpt>
      <trkpt lat="45.08847" lon="5.95884">
        <ele>2567</ele>
        <time>2020-02-14T11:59:38.547Z</time>
      </trkpt>
      <trkpt lat="45.08839" lon="5.95898">
        <ele>2559</ele>
        <time>2020-02-14T11:59:49.678Z</time>
      </trkpt>
      <trkpt lat="45.08819" lon="5.95913">
        <ele>2555</ele>
        <time>2020-02-14T11:59:54.000Z</time>
      </trkpt>
      <trkpt lat="45.08805" lon="5.95926">
        <ele>2549</ele>
        <time>2020-02-14T11:59:57.000Z</time>
      </trkpt>
      <trkpt lat="45.08779" lon="5.95942">
        <ele>2540</ele>
        <time>2020-02-14T12:00:01.000Z</time>
      </trkpt>
      <trkpt lat="45.08766" lon="5.95947">
        <ele>2536</ele>
        <time>2020-02-14T12:00:04.000Z</time>
      </trkpt>
      <trkpt lat="45.0875" lon="5.95959">
        <ele>2531</ele>
        <time>2020-02-14T12:00:08.000Z</time>
      </trkpt>
      <trkpt lat="45.08733" lon="5.95967">
        <ele>2528</ele>
        <time>2020-02-14T12:00:11.000Z</time>
      </trkpt>
      <trkpt lat="45.08718" lon="5.95979">
        <ele>2523</ele>
        <time>2020-02-14T12:00:15.000Z</time>
      </trkpt>
      <trkpt lat="45.0871" lon="5.95986">
        <ele>2523</ele>
        <time>2020-02-14T12:00:21.000Z</time>
      </trkpt>
      <trkpt lat="45.087" lon="5.95982">
        <ele>2519</ele>
        <time>2020-02-14T12:00:23.518Z</time>
      </trkpt>
      <trkpt lat="45.08686" lon="5.9598">
        <ele>2517</ele>
        <time>2020-02-14T12:00:27.037Z</time>
      </trkpt>
      <trkpt lat="45.08678" lon="5.95979">
        <ele>2515</ele>
        <time>2020-02-14T12:00:31.000Z</time>
      </trkpt>
      <trkpt lat="45.08672" lon="5.9598">
        <ele>2515</ele>
        <time>2020-02-14T12:00:34.000Z</time>
      </trkpt>
      <trkpt lat="45.08665" lon="5.95981">
        <ele>2516</ele>
        <time>2020-02-14T12:00:38.000Z</time>
      </trkpt>
      <trkpt lat="45.0865" lon="5.95986">
        <ele>2515</ele>
        <time>2020-02-14T12:00:41.000Z</time>
      </trkpt>
      <trkpt lat="45.08638" lon="5.95991">
        <ele>2515</ele>
        <time>2020-02-14T12:00:45.000Z</time>
      </trkpt>
      <trkpt lat="45.08631" lon="5.95991">
        <ele>2516</ele>
        <time>2020-02-14T12:00:48.000Z</time>
      </trkpt>
      <trkpt lat="45.08623" lon="5.95992">
        <ele>2516</ele>
        <time>2020-02-14T12:00:51.000Z</time>
      </trkpt>
      <trkpt lat="45.08618" lon="5.95993">
        <ele>2516</ele>
        <time>2020-02-14T12:00:55.000Z</time>
      </trkpt>
      <trkpt lat="45.08612" lon="5.95998">
        <ele>2516</ele>
        <time>2020-02-14T12:01:00.795Z</time>
      </trkpt>
      <trkpt lat="45.08606" lon="5.96002">
        <ele>2516</ele>
        <time>2020-02-14T12:02:22.000Z</time>
      </trkpt>
      <trkpt lat="45.08604" lon="5.96009">
        <ele>2516</ele>
        <time>2020-02-14T12:02:26.000Z</time>
      </trkpt>
      <trkpt lat="45.08599" lon="5.96016">
        <ele>2515</ele>
        <time>2020-02-14T12:02:30.000Z</time>
      </trkpt>
      <trkpt lat="45.08596" lon="5.96022">
        <ele>2513</ele>
        <time>2020-02-14T12:02:33.000Z</time>
      </trkpt>
      <trkpt lat="45.08594" lon="5.9603">
        <ele>2514</ele>
        <time>2020-02-14T12:02:35.808Z</time>
      </trkpt>
      <trkpt lat="45.08591" lon="5.96036">
        <ele>2514</ele>
        <time>2020-02-14T12:02:47.000Z</time>
      </trkpt>
      <trkpt lat="45.08594" lon="5.9603">
        <ele>2514</ele>
        <time>2020-02-14T12:02:57.000Z</time>
      </trkpt>
      <trkpt lat="45.08591" lon="5.96035">
        <ele>2514</ele>
        <time>2020-02-14T12:03:09.819Z</time>
      </trkpt>
      <trkpt lat="45.08586" lon="5.96046">
        <ele>2511</ele>
        <time>2020-02-14T12:03:12.843Z</time>
      </trkpt>
      <trkpt lat="45.08578" lon="5.96061">
        <ele>2508</ele>
        <time>2020-02-14T12:03:17.000Z</time>
      </trkpt>
      <trkpt lat="45.08573" lon="5.96075">
        <ele>2507</ele>
        <time>2020-02-14T12:03:19.796Z</time>
      </trkpt>
      <trkpt lat="45.08563" lon="5.96087">
        <ele>2507</ele>
        <time>2020-02-14T12:03:37.000Z</time>
      </trkpt>
      <trkpt lat="45.08553" lon="5.96084">
        <ele>2501</ele>
        <time>2020-02-14T12:03:39.572Z</time>
      </trkpt>
      <trkpt lat="45.08545" lon="5.96081">
        <ele>2498</ele>
        <time>2020-02-14T12:03:43.072Z</time>
      </trkpt>
      <trkpt lat="45.08532" lon="5.96076">
        <ele>2497</ele>
        <time>2020-02-14T12:03:46.117Z</time>
      </trkpt>
      <trkpt lat="45.08518" lon="5.96072">
        <ele>2492</ele>
        <time>2020-02-14T12:03:50.000Z</time>
      </trkpt>
      <trkpt lat="45.08505" lon="5.96071">
        <ele>2489</ele>
        <time>2020-02-14T12:03:53.000Z</time>
      </trkpt>
      <trkpt lat="45.08499" lon="5.96082">
        <ele>2488</ele>
        <time>2020-02-14T12:03:55.649Z</time>
      </trkpt>
      <trkpt lat="45.08495" lon="5.96087">
        <ele>2488</ele>
        <time>2020-02-14T12:03:58.744Z</time>
      </trkpt>
      <trkpt lat="45.08487" lon="5.96094">
        <ele>2487</ele>
        <time>2020-02-14T12:04:02.126Z</time>
      </trkpt>
      <trkpt lat="45.08483" lon="5.96102">
        <ele>2487</ele>
        <time>2020-02-14T12:04:06.000Z</time>
      </trkpt>
      <trkpt lat="45.08478" lon="5.96111">
        <ele>2486</ele>
        <time>2020-02-14T12:04:51.000Z</time>
      </trkpt>
      <trkpt lat="45.08471" lon="5.96124">
        <ele>2484</ele>
        <time>2020-02-14T12:04:55.000Z</time>
      </trkpt>
      <trkpt lat="45.08459" lon="5.96123">
        <ele>2481</ele>
        <time>2020-02-14T12:05:01.057Z</time>
      </trkpt>
      <trkpt lat="45.08449" lon="5.96117">
        <ele>2479</ele>
        <time>2020-02-14T12:05:05.000Z</time>
      </trkpt>
      <trkpt lat="45.08441" lon="5.96115">
        <ele>2476</ele>
        <time>2020-02-14T12:05:08.000Z</time>
      </trkpt>
      <trkpt lat="45.08427" lon="5.96114">
        <ele>2471</ele>
        <time>2020-02-14T12:05:10.902Z</time>
      </trkpt>
      <trkpt lat="45.08413" lon="5.96114">
        <ele>2467</ele>
        <time>2020-02-14T12:05:14.074Z</time>
      </trkpt>
      <trkpt lat="45.08407" lon="5.96119">
        <ele>2464</ele>
        <time>2020-02-14T12:05:17.284Z</time>
      </trkpt>
      <trkpt lat="45.08403" lon="5.96118">
        <ele>2459</ele>
        <time>2020-02-14T12:05:20.341Z</time>
      </trkpt>
      <trkpt lat="45.08395" lon="5.96122">
        <ele>2455</ele>
        <time>2020-02-14T12:05:25.000Z</time>
      </trkpt>
      <trkpt lat="45.08394" lon="5.96135">
        <ele>2452</ele>
        <time>2020-02-14T12:05:27.533Z</time>
      </trkpt>
      <trkpt lat="45.08375" lon="5.96123">
        <ele>2445</ele>
        <time>2020-02-14T12:05:32.000Z</time>
      </trkpt>
      <trkpt lat="45.08353" lon="5.96107">
        <ele>2433</ele>
        <time>2020-02-14T12:05:36.000Z</time>
      </trkpt>
      <trkpt lat="45.08346" lon="5.96093">
        <ele>2426</ele>
        <time>2020-02-14T12:05:38.519Z</time>
      </trkpt>
      <trkpt lat="45.08351" lon="5.96094">
        <ele>2423</ele>
        <time>2020-02-14T12:06:00.000Z</time>
      </trkpt>
      <trkpt lat="45.08346" lon="5.96089">
        <ele>2416</ele>
        <time>2020-02-14T12:09:12.000Z</time>
      </trkpt>
      <trkpt lat="45.08332" lon="5.96073">
        <ele>2411</ele>
        <time>2020-02-14T12:09:15.000Z</time>
      </trkpt>
      <trkpt lat="45.08315" lon="5.96058">
        <ele>2407</ele>
        <time>2020-02-14T12:09:19.000Z</time>
      </trkpt>
      <trkpt lat="45.08295" lon="5.9604">
        <ele>2403</ele>
        <time>2020-02-14T12:09:23.000Z</time>
      </trkpt>
      <trkpt lat="45.0828" lon="5.96034">
        <ele>2401</ele>
        <time>2020-02-14T12:09:26.000Z</time>
      </trkpt>
      <trkpt lat="45.08262" lon="5.96025">
        <ele>2396</ele>
        <time>2020-02-14T12:09:30.000Z</time>
      </trkpt>
      <trkpt lat="45.0825" lon="5.96016">
        <ele>2391</ele>
        <time>2020-02-14T12:09:33.000Z</time>
      </trkpt>
      <trkpt lat="45.08239" lon="5.96002">
        <ele>2388</ele>
        <time>2020-02-14T12:09:36.000Z</time>
      </trkpt>
      <trkpt lat="45.08224" lon="5.95991">
        <ele>2386</ele>
        <time>2020-02-14T12:09:39.000Z</time>
      </trkpt>
      <trkpt lat="45.08211" lon="5.95991">
        <ele>2385</ele>
        <time>2020-02-14T12:09:42.000Z</time>
      </trkpt>
      <trkpt lat="45.08201" lon="5.95986">
        <ele>2384</ele>
        <time>2020-02-14T12:09:45.000Z</time>
      </trkpt>
      <trkpt lat="45.08194" lon="5.95978">
        <ele>2383</ele>
        <time>2020-02-14T12:09:47.738Z</time>
      </trkpt>
      <trkpt lat="45.08189" lon="5.95964">
        <ele>2381</ele>
        <time>2020-02-14T12:09:52.000Z</time>
      </trkpt>
      <trkpt lat="45.08196" lon="5.95959">
        <ele>2381</ele>
        <time>2020-02-14T12:09:54.117Z</time>
      </trkpt>
      <trkpt lat="45.08202" lon="5.95949">
        <ele>2380</ele>
        <time>2020-02-14T12:09:59.000Z</time>
      </trkpt>
      <trkpt lat="45.08202" lon="5.95932">
        <ele>2379</ele>
        <time>2020-02-14T12:10:08.502Z</time>
      </trkpt>
      <trkpt lat="45.08198" lon="5.95907">
        <ele>2374</ele>
        <time>2020-02-14T12:10:13.000Z</time>
      </trkpt>
      <trkpt lat="45.08203" lon="5.95897">
        <ele>2373</ele>
        <time>2020-02-14T12:10:15.594Z</time>
      </trkpt>
      <trkpt lat="45.08206" lon="5.95884">
        <ele>2371</ele>
        <time>2020-02-14T12:10:18.938Z</time>
      </trkpt>
      <trkpt lat="45.08197" lon="5.95876">
        <ele>2369</ele>
        <time>2020-02-14T12:10:23.000Z</time>
      </trkpt>
      <trkpt lat="45.08199" lon="5.95866">
        <ele>2366</ele>
        <time>2020-02-14T12:10:26.000Z</time>
      </trkpt>
      <trkpt lat="45.08198" lon="5.95852">
        <ele>2363</ele>
        <time>2020-02-14T12:10:29.000Z</time>
      </trkpt>
      <trkpt lat="45.08197" lon="5.95824">
        <ele>2357</ele>
        <time>2020-02-14T12:10:33.000Z</time>
      </trkpt>
      <trkpt lat="45.08182" lon="5.9581">
        <ele>2351</ele>
        <time>2020-02-14T12:10:36.000Z</time>
      </trkpt>
      <trkpt lat="45.08165" lon="5.95789">
        <ele>2345</ele>
        <time>2020-02-14T12:10:39.000Z</time>
      </trkpt>
      <trkpt lat="45.08142" lon="5.95773">
        <ele>2337</ele>
        <time>2020-02-14T12:10:42.000Z</time>
      </trkpt>
      <trkpt lat="45.08118" lon="5.95758">
        <ele>2332</ele>
        <time>2020-02-14T12:10:45.000Z</time>
      </trkpt>
      <trkpt lat="45.08087" lon="5.9573">
        <ele>2330</ele>
        <time>2020-02-14T12:10:49.000Z</time>
      </trkpt>
      <trkpt lat="45.08064" lon="5.95713">
        <ele>2328</ele>
        <time>2020-02-14T12:10:52.000Z</time>
      </trkpt>
      <trkpt lat="45.08036" lon="5.95687">
        <ele>2322</ele>
        <time>2020-02-14T12:10:56.000Z</time>
      </trkpt>
      <trkpt lat="45.08005" lon="5.95659">
        <ele>2315</ele>
        <time>2020-02-14T12:11:00.000Z</time>
      </trkpt>
      <trkpt lat="45.07983" lon="5.9564">
        <ele>2313</ele>
        <time>2020-02-14T12:11:03.000Z</time>
      </trkpt>
      <trkpt lat="45.07964" lon="5.95624">
        <ele>2310</ele>
        <time>2020-02-14T12:11:06.000Z</time>
      </trkpt>
      <trkpt lat="45.07945" lon="5.95614">
        <ele>2310</ele>
        <time>2020-02-14T12:11:10.000Z</time>
      </trkpt>
      <trkpt lat="45.07927" lon="5.95595">
        <ele>2303</ele>
        <time>2020-02-14T12:11:17.000Z</time>
      </trkpt>
      <trkpt lat="45.07902" lon="5.95563">
        <ele>2295</ele>
        <time>2020-02-14T12:11:21.000Z</time>
      </trkpt>
      <trkpt lat="45.07883" lon="5.9554">
        <ele>2292</ele>
        <time>2020-02-14T12:11:24.000Z</time>
      </trkpt>
      <trkpt lat="45.07857" lon="5.95516">
        <ele>2288</ele>
        <time>2020-02-14T12:11:28.000Z</time>
      </trkpt>
      <trkpt lat="45.07825" lon="5.95492">
        <ele>2282</ele>
        <time>2020-02-14T12:11:32.000Z</time>
      </trkpt>
      <trkpt lat="45.07794" lon="5.95467">
        <ele>2278</ele>
        <time>2020-02-14T12:11:36.000Z</time>
      </trkpt>
      <trkpt lat="45.07761" lon="5.95455">
        <ele>2277</ele>
        <time>2020-02-14T12:11:40.000Z</time>
      </trkpt>
      <trkpt lat="45.07734" lon="5.95438">
        <ele>2276</ele>
        <time>2020-02-14T12:11:44.000Z</time>
      </trkpt>
      <trkpt lat="45.07723" lon="5.95421">
        <ele>2275</ele>
        <time>2020-02-14T12:11:47.000Z</time>
      </trkpt>
      <trkpt lat="45.07711" lon="5.95404">
        <ele>2273</ele>
        <time>2020-02-14T12:11:50.000Z</time>
      </trkpt>
      <trkpt lat="45.07692" lon="5.95384">
        <ele>2272</ele>
        <time>2020-02-14T12:11:54.000Z</time>
      </trkpt>
      <trkpt lat="45.07675" lon="5.95367">
        <ele>2271</ele>
        <time>2020-02-14T12:11:58.000Z</time>
      </trkpt>
      <trkpt lat="45.07672" lon="5.95349">
        <ele>2270</ele>
        <time>2020-02-14T12:12:01.000Z</time>
      </trkpt>
      <trkpt lat="45.07671" lon="5.95333">
        <ele>2268</ele>
        <time>2020-02-14T12:12:04.000Z</time>
      </trkpt>
      <trkpt lat="45.07654" lon="5.95324">
        <ele>2264</ele>
        <time>2020-02-14T12:12:08.000Z</time>
      </trkpt>
      <trkpt lat="45.07651" lon="5.95308">
        <ele>2263</ele>
        <time>2020-02-14T12:12:10.721Z</time>
      </trkpt>
      <trkpt lat="45.0765" lon="5.953">
        <ele>2260</ele>
        <time>2020-02-14T12:12:15.000Z</time>
      </trkpt>
      <trkpt lat="45.07652" lon="5.95292">
        <ele>2258</ele>
        <time>2020-02-14T12:12:37.000Z</time>
      </trkpt>
      <trkpt lat="45.07644" lon="5.95286">
        <ele>2257</ele>
        <time>2020-02-14T12:12:40.000Z</time>
      </trkpt>
      <trkpt lat="45.07643" lon="5.95278">
        <ele>2257</ele>
        <time>2020-02-14T12:12:43.000Z</time>
      </trkpt>
      <trkpt lat="45.07653" lon="5.95272">
        <ele>2256</ele>
        <time>2020-02-14T12:12:47.000Z</time>
      </trkpt>
      <trkpt lat="45.07659" lon="5.95267">
        <ele>2256</ele>
        <time>2020-02-14T12:12:50.000Z</time>
      </trkpt>
      <trkpt lat="45.07656" lon="5.95254">
        <ele>2255</ele>
        <time>2020-02-14T12:12:52.807Z</time>
      </trkpt>
      <trkpt lat="45.07644" lon="5.95232">
        <ele>2254</ele>
        <time>2020-02-14T12:12:57.123Z</time>
      </trkpt>
      <trkpt lat="45.07647" lon="5.95238">
        <ele>2256</ele>
        <time>2020-02-14T12:13:02.000Z</time>
      </trkpt>
      <trkpt lat="45.07637" lon="5.95247">
        <ele>2258</ele>
        <time>2020-02-14T12:13:08.804Z</time>
      </trkpt>
      <trkpt lat="45.07617" lon="5.95252">
        <ele>2258</ele>
        <time>2020-02-14T12:13:13.000Z</time>
      </trkpt>
      <trkpt lat="45.076" lon="5.95253">
        <ele>2257</ele>
        <time>2020-02-14T12:13:16.000Z</time>
      </trkpt>
      <trkpt lat="45.07575" lon="5.95252">
        <ele>2255</ele>
        <time>2020-02-14T12:13:20.000Z</time>
      </trkpt>
      <trkpt lat="45.07555" lon="5.95254">
        <ele>2253</ele>
        <time>2020-02-14T12:13:23.000Z</time>
      </trkpt>
      <trkpt lat="45.07528" lon="5.95251">
        <ele>2249</ele>
        <time>2020-02-14T12:13:27.000Z</time>
      </trkpt>
      <trkpt lat="45.07512" lon="5.95249">
        <ele>2246</ele>
        <time>2020-02-14T12:13:30.000Z</time>
      </trkpt>
      <trkpt lat="45.07488" lon="5.95263">
        <ele>2243</ele>
        <time>2020-02-14T12:13:34.000Z</time>
      </trkpt>
      <trkpt lat="45.07459" lon="5.95265">
        <ele>2240</ele>
        <time>2020-02-14T12:13:38.000Z</time>
      </trkpt>
      <trkpt lat="45.07437" lon="5.95268">
        <ele>2239</ele>
        <time>2020-02-14T12:13:41.000Z</time>
      </trkpt>
      <trkpt lat="45.07416" lon="5.95269">
        <ele>2238</ele>
        <time>2020-02-14T12:13:44.000Z</time>
      </trkpt>
      <trkpt lat="45.07395" lon="5.95269">
        <ele>2236</ele>
        <time>2020-02-14T12:13:47.000Z</time>
      </trkpt>
      <trkpt lat="45.07376" lon="5.95269">
        <ele>2235</ele>
        <time>2020-02-14T12:13:50.000Z</time>
      </trkpt>
      <trkpt lat="45.0735" lon="5.9527">
        <ele>2232</ele>
        <time>2020-02-14T12:13:54.000Z</time>
      </trkpt>
      <trkpt lat="45.07321" lon="5.95269">
        <ele>2230</ele>
        <time>2020-02-14T12:13:58.000Z</time>
      </trkpt>
      <trkpt lat="45.07302" lon="5.95271">
        <ele>2228</ele>
        <time>2020-02-14T12:14:01.000Z</time>
      </trkpt>
      <trkpt lat="45.07284" lon="5.95274">
        <ele>2225</ele>
        <time>2020-02-14T12:14:04.000Z</time>
      </trkpt>
      <trkpt lat="45.07266" lon="5.95276">
        <ele>2223</ele>
        <time>2020-02-14T12:14:07.000Z</time>
      </trkpt>
      <trkpt lat="45.07243" lon="5.95272">
        <ele>2219</ele>
        <time>2020-02-14T12:14:11.000Z</time>
      </trkpt>
      <trkpt lat="45.07224" lon="5.95263">
        <ele>2216</ele>
        <time>2020-02-14T12:14:15.000Z</time>
      </trkpt>
      <trkpt lat="45.07212" lon="5.95265">
        <ele>2214</ele>
        <time>2020-02-14T12:14:18.000Z</time>
      </trkpt>
      <trkpt lat="45.07189" lon="5.95256">
        <ele>2212</ele>
        <time>2020-02-14T12:14:22.000Z</time>
      </trkpt>
      <trkpt lat="45.07175" lon="5.95259">
        <ele>2210</ele>
        <time>2020-02-14T12:14:26.000Z</time>
      </trkpt>
      <trkpt lat="45.07172" lon="5.95263">
        <ele>2209</ele>
        <time>2020-02-14T12:14:36.000Z</time>
      </trkpt>
      <trkpt lat="45.07163" lon="5.95259">
        <ele>2207</ele>
        <time>2020-02-14T12:14:43.000Z</time>
      </trkpt>
      <trkpt lat="45.07152" lon="5.9525">
        <ele>2205</ele>
        <time>2020-02-14T12:14:47.000Z</time>
      </trkpt>
      <trkpt lat="45.07125" lon="5.95245">
        <ele>2201</ele>
        <time>2020-02-14T12:14:51.000Z</time>
      </trkpt>
      <trkpt lat="45.07104" lon="5.95241">
        <ele>2198</ele>
        <time>2020-02-14T12:14:54.000Z</time>
      </trkpt>
      <trkpt lat="45.07083" lon="5.95242">
        <ele>2194</ele>
        <time>2020-02-14T12:14:58.000Z</time>
      </trkpt>
      <trkpt lat="45.07075" lon="5.95243">
        <ele>2193</ele>
        <time>2020-02-14T12:15:01.000Z</time>
      </trkpt>
      <trkpt lat="45.07054" lon="5.9524">
        <ele>2191</ele>
        <time>2020-02-14T12:15:05.000Z</time>
      </trkpt>
      <trkpt lat="45.07032" lon="5.95249">
        <ele>2190</ele>
        <time>2020-02-14T12:15:09.000Z</time>
      </trkpt>
      <trkpt lat="45.07017" lon="5.95252">
        <ele>2189</ele>
        <time>2020-02-14T12:15:13.000Z</time>
      </trkpt>
      <trkpt lat="45.07003" lon="5.95234">
        <ele>2186</ele>
        <time>2020-02-14T12:15:16.000Z</time>
      </trkpt>
      <trkpt lat="45.06976" lon="5.95235">
        <ele>2182</ele>
        <time>2020-02-14T12:15:20.000Z</time>
      </trkpt>
      <trkpt lat="45.06961" lon="5.95241">
        <ele>2181</ele>
        <time>2020-02-14T12:15:23.000Z</time>
      </trkpt>
      <trkpt lat="45.06946" lon="5.95248">
        <ele>2177</ele>
        <time>2020-02-14T12:15:26.000Z</time>
      </trkpt>
      <trkpt lat="45.06921" lon="5.95248">
        <ele>2175</ele>
        <time>2020-02-14T12:15:30.000Z</time>
      </trkpt>
      <trkpt lat="45.06899" lon="5.95256">
        <ele>2170</ele>
        <time>2020-02-14T12:15:34.000Z</time>
      </trkpt>
      <trkpt lat="45.06881" lon="5.9527">
        <ele>2168</ele>
        <time>2020-02-14T12:15:38.000Z</time>
      </trkpt>
      <trkpt lat="45.06874" lon="5.9528">
        <ele>2166</ele>
        <time>2020-02-14T12:15:41.000Z</time>
      </trkpt>
      <trkpt lat="45.06844" lon="5.95278">
        <ele>2165</ele>
        <time>2020-02-14T12:15:45.000Z</time>
      </trkpt>
      <trkpt lat="45.06828" lon="5.95271">
        <ele>2162</ele>
        <time>2020-02-14T12:15:48.000Z</time>
      </trkpt>
      <trkpt lat="45.06817" lon="5.95267">
        <ele>2159</ele>
        <time>2020-02-14T12:15:51.000Z</time>
      </trkpt>
      <trkpt lat="45.06807" lon="5.95266">
        <ele>2157</ele>
        <time>2020-02-14T12:15:53.579Z</time>
      </trkpt>
      <trkpt lat="45.06796" lon="5.95261">
        <ele>2156</ele>
        <time>2020-02-14T12:15:56.782Z</time>
      </trkpt>
      <trkpt lat="45.06784" lon="5.9526">
        <ele>2155</ele>
        <time>2020-02-14T12:16:01.000Z</time>
      </trkpt>
      <trkpt lat="45.06762" lon="5.95263">
        <ele>2153</ele>
        <time>2020-02-14T12:16:05.000Z</time>
      </trkpt>
      <trkpt lat="45.06746" lon="5.95267">
        <ele>2152</ele>
        <time>2020-02-14T12:16:08.000Z</time>
      </trkpt>
      <trkpt lat="45.06728" lon="5.95268">
        <ele>2150</ele>
        <time>2020-02-14T12:16:11.000Z</time>
      </trkpt>
      <trkpt lat="45.06702" lon="5.95273">
        <ele>2148</ele>
        <time>2020-02-14T12:16:15.000Z</time>
      </trkpt>
      <trkpt lat="45.06675" lon="5.95278">
        <ele>2146</ele>
        <time>2020-02-14T12:16:19.000Z</time>
      </trkpt>
      <trkpt lat="45.06656" lon="5.9528">
        <ele>2144</ele>
        <time>2020-02-14T12:16:22.000Z</time>
      </trkpt>
      <trkpt lat="45.0664" lon="5.95286">
        <ele>2143</ele>
        <time>2020-02-14T12:16:25.000Z</time>
      </trkpt>
      <trkpt lat="45.06622" lon="5.95295">
        <ele>2141</ele>
        <time>2020-02-14T12:16:29.000Z</time>
      </trkpt>
      <trkpt lat="45.06606" lon="5.95302">
        <ele>2139</ele>
        <time>2020-02-14T12:16:33.000Z</time>
      </trkpt>
      <trkpt lat="45.06599" lon="5.95309">
        <ele>2138</ele>
        <time>2020-02-14T12:16:36.000Z</time>
      </trkpt>
      <trkpt lat="45.06582" lon="5.95316">
        <ele>2136</ele>
        <time>2020-02-14T12:16:38.626Z</time>
      </trkpt>
      <trkpt lat="45.06576" lon="5.95328">
        <ele>2135</ele>
        <time>2020-02-14T12:16:43.000Z</time>
      </trkpt>
      <trkpt lat="45.06561" lon="5.95346">
        <ele>2134</ele>
        <time>2020-02-14T12:16:47.000Z</time>
      </trkpt>
      <trkpt lat="45.06533" lon="5.95362">
        <ele>2133</ele>
        <time>2020-02-14T12:16:51.000Z</time>
      </trkpt>
      <trkpt lat="45.06516" lon="5.95367">
        <ele>2131</ele>
        <time>2020-02-14T12:16:54.000Z</time>
      </trkpt>
      <trkpt lat="45.06495" lon="5.95373">
        <ele>2129</ele>
        <time>2020-02-14T12:16:58.000Z</time>
      </trkpt>
      <trkpt lat="45.06479" lon="5.95378">
        <ele>2129</ele>
        <time>2020-02-14T12:17:01.000Z</time>
      </trkpt>
      <trkpt lat="45.06467" lon="5.95382">
        <ele>2128</ele>
        <time>2020-02-14T12:17:04.000Z</time>
      </trkpt>
      <trkpt lat="45.0645" lon="5.95387">
        <ele>2127</ele>
        <time>2020-02-14T12:17:08.000Z</time>
      </trkpt>
      <trkpt lat="45.06439" lon="5.95389">
        <ele>2128</ele>
        <time>2020-02-14T12:17:10.489Z</time>
      </trkpt>
      <trkpt lat="45.06427" lon="5.95395">
        <ele>2127</ele>
        <time>2020-02-14T12:17:13.611Z</time>
      </trkpt>
      <trkpt lat="45.06423" lon="5.95398">
        <ele>2126</ele>
        <time>2020-02-14T12:17:16.646Z</time>
      </trkpt>
      <trkpt lat="45.06417" lon="5.95403">
        <ele>2125</ele>
        <time>2020-02-14T12:17:19.879Z</time>
      </trkpt>
      <trkpt lat="45.06408" lon="5.95412">
        <ele>2124</ele>
        <time>2020-02-14T12:17:23.057Z</time>
      </trkpt>
      <trkpt lat="45.06401" lon="5.95419">
        <ele>2124</ele>
        <time>2020-02-14T12:17:27.000Z</time>
      </trkpt>
      <trkpt lat="45.06392" lon="5.95429">
        <ele>2124</ele>
        <time>2020-02-14T12:17:29.798Z</time>
      </trkpt>
      <trkpt lat="45.06384" lon="5.95439">
        <ele>2123</ele>
        <time>2020-02-14T12:17:34.000Z</time>
      </trkpt>
      <trkpt lat="45.0638" lon="5.95443">
        <ele>2123</ele>
        <time>2020-02-14T12:17:37.000Z</time>
      </trkpt>
      <trkpt lat="45.06374" lon="5.95444">
        <ele>2121</ele>
        <time>2020-02-14T12:17:45.529Z</time>
      </trkpt>
      <trkpt lat="45.06369" lon="5.95447">
        <ele>2121</ele>
        <time>2020-02-14T12:17:56.000Z</time>
      </trkpt>
      <trkpt lat="45.0636" lon="5.95463">
        <ele>2116</ele>
        <time>2020-02-14T12:18:39.000Z</time>
      </trkpt>
      <trkpt lat="45.06353" lon="5.95475">
        <ele>2116</ele>
        <time>2020-02-14T12:18:41.194Z</time>
      </trkpt>
      <trkpt lat="45.06345" lon="5.95481">
        <ele>2117</ele>
        <time>2020-02-14T12:18:46.000Z</time>
      </trkpt>
      <trkpt lat="45.06339" lon="5.95479">
        <ele>2115</ele>
        <time>2020-02-14T12:18:48.921Z</time>
      </trkpt>
      <trkpt lat="45.06327" lon="5.95479">
        <ele>2113</ele>
        <time>2020-02-14T12:18:53.125Z</time>
      </trkpt>
      <trkpt lat="45.06324" lon="5.95484">
        <ele>2112</ele>
        <time>2020-02-14T12:19:49.000Z</time>
      </trkpt>
      <trkpt lat="45.06321" lon="5.95488">
        <ele>2112</ele>
        <time>2020-02-14T12:19:51.077Z</time>
      </trkpt>
      <trkpt lat="45.06317" lon="5.95493">
        <ele>2112</ele>
        <time>2020-02-14T12:19:56.000Z</time>
      </trkpt>
      <trkpt lat="45.06309" lon="5.95506">
        <ele>2112</ele>
        <time>2020-02-14T12:20:02.488Z</time>
      </trkpt>
      <trkpt lat="45.063" lon="5.95517">
        <ele>2111</ele>
        <time>2020-02-14T12:20:06.084Z</time>
      </trkpt>
      <trkpt lat="45.06293" lon="5.95527">
        <ele>2111</ele>
        <time>2020-02-14T12:20:10.000Z</time>
      </trkpt>
      <trkpt lat="45.06282" lon="5.95536">
        <ele>2111</ele>
        <time>2020-02-14T12:20:12.863Z</time>
      </trkpt>
      <trkpt lat="45.06278" lon="5.95543">
        <ele>2110</ele>
        <time>2020-02-14T12:20:17.000Z</time>
      </trkpt>
      <trkpt lat="45.06269" lon="5.95552">
        <ele>2110</ele>
        <time>2020-02-14T12:20:19.609Z</time>
      </trkpt>
      <trkpt lat="45.06266" lon="5.95559">
        <ele>2109</ele>
        <time>2020-02-14T12:20:22.923Z</time>
      </trkpt>
      <trkpt lat="45.06262" lon="5.95564">
        <ele>2109</ele>
        <time>2020-02-14T12:20:27.000Z</time>
      </trkpt>
      <trkpt lat="45.0626" lon="5.95572">
        <ele>2109</ele>
        <time>2020-02-14T12:20:30.000Z</time>
      </trkpt>
      <trkpt lat="45.06262" lon="5.95579">
        <ele>2108</ele>
        <time>2020-02-14T12:20:52.000Z</time>
      </trkpt>
      <trkpt lat="45.06263" lon="5.95585">
        <ele>2108</ele>
        <time>2020-02-14T12:20:59.000Z</time>
      </trkpt>
      <trkpt lat="45.06259" lon="5.95591">
        <ele>2107</ele>
        <time>2020-02-14T12:21:21.000Z</time>
      </trkpt>
      <trkpt lat="45.06263" lon="5.95594">
        <ele>2105</ele>
        <time>2020-02-14T12:22:45.000Z</time>
      </trkpt>
      <trkpt lat="45.06268" lon="5.9559">
        <ele>2105</ele>
        <time>2020-02-14T12:22:59.000Z</time>
      </trkpt>
      <trkpt lat="45.06272" lon="5.95586">
        <ele>2105</ele>
        <time>2020-02-14T12:23:07.556Z</time>
      </trkpt>
      <trkpt lat="45.06274" lon="5.95579">
        <ele>2103</ele>
        <time>2020-02-14T12:23:28.000Z</time>
      </trkpt>
      <trkpt lat="45.06277" lon="5.95572">
        <ele>2101</ele>
        <time>2020-02-14T12:23:43.966Z</time>
      </trkpt>
      <trkpt lat="45.06277" lon="5.95562">
        <ele>2100</ele>
        <time>2020-02-14T12:23:52.000Z</time>
      </trkpt>
      <trkpt lat="45.06278" lon="5.95555">
        <ele>2100</ele>
        <time>2020-02-14T12:23:58.360Z</time>
      </trkpt>
      <trkpt lat="45.0628" lon="5.95548">
        <ele>2100</ele>
        <time>2020-02-14T12:24:07.000Z</time>
      </trkpt>
      <trkpt lat="45.06281" lon="5.95537">
        <ele>2099</ele>
        <time>2020-02-14T12:24:12.471Z</time>
      </trkpt>
      <trkpt lat="45.06282" lon="5.95525">
        <ele>2098</ele>
        <time>2020-02-14T12:24:15.495Z</time>
      </trkpt>
      <trkpt lat="45.06285" lon="5.95508">
        <ele>2096</ele>
        <time>2020-02-14T12:24:18.691Z</time>
      </trkpt>
      <trkpt lat="45.06287" lon="5.95491">
        <ele>2097</ele>
        <time>2020-02-14T12:24:23.000Z</time>
      </trkpt>
      <trkpt lat="45.0629" lon="5.95476">
        <ele>2098</ele>
        <time>2020-02-14T12:24:25.517Z</time>
      </trkpt>
      <trkpt lat="45.06295" lon="5.95463">
        <ele>2097</ele>
        <time>2020-02-14T12:24:28.829Z</time>
      </trkpt>
      <trkpt lat="45.06299" lon="5.95451">
        <ele>2098</ele>
        <time>2020-02-14T12:24:32.150Z</time>
      </trkpt>
      <trkpt lat="45.06301" lon="5.95443">
        <ele>2099</ele>
        <time>2020-02-14T12:24:38.604Z</time>
      </trkpt>
      <trkpt lat="45.06304" lon="5.95436">
        <ele>2099</ele>
        <time>2020-02-14T12:24:47.000Z</time>
      </trkpt>
      <trkpt lat="45.06304" lon="5.95424">
        <ele>2098</ele>
        <time>2020-02-14T12:24:56.803Z</time>
      </trkpt>
      <trkpt lat="45.06305" lon="5.95417">
        <ele>2097</ele>
        <time>2020-02-14T12:25:00.094Z</time>
      </trkpt>
      <trkpt lat="45.06307" lon="5.95409">
        <ele>2098</ele>
        <time>2020-02-14T12:25:05.000Z</time>
      </trkpt>
      <trkpt lat="45.06312" lon="5.95408">
        <ele>2098</ele>
        <time>2020-02-14T12:25:20.000Z</time>
      </trkpt>
      <trkpt lat="45.06316" lon="5.95401">
        <ele>2096</ele>
        <time>2020-02-14T12:25:26.000Z</time>
      </trkpt>
      <trkpt lat="45.06326" lon="5.95395">
        <ele>2095</ele>
        <time>2020-02-14T12:25:29.000Z</time>
      </trkpt>
      <trkpt lat="45.06345" lon="5.95382">
        <ele>2092</ele>
        <time>2020-02-14T12:25:33.000Z</time>
      </trkpt>
      <trkpt lat="45.06353" lon="5.95374">
        <ele>2091</ele>
        <time>2020-02-14T12:25:36.000Z</time>
      </trkpt>
      <trkpt lat="45.06357" lon="5.95369">
        <ele>2091</ele>
        <time>2020-02-14T12:25:37.799Z</time>
      </trkpt>
      <trkpt lat="45.06341" lon="5.95355">
        <ele>2088</ele>
        <time>2020-02-14T12:25:43.000Z</time>
      </trkpt>
      <trkpt lat="45.06336" lon="5.95327">
        <ele>2090</ele>
        <time>2020-02-14T12:25:47.000Z</time>
      </trkpt>
      <trkpt lat="45.06329" lon="5.95322">
        <ele>2089</ele>
        <time>2020-02-14T12:25:49.063Z</time>
      </trkpt>
      <trkpt lat="45.06324" lon="5.95322">
        <ele>2089</ele>
        <time>2020-02-14T12:25:57.000Z</time>
      </trkpt>
      <trkpt lat="45.06319" lon="5.9532">
        <ele>2089</ele>
        <time>2020-02-14T12:26:01.900Z</time>
      </trkpt>
      <trkpt lat="45.06316" lon="5.95314">
        <ele>2086</ele>
        <time>2020-02-14T12:26:44.000Z</time>
      </trkpt>
      <trkpt lat="45.06316" lon="5.95307">
        <ele>2085</ele>
        <time>2020-02-14T12:26:53.256Z</time>
      </trkpt>
      <trkpt lat="45.06316" lon="5.95297">
        <ele>2084</ele>
        <time>2020-02-14T12:26:56.797Z</time>
      </trkpt>
      <trkpt lat="45.06314" lon="5.95291">
        <ele>2084</ele>
        <time>2020-02-14T12:27:05.000Z</time>
      </trkpt>
      <trkpt lat="45.06311" lon="5.95285">
        <ele>2084</ele>
        <time>2020-02-14T12:27:13.466Z</time>
      </trkpt>
      <trkpt lat="45.06308" lon="5.95278">
        <ele>2083</ele>
        <time>2020-02-14T12:27:25.000Z</time>
      </trkpt>
      <trkpt lat="45.06305" lon="5.95273">
        <ele>2087</ele>
        <time>2020-02-14T12:27:33.000Z</time>
      </trkpt>
      <trkpt lat="45.06303" lon="5.95268">
        <ele>2088</ele>
        <time>2020-02-14T12:27:43.000Z</time>
      </trkpt>
      <trkpt lat="45.063" lon="5.95262">
        <ele>2089</ele>
        <time>2020-02-14T12:28:02.320Z</time>
      </trkpt>
      <trkpt lat="45.06299" lon="5.95255">
        <ele>2091</ele>
        <time>2020-02-14T12:28:11.000Z</time>
      </trkpt>
      <trkpt lat="45.06292" lon="5.95245">
        <ele>2091</ele>
        <time>2020-02-14T12:28:40.700Z</time>
      </trkpt>
      <trkpt lat="45.06279" lon="5.95219">
        <ele>2089</ele>
        <time>2020-02-14T12:28:46.000Z</time>
      </trkpt>
      <trkpt lat="45.06267" lon="5.95206">
        <ele>2089</ele>
        <time>2020-02-14T12:28:49.000Z</time>
      </trkpt>
      <trkpt lat="45.06261" lon="5.95196">
        <ele>2090</ele>
        <time>2020-02-14T12:28:51.146Z</time>
      </trkpt>
      <trkpt lat="45.06249" lon="5.95173">
        <ele>2088</ele>
        <time>2020-02-14T12:28:56.000Z</time>
      </trkpt>
      <trkpt lat="45.06239" lon="5.95157">
        <ele>2087</ele>
        <time>2020-02-14T12:28:57.882Z</time>
      </trkpt>
      <trkpt lat="45.0623" lon="5.95141">
        <ele>2087</ele>
        <time>2020-02-14T12:29:01.128Z</time>
      </trkpt>
      <trkpt lat="45.06219" lon="5.95122">
        <ele>2085</ele>
        <time>2020-02-14T12:29:06.000Z</time>
      </trkpt>
      <trkpt lat="45.06208" lon="5.95104">
        <ele>2083</ele>
        <time>2020-02-14T12:29:09.000Z</time>
      </trkpt>
      <trkpt lat="45.06194" lon="5.95074">
        <ele>2082</ele>
        <time>2020-02-14T12:29:13.000Z</time>
      </trkpt>
      <trkpt lat="45.0618" lon="5.95047">
        <ele>2081</ele>
        <time>2020-02-14T12:29:17.000Z</time>
      </trkpt>
      <trkpt lat="45.06169" lon="5.95027">
        <ele>2080</ele>
        <time>2020-02-14T12:29:20.000Z</time>
      </trkpt>
      <trkpt lat="45.06155" lon="5.95003">
        <ele>2080</ele>
        <time>2020-02-14T12:29:24.000Z</time>
      </trkpt>
      <trkpt lat="45.06146" lon="5.94987">
        <ele>2080</ele>
        <time>2020-02-14T12:29:27.000Z</time>
      </trkpt>
      <trkpt lat="45.06139" lon="5.94973">
        <ele>2080</ele>
        <time>2020-02-14T12:29:31.000Z</time>
      </trkpt>
      <trkpt lat="45.06131" lon="5.94963">
        <ele>2078</ele>
        <time>2020-02-14T12:29:33.240Z</time>
      </trkpt>
      <trkpt lat="45.06123" lon="5.94953">
        <ele>2077</ele>
        <time>2020-02-14T12:29:36.641Z</time>
      </trkpt>
      <trkpt lat="45.06112" lon="5.9494">
        <ele>2076</ele>
        <time>2020-02-14T12:29:42.000Z</time>
      </trkpt>
      <trkpt lat="45.06097" lon="5.94924">
        <ele>2074</ele>
        <time>2020-02-14T12:29:46.000Z</time>
      </trkpt>
      <trkpt lat="45.06085" lon="5.94908">
        <ele>2073</ele>
        <time>2020-02-14T12:29:49.000Z</time>
      </trkpt>
      <trkpt lat="45.06074" lon="5.94892">
        <ele>2071</ele>
        <time>2020-02-14T12:29:52.000Z</time>
      </trkpt>
      <trkpt lat="45.06061" lon="5.94875">
        <ele>2070</ele>
        <time>2020-02-14T12:29:55.000Z</time>
      </trkpt>
      <trkpt lat="45.0605" lon="5.94864">
        <ele>2069</ele>
        <time>2020-02-14T12:29:58.000Z</time>
      </trkpt>
      <trkpt lat="45.06034" lon="5.94846">
        <ele>2067</ele>
        <time>2020-02-14T12:30:02.000Z</time>
      </trkpt>
      <trkpt lat="45.06012" lon="5.94828">
        <ele>2065</ele>
        <time>2020-02-14T12:30:06.000Z</time>
      </trkpt>
      <trkpt lat="45.05996" lon="5.94817">
        <ele>2064</ele>
        <time>2020-02-14T12:30:09.000Z</time>
      </trkpt>
      <trkpt lat="45.05983" lon="5.94815">
        <ele>2065</ele>
        <time>2020-02-14T12:30:12.000Z</time>
      </trkpt>
      <trkpt lat="45.05965" lon="5.94806">
        <ele>2064</ele>
        <time>2020-02-14T12:30:16.000Z</time>
      </trkpt>
      <trkpt lat="45.05957" lon="5.948">
        <ele>2063</ele>
        <time>2020-02-14T12:30:19.000Z</time>
      </trkpt>
      <trkpt lat="45.05947" lon="5.9479">
        <ele>2062</ele>
        <time>2020-02-14T12:30:22.000Z</time>
      </trkpt>
      <trkpt lat="45.05925" lon="5.94765">
        <ele>2059</ele>
        <time>2020-02-14T12:30:26.000Z</time>
      </trkpt>
      <trkpt lat="45.0591" lon="5.94747">
        <ele>2058</ele>
        <time>2020-02-14T12:30:29.000Z</time>
      </trkpt>
      <trkpt lat="45.05904" lon="5.94731">
        <ele>2056</ele>
        <time>2020-02-14T12:30:32.000Z</time>
      </trkpt>
      <trkpt lat="45.05897" lon="5.94708">
        <ele>2054</ele>
        <time>2020-02-14T12:30:36.000Z</time>
      </trkpt>
      <trkpt lat="45.05892" lon="5.94692">
        <ele>2053</ele>
        <time>2020-02-14T12:30:39.000Z</time>
      </trkpt>
      <trkpt lat="45.05886" lon="5.94677">
        <ele>2051</ele>
        <time>2020-02-14T12:30:43.000Z</time>
      </trkpt>
      <trkpt lat="45.05881" lon="5.9467">
        <ele>2050</ele>
        <time>2020-02-14T12:30:47.000Z</time>
      </trkpt>
      <trkpt lat="45.05875" lon="5.94661">
        <ele>2049</ele>
        <time>2020-02-14T12:30:48.997Z</time>
      </trkpt>
      <trkpt lat="45.05866" lon="5.9465">
        <ele>2046</ele>
        <time>2020-02-14T12:30:54.000Z</time>
      </trkpt>
      <trkpt lat="45.05849" lon="5.94635">
        <ele>2042</ele>
        <time>2020-02-14T12:30:57.000Z</time>
      </trkpt>
      <trkpt lat="45.05825" lon="5.94622">
        <ele>2039</ele>
        <time>2020-02-14T12:31:01.000Z</time>
      </trkpt>
      <trkpt lat="45.05814" lon="5.94614">
        <ele>2039</ele>
        <time>2020-02-14T12:31:02.966Z</time>
      </trkpt>
      <trkpt lat="45.05802" lon="5.94606">
        <ele>2038</ele>
        <time>2020-02-14T12:31:05.982Z</time>
      </trkpt>
      <trkpt lat="45.05791" lon="5.94597">
        <ele>2037</ele>
        <time>2020-02-14T12:31:11.000Z</time>
      </trkpt>
      <trkpt lat="45.05786" lon="5.94598">
        <ele>2036</ele>
        <time>2020-02-14T12:32:45.000Z</time>
      </trkpt>
      <trkpt lat="45.0578" lon="5.94593">
        <ele>2036</ele>
        <time>2020-02-14T12:32:49.320Z</time>
      </trkpt>
      <trkpt lat="45.05772" lon="5.94587">
        <ele>2037</ele>
        <time>2020-02-14T12:32:58.000Z</time>
      </trkpt>
      <trkpt lat="45.05766" lon="5.94585">
        <ele>2036</ele>
        <time>2020-02-14T12:33:04.000Z</time>
      </trkpt>
      <trkpt lat="45.05762" lon="5.94583">
        <ele>2036</ele>
        <time>2020-02-14T12:33:15.000Z</time>
      </trkpt>
      <trkpt lat="45.05756" lon="5.94585">
        <ele>2035</ele>
        <time>2020-02-14T12:33:40.000Z</time>
      </trkpt>
      <trkpt lat="45.05751" lon="5.94582">
        <ele>2035</ele>
        <time>2020-02-14T12:33:48.771Z</time>
      </trkpt>
      <trkpt lat="45.05745" lon="5.94581">
        <ele>2034</ele>
        <time>2020-02-14T12:34:03.000Z</time>
      </trkpt>
      <trkpt lat="45.0574" lon="5.9458">
        <ele>2034</ele>
        <time>2020-02-14T12:34:12.000Z</time>
      </trkpt>
      <trkpt lat="45.05734" lon="5.94582">
        <ele>2031</ele>
        <time>2020-02-14T12:34:27.632Z</time>
      </trkpt>
      <trkpt lat="45.0573" lon="5.94583">
        <ele>2033</ele>
        <time>2020-02-14T12:34:39.000Z</time>
      </trkpt>
      <trkpt lat="45.05725" lon="5.94584">
        <ele>2033</ele>
        <time>2020-02-14T12:34:49.000Z</time>
      </trkpt>
      <trkpt lat="45.05721" lon="5.94582">
        <ele>2033</ele>
        <time>2020-02-14T12:35:03.418Z</time>
      </trkpt>
      <trkpt lat="45.05714" lon="5.9458">
        <ele>2033</ele>
        <time>2020-02-14T12:35:22.579Z</time>
      </trkpt>
      <trkpt lat="45.05709" lon="5.94578">
        <ele>2034</ele>
        <time>2020-02-14T12:35:45.000Z</time>
      </trkpt>
      <trkpt lat="45.05704" lon="5.94575">
        <ele>2033</ele>
        <time>2020-02-14T12:36:01.519Z</time>
      </trkpt>
      <trkpt lat="45.057" lon="5.94572">
        <ele>2033</ele>
        <time>2020-02-14T12:36:21.056Z</time>
      </trkpt>
      <trkpt lat="45.05695" lon="5.94574">
        <ele>2033</ele>
        <time>2020-02-14T12:36:42.161Z</time>
      </trkpt>
      <trkpt lat="45.0569" lon="5.94576">
        <ele>2032</ele>
        <time>2020-02-14T12:36:55.236Z</time>
      </trkpt>
      <trkpt lat="45.05685" lon="5.94576">
        <ele>2033</ele>
        <time>2020-02-14T12:37:15.517Z</time>
      </trkpt>
      <trkpt lat="45.05682" lon="5.94581">
        <ele>2033</ele>
        <time>2020-02-14T12:37:31.000Z</time>
      </trkpt>
      <trkpt lat="45.05677" lon="5.94576">
        <ele>2035</ele>
        <time>2020-02-14T12:37:45.978Z</time>
      </trkpt>
      <trkpt lat="45.05675" lon="5.94571">
        <ele>2035</ele>
        <time>2020-02-14T12:37:56.201Z</time>
      </trkpt>
      <trkpt lat="45.05675" lon="5.94561">
        <ele>2037</ele>
        <time>2020-02-14T12:38:10.326Z</time>
      </trkpt>
      <trkpt lat="45.0567" lon="5.94562">
        <ele>2044</ele>
        <time>2020-02-14T12:39:09.927Z</time>
      </trkpt>
      <trkpt lat="45.05669" lon="5.94571">
        <ele>2043</ele>
        <time>2020-02-14T12:39:25.000Z</time>
      </trkpt>
      <trkpt lat="45.05666" lon="5.94578">
        <ele>2043</ele>
        <time>2020-02-14T12:39:30.500Z</time>
      </trkpt>
      <trkpt lat="45.05663" lon="5.94582">
        <ele>2042</ele>
        <time>2020-02-14T12:39:37.800Z</time>
      </trkpt>
      <trkpt lat="45.05658" lon="5.94585">
        <ele>2042</ele>
        <time>2020-02-14T12:39:56.000Z</time>
      </trkpt>
      <trkpt lat="45.05654" lon="5.94586">
        <ele>2043</ele>
        <time>2020-02-14T12:40:11.757Z</time>
      </trkpt>
      <trkpt lat="45.05649" lon="5.94586">
        <ele>2044</ele>
        <time>2020-02-14T12:40:24.757Z</time>
      </trkpt>
      <trkpt lat="45.05644" lon="5.94583">
        <ele>2045</ele>
        <time>2020-02-14T12:40:45.527Z</time>
      </trkpt>
      <trkpt lat="45.0564" lon="5.94588">
        <ele>2048</ele>
        <time>2020-02-14T12:41:21.232Z</time>
      </trkpt>
      <trkpt lat="45.05639" lon="5.94594">
        <ele>2051</ele>
        <time>2020-02-14T12:41:45.700Z</time>
      </trkpt>
      <trkpt lat="45.05634" lon="5.94599">
        <ele>2053</ele>
        <time>2020-02-14T12:42:05.000Z</time>
      </trkpt>
      <trkpt lat="45.05629" lon="5.94601">
        <ele>2054</ele>
        <time>2020-02-14T12:42:21.205Z</time>
      </trkpt>
      <trkpt lat="45.05624" lon="5.94602">
        <ele>2054</ele>
        <time>2020-02-14T12:42:41.000Z</time>
      </trkpt>
      <trkpt lat="45.05619" lon="5.94599">
        <ele>2054</ele>
        <time>2020-02-14T12:42:57.096Z</time>
      </trkpt>
      <trkpt lat="45.05617" lon="5.94594">
        <ele>2055</ele>
        <time>2020-02-14T12:43:23.000Z</time>
      </trkpt>
      <trkpt lat="45.05616" lon="5.946">
        <ele>2058</ele>
        <time>2020-02-14T12:43:59.000Z</time>
      </trkpt>
      <trkpt lat="45.05611" lon="5.94599">
        <ele>2058</ele>
        <time>2020-02-14T12:44:13.000Z</time>
      </trkpt>
      <trkpt lat="45.05606" lon="5.946">
        <ele>2061</ele>
        <time>2020-02-14T12:44:31.000Z</time>
      </trkpt>
      <trkpt lat="45.05601" lon="5.94599">
        <ele>2064</ele>
        <time>2020-02-14T12:44:46.154Z</time>
      </trkpt>
      <trkpt lat="45.05597" lon="5.94597">
        <ele>2062</ele>
        <time>2020-02-14T12:45:07.000Z</time>
      </trkpt>
      <trkpt lat="45.0559" lon="5.94595">
        <ele>2064</ele>
        <time>2020-02-14T12:45:18.000Z</time>
      </trkpt>
      <trkpt lat="45.05585" lon="5.94592">
        <ele>2066</ele>
        <time>2020-02-14T12:45:32.000Z</time>
      </trkpt>
      <trkpt lat="45.0558" lon="5.94592">
        <ele>2068</ele>
        <time>2020-02-14T12:45:45.000Z</time>
      </trkpt>
      <trkpt lat="45.05574" lon="5.94594">
        <ele>2067</ele>
        <time>2020-02-14T12:45:56.000Z</time>
      </trkpt>
      <trkpt lat="45.05569" lon="5.94597">
        <ele>2068</ele>
        <time>2020-02-14T12:45:59.000Z</time>
      </trkpt>
      <trkpt lat="45.05561" lon="5.94602">
        <ele>2070</ele>
        <time>2020-02-14T12:46:06.000Z</time>
      </trkpt>
      <trkpt lat="45.05556" lon="5.94604">
        <ele>2069</ele>
        <time>2020-02-14T12:46:10.000Z</time>
      </trkpt>
      <trkpt lat="45.0555" lon="5.94608">
        <ele>2069</ele>
        <time>2020-02-14T12:46:13.000Z</time>
      </trkpt>
      <trkpt lat="45.05544" lon="5.94611">
        <ele>2069</ele>
        <time>2020-02-14T12:46:17.000Z</time>
      </trkpt>
      <trkpt lat="45.05538" lon="5.94616">
        <ele>2070</ele>
        <time>2020-02-14T12:46:20.000Z</time>
      </trkpt>
      <trkpt lat="45.05531" lon="5.94623">
        <ele>2069</ele>
        <time>2020-02-14T12:46:24.000Z</time>
      </trkpt>
      <trkpt lat="45.05525" lon="5.94629">
        <ele>2069</ele>
        <time>2020-02-14T12:46:27.000Z</time>
      </trkpt>
      <trkpt lat="45.05517" lon="5.94636">
        <ele>2069</ele>
        <time>2020-02-14T12:46:31.000Z</time>
      </trkpt>
      <trkpt lat="45.0551" lon="5.94642">
        <ele>2069</ele>
        <time>2020-02-14T12:46:34.000Z</time>
      </trkpt>
      <trkpt lat="45.05503" lon="5.94649">
        <ele>2070</ele>
        <time>2020-02-14T12:46:38.000Z</time>
      </trkpt>
      <trkpt lat="45.05495" lon="5.94659">
        <ele>2069</ele>
        <time>2020-02-14T12:46:39.822Z</time>
      </trkpt>
      <trkpt lat="45.05489" lon="5.94665">
        <ele>2069</ele>
        <time>2020-02-14T12:46:42.856Z</time>
      </trkpt>
      <trkpt lat="45.05482" lon="5.9467">
        <ele>2068</ele>
        <time>2020-02-14T12:46:45.899Z</time>
      </trkpt>
      <trkpt lat="45.05475" lon="5.94675">
        <ele>2068</ele>
        <time>2020-02-14T12:46:49.442Z</time>
      </trkpt>
      <trkpt lat="45.0547" lon="5.94681">
        <ele>2068</ele>
        <time>2020-02-14T12:46:58.000Z</time>
      </trkpt>
      <trkpt lat="45.05464" lon="5.94686">
        <ele>2067</ele>
        <time>2020-02-14T12:47:02.000Z</time>
      </trkpt>
      <trkpt lat="45.05458" lon="5.94691">
        <ele>2068</ele>
        <time>2020-02-14T12:47:06.000Z</time>
      </trkpt>
      <trkpt lat="45.05452" lon="5.94694">
        <ele>2067</ele>
        <time>2020-02-14T12:47:16.000Z</time>
      </trkpt>
      <trkpt lat="45.05444" lon="5.94698">
        <ele>2065</ele>
        <time>2020-02-14T12:47:25.552Z</time>
      </trkpt>
      <trkpt lat="45.05438" lon="5.94699">
        <ele>2066</ele>
        <time>2020-02-14T12:47:30.000Z</time>
      </trkpt>
      <trkpt lat="45.05432" lon="5.94702">
        <ele>2063</ele>
        <time>2020-02-14T12:47:39.223Z</time>
      </trkpt>
      <trkpt lat="45.05426" lon="5.94702">
        <ele>2062</ele>
        <time>2020-02-14T12:47:51.000Z</time>
      </trkpt>
      <trkpt lat="45.05422" lon="5.94698">
        <ele>2061</ele>
        <time>2020-02-14T12:48:00.776Z</time>
      </trkpt>
      <trkpt lat="45.05417" lon="5.94694">
        <ele>2063</ele>
        <time>2020-02-14T12:48:16.000Z</time>
      </trkpt>
      <trkpt lat="45.05413" lon="5.94698">
        <ele>2063</ele>
        <time>2020-02-14T12:48:52.978Z</time>
      </trkpt>
      <trkpt lat="45.05408" lon="5.94695">
        <ele>2065</ele>
        <time>2020-02-14T12:49:03.124Z</time>
      </trkpt>
      <trkpt lat="45.05404" lon="5.94691">
        <ele>2064</ele>
        <time>2020-02-14T12:49:12.000Z</time>
      </trkpt>
      <trkpt lat="45.054" lon="5.94689">
        <ele>2064</ele>
        <time>2020-02-14T12:49:23.000Z</time>
      </trkpt>
      <trkpt lat="45.05397" lon="5.94684">
        <ele>2066</ele>
        <time>2020-02-14T12:49:55.000Z</time>
      </trkpt>
      <trkpt lat="45.05398" lon="5.94677">
        <ele>2066</ele>
        <time>2020-02-14T12:50:07.120Z</time>
      </trkpt>
      <trkpt lat="45.05393" lon="5.94674">
        <ele>2067</ele>
        <time>2020-02-14T12:50:23.000Z</time>
      </trkpt>
      <trkpt lat="45.05389" lon="5.94671">
        <ele>2066</ele>
        <time>2020-02-14T12:50:41.000Z</time>
      </trkpt>
      <trkpt lat="45.05384" lon="5.94672">
        <ele>2062</ele>
        <time>2020-02-14T12:50:51.000Z</time>
      </trkpt>
      <trkpt lat="45.0538" lon="5.94665">
        <ele>2064</ele>
        <time>2020-02-14T12:51:04.217Z</time>
      </trkpt>
      <trkpt lat="45.05376" lon="5.94662">
        <ele>2065</ele>
        <time>2020-02-14T12:51:19.000Z</time>
      </trkpt>
      <trkpt lat="45.05372" lon="5.94655">
        <ele>2066</ele>
        <time>2020-02-14T12:51:36.431Z</time>
      </trkpt>
      <trkpt lat="45.05362" lon="5.94661">
        <ele>2069</ele>
        <time>2020-02-14T12:51:54.000Z</time>
      </trkpt>
      <trkpt lat="45.05353" lon="5.94664">
        <ele>2069</ele>
        <time>2020-02-14T12:51:57.000Z</time>
      </trkpt>
      <trkpt lat="45.05337" lon="5.94669">
        <ele>2071</ele>
        <time>2020-02-14T12:52:01.000Z</time>
      </trkpt>
      <trkpt lat="45.0533" lon="5.94673">
        <ele>2071</ele>
        <time>2020-02-14T12:52:05.000Z</time>
      </trkpt>
      <trkpt lat="45.05325" lon="5.94676">
        <ele>2071</ele>
        <time>2020-02-14T12:52:07.533Z</time>
      </trkpt>
      <trkpt lat="45.05321" lon="5.9468">
        <ele>2071</ele>
        <time>2020-02-14T12:52:12.000Z</time>
      </trkpt>
      <trkpt lat="45.05313" lon="5.94686">
        <ele>2071</ele>
        <time>2020-02-14T12:52:16.000Z</time>
      </trkpt>
      <trkpt lat="45.05308" lon="5.94687">
        <ele>2070</ele>
        <time>2020-02-14T12:52:19.000Z</time>
      </trkpt>
      <trkpt lat="45.05303" lon="5.94689">
        <ele>2070</ele>
        <time>2020-02-14T12:52:23.000Z</time>
      </trkpt>
      <trkpt lat="45.05297" lon="5.94691">
        <ele>2070</ele>
        <time>2020-02-14T12:52:28.296Z</time>
      </trkpt>
      <trkpt lat="45.05291" lon="5.94691">
        <ele>2070</ele>
        <time>2020-02-14T12:52:41.000Z</time>
      </trkpt>
      <trkpt lat="45.05286" lon="5.9469">
        <ele>2071</ele>
        <time>2020-02-14T12:52:53.473Z</time>
      </trkpt>
      <trkpt lat="45.05283" lon="5.94686">
        <ele>2071</ele>
        <time>2020-02-14T12:53:04.395Z</time>
      </trkpt>
      <trkpt lat="45.05274" lon="5.94698">
        <ele>2070</ele>
        <time>2020-02-14T12:53:17.402Z</time>
      </trkpt>
      <trkpt lat="45.05264" lon="5.94703">
        <ele>2069</ele>
        <time>2020-02-14T12:53:22.000Z</time>
      </trkpt>
      <trkpt lat="45.05256" lon="5.94709">
        <ele>2068</ele>
        <time>2020-02-14T12:53:25.000Z</time>
      </trkpt>
      <trkpt lat="45.05249" lon="5.94715">
        <ele>2068</ele>
        <time>2020-02-14T12:53:26.981Z</time>
      </trkpt>
      <trkpt lat="45.05241" lon="5.94722">
        <ele>2066</ele>
        <time>2020-02-14T12:53:32.000Z</time>
      </trkpt>
      <trkpt lat="45.05238" lon="5.9474">
        <ele>2064</ele>
        <time>2020-02-14T12:53:36.000Z</time>
      </trkpt>
      <trkpt lat="45.05228" lon="5.94767">
        <ele>2060</ele>
        <time>2020-02-14T12:53:40.000Z</time>
      </trkpt>
      <trkpt lat="45.05221" lon="5.9478">
        <ele>2058</ele>
        <time>2020-02-14T12:53:43.000Z</time>
      </trkpt>
      <trkpt lat="45.05218" lon="5.94789">
        <ele>2056</ele>
        <time>2020-02-14T12:53:45.235Z</time>
      </trkpt>
      <trkpt lat="45.05215" lon="5.94796">
        <ele>2055</ele>
        <time>2020-02-14T12:53:54.000Z</time>
      </trkpt>
      <trkpt lat="45.05206" lon="5.94809">
        <ele>2050</ele>
        <time>2020-02-14T12:54:12.115Z</time>
      </trkpt>
      <trkpt lat="45.05195" lon="5.94815">
        <ele>2048</ele>
        <time>2020-02-14T12:54:17.000Z</time>
      </trkpt>
      <trkpt lat="45.05191" lon="5.94817">
        <ele>2046</ele>
        <time>2020-02-14T12:54:19.180Z</time>
      </trkpt>
      <trkpt lat="45.05183" lon="5.94818">
        <ele>2043</ele>
        <time>2020-02-14T12:54:23.019Z</time>
      </trkpt>
      <trkpt lat="45.05175" lon="5.9483">
        <ele>2041</ele>
        <time>2020-02-14T12:54:28.000Z</time>
      </trkpt>
      <trkpt lat="45.05159" lon="5.94848">
        <ele>2032</ele>
        <time>2020-02-14T12:54:32.000Z</time>
      </trkpt>
      <trkpt lat="45.05149" lon="5.94867">
        <ele>2030</ele>
        <time>2020-02-14T12:54:35.000Z</time>
      </trkpt>
      <trkpt lat="45.05155" lon="5.94859">
        <ele>2028</ele>
        <time>2020-02-14T12:54:38.000Z</time>
      </trkpt>
      <trkpt lat="45.05144" lon="5.94882">
        <ele>2027</ele>
        <time>2020-02-14T12:54:41.000Z</time>
      </trkpt>
      <trkpt lat="45.05136" lon="5.94889">
        <ele>2025</ele>
        <time>2020-02-14T12:54:43.387Z</time>
      </trkpt>
      <trkpt lat="45.05134" lon="5.949">
        <ele>2020</ele>
        <time>2020-02-14T12:55:03.000Z</time>
      </trkpt>
      <trkpt lat="45.05128" lon="5.94903">
        <ele>2016</ele>
        <time>2020-02-14T12:55:13.000Z</time>
      </trkpt>
      <trkpt lat="45.05129" lon="5.94916">
        <ele>2014</ele>
        <time>2020-02-14T12:55:18.226Z</time>
      </trkpt>
      <trkpt lat="45.05117" lon="5.94917">
        <ele>2007</ele>
        <time>2020-02-14T12:55:26.000Z</time>
      </trkpt>
      <trkpt lat="45.05109" lon="5.9491">
        <ele>2005</ele>
        <time>2020-02-14T12:55:27.946Z</time>
      </trkpt>
      <trkpt lat="45.05102" lon="5.94913">
        <ele>2002</ele>
        <time>2020-02-14T12:55:33.000Z</time>
      </trkpt>
      <trkpt lat="45.05105" lon="5.94919">
        <ele>1997</ele>
        <time>2020-02-14T12:55:42.102Z</time>
      </trkpt>
      <trkpt lat="45.05097" lon="5.94903">
        <ele>1995</ele>
        <time>2020-02-14T12:55:47.000Z</time>
      </trkpt>
      <trkpt lat="45.05088" lon="5.9489">
        <ele>1994</ele>
        <time>2020-02-14T12:55:51.000Z</time>
      </trkpt>
      <trkpt lat="45.05083" lon="5.94889">
        <ele>1991</ele>
        <time>2020-02-14T12:55:55.000Z</time>
      </trkpt>
      <trkpt lat="45.05078" lon="5.94888">
        <ele>1992</ele>
        <time>2020-02-14T12:56:18.000Z</time>
      </trkpt>
      <trkpt lat="45.0508" lon="5.94909">
        <ele>1990</ele>
        <time>2020-02-14T12:56:38.000Z</time>
      </trkpt>
      <trkpt lat="45.05078" lon="5.94931">
        <ele>1985</ele>
        <time>2020-02-14T12:56:41.000Z</time>
      </trkpt>
      <trkpt lat="45.05075" lon="5.9495">
        <ele>1984</ele>
        <time>2020-02-14T12:56:44.000Z</time>
      </trkpt>
      <trkpt lat="45.05068" lon="5.9498">
        <ele>1980</ele>
        <time>2020-02-14T12:56:48.000Z</time>
      </trkpt>
      <trkpt lat="45.05062" lon="5.94995">
        <ele>1976</ele>
        <time>2020-02-14T12:56:51.000Z</time>
      </trkpt>
      <trkpt lat="45.05057" lon="5.95018">
        <ele>1970</ele>
        <time>2020-02-14T12:56:55.000Z</time>
      </trkpt>
      <trkpt lat="45.05055" lon="5.95035">
        <ele>1966</ele>
        <time>2020-02-14T12:56:56.897Z</time>
      </trkpt>
      <trkpt lat="45.05052" lon="5.95047">
        <ele>1962</ele>
        <time>2020-02-14T12:57:02.000Z</time>
      </trkpt>
      <trkpt lat="45.05033" lon="5.95064">
        <ele>1956</ele>
        <time>2020-02-14T12:57:06.000Z</time>
      </trkpt>
      <trkpt lat="45.05025" lon="5.95072">
        <ele>1953</ele>
        <time>2020-02-14T12:57:07.680Z</time>
      </trkpt>
      <trkpt lat="45.0502" lon="5.95073">
        <ele>1952</ele>
        <time>2020-02-14T12:57:16.000Z</time>
      </trkpt>
      <trkpt lat="45.05025" lon="5.9507">
        <ele>1949</ele>
        <time>2020-02-14T12:58:05.000Z</time>
      </trkpt>
      <trkpt lat="45.05022" lon="5.95077">
        <ele>1948</ele>
        <time>2020-02-14T12:58:08.000Z</time>
      </trkpt>
      <trkpt lat="45.0502" lon="5.95084">
        <ele>1944</ele>
        <time>2020-02-14T12:58:15.000Z</time>
      </trkpt>
      <trkpt lat="45.05019" lon="5.95113">
        <ele>1937</ele>
        <time>2020-02-14T12:58:19.000Z</time>
      </trkpt>
      <trkpt lat="45.05018" lon="5.95133">
        <ele>1928</ele>
        <time>2020-02-14T12:58:23.000Z</time>
      </trkpt>
      <trkpt lat="45.05016" lon="5.95147">
        <ele>1926</ele>
        <time>2020-02-14T12:58:25.262Z</time>
      </trkpt>
      <trkpt lat="45.0503" lon="5.95166">
        <ele>1918</ele>
        <time>2020-02-14T12:58:30.000Z</time>
      </trkpt>
      <trkpt lat="45.05045" lon="5.95189">
        <ele>1912</ele>
        <time>2020-02-14T12:58:33.000Z</time>
      </trkpt>
      <trkpt lat="45.05058" lon="5.95184">
        <ele>1903</ele>
        <time>2020-02-14T12:58:37.000Z</time>
      </trkpt>
      <trkpt lat="45.05066" lon="5.95181">
        <ele>1900</ele>
        <time>2020-02-14T12:58:38.842Z</time>
      </trkpt>
      <trkpt lat="45.05073" lon="5.95183">
        <ele>1897</ele>
        <time>2020-02-14T12:58:44.000Z</time>
      </trkpt>
      <trkpt lat="45.05077" lon="5.95198">
        <ele>1892</ele>
        <time>2020-02-14T12:58:48.000Z</time>
      </trkpt>
      <trkpt lat="45.05081" lon="5.9519">
        <ele>1888</ele>
        <time>2020-02-14T12:59:10.000Z</time>
      </trkpt>
      <trkpt lat="45.05088" lon="5.95218">
        <ele>1881</ele>
        <time>2020-02-14T12:59:17.000Z</time>
      </trkpt>
      <trkpt lat="45.051" lon="5.95245">
        <ele>1878</ele>
        <time>2020-02-14T12:59:20.000Z</time>
      </trkpt>
      <trkpt lat="45.05115" lon="5.95259">
        <ele>1875</ele>
        <time>2020-02-14T12:59:24.000Z</time>
      </trkpt>
      <trkpt lat="45.05127" lon="5.95276">
        <ele>1869</ele>
        <time>2020-02-14T12:59:27.000Z</time>
      </trkpt>
      <trkpt lat="45.05137" lon="5.95289">
        <ele>1864</ele>
        <time>2020-02-14T12:59:30.000Z</time>
      </trkpt>
      <trkpt lat="45.05154" lon="5.95295">
        <ele>1863</ele>
        <time>2020-02-14T12:59:34.000Z</time>
      </trkpt>
      <trkpt lat="45.05154" lon="5.95303">
        <ele>1853</ele>
        <time>2020-02-14T12:59:41.000Z</time>
      </trkpt>
      <trkpt lat="45.05155" lon="5.95312">
        <ele>1846</ele>
        <time>2020-02-14T13:00:01.000Z</time>
      </trkpt>
      <trkpt lat="45.0517" lon="5.95342">
        <ele>1843</ele>
        <time>2020-02-14T13:00:05.000Z</time>
      </trkpt>
      <trkpt lat="45.05175" lon="5.95368">
        <ele>1839</ele>
        <time>2020-02-14T13:00:08.000Z</time>
      </trkpt>
      <trkpt lat="45.05187" lon="5.95391">
        <ele>1835</ele>
        <time>2020-02-14T13:00:12.000Z</time>
      </trkpt>
      <trkpt lat="45.05192" lon="5.95413">
        <ele>1828</ele>
        <time>2020-02-14T13:00:16.000Z</time>
      </trkpt>
      <trkpt lat="45.052" lon="5.9544">
        <ele>1823</ele>
        <time>2020-02-14T13:00:20.000Z</time>
      </trkpt>
      <trkpt lat="45.05202" lon="5.95447">
        <ele>1821</ele>
        <time>2020-02-14T13:00:23.000Z</time>
      </trkpt>
      <trkpt lat="45.05206" lon="5.95455">
        <ele>1818</ele>
        <time>2020-02-14T13:00:26.000Z</time>
      </trkpt>
      <trkpt lat="45.05216" lon="5.95472">
        <ele>1812</ele>
        <time>2020-02-14T13:00:29.000Z</time>
      </trkpt>
      <trkpt lat="45.05221" lon="5.95483">
        <ele>1809</ele>
        <time>2020-02-14T13:00:31.223Z</time>
      </trkpt>
      <trkpt lat="45.05224" lon="5.95487">
        <ele>1809</ele>
        <time>2020-02-14T13:00:44.000Z</time>
      </trkpt>
      <trkpt lat="45.05229" lon="5.9548">
        <ele>1805</ele>
        <time>2020-02-14T13:03:50.000Z</time>
      </trkpt>
      <trkpt lat="45.05237" lon="5.95471">
        <ele>1801</ele>
        <time>2020-02-14T13:03:54.000Z</time>
      </trkpt>
      <trkpt lat="45.05242" lon="5.95471">
        <ele>1798</ele>
        <time>2020-02-14T13:03:57.000Z</time>
      </trkpt>
      <trkpt lat="45.05255" lon="5.95484">
        <ele>1793</ele>
        <time>2020-02-14T13:04:01.000Z</time>
      </trkpt>
      <trkpt lat="45.05265" lon="5.95491">
        <ele>1791</ele>
        <time>2020-02-14T13:04:04.000Z</time>
      </trkpt>
      <trkpt lat="45.0528" lon="5.95502">
        <ele>1788</ele>
        <time>2020-02-14T13:04:07.000Z</time>
      </trkpt>
      <trkpt lat="45.05289" lon="5.95528">
        <ele>1785</ele>
        <time>2020-02-14T13:04:11.000Z</time>
      </trkpt>
      <trkpt lat="45.05296" lon="5.95539">
        <ele>1781</ele>
        <time>2020-02-14T13:04:14.000Z</time>
      </trkpt>
      <trkpt lat="45.05312" lon="5.95548">
        <ele>1779</ele>
        <time>2020-02-14T13:04:17.000Z</time>
      </trkpt>
      <trkpt lat="45.05335" lon="5.95561">
        <ele>1777</ele>
        <time>2020-02-14T13:04:21.000Z</time>
      </trkpt>
      <trkpt lat="45.05358" lon="5.9557">
        <ele>1775</ele>
        <time>2020-02-14T13:04:25.000Z</time>
      </trkpt>
      <trkpt lat="45.05384" lon="5.95576">
        <ele>1771</ele>
        <time>2020-02-14T13:04:29.000Z</time>
      </trkpt>
      <trkpt lat="45.054" lon="5.95577">
        <ele>1769</ele>
        <time>2020-02-14T13:04:32.000Z</time>
      </trkpt>
      <trkpt lat="45.05412" lon="5.95575">
        <ele>1762</ele>
        <time>2020-02-14T13:04:36.000Z</time>
      </trkpt>
      <trkpt lat="45.05437" lon="5.95576">
        <ele>1758</ele>
        <time>2020-02-14T13:04:43.000Z</time>
      </trkpt>
      <trkpt lat="45.05438" lon="5.95569">
        <ele>1756</ele>
        <time>2020-02-14T13:04:50.000Z</time>
      </trkpt>
      <trkpt lat="45.05441" lon="5.95563">
        <ele>1754</ele>
        <time>2020-02-14T13:05:04.000Z</time>
      </trkpt>
      <trkpt lat="45.05444" lon="5.95553">
        <ele>1754</ele>
        <time>2020-02-14T13:05:19.000Z</time>
      </trkpt>
      <trkpt lat="45.05448" lon="5.95548">
        <ele>1755</ele>
        <time>2020-02-14T13:05:34.000Z</time>
      </trkpt>
      <trkpt lat="45.05454" lon="5.95546">
        <ele>1755</ele>
        <time>2020-02-14T13:05:37.000Z</time>
      </trkpt>
      <trkpt lat="45.05445" lon="5.95545">
        <ele>1753</ele>
        <time>2020-02-14T13:05:47.000Z</time>
      </trkpt>
      <trkpt lat="45.05441" lon="5.95543">
        <ele>1753</ele>
        <time>2020-02-14T13:05:54.170Z</time>
      </trkpt>
      <trkpt lat="45.05439" lon="5.95535">
        <ele>1752</ele>
        <time>2020-02-14T13:06:07.246Z</time>
      </trkpt>
      <trkpt lat="45.05436" lon="5.9553">
        <ele>1752</ele>
        <time>2020-02-14T13:06:14.358Z</time>
      </trkpt>
      <trkpt lat="45.05435" lon="5.95523">
        <ele>1751</ele>
        <time>2020-02-14T13:06:25.000Z</time>
      </trkpt>
      <trkpt lat="45.05428" lon="5.95519">
        <ele>1750</ele>
        <time>2020-02-14T13:06:52.000Z</time>
      </trkpt>
      <trkpt lat="45.05426" lon="5.95513">
        <ele>1749</ele>
        <time>2020-02-14T13:07:18.000Z</time>
      </trkpt>
      <trkpt lat="45.05433" lon="5.95509">
        <ele>1750</ele>
        <time>2020-02-14T13:07:26.000Z</time>
      </trkpt>
      <trkpt lat="45.05438" lon="5.95501">
        <ele>1747</ele>
        <time>2020-02-14T13:07:40.064Z</time>
      </trkpt>
      <trkpt lat="45.05441" lon="5.9548">
        <ele>1747</ele>
        <time>2020-02-14T13:07:49.818Z</time>
      </trkpt>
      <trkpt lat="45.05449" lon="5.95479">
        <ele>1747</ele>
        <time>2020-02-14T13:07:56.746Z</time>
      </trkpt>
      <trkpt lat="45.05455" lon="5.9548">
        <ele>1747</ele>
        <time>2020-02-14T13:07:59.983Z</time>
      </trkpt>
      <trkpt lat="45.05462" lon="5.95483">
        <ele>1747</ele>
        <time>2020-02-14T13:08:03.036Z</time>
      </trkpt>
      <trkpt lat="45.05469" lon="5.95488">
        <ele>1745</ele>
        <time>2020-02-14T13:08:07.000Z</time>
      </trkpt>
      <trkpt lat="45.05474" lon="5.95496">
        <ele>1744</ele>
        <time>2020-02-14T13:08:09.802Z</time>
      </trkpt>
      <trkpt lat="45.05481" lon="5.95505">
        <ele>1743</ele>
        <time>2020-02-14T13:08:14.000Z</time>
      </trkpt>
      <trkpt lat="45.05486" lon="5.95512">
        <ele>1743</ele>
        <time>2020-02-14T13:08:17.000Z</time>
      </trkpt>
      <trkpt lat="45.05493" lon="5.95523">
        <ele>1743</ele>
        <time>2020-02-14T13:08:19.472Z</time>
      </trkpt>
      <trkpt lat="45.05498" lon="5.95533">
        <ele>1743</ele>
        <time>2020-02-14T13:08:22.793Z</time>
      </trkpt>
      <trkpt lat="45.05504" lon="5.95542">
        <ele>1743</ele>
        <time>2020-02-14T13:08:27.000Z</time>
      </trkpt>
      <trkpt lat="45.05512" lon="5.95549">
        <ele>1742</ele>
        <time>2020-02-14T13:08:30.000Z</time>
      </trkpt>
      <trkpt lat="45.05526" lon="5.9556">
        <ele>1741</ele>
        <time>2020-02-14T13:08:32.805Z</time>
      </trkpt>
      <trkpt lat="45.05536" lon="5.95561">
        <ele>1742</ele>
        <time>2020-02-14T13:08:37.000Z</time>
      </trkpt>
      <trkpt lat="45.05534" lon="5.95577">
        <ele>1740</ele>
        <time>2020-02-14T13:08:54.032Z</time>
      </trkpt>
      <trkpt lat="45.0553" lon="5.95583">
        <ele>1739</ele>
        <time>2020-02-14T13:08:58.000Z</time>
      </trkpt>
      <trkpt lat="45.05529" lon="5.95593">
        <ele>1738</ele>
        <time>2020-02-14T13:09:01.000Z</time>
      </trkpt>
      <trkpt lat="45.0553" lon="5.95601">
        <ele>1736</ele>
        <time>2020-02-14T13:09:03.351Z</time>
      </trkpt>
      <trkpt lat="45.05528" lon="5.95614">
        <ele>1734</ele>
        <time>2020-02-14T13:09:10.156Z</time>
      </trkpt>
      <trkpt lat="45.0553" lon="5.95622">
        <ele>1732</ele>
        <time>2020-02-14T13:09:13.486Z</time>
      </trkpt>
      <trkpt lat="45.05533" lon="5.95627">
        <ele>1733</ele>
        <time>2020-02-14T13:09:38.000Z</time>
      </trkpt>
      <trkpt lat="45.05537" lon="5.95632">
        <ele>1736</ele>
        <time>2020-02-14T13:09:59.000Z</time>
      </trkpt>
      <trkpt lat="45.05532" lon="5.95626">
        <ele>1736</ele>
        <time>2020-02-14T13:10:14.000Z</time>
      </trkpt>
      <trkpt lat="45.05538" lon="5.95622">
        <ele>1732</ele>
        <time>2020-02-14T13:11:41.000Z</time>
      </trkpt>
      <trkpt lat="45.05533" lon="5.95629">
        <ele>1729</ele>
        <time>2020-02-14T13:13:01.000Z</time>
      </trkpt>
      <trkpt lat="45.05533" lon="5.95635">
        <ele>1727</ele>
        <time>2020-02-14T13:13:15.170Z</time>
      </trkpt>
      <trkpt lat="45.05537" lon="5.95639">
        <ele>1728</ele>
        <time>2020-02-14T13:13:57.000Z</time>
      </trkpt>
      <trkpt lat="45.05536" lon="5.95646">
        <ele>1718</ele>
        <time>2020-02-14T13:14:20.000Z</time>
      </trkpt>
      <trkpt lat="45.0554" lon="5.95664">
        <ele>1716</ele>
        <time>2020-02-14T13:16:44.540Z</time>
      </trkpt>
      <trkpt lat="45.05541" lon="5.95678">
        <ele>1713</ele>
        <time>2020-02-14T13:16:47.881Z</time>
      </trkpt>
      <trkpt lat="45.05536" lon="5.95698">
        <ele>1710</ele>
        <time>2020-02-14T13:16:51.255Z</time>
      </trkpt>
      <trkpt lat="45.0553" lon="5.95709">
        <ele>1710</ele>
        <time>2020-02-14T13:16:56.000Z</time>
      </trkpt>
      <trkpt lat="45.05526" lon="5.95715">
        <ele>1709</ele>
        <time>2020-02-14T13:16:58.262Z</time>
      </trkpt>
      <trkpt lat="45.05529" lon="5.95726">
        <ele>1713</ele>
        <time>2020-02-14T13:17:12.726Z</time>
      </trkpt>
      <trkpt lat="45.0553" lon="5.95733">
        <ele>1712</ele>
        <time>2020-02-14T13:17:15.988Z</time>
      </trkpt>
      <trkpt lat="45.05527" lon="5.95738">
        <ele>1712</ele>
        <time>2020-02-14T13:17:20.586Z</time>
      </trkpt>
      <trkpt lat="45.05521" lon="5.95743">
        <ele>1710</ele>
        <time>2020-02-14T13:17:28.000Z</time>
      </trkpt>
      <trkpt lat="45.05512" lon="5.9575">
        <ele>1709</ele>
        <time>2020-02-14T13:17:32.000Z</time>
      </trkpt>
      <trkpt lat="45.05505" lon="5.95756">
        <ele>1706</ele>
        <time>2020-02-14T13:17:37.647Z</time>
      </trkpt>
      <trkpt lat="45.055" lon="5.95759">
        <ele>1706</ele>
        <time>2020-02-14T13:17:45.000Z</time>
      </trkpt>
      <trkpt lat="45.05491" lon="5.95767">
        <ele>1707</ele>
        <time>2020-02-14T13:17:53.000Z</time>
      </trkpt>
      <trkpt lat="45.05486" lon="5.95773">
        <ele>1706</ele>
        <time>2020-02-14T13:17:58.698Z</time>
      </trkpt>
      <trkpt lat="45.05476" lon="5.95784">
        <ele>1706</ele>
        <time>2020-02-14T13:18:08.000Z</time>
      </trkpt>
      <trkpt lat="45.05473" lon="5.95788">
        <ele>1705</ele>
        <time>2020-02-14T13:18:15.000Z</time>
      </trkpt>
      <trkpt lat="45.05469" lon="5.95794">
        <ele>1705</ele>
        <time>2020-02-14T13:18:24.961Z</time>
      </trkpt>
      <trkpt lat="45.05467" lon="5.958">
        <ele>1706</ele>
        <time>2020-02-14T13:18:38.661Z</time>
      </trkpt>
      <trkpt lat="45.05461" lon="5.95803">
        <ele>1711</ele>
        <time>2020-02-14T13:19:20.000Z</time>
      </trkpt>
      <trkpt lat="45.05456" lon="5.95803">
        <ele>1710</ele>
        <time>2020-02-14T13:19:24.000Z</time>
      </trkpt>
      <trkpt lat="45.05451" lon="5.95805">
        <ele>1710</ele>
        <time>2020-02-14T13:19:27.000Z</time>
      </trkpt>
      <trkpt lat="45.05447" lon="5.95807">
        <ele>1709</ele>
        <time>2020-02-14T13:19:35.000Z</time>
      </trkpt>
      <trkpt lat="45.05436" lon="5.95815">
        <ele>1708</ele>
        <time>2020-02-14T13:19:37.379Z</time>
      </trkpt>
      <trkpt lat="45.05426" lon="5.95822">
        <ele>1706</ele>
        <time>2020-02-14T13:19:42.000Z</time>
      </trkpt>
      <trkpt lat="45.05416" lon="5.95831">
        <ele>1703</ele>
        <time>2020-02-14T13:19:45.000Z</time>
      </trkpt>
      <trkpt lat="45.05396" lon="5.95848">
        <ele>1702</ele>
        <time>2020-02-14T13:19:49.000Z</time>
      </trkpt>
      <trkpt lat="45.0538" lon="5.95859">
        <ele>1700</ele>
        <time>2020-02-14T13:19:53.000Z</time>
      </trkpt>
      <trkpt lat="45.05368" lon="5.95873">
        <ele>1699</ele>
        <time>2020-02-14T13:19:57.000Z</time>
      </trkpt>
      <trkpt lat="45.05352" lon="5.95895">
        <ele>1697</ele>
        <time>2020-02-14T13:20:01.000Z</time>
      </trkpt>
      <trkpt lat="45.05338" lon="5.95911">
        <ele>1695</ele>
        <time>2020-02-14T13:20:04.000Z</time>
      </trkpt>
      <trkpt lat="45.05328" lon="5.95921">
        <ele>1693</ele>
        <time>2020-02-14T13:20:06.392Z</time>
      </trkpt>
      <trkpt lat="45.05313" lon="5.95928">
        <ele>1691</ele>
        <time>2020-02-14T13:20:09.563Z</time>
      </trkpt>
      <trkpt lat="45.05298" lon="5.95935">
        <ele>1689</ele>
        <time>2020-02-14T13:20:13.064Z</time>
      </trkpt>
      <trkpt lat="45.05289" lon="5.9594">
        <ele>1688</ele>
        <time>2020-02-14T13:20:17.000Z</time>
      </trkpt>
      <trkpt lat="45.05286" lon="5.95954">
        <ele>1688</ele>
        <time>2020-02-14T13:20:21.000Z</time>
      </trkpt>
      <trkpt lat="45.05287" lon="5.95961">
        <ele>1687</ele>
        <time>2020-02-14T13:20:37.000Z</time>
      </trkpt>
      <trkpt lat="45.05282" lon="5.95972">
        <ele>1690</ele>
        <time>2020-02-14T13:20:48.000Z</time>
      </trkpt>
      <trkpt lat="45.05287" lon="5.95975">
        <ele>1689</ele>
        <time>2020-02-14T13:20:58.000Z</time>
      </trkpt>
      <trkpt lat="45.05292" lon="5.95974">
        <ele>1689</ele>
        <time>2020-02-14T13:21:01.000Z</time>
      </trkpt>
      <trkpt lat="45.05299" lon="5.95972">
        <ele>1688</ele>
        <time>2020-02-14T13:21:04.113Z</time>
      </trkpt>
      <trkpt lat="45.0531" lon="5.95967">
        <ele>1686</ele>
        <time>2020-02-14T13:21:12.000Z</time>
      </trkpt>
      <trkpt lat="45.05316" lon="5.95962">
        <ele>1684</ele>
        <time>2020-02-14T13:21:14.718Z</time>
      </trkpt>
      <trkpt lat="45.05333" lon="5.95948">
        <ele>1677</ele>
        <time>2020-02-14T13:21:19.000Z</time>
      </trkpt>
      <trkpt lat="45.05344" lon="5.95936">
        <ele>1677</ele>
        <time>2020-02-14T13:21:21.592Z</time>
      </trkpt>
      <trkpt lat="45.05354" lon="5.95928">
        <ele>1677</ele>
        <time>2020-02-14T13:21:25.045Z</time>
      </trkpt>
      <trkpt lat="45.05362" lon="5.95922">
        <ele>1675</ele>
        <time>2020-02-14T13:21:29.190Z</time>
      </trkpt>
      <trkpt lat="45.05407" lon="5.95913">
        <ele>1673</ele>
        <time>2020-02-14T13:21:33.000Z</time>
      </trkpt>
      <trkpt lat="45.05431" lon="5.95905">
        <ele>1672</ele>
        <time>2020-02-14T13:21:37.000Z</time>
      </trkpt>
      <trkpt lat="45.05447" lon="5.95903">
        <ele>1671</ele>
        <time>2020-02-14T13:21:39.327Z</time>
      </trkpt>
      <trkpt lat="45.05442" lon="5.9591">
        <ele>1669</ele>
        <time>2020-02-14T13:21:46.158Z</time>
      </trkpt>
      <trkpt lat="45.05421" lon="5.95926">
        <ele>1665</ele>
        <time>2020-02-14T13:21:51.000Z</time>
      </trkpt>
      <trkpt lat="45.05401" lon="5.95945">
        <ele>1664</ele>
        <time>2020-02-14T13:21:55.000Z</time>
      </trkpt>
      <trkpt lat="45.05389" lon="5.95961">
        <ele>1663</ele>
        <time>2020-02-14T13:21:57.695Z</time>
      </trkpt>
      <trkpt lat="45.0538" lon="5.95974">
        <ele>1662</ele>
        <time>2020-02-14T13:22:00.713Z</time>
      </trkpt>
      <trkpt lat="45.05369" lon="5.95986">
        <ele>1660</ele>
        <time>2020-02-14T13:22:05.000Z</time>
      </trkpt>
      <trkpt lat="45.05359" lon="5.95997">
        <ele>1659</ele>
        <time>2020-02-14T13:22:07.075Z</time>
      </trkpt>
      <trkpt lat="45.05348" lon="5.96012">
        <ele>1656</ele>
        <time>2020-02-14T13:22:11.000Z</time>
      </trkpt>
      <trkpt lat="45.0534" lon="5.96024">
        <ele>1655</ele>
        <time>2020-02-14T13:22:14.000Z</time>
      </trkpt>
      <trkpt lat="45.05331" lon="5.96044">
        <ele>1654</ele>
        <time>2020-02-14T13:22:17.081Z</time>
      </trkpt>
      <trkpt lat="45.05325" lon="5.9606">
        <ele>1652</ele>
        <time>2020-02-14T13:22:20.297Z</time>
      </trkpt>
      <trkpt lat="45.05319" lon="5.96079">
        <ele>1651</ele>
        <time>2020-02-14T13:22:23.533Z</time>
      </trkpt>
      <trkpt lat="45.05312" lon="5.96104">
        <ele>1648</ele>
        <time>2020-02-14T13:22:28.000Z</time>
      </trkpt>
      <trkpt lat="45.05302" lon="5.9612">
        <ele>1647</ele>
        <time>2020-02-14T13:22:31.000Z</time>
      </trkpt>
      <trkpt lat="45.05286" lon="5.96153">
        <ele>1643</ele>
        <time>2020-02-14T13:22:35.000Z</time>
      </trkpt>
      <trkpt lat="45.05278" lon="5.9616">
        <ele>1640</ele>
        <time>2020-02-14T13:22:38.000Z</time>
      </trkpt>
      <trkpt lat="45.05263" lon="5.96178">
        <ele>1637</ele>
        <time>2020-02-14T13:22:42.000Z</time>
      </trkpt>
      <trkpt lat="45.05256" lon="5.9619">
        <ele>1636</ele>
        <time>2020-02-14T13:22:45.000Z</time>
      </trkpt>
      <trkpt lat="45.0526" lon="5.96197">
        <ele>1636</ele>
        <time>2020-02-14T13:22:48.000Z</time>
      </trkpt>
      <trkpt lat="45.05264" lon="5.96201">
        <ele>1634</ele>
        <time>2020-02-14T13:22:50.479Z</time>
      </trkpt>
      <trkpt lat="45.05272" lon="5.96202">
        <ele>1632</ele>
        <time>2020-02-14T13:22:57.254Z</time>
      </trkpt>
      <trkpt lat="45.05292" lon="5.96191">
        <ele>1630</ele>
        <time>2020-02-14T13:23:02.000Z</time>
      </trkpt>
      <trkpt lat="45.05302" lon="5.96186">
        <ele>1629</ele>
        <time>2020-02-14T13:23:05.000Z</time>
      </trkpt>
      <trkpt lat="45.05314" lon="5.96171">
        <ele>1629</ele>
        <time>2020-02-14T13:23:08.081Z</time>
      </trkpt>
      <trkpt lat="45.05327" lon="5.96156">
        <ele>1628</ele>
        <time>2020-02-14T13:23:12.000Z</time>
      </trkpt>
      <trkpt lat="45.05333" lon="5.96146">
        <ele>1627</ele>
        <time>2020-02-14T13:23:14.357Z</time>
      </trkpt>
      <trkpt lat="45.05347" lon="5.96126">
        <ele>1626</ele>
        <time>2020-02-14T13:23:19.000Z</time>
      </trkpt>
      <trkpt lat="45.05355" lon="5.96111">
        <ele>1626</ele>
        <time>2020-02-14T13:23:22.017Z</time>
      </trkpt>
      <trkpt lat="45.05362" lon="5.961">
        <ele>1625</ele>
        <time>2020-02-14T13:23:26.000Z</time>
      </trkpt>
      <trkpt lat="45.05378" lon="5.96095">
        <ele>1625</ele>
        <time>2020-02-14T13:23:30.000Z</time>
      </trkpt>
      <trkpt lat="45.054" lon="5.96074">
        <ele>1622</ele>
        <time>2020-02-14T13:23:36.135Z</time>
      </trkpt>
      <trkpt lat="45.05418" lon="5.96065">
        <ele>1621</ele>
        <time>2020-02-14T13:23:39.776Z</time>
      </trkpt>
      <trkpt lat="45.05424" lon="5.96063">
        <ele>1620</ele>
        <time>2020-02-14T13:23:42.820Z</time>
      </trkpt>
      <trkpt lat="45.05428" lon="5.96061">
        <ele>1615</ele>
        <time>2020-02-14T13:23:47.000Z</time>
      </trkpt>
      <trkpt lat="45.05434" lon="5.96057">
        <ele>1608</ele>
        <time>2020-02-14T13:23:52.000Z</time>
      </trkpt>
      <trkpt lat="45.05436" lon="5.96044">
        <ele>1608</ele>
        <time>2020-02-14T13:23:54.976Z</time>
      </trkpt>
      <trkpt lat="45.05442" lon="5.96042">
        <ele>1608</ele>
        <time>2020-02-14T13:23:58.019Z</time>
      </trkpt>
      <trkpt lat="45.05453" lon="5.96055">
        <ele>1611</ele>
        <time>2020-02-14T13:24:02.000Z</time>
      </trkpt>
      <trkpt lat="45.0546" lon="5.96069">
        <ele>1611</ele>
        <time>2020-02-14T13:24:05.000Z</time>
      </trkpt>
      <trkpt lat="45.05463" lon="5.96081">
        <ele>1611</ele>
        <time>2020-02-14T13:24:08.132Z</time>
      </trkpt>
      <trkpt lat="45.05464" lon="5.96094">
        <ele>1610</ele>
        <time>2020-02-14T13:24:12.000Z</time>
      </trkpt>
      <trkpt lat="45.05465" lon="5.96103">
        <ele>1609</ele>
        <time>2020-02-14T13:24:15.000Z</time>
      </trkpt>
      <trkpt lat="45.05469" lon="5.9612">
        <ele>1606</ele>
        <time>2020-02-14T13:24:17.775Z</time>
      </trkpt>
      <trkpt lat="45.05474" lon="5.96135">
        <ele>1604</ele>
        <time>2020-02-14T13:24:22.000Z</time>
      </trkpt>
      <trkpt lat="45.05476" lon="5.96151">
        <ele>1602</ele>
        <time>2020-02-14T13:24:25.000Z</time>
      </trkpt>
      <trkpt lat="45.0548" lon="5.96171">
        <ele>1599</ele>
        <time>2020-02-14T13:24:27.820Z</time>
      </trkpt>
      <trkpt lat="45.05485" lon="5.96183">
        <ele>1596</ele>
        <time>2020-02-14T13:24:32.000Z</time>
      </trkpt>
      <trkpt lat="45.0549" lon="5.96194">
        <ele>1593</ele>
        <time>2020-02-14T13:24:35.000Z</time>
      </trkpt>
      <trkpt lat="45.05494" lon="5.96207">
        <ele>1591</ele>
        <time>2020-02-14T13:24:38.000Z</time>
      </trkpt>
      <trkpt lat="45.05498" lon="5.9622">
        <ele>1588</ele>
        <time>2020-02-14T13:24:41.000Z</time>
      </trkpt>
      <trkpt lat="45.05507" lon="5.96235">
        <ele>1585</ele>
        <time>2020-02-14T13:24:44.000Z</time>
      </trkpt>
      <trkpt lat="45.05514" lon="5.96243">
        <ele>1584</ele>
        <time>2020-02-14T13:24:47.000Z</time>
      </trkpt>
      <trkpt lat="45.0552" lon="5.96258">
        <ele>1583</ele>
        <time>2020-02-14T13:24:49.787Z</time>
      </trkpt>
      <trkpt lat="45.05524" lon="5.96266">
        <ele>1581</ele>
        <time>2020-02-14T13:24:54.000Z</time>
      </trkpt>
      <trkpt lat="45.0553" lon="5.96269">
        <ele>1580</ele>
        <time>2020-02-14T13:25:13.000Z</time>
      </trkpt>
      <trkpt lat="45.05536" lon="5.9627">
        <ele>1580</ele>
        <time>2020-02-14T13:25:20.000Z</time>
      </trkpt>
      <trkpt lat="45.05542" lon="5.9627">
        <ele>1574</ele>
        <time>2020-02-14T13:25:43.000Z</time>
      </trkpt>
      <trkpt lat="45.05546" lon="5.96269">
        <ele>1579</ele>
        <time>2020-02-14T13:26:08.000Z</time>
      </trkpt>
      <trkpt lat="45.05542" lon="5.96274">
        <ele>1583</ele>
        <time>2020-02-14T13:28:39.000Z</time>
      </trkpt>
      <trkpt lat="45.05547" lon="5.96276">
        <ele>1581</ele>
        <time>2020-02-14T13:29:10.000Z</time>
      </trkpt>
      <trkpt lat="45.05552" lon="5.9628">
        <ele>1580</ele>
        <time>2020-02-14T13:29:16.002Z</time>
      </trkpt>
      <trkpt lat="45.05556" lon="5.96286">
        <ele>1580</ele>
        <time>2020-02-14T13:29:19.939Z</time>
      </trkpt>
      <trkpt lat="45.05561" lon="5.96296">
        <ele>1579</ele>
        <time>2020-02-14T13:29:26.884Z</time>
      </trkpt>
      <trkpt lat="45.05565" lon="5.96306">
        <ele>1577</ele>
        <time>2020-02-14T13:29:33.211Z</time>
      </trkpt>
      <trkpt lat="45.05568" lon="5.96311">
        <ele>1575</ele>
        <time>2020-02-14T13:29:38.000Z</time>
      </trkpt>
      <trkpt lat="45.05572" lon="5.96317">
        <ele>1575</ele>
        <time>2020-02-14T13:29:42.000Z</time>
      </trkpt>
      <trkpt lat="45.05574" lon="5.96327">
        <ele>1574</ele>
        <time>2020-02-14T13:29:45.456Z</time>
      </trkpt>
      <trkpt lat="45.05579" lon="5.96336">
        <ele>1573</ele>
        <time>2020-02-14T13:29:52.003Z</time>
      </trkpt>
      <trkpt lat="45.05583" lon="5.96341">
        <ele>1572</ele>
        <time>2020-02-14T13:29:59.000Z</time>
      </trkpt>
      <trkpt lat="45.05589" lon="5.96349">
        <ele>1572</ele>
        <time>2020-02-14T13:30:05.154Z</time>
      </trkpt>
      <trkpt lat="45.05593" lon="5.96354">
        <ele>1571</ele>
        <time>2020-02-14T13:30:08.469Z</time>
      </trkpt>
      <trkpt lat="45.05596" lon="5.96359">
        <ele>1570</ele>
        <time>2020-02-14T13:30:13.000Z</time>
      </trkpt>
      <trkpt lat="45.056" lon="5.96364">
        <ele>1570</ele>
        <time>2020-02-14T13:30:16.000Z</time>
      </trkpt>
      <trkpt lat="45.05607" lon="5.9637">
        <ele>1569</ele>
        <time>2020-02-14T13:30:21.615Z</time>
      </trkpt>
      <trkpt lat="45.05613" lon="5.96379">
        <ele>1568</ele>
        <time>2020-02-14T13:30:28.354Z</time>
      </trkpt>
      <trkpt lat="45.05617" lon="5.96389">
        <ele>1567</ele>
        <time>2020-02-14T13:30:35.240Z</time>
      </trkpt>
      <trkpt lat="45.05622" lon="5.96399">
        <ele>1566</ele>
        <time>2020-02-14T13:30:43.000Z</time>
      </trkpt>
      <trkpt lat="45.05628" lon="5.96406">
        <ele>1565</ele>
        <time>2020-02-14T13:30:50.000Z</time>
      </trkpt>
      <trkpt lat="45.05634" lon="5.96412">
        <ele>1564</ele>
        <time>2020-02-14T13:30:56.820Z</time>
      </trkpt>
      <trkpt lat="45.05638" lon="5.96417">
        <ele>1563</ele>
        <time>2020-02-14T13:31:02.000Z</time>
      </trkpt>
      <trkpt lat="45.05642" lon="5.96429">
        <ele>1562</ele>
        <time>2020-02-14T13:31:09.000Z</time>
      </trkpt>
      <trkpt lat="45.05644" lon="5.96438">
        <ele>1561</ele>
        <time>2020-02-14T13:31:12.071Z</time>
      </trkpt>
      <trkpt lat="45.05645" lon="5.96446">
        <ele>1560</ele>
        <time>2020-02-14T13:31:15.734Z</time>
      </trkpt>
      <trkpt lat="45.05646" lon="5.96453">
        <ele>1559</ele>
        <time>2020-02-14T13:31:19.193Z</time>
      </trkpt>
      <trkpt lat="45.05646" lon="5.96461">
        <ele>1559</ele>
        <time>2020-02-14T13:31:22.837Z</time>
      </trkpt>
      <trkpt lat="45.05646" lon="5.96472">
        <ele>1559</ele>
        <time>2020-02-14T13:31:30.000Z</time>
      </trkpt>
      <trkpt lat="45.05649" lon="5.9648">
        <ele>1558</ele>
        <time>2020-02-14T13:31:36.000Z</time>
      </trkpt>
      <trkpt lat="45.05653" lon="5.96489">
        <ele>1558</ele>
        <time>2020-02-14T13:31:42.000Z</time>
      </trkpt>
      <trkpt lat="45.05656" lon="5.965">
        <ele>1557</ele>
        <time>2020-02-14T13:31:47.465Z</time>
      </trkpt>
      <trkpt lat="45.05659" lon="5.96512">
        <ele>1557</ele>
        <time>2020-02-14T13:31:54.079Z</time>
      </trkpt>
      <trkpt lat="45.05662" lon="5.96522">
        <ele>1556</ele>
        <time>2020-02-14T13:32:01.000Z</time>
      </trkpt>
      <trkpt lat="45.05665" lon="5.96533">
        <ele>1554</ele>
        <time>2020-02-14T13:32:07.622Z</time>
      </trkpt>
      <trkpt lat="45.05668" lon="5.96544">
        <ele>1553</ele>
        <time>2020-02-14T13:32:14.180Z</time>
      </trkpt>
      <trkpt lat="45.05667" lon="5.96555">
        <ele>1552</ele>
        <time>2020-02-14T13:32:21.000Z</time>
      </trkpt>
      <trkpt lat="45.05665" lon="5.96567">
        <ele>1551</ele>
        <time>2020-02-14T13:32:28.000Z</time>
      </trkpt>
      <trkpt lat="45.05665" lon="5.96574">
        <ele>1550</ele>
        <time>2020-02-14T13:32:30.583Z</time>
      </trkpt>
      <trkpt lat="45.05667" lon="5.96585">
        <ele>1548</ele>
        <time>2020-02-14T13:32:37.257Z</time>
      </trkpt>
      <trkpt lat="45.05671" lon="5.96589">
        <ele>1547</ele>
        <time>2020-02-14T13:32:40.699Z</time>
      </trkpt>
      <trkpt lat="45.05678" lon="5.9659">
        <ele>1548</ele>
        <time>2020-02-14T13:32:45.000Z</time>
      </trkpt>
      <trkpt lat="45.05683" lon="5.9659">
        <ele>1548</ele>
        <time>2020-02-14T13:32:47.691Z</time>
      </trkpt>
      <trkpt lat="45.05692" lon="5.96591">
        <ele>1548</ele>
        <time>2020-02-14T13:32:54.568Z</time>
      </trkpt>
      <trkpt lat="45.05699" lon="5.96597">
        <ele>1549</ele>
        <time>2020-02-14T13:33:02.000Z</time>
      </trkpt>
      <trkpt lat="45.05706" lon="5.96603">
        <ele>1549</ele>
        <time>2020-02-14T13:33:07.699Z</time>
      </trkpt>
      <trkpt lat="45.05711" lon="5.96611">
        <ele>1548</ele>
        <time>2020-02-14T13:33:14.358Z</time>
      </trkpt>
      <trkpt lat="45.05715" lon="5.96621">
        <ele>1549</ele>
        <time>2020-02-14T13:33:21.155Z</time>
      </trkpt>
      <trkpt lat="45.05714" lon="5.9663">
        <ele>1549</ele>
        <time>2020-02-14T13:33:25.000Z</time>
      </trkpt>
      <trkpt lat="45.05713" lon="5.9664">
        <ele>1548</ele>
        <time>2020-02-14T13:33:27.800Z</time>
      </trkpt>
      <trkpt lat="45.05712" lon="5.96647">
        <ele>1547</ele>
        <time>2020-02-14T13:33:32.000Z</time>
      </trkpt>
      <trkpt lat="45.05712" lon="5.9666">
        <ele>1548</ele>
        <time>2020-02-14T13:33:39.000Z</time>
      </trkpt>
      <trkpt lat="45.05713" lon="5.96668">
        <ele>1548</ele>
        <time>2020-02-14T13:33:42.235Z</time>
      </trkpt>
      <trkpt lat="45.05711" lon="5.96683">
        <ele>1548</ele>
        <time>2020-02-14T13:33:50.000Z</time>
      </trkpt>
      <trkpt lat="45.0571" lon="5.9669">
        <ele>1548</ele>
        <time>2020-02-14T13:33:53.075Z</time>
      </trkpt>
      <trkpt lat="45.05711" lon="5.967">
        <ele>1546</ele>
        <time>2020-02-14T13:34:00.000Z</time>
      </trkpt>
      <trkpt lat="45.05712" lon="5.96709">
        <ele>1544</ele>
        <time>2020-02-14T13:34:06.018Z</time>
      </trkpt>
      <trkpt lat="45.05713" lon="5.9672">
        <ele>1543</ele>
        <time>2020-02-14T13:34:12.430Z</time>
      </trkpt>
      <trkpt lat="45.05716" lon="5.96732">
        <ele>1542</ele>
        <time>2020-02-14T13:34:20.000Z</time>
      </trkpt>
      <trkpt lat="45.05719" lon="5.96737">
        <ele>1542</ele>
        <time>2020-02-14T13:34:22.401Z</time>
      </trkpt>
      <trkpt lat="45.05723" lon="5.96747">
        <ele>1540</ele>
        <time>2020-02-14T13:34:29.315Z</time>
      </trkpt>
      <trkpt lat="45.05727" lon="5.96755">
        <ele>1540</ele>
        <time>2020-02-14T13:34:32.856Z</time>
      </trkpt>
      <trkpt lat="45.0573" lon="5.96762">
        <ele>1540</ele>
        <time>2020-02-14T13:34:36.049Z</time>
      </trkpt>
      <trkpt lat="45.05732" lon="5.9677">
        <ele>1540</ele>
        <time>2020-02-14T13:34:39.352Z</time>
      </trkpt>
      <trkpt lat="45.05733" lon="5.96782">
        <ele>1540</ele>
        <time>2020-02-14T13:34:47.000Z</time>
      </trkpt>
      <trkpt lat="45.05732" lon="5.96793">
        <ele>1539</ele>
        <time>2020-02-14T13:34:52.508Z</time>
      </trkpt>
      <trkpt lat="45.05728" lon="5.96801">
        <ele>1537</ele>
        <time>2020-02-14T13:35:00.000Z</time>
      </trkpt>
      <trkpt lat="45.05724" lon="5.96806">
        <ele>1537</ele>
        <time>2020-02-14T13:35:08.000Z</time>
      </trkpt>
      <trkpt lat="45.0572" lon="5.9681">
        <ele>1537</ele>
        <time>2020-02-14T13:35:28.000Z</time>
      </trkpt>
      <trkpt lat="45.05725" lon="5.96808">
        <ele>1540</ele>
        <time>2020-02-14T13:41:56.000Z</time>
      </trkpt>
      <trkpt lat="45.05722" lon="5.96803">
        <ele>1540</ele>
        <time>2020-02-14T13:53:33.000Z</time>
      </trkpt>
      <trkpt lat="45.05723" lon="5.96809">
        <ele>1540</ele>
        <time>2020-02-14T13:57:01.000Z</time>
      </trkpt>
      <trkpt lat="45.05727" lon="5.96814">
        <ele>1542</ele>
        <time>2020-02-14T13:57:49.000Z</time>
      </trkpt>
      <trkpt lat="45.05732" lon="5.96813">
        <ele>1541</ele>
        <time>2020-02-14T13:58:16.000Z</time>
      </trkpt>
      <trkpt lat="45.05736" lon="5.96818">
        <ele>1542</ele>
        <time>2020-02-14T13:58:21.539Z</time>
      </trkpt>
      <trkpt lat="45.05742" lon="5.96824">
        <ele>1542</ele>
        <time>2020-02-14T13:58:28.701Z</time>
      </trkpt>
      <trkpt lat="45.05748" lon="5.96829">
        <ele>1540</ele>
        <time>2020-02-14T13:58:36.000Z</time>
      </trkpt>
      <trkpt lat="45.05754" lon="5.96834">
        <ele>1539</ele>
        <time>2020-02-14T13:58:43.000Z</time>
      </trkpt>
      <trkpt lat="45.05761" lon="5.9684">
        <ele>1537</ele>
        <time>2020-02-14T13:58:50.000Z</time>
      </trkpt>
      <trkpt lat="45.05766" lon="5.96846">
        <ele>1535</ele>
        <time>2020-02-14T13:58:55.602Z</time>
      </trkpt>
      <trkpt lat="45.05769" lon="5.96853">
        <ele>1533</ele>
        <time>2020-02-14T13:59:02.478Z</time>
      </trkpt>
      <trkpt lat="45.0577" lon="5.96863">
        <ele>1531</ele>
        <time>2020-02-14T13:59:12.898Z</time>
      </trkpt>
      <trkpt lat="45.05772" lon="5.9687">
        <ele>1531</ele>
        <time>2020-02-14T13:59:27.000Z</time>
      </trkpt>
      <trkpt lat="45.05766" lon="5.96874">
        <ele>1527</ele>
        <time>2020-02-14T13:59:47.155Z</time>
      </trkpt>
      <trkpt lat="45.0576" lon="5.96876">
        <ele>1525</ele>
        <time>2020-02-14T13:59:53.262Z</time>
      </trkpt>
      <trkpt lat="45.05756" lon="5.9688">
        <ele>1524</ele>
        <time>2020-02-14T13:59:56.817Z</time>
      </trkpt>
      <trkpt lat="45.05749" lon="5.96884">
        <ele>1522</ele>
        <time>2020-02-14T14:00:03.917Z</time>
      </trkpt>
      <trkpt lat="45.05743" lon="5.96888">
        <ele>1521</ele>
        <time>2020-02-14T14:00:12.000Z</time>
      </trkpt>
      <trkpt lat="45.05737" lon="5.96892">
        <ele>1518</ele>
        <time>2020-02-14T14:00:17.662Z</time>
      </trkpt>
      <trkpt lat="45.0573" lon="5.969">
        <ele>1516</ele>
        <time>2020-02-14T14:00:24.279Z</time>
      </trkpt>
      <trkpt lat="45.05725" lon="5.96908">
        <ele>1514</ele>
        <time>2020-02-14T14:00:31.076Z</time>
      </trkpt>
      <trkpt lat="45.05719" lon="5.96916">
        <ele>1512</ele>
        <time>2020-02-14T14:00:37.698Z</time>
      </trkpt>
      <trkpt lat="45.05716" lon="5.9692">
        <ele>1511</ele>
        <time>2020-02-14T14:00:41.109Z</time>
      </trkpt>
      <trkpt lat="45.0571" lon="5.96927">
        <ele>1511</ele>
        <time>2020-02-14T14:00:48.033Z</time>
      </trkpt>
      <trkpt lat="45.05705" lon="5.96936">
        <ele>1509</ele>
        <time>2020-02-14T14:00:54.551Z</time>
      </trkpt>
      <trkpt lat="45.05702" lon="5.96944">
        <ele>1508</ele>
        <time>2020-02-14T14:01:01.107Z</time>
      </trkpt>
      <trkpt lat="45.05699" lon="5.96951">
        <ele>1509</ele>
        <time>2020-02-14T14:01:04.660Z</time>
      </trkpt>
      <trkpt lat="45.05698" lon="5.96957">
        <ele>1511</ele>
        <time>2020-02-14T14:01:07.744Z</time>
      </trkpt>
      <trkpt lat="45.05699" lon="5.96968">
        <ele>1514</ele>
        <time>2020-02-14T14:01:13.890Z</time>
      </trkpt>
      <trkpt lat="45.057" lon="5.96979">
        <ele>1516</ele>
        <time>2020-02-14T14:01:20.595Z</time>
      </trkpt>
      <trkpt lat="45.05702" lon="5.96985">
        <ele>1516</ele>
        <time>2020-02-14T14:01:25.000Z</time>
      </trkpt>
      <trkpt lat="45.05704" lon="5.96991">
        <ele>1515</ele>
        <time>2020-02-14T14:01:27.787Z</time>
      </trkpt>
      <trkpt lat="45.05709" lon="5.96999">
        <ele>1515</ele>
        <time>2020-02-14T14:01:35.000Z</time>
      </trkpt>
      <trkpt lat="45.0571" lon="5.97005">
        <ele>1515</ele>
        <time>2020-02-14T14:01:38.000Z</time>
      </trkpt>
      <trkpt lat="45.05715" lon="5.97016">
        <ele>1515</ele>
        <time>2020-02-14T14:01:45.000Z</time>
      </trkpt>
      <trkpt lat="45.05721" lon="5.97024">
        <ele>1514</ele>
        <time>2020-02-14T14:01:51.160Z</time>
      </trkpt>
      <trkpt lat="45.05726" lon="5.97032">
        <ele>1513</ele>
        <time>2020-02-14T14:01:58.137Z</time>
      </trkpt>
      <trkpt lat="45.05729" lon="5.97043">
        <ele>1512</ele>
        <time>2020-02-14T14:02:04.845Z</time>
      </trkpt>
      <trkpt lat="45.05731" lon="5.97049">
        <ele>1512</ele>
        <time>2020-02-14T14:02:09.000Z</time>
      </trkpt>
      <trkpt lat="45.05734" lon="5.97055">
        <ele>1512</ele>
        <time>2020-02-14T14:02:12.000Z</time>
      </trkpt>
      <trkpt lat="45.05737" lon="5.97061">
        <ele>1512</ele>
        <time>2020-02-14T14:02:14.915Z</time>
      </trkpt>
      <trkpt lat="45.05741" lon="5.97069">
        <ele>1511</ele>
        <time>2020-02-14T14:02:21.081Z</time>
      </trkpt>
      <trkpt lat="45.05745" lon="5.9708">
        <ele>1511</ele>
        <time>2020-02-14T14:02:27.670Z</time>
      </trkpt>
      <trkpt lat="45.05747" lon="5.97087">
        <ele>1511</ele>
        <time>2020-02-14T14:02:32.000Z</time>
      </trkpt>
      <trkpt lat="45.0575" lon="5.97095">
        <ele>1511</ele>
        <time>2020-02-14T14:02:37.618Z</time>
      </trkpt>
      <trkpt lat="45.05754" lon="5.97102">
        <ele>1511</ele>
        <time>2020-02-14T14:02:40.634Z</time>
      </trkpt>
      <trkpt lat="45.05759" lon="5.97109">
        <ele>1510</ele>
        <time>2020-02-14T14:02:46.953Z</time>
      </trkpt>
      <trkpt lat="45.05762" lon="5.97118">
        <ele>1509</ele>
        <time>2020-02-14T14:02:53.072Z</time>
      </trkpt>
      <trkpt lat="45.05765" lon="5.97128">
        <ele>1509</ele>
        <time>2020-02-14T14:02:59.397Z</time>
      </trkpt>
      <trkpt lat="45.05771" lon="5.97135">
        <ele>1507</ele>
        <time>2020-02-14T14:03:05.918Z</time>
      </trkpt>
      <trkpt lat="45.05777" lon="5.97143">
        <ele>1506</ele>
        <time>2020-02-14T14:03:12.188Z</time>
      </trkpt>
      <trkpt lat="45.05782" lon="5.97153">
        <ele>1505</ele>
        <time>2020-02-14T14:03:20.000Z</time>
      </trkpt>
      <trkpt lat="45.05788" lon="5.97159">
        <ele>1502</ele>
        <time>2020-02-14T14:03:25.697Z</time>
      </trkpt>
      <trkpt lat="45.05794" lon="5.97165">
        <ele>1501</ele>
        <time>2020-02-14T14:03:32.083Z</time>
      </trkpt>
      <trkpt lat="45.058" lon="5.97173">
        <ele>1499</ele>
        <time>2020-02-14T14:03:40.000Z</time>
      </trkpt>
      <trkpt lat="45.05803" lon="5.97179">
        <ele>1497</ele>
        <time>2020-02-14T14:03:42.880Z</time>
      </trkpt>
      <trkpt lat="45.05806" lon="5.97185">
        <ele>1497</ele>
        <time>2020-02-14T14:03:46.450Z</time>
      </trkpt>
      <trkpt lat="45.05808" lon="5.97195">
        <ele>1496</ele>
        <time>2020-02-14T14:03:54.000Z</time>
      </trkpt>
      <trkpt lat="45.05808" lon="5.97206">
        <ele>1493</ele>
        <time>2020-02-14T14:04:04.000Z</time>
      </trkpt>
      <trkpt lat="45.05807" lon="5.97212">
        <ele>1496</ele>
        <time>2020-02-14T14:04:11.000Z</time>
      </trkpt>
      <trkpt lat="45.05803" lon="5.9722">
        <ele>1494</ele>
        <time>2020-02-14T14:04:21.000Z</time>
      </trkpt>
      <trkpt lat="45.058" lon="5.9723">
        <ele>1492</ele>
        <time>2020-02-14T14:04:26.422Z</time>
      </trkpt>
      <trkpt lat="45.05798" lon="5.97236">
        <ele>1491</ele>
        <time>2020-02-14T14:04:29.763Z</time>
      </trkpt>
      <trkpt lat="45.05795" lon="5.97248">
        <ele>1489</ele>
        <time>2020-02-14T14:04:36.568Z</time>
      </trkpt>
      <trkpt lat="45.05797" lon="5.9726">
        <ele>1489</ele>
        <time>2020-02-14T14:04:43.699Z</time>
      </trkpt>
      <trkpt lat="45.05801" lon="5.97269">
        <ele>1490</ele>
        <time>2020-02-14T14:04:51.000Z</time>
      </trkpt>
      <trkpt lat="45.05805" lon="5.97274">
        <ele>1489</ele>
        <time>2020-02-14T14:04:56.859Z</time>
      </trkpt>
      <trkpt lat="45.05811" lon="5.97282">
        <ele>1488</ele>
        <time>2020-02-14T14:05:05.000Z</time>
      </trkpt>
      <trkpt lat="45.05816" lon="5.97292">
        <ele>1487</ele>
        <time>2020-02-14T14:05:10.612Z</time>
      </trkpt>
      <trkpt lat="45.05819" lon="5.97297">
        <ele>1487</ele>
        <time>2020-02-14T14:05:15.000Z</time>
      </trkpt>
      <trkpt lat="45.05824" lon="5.97306">
        <ele>1487</ele>
        <time>2020-02-14T14:05:20.890Z</time>
      </trkpt>
      <trkpt lat="45.05828" lon="5.97312">
        <ele>1487</ele>
        <time>2020-02-14T14:05:25.000Z</time>
      </trkpt>
      <trkpt lat="45.05834" lon="5.9732">
        <ele>1485</ele>
        <time>2020-02-14T14:05:30.853Z</time>
      </trkpt>
      <trkpt lat="45.05839" lon="5.97331">
        <ele>1485</ele>
        <time>2020-02-14T14:05:37.401Z</time>
      </trkpt>
      <trkpt lat="45.0584" lon="5.97339">
        <ele>1485</ele>
        <time>2020-02-14T14:05:40.764Z</time>
      </trkpt>
      <trkpt lat="45.0584" lon="5.97347">
        <ele>1485</ele>
        <time>2020-02-14T14:05:45.000Z</time>
      </trkpt>
      <trkpt lat="45.0584" lon="5.97359">
        <ele>1484</ele>
        <time>2020-02-14T14:05:51.000Z</time>
      </trkpt>
      <trkpt lat="45.05839" lon="5.97367">
        <ele>1483</ele>
        <time>2020-02-14T14:05:53.506Z</time>
      </trkpt>
      <trkpt lat="45.05839" lon="5.97374">
        <ele>1483</ele>
        <time>2020-02-14T14:05:58.000Z</time>
      </trkpt>
      <trkpt lat="45.0584" lon="5.97381">
        <ele>1482</ele>
        <time>2020-02-14T14:06:01.000Z</time>
      </trkpt>
      <trkpt lat="45.05841" lon="5.97392">
        <ele>1481</ele>
        <time>2020-02-14T14:06:06.514Z</time>
      </trkpt>
      <trkpt lat="45.0584" lon="5.97403">
        <ele>1479</ele>
        <time>2020-02-14T14:06:14.000Z</time>
      </trkpt>
      <trkpt lat="45.05841" lon="5.9741">
        <ele>1479</ele>
        <time>2020-02-14T14:06:18.000Z</time>
      </trkpt>
      <trkpt lat="45.0584" lon="5.97418">
        <ele>1477</ele>
        <time>2020-02-14T14:06:20.696Z</time>
      </trkpt>
      <trkpt lat="45.05835" lon="5.97425">
        <ele>1475</ele>
        <time>2020-02-14T14:06:28.000Z</time>
      </trkpt>
      <trkpt lat="45.05831" lon="5.97429">
        <ele>1474</ele>
        <time>2020-02-14T14:06:30.833Z</time>
      </trkpt>
      <trkpt lat="45.05826" lon="5.97431">
        <ele>1471</ele>
        <time>2020-02-14T14:06:34.418Z</time>
      </trkpt>
      <trkpt lat="45.05819" lon="5.97432">
        <ele>1470</ele>
        <time>2020-02-14T14:06:40.618Z</time>
      </trkpt>
      <trkpt lat="45.05814" lon="5.97433">
        <ele>1469</ele>
        <time>2020-02-14T14:06:43.959Z</time>
      </trkpt>
      <trkpt lat="45.0581" lon="5.97437">
        <ele>1471</ele>
        <time>2020-02-14T14:07:10.000Z</time>
      </trkpt>
      <trkpt lat="45.05815" lon="5.97438">
        <ele>1473</ele>
        <time>2020-02-14T14:07:20.000Z</time>
      </trkpt>
      <trkpt lat="45.05809" lon="5.97439">
        <ele>1480</ele>
        <time>2020-02-14T14:08:43.000Z</time>
      </trkpt>
      <trkpt lat="45.05804" lon="5.97438">
        <ele>1479</ele>
        <time>2020-02-14T14:08:49.638Z</time>
      </trkpt>
      <trkpt lat="45.05799" lon="5.97433">
        <ele>1477</ele>
        <time>2020-02-14T14:08:56.873Z</time>
      </trkpt>
      <trkpt lat="45.05789" lon="5.97431">
        <ele>1474</ele>
        <time>2020-02-14T14:09:04.000Z</time>
      </trkpt>
      <trkpt lat="45.05781" lon="5.97427">
        <ele>1475</ele>
        <time>2020-02-14T14:09:10.530Z</time>
      </trkpt>
      <trkpt lat="45.05774" lon="5.97428">
        <ele>1470</ele>
        <time>2020-02-14T14:09:18.000Z</time>
      </trkpt>
      <trkpt lat="45.05767" lon="5.9743">
        <ele>1467</ele>
        <time>2020-02-14T14:09:24.124Z</time>
      </trkpt>
      <trkpt lat="45.0576" lon="5.97434">
        <ele>1464</ele>
        <time>2020-02-14T14:09:30.561Z</time>
      </trkpt>
      <trkpt lat="45.05755" lon="5.97439">
        <ele>1462</ele>
        <time>2020-02-14T14:09:38.000Z</time>
      </trkpt>
      <trkpt lat="45.0575" lon="5.97435">
        <ele>1461</ele>
        <time>2020-02-14T14:09:40.515Z</time>
      </trkpt>
      <trkpt lat="45.05745" lon="5.97432">
        <ele>1460</ele>
        <time>2020-02-14T14:09:45.000Z</time>
      </trkpt>
      <trkpt lat="45.05739" lon="5.97433">
        <ele>1459</ele>
        <time>2020-02-14T14:09:47.758Z</time>
      </trkpt>
      <trkpt lat="45.05734" lon="5.97433">
        <ele>1458</ele>
        <time>2020-02-14T14:09:52.000Z</time>
      </trkpt>
      <trkpt lat="45.05729" lon="5.97433">
        <ele>1458</ele>
        <time>2020-02-14T14:09:54.583Z</time>
      </trkpt>
      <trkpt lat="45.0572" lon="5.97433">
        <ele>1459</ele>
        <time>2020-02-14T14:10:01.171Z</time>
      </trkpt>
      <trkpt lat="45.05716" lon="5.97433">
        <ele>1459</ele>
        <time>2020-02-14T14:10:04.494Z</time>
      </trkpt>
      <trkpt lat="45.0571" lon="5.97435">
        <ele>1457</ele>
        <time>2020-02-14T14:10:07.807Z</time>
      </trkpt>
      <trkpt lat="45.05704" lon="5.97435">
        <ele>1456</ele>
        <time>2020-02-14T14:10:11.308Z</time>
      </trkpt>
      <trkpt lat="45.05699" lon="5.97435">
        <ele>1456</ele>
        <time>2020-02-14T14:10:14.441Z</time>
      </trkpt>
      <trkpt lat="45.05694" lon="5.97434">
        <ele>1456</ele>
        <time>2020-02-14T14:10:18.610Z</time>
      </trkpt>
      <trkpt lat="45.05687" lon="5.97431">
        <ele>1456</ele>
        <time>2020-02-14T14:10:25.334Z</time>
      </trkpt>
      <trkpt lat="45.0568" lon="5.97428">
        <ele>1456</ele>
        <time>2020-02-14T14:10:33.000Z</time>
      </trkpt>
      <trkpt lat="45.05674" lon="5.97427">
        <ele>1457</ele>
        <time>2020-02-14T14:10:35.630Z</time>
      </trkpt>
      <trkpt lat="45.0567" lon="5.97426">
        <ele>1457</ele>
        <time>2020-02-14T14:10:44.000Z</time>
      </trkpt>
      <trkpt lat="45.05663" lon="5.97426">
        <ele>1458</ele>
        <time>2020-02-14T14:11:05.932Z</time>
      </trkpt>
      <trkpt lat="45.05656" lon="5.97423">
        <ele>1457</ele>
        <time>2020-02-14T14:11:12.539Z</time>
      </trkpt>
      <trkpt lat="45.05651" lon="5.97422">
        <ele>1456</ele>
        <time>2020-02-14T14:11:17.000Z</time>
      </trkpt>
      <trkpt lat="45.05641" lon="5.97418">
        <ele>1456</ele>
        <time>2020-02-14T14:11:22.319Z</time>
      </trkpt>
      <trkpt lat="45.05635" lon="5.97416">
        <ele>1456</ele>
        <time>2020-02-14T14:11:25.793Z</time>
      </trkpt>
      <trkpt lat="45.05628" lon="5.97412">
        <ele>1457</ele>
        <time>2020-02-14T14:11:32.338Z</time>
      </trkpt>
      <trkpt lat="45.05621" lon="5.97412">
        <ele>1455</ele>
        <time>2020-02-14T14:11:40.000Z</time>
      </trkpt>
      <trkpt lat="45.05613" lon="5.97414">
        <ele>1451</ele>
        <time>2020-02-14T14:11:45.630Z</time>
      </trkpt>
      <trkpt lat="45.05606" lon="5.97416">
        <ele>1446</ele>
        <time>2020-02-14T14:11:52.911Z</time>
      </trkpt>
      <trkpt lat="45.05598" lon="5.97417">
        <ele>1444</ele>
        <time>2020-02-14T14:11:59.786Z</time>
      </trkpt>
      <trkpt lat="45.05589" lon="5.9742">
        <ele>1443</ele>
        <time>2020-02-14T14:12:06.612Z</time>
      </trkpt>
      <trkpt lat="45.05581" lon="5.97419">
        <ele>1441</ele>
        <time>2020-02-14T14:12:14.000Z</time>
      </trkpt>
      <trkpt lat="45.05572" lon="5.97421">
        <ele>1441</ele>
        <time>2020-02-14T14:12:19.436Z</time>
      </trkpt>
      <trkpt lat="45.05562" lon="5.9742">
        <ele>1442</ele>
        <time>2020-02-14T14:12:26.292Z</time>
      </trkpt>
      <trkpt lat="45.05557" lon="5.9742">
        <ele>1442</ele>
        <time>2020-02-14T14:12:29.575Z</time>
      </trkpt>
      <trkpt lat="45.05551" lon="5.9742">
        <ele>1442</ele>
        <time>2020-02-14T14:12:34.000Z</time>
      </trkpt>
      <trkpt lat="45.05545" lon="5.9742">
        <ele>1442</ele>
        <time>2020-02-14T14:12:39.510Z</time>
      </trkpt>
      <trkpt lat="45.05546" lon="5.97427">
        <ele>1438</ele>
        <time>2020-02-14T14:12:56.732Z</time>
      </trkpt>
      <trkpt lat="45.05547" lon="5.97435">
        <ele>1443</ele>
        <time>2020-02-14T14:13:26.688Z</time>
      </trkpt>
    </trkseg>
  </trk>
</gpx>